<?xml version="1.0" encoding="UTF-8" standalone="no" ?>
<gpx xmlns="http://www.topografix.com/GPX/1/1" xmlns:xsi="http://www.w3.org/2001/XMLSchema-instance" xsi:schemaLocation="http://www.topografix.com/GPX/1/1 http://www.topografix.com/GPX/1/1/gpx.xsd" version="1.1" creator="VisuGPX - https://www.visugpx.com">
  <metadata>
    <name>Scarpe Canalisée.</name>
  </metadata>
  <trk>
    <name><![CDATA[Parcours du 2022-03-22 14:56:47]]></name>
    <extensions>
      <line xmlns="http://www.topografix.com/GPX/gpx_style/0/2">
        <color>0000FF</color>
        <width>4</width>
      </line>
    </extensions>
    <trkseg>
      <trkpt lat="50.45003" lon="3.52619">
        <ele>28.9</ele>
        <time>2022-03-22T13:56:56.674Z</time>
      </trkpt>
      <trkpt lat="50.45014" lon="3.5261">
        <ele>28.5</ele>
        <time>2022-03-22T13:56:57.037Z</time>
      </trkpt>
      <trkpt lat="50.4502" lon="3.52606">
        <ele>28.2</ele>
        <time>2022-03-22T13:56:58.000Z</time>
      </trkpt>
      <trkpt lat="50.45025" lon="3.52602">
        <ele>28.1</ele>
        <time>2022-03-22T13:56:59.058Z</time>
      </trkpt>
      <trkpt lat="50.45034" lon="3.52594">
        <ele>27.9</ele>
        <time>2022-03-22T13:57:00.436Z</time>
      </trkpt>
      <trkpt lat="50.45042" lon="3.52587">
        <ele>27.6</ele>
        <time>2022-03-22T13:57:02.000Z</time>
      </trkpt>
      <trkpt lat="50.45052" lon="3.52576">
        <ele>27.1</ele>
        <time>2022-03-22T13:57:03.000Z</time>
      </trkpt>
      <trkpt lat="50.45057" lon="3.52569">
        <ele>27</ele>
        <time>2022-03-22T13:57:04.000Z</time>
      </trkpt>
      <trkpt lat="50.45063" lon="3.52562">
        <ele>26.8</ele>
        <time>2022-03-22T13:57:05.000Z</time>
      </trkpt>
      <trkpt lat="50.45067" lon="3.52554">
        <ele>26.5</ele>
        <time>2022-03-22T13:57:06.000Z</time>
      </trkpt>
      <trkpt lat="50.45072" lon="3.52547">
        <ele>26.1</ele>
        <time>2022-03-22T13:57:07.000Z</time>
      </trkpt>
      <trkpt lat="50.45076" lon="3.52539">
        <ele>25.7</ele>
        <time>2022-03-22T13:57:08.000Z</time>
      </trkpt>
      <trkpt lat="50.45081" lon="3.52532">
        <ele>25.2</ele>
        <time>2022-03-22T13:57:09.000Z</time>
      </trkpt>
      <trkpt lat="50.45086" lon="3.52524">
        <ele>24.9</ele>
        <time>2022-03-22T13:57:10.000Z</time>
      </trkpt>
      <trkpt lat="50.45091" lon="3.52516">
        <ele>24.6</ele>
        <time>2022-03-22T13:57:11.000Z</time>
      </trkpt>
      <trkpt lat="50.45094" lon="3.5251">
        <ele>24.4</ele>
        <time>2022-03-22T13:57:12.000Z</time>
      </trkpt>
      <trkpt lat="50.45098" lon="3.52505">
        <ele>24.2</ele>
        <time>2022-03-22T13:57:13.542Z</time>
      </trkpt>
      <trkpt lat="50.45102" lon="3.52494">
        <ele>23.9</ele>
        <time>2022-03-22T13:57:16.000Z</time>
      </trkpt>
      <trkpt lat="50.45105" lon="3.52488">
        <ele>23.7</ele>
        <time>2022-03-22T13:57:17.000Z</time>
      </trkpt>
      <trkpt lat="50.45107" lon="3.52482">
        <ele>23.4</ele>
        <time>2022-03-22T13:57:18.000Z</time>
      </trkpt>
      <trkpt lat="50.4511" lon="3.52475">
        <ele>23.1</ele>
        <time>2022-03-22T13:57:19.000Z</time>
      </trkpt>
      <trkpt lat="50.45114" lon="3.52468">
        <ele>22.7</ele>
        <time>2022-03-22T13:57:20.000Z</time>
      </trkpt>
      <trkpt lat="50.45117" lon="3.52463">
        <ele>22.5</ele>
        <time>2022-03-22T13:57:21.000Z</time>
      </trkpt>
      <trkpt lat="50.45118" lon="3.52454">
        <ele>22.1</ele>
        <time>2022-03-22T13:57:23.049Z</time>
      </trkpt>
      <trkpt lat="50.45114" lon="3.52447">
        <ele>22</ele>
        <time>2022-03-22T13:57:25.000Z</time>
      </trkpt>
      <trkpt lat="50.45108" lon="3.52442">
        <ele>22</ele>
        <time>2022-03-22T13:57:27.000Z</time>
      </trkpt>
      <trkpt lat="50.45104" lon="3.52434">
        <ele>21.9</ele>
        <time>2022-03-22T13:57:29.000Z</time>
      </trkpt>
      <trkpt lat="50.45095" lon="3.52426">
        <ele>21.9</ele>
        <time>2022-03-22T13:57:32.000Z</time>
      </trkpt>
      <trkpt lat="50.45089" lon="3.52421">
        <ele>22</ele>
        <time>2022-03-22T13:57:34.000Z</time>
      </trkpt>
      <trkpt lat="50.45084" lon="3.52415">
        <ele>21.9</ele>
        <time>2022-03-22T13:57:36.000Z</time>
      </trkpt>
      <trkpt lat="50.45079" lon="3.52408">
        <ele>21.8</ele>
        <time>2022-03-22T13:57:38.000Z</time>
      </trkpt>
      <trkpt lat="50.45073" lon="3.52402">
        <ele>21.8</ele>
        <time>2022-03-22T13:57:40.007Z</time>
      </trkpt>
      <trkpt lat="50.45067" lon="3.52396">
        <ele>21.8</ele>
        <time>2022-03-22T13:57:42.000Z</time>
      </trkpt>
      <trkpt lat="50.45061" lon="3.5239">
        <ele>21.8</ele>
        <time>2022-03-22T13:57:44.000Z</time>
      </trkpt>
      <trkpt lat="50.45055" lon="3.52384">
        <ele>21.8</ele>
        <time>2022-03-22T13:57:46.000Z</time>
      </trkpt>
      <trkpt lat="50.45051" lon="3.52377">
        <ele>21.6</ele>
        <time>2022-03-22T13:57:48.000Z</time>
      </trkpt>
      <trkpt lat="50.45045" lon="3.52369">
        <ele>21.3</ele>
        <time>2022-03-22T13:57:50.088Z</time>
      </trkpt>
      <trkpt lat="50.45038" lon="3.52363">
        <ele>21.1</ele>
        <time>2022-03-22T13:57:51.931Z</time>
      </trkpt>
      <trkpt lat="50.45032" lon="3.52357">
        <ele>20.9</ele>
        <time>2022-03-22T13:57:53.000Z</time>
      </trkpt>
      <trkpt lat="50.45028" lon="3.52352">
        <ele>20.7</ele>
        <time>2022-03-22T13:57:54.000Z</time>
      </trkpt>
      <trkpt lat="50.45024" lon="3.52347">
        <ele>20.5</ele>
        <time>2022-03-22T13:57:55.000Z</time>
      </trkpt>
      <trkpt lat="50.45019" lon="3.52342">
        <ele>20.3</ele>
        <time>2022-03-22T13:57:56.000Z</time>
      </trkpt>
      <trkpt lat="50.45015" lon="3.52338">
        <ele>20.2</ele>
        <time>2022-03-22T13:57:57.000Z</time>
      </trkpt>
      <trkpt lat="50.45011" lon="3.52333">
        <ele>20</ele>
        <time>2022-03-22T13:57:58.000Z</time>
      </trkpt>
      <trkpt lat="50.45006" lon="3.52328">
        <ele>20</ele>
        <time>2022-03-22T13:57:59.000Z</time>
      </trkpt>
      <trkpt lat="50.45002" lon="3.52323">
        <ele>20</ele>
        <time>2022-03-22T13:58:00.000Z</time>
      </trkpt>
      <trkpt lat="50.44997" lon="3.52318">
        <ele>20</ele>
        <time>2022-03-22T13:58:01.000Z</time>
      </trkpt>
      <trkpt lat="50.44993" lon="3.52313">
        <ele>20</ele>
        <time>2022-03-22T13:58:02.000Z</time>
      </trkpt>
      <trkpt lat="50.44988" lon="3.52309">
        <ele>20</ele>
        <time>2022-03-22T13:58:03.000Z</time>
      </trkpt>
      <trkpt lat="50.44983" lon="3.52309">
        <ele>20</ele>
        <time>2022-03-22T13:58:04.000Z</time>
      </trkpt>
      <trkpt lat="50.44979" lon="3.52312">
        <ele>20</ele>
        <time>2022-03-22T13:58:05.000Z</time>
      </trkpt>
      <trkpt lat="50.44975" lon="3.52319">
        <ele>20</ele>
        <time>2022-03-22T13:58:06.000Z</time>
      </trkpt>
      <trkpt lat="50.44973" lon="3.52328">
        <ele>20</ele>
        <time>2022-03-22T13:58:07.000Z</time>
      </trkpt>
      <trkpt lat="50.4497" lon="3.52335">
        <ele>20.1</ele>
        <time>2022-03-22T13:58:08.000Z</time>
      </trkpt>
      <trkpt lat="50.44966" lon="3.52342">
        <ele>20.3</ele>
        <time>2022-03-22T13:58:09.000Z</time>
      </trkpt>
      <trkpt lat="50.44963" lon="3.52348">
        <ele>20.5</ele>
        <time>2022-03-22T13:58:10.000Z</time>
      </trkpt>
      <trkpt lat="50.4496" lon="3.52354">
        <ele>20.7</ele>
        <time>2022-03-22T13:58:11.000Z</time>
      </trkpt>
      <trkpt lat="50.44957" lon="3.52361">
        <ele>21</ele>
        <time>2022-03-22T13:58:12.000Z</time>
      </trkpt>
      <trkpt lat="50.44954" lon="3.52368">
        <ele>21.2</ele>
        <time>2022-03-22T13:58:13.000Z</time>
      </trkpt>
      <trkpt lat="50.44951" lon="3.52373">
        <ele>21.4</ele>
        <time>2022-03-22T13:58:14.000Z</time>
      </trkpt>
      <trkpt lat="50.44947" lon="3.52383">
        <ele>21.8</ele>
        <time>2022-03-22T13:58:16.000Z</time>
      </trkpt>
      <trkpt lat="50.44942" lon="3.52392">
        <ele>22.1</ele>
        <time>2022-03-22T13:58:18.000Z</time>
      </trkpt>
      <trkpt lat="50.44936" lon="3.52399">
        <ele>22.4</ele>
        <time>2022-03-22T13:58:20.000Z</time>
      </trkpt>
      <trkpt lat="50.4493" lon="3.52404">
        <ele>22.5</ele>
        <time>2022-03-22T13:58:22.000Z</time>
      </trkpt>
      <trkpt lat="50.44923" lon="3.52406">
        <ele>22.6</ele>
        <time>2022-03-22T13:58:24.000Z</time>
      </trkpt>
      <trkpt lat="50.44915" lon="3.52401">
        <ele>22.4</ele>
        <time>2022-03-22T13:58:26.000Z</time>
      </trkpt>
      <trkpt lat="50.44907" lon="3.52395">
        <ele>22.2</ele>
        <time>2022-03-22T13:58:28.000Z</time>
      </trkpt>
      <trkpt lat="50.44902" lon="3.52391">
        <ele>22.1</ele>
        <time>2022-03-22T13:58:29.000Z</time>
      </trkpt>
      <trkpt lat="50.44897" lon="3.52387">
        <ele>21.9</ele>
        <time>2022-03-22T13:58:30.000Z</time>
      </trkpt>
      <trkpt lat="50.44893" lon="3.52384">
        <ele>21.8</ele>
        <time>2022-03-22T13:58:31.000Z</time>
      </trkpt>
      <trkpt lat="50.44888" lon="3.52381">
        <ele>21.7</ele>
        <time>2022-03-22T13:58:32.000Z</time>
      </trkpt>
      <trkpt lat="50.44883" lon="3.52379">
        <ele>21.6</ele>
        <time>2022-03-22T13:58:33.000Z</time>
      </trkpt>
      <trkpt lat="50.44878" lon="3.52376">
        <ele>21.5</ele>
        <time>2022-03-22T13:58:34.000Z</time>
      </trkpt>
      <trkpt lat="50.44873" lon="3.52373">
        <ele>21.4</ele>
        <time>2022-03-22T13:58:35.000Z</time>
      </trkpt>
      <trkpt lat="50.44869" lon="3.52369">
        <ele>21.3</ele>
        <time>2022-03-22T13:58:36.000Z</time>
      </trkpt>
      <trkpt lat="50.44864" lon="3.52366">
        <ele>21.2</ele>
        <time>2022-03-22T13:58:37.000Z</time>
      </trkpt>
      <trkpt lat="50.44859" lon="3.52362">
        <ele>21</ele>
        <time>2022-03-22T13:58:38.000Z</time>
      </trkpt>
      <trkpt lat="50.44854" lon="3.52358">
        <ele>21</ele>
        <time>2022-03-22T13:58:39.000Z</time>
      </trkpt>
      <trkpt lat="50.44849" lon="3.52354">
        <ele>21</ele>
        <time>2022-03-22T13:58:40.000Z</time>
      </trkpt>
      <trkpt lat="50.44844" lon="3.5235">
        <ele>21</ele>
        <time>2022-03-22T13:58:41.000Z</time>
      </trkpt>
      <trkpt lat="50.44839" lon="3.52347">
        <ele>21</ele>
        <time>2022-03-22T13:58:42.000Z</time>
      </trkpt>
      <trkpt lat="50.44833" lon="3.52344">
        <ele>21</ele>
        <time>2022-03-22T13:58:43.000Z</time>
      </trkpt>
      <trkpt lat="50.44828" lon="3.5234">
        <ele>21</ele>
        <time>2022-03-22T13:58:44.000Z</time>
      </trkpt>
      <trkpt lat="50.44823" lon="3.52336">
        <ele>21</ele>
        <time>2022-03-22T13:58:45.000Z</time>
      </trkpt>
      <trkpt lat="50.44818" lon="3.52332">
        <ele>21</ele>
        <time>2022-03-22T13:58:46.000Z</time>
      </trkpt>
      <trkpt lat="50.44813" lon="3.52329">
        <ele>20.8</ele>
        <time>2022-03-22T13:58:47.000Z</time>
      </trkpt>
      <trkpt lat="50.44808" lon="3.52325">
        <ele>20.7</ele>
        <time>2022-03-22T13:58:48.000Z</time>
      </trkpt>
      <trkpt lat="50.44803" lon="3.52322">
        <ele>20.5</ele>
        <time>2022-03-22T13:58:49.000Z</time>
      </trkpt>
      <trkpt lat="50.44797" lon="3.52319">
        <ele>20.3</ele>
        <time>2022-03-22T13:58:50.000Z</time>
      </trkpt>
      <trkpt lat="50.44792" lon="3.52315">
        <ele>20.2</ele>
        <time>2022-03-22T13:58:51.000Z</time>
      </trkpt>
      <trkpt lat="50.44788" lon="3.52312">
        <ele>20.1</ele>
        <time>2022-03-22T13:58:52.000Z</time>
      </trkpt>
      <trkpt lat="50.44783" lon="3.52308">
        <ele>20</ele>
        <time>2022-03-22T13:58:53.000Z</time>
      </trkpt>
      <trkpt lat="50.44778" lon="3.52305">
        <ele>20</ele>
        <time>2022-03-22T13:58:54.000Z</time>
      </trkpt>
      <trkpt lat="50.44774" lon="3.52301">
        <ele>20</ele>
        <time>2022-03-22T13:58:55.000Z</time>
      </trkpt>
      <trkpt lat="50.44769" lon="3.52298">
        <ele>20</ele>
        <time>2022-03-22T13:58:56.000Z</time>
      </trkpt>
      <trkpt lat="50.44764" lon="3.52295">
        <ele>20</ele>
        <time>2022-03-22T13:58:57.000Z</time>
      </trkpt>
      <trkpt lat="50.44759" lon="3.52292">
        <ele>20</ele>
        <time>2022-03-22T13:58:58.000Z</time>
      </trkpt>
      <trkpt lat="50.44755" lon="3.52288">
        <ele>20</ele>
        <time>2022-03-22T13:58:59.000Z</time>
      </trkpt>
      <trkpt lat="50.4475" lon="3.52284">
        <ele>20</ele>
        <time>2022-03-22T13:59:00.000Z</time>
      </trkpt>
      <trkpt lat="50.44745" lon="3.5228">
        <ele>20</ele>
        <time>2022-03-22T13:59:01.000Z</time>
      </trkpt>
      <trkpt lat="50.4474" lon="3.52277">
        <ele>20</ele>
        <time>2022-03-22T13:59:02.000Z</time>
      </trkpt>
      <trkpt lat="50.44736" lon="3.52273">
        <ele>20</ele>
        <time>2022-03-22T13:59:03.000Z</time>
      </trkpt>
      <trkpt lat="50.44731" lon="3.5227">
        <ele>20</ele>
        <time>2022-03-22T13:59:04.000Z</time>
      </trkpt>
      <trkpt lat="50.44726" lon="3.52267">
        <ele>20</ele>
        <time>2022-03-22T13:59:05.000Z</time>
      </trkpt>
      <trkpt lat="50.44721" lon="3.52264">
        <ele>20</ele>
        <time>2022-03-22T13:59:06.000Z</time>
      </trkpt>
      <trkpt lat="50.44717" lon="3.5226">
        <ele>20.1</ele>
        <time>2022-03-22T13:59:07.000Z</time>
      </trkpt>
      <trkpt lat="50.44713" lon="3.52257">
        <ele>20.1</ele>
        <time>2022-03-22T13:59:08.000Z</time>
      </trkpt>
      <trkpt lat="50.44708" lon="3.52253">
        <ele>20.1</ele>
        <time>2022-03-22T13:59:09.000Z</time>
      </trkpt>
      <trkpt lat="50.44704" lon="3.52249">
        <ele>20</ele>
        <time>2022-03-22T13:59:10.000Z</time>
      </trkpt>
      <trkpt lat="50.44699" lon="3.52246">
        <ele>20</ele>
        <time>2022-03-22T13:59:11.000Z</time>
      </trkpt>
      <trkpt lat="50.44695" lon="3.52243">
        <ele>20</ele>
        <time>2022-03-22T13:59:12.000Z</time>
      </trkpt>
      <trkpt lat="50.4469" lon="3.5224">
        <ele>20.1</ele>
        <time>2022-03-22T13:59:13.000Z</time>
      </trkpt>
      <trkpt lat="50.44685" lon="3.52237">
        <ele>20.2</ele>
        <time>2022-03-22T13:59:14.000Z</time>
      </trkpt>
      <trkpt lat="50.4468" lon="3.52234">
        <ele>20.2</ele>
        <time>2022-03-22T13:59:15.000Z</time>
      </trkpt>
      <trkpt lat="50.44676" lon="3.5223">
        <ele>20.2</ele>
        <time>2022-03-22T13:59:16.000Z</time>
      </trkpt>
      <trkpt lat="50.44671" lon="3.52227">
        <ele>20.1</ele>
        <time>2022-03-22T13:59:17.000Z</time>
      </trkpt>
      <trkpt lat="50.44667" lon="3.52223">
        <ele>20</ele>
        <time>2022-03-22T13:59:18.000Z</time>
      </trkpt>
      <trkpt lat="50.44662" lon="3.5222">
        <ele>20.2</ele>
        <time>2022-03-22T13:59:19.000Z</time>
      </trkpt>
      <trkpt lat="50.44658" lon="3.52216">
        <ele>20.3</ele>
        <time>2022-03-22T13:59:20.000Z</time>
      </trkpt>
      <trkpt lat="50.44653" lon="3.52212">
        <ele>20.5</ele>
        <time>2022-03-22T13:59:21.000Z</time>
      </trkpt>
      <trkpt lat="50.44649" lon="3.52209">
        <ele>20.6</ele>
        <time>2022-03-22T13:59:22.000Z</time>
      </trkpt>
      <trkpt lat="50.44644" lon="3.52206">
        <ele>20.8</ele>
        <time>2022-03-22T13:59:23.000Z</time>
      </trkpt>
      <trkpt lat="50.4464" lon="3.52203">
        <ele>21</ele>
        <time>2022-03-22T13:59:24.000Z</time>
      </trkpt>
      <trkpt lat="50.44636" lon="3.522">
        <ele>21</ele>
        <time>2022-03-22T13:59:25.000Z</time>
      </trkpt>
      <trkpt lat="50.44632" lon="3.52196">
        <ele>21</ele>
        <time>2022-03-22T13:59:26.000Z</time>
      </trkpt>
      <trkpt lat="50.44627" lon="3.52193">
        <ele>21</ele>
        <time>2022-03-22T13:59:27.000Z</time>
      </trkpt>
      <trkpt lat="50.44623" lon="3.5219">
        <ele>20.9</ele>
        <time>2022-03-22T13:59:28.000Z</time>
      </trkpt>
      <trkpt lat="50.44615" lon="3.52184">
        <ele>20.9</ele>
        <time>2022-03-22T13:59:30.000Z</time>
      </trkpt>
      <trkpt lat="50.44611" lon="3.52181">
        <ele>21</ele>
        <time>2022-03-22T13:59:31.000Z</time>
      </trkpt>
      <trkpt lat="50.44604" lon="3.52177">
        <ele>21</ele>
        <time>2022-03-22T13:59:33.000Z</time>
      </trkpt>
      <trkpt lat="50.44599" lon="3.52173">
        <ele>21</ele>
        <time>2022-03-22T13:59:34.000Z</time>
      </trkpt>
      <trkpt lat="50.44592" lon="3.52167">
        <ele>21</ele>
        <time>2022-03-22T13:59:36.000Z</time>
      </trkpt>
      <trkpt lat="50.44582" lon="3.52159">
        <ele>21</ele>
        <time>2022-03-22T13:59:38.000Z</time>
      </trkpt>
      <trkpt lat="50.44577" lon="3.52156">
        <ele>21.2</ele>
        <time>2022-03-22T13:59:40.000Z</time>
      </trkpt>
      <trkpt lat="50.44571" lon="3.5215">
        <ele>21.4</ele>
        <time>2022-03-22T13:59:42.000Z</time>
      </trkpt>
      <trkpt lat="50.44563" lon="3.52145">
        <ele>21.7</ele>
        <time>2022-03-22T13:59:44.000Z</time>
      </trkpt>
      <trkpt lat="50.44555" lon="3.52139">
        <ele>22</ele>
        <time>2022-03-22T13:59:46.000Z</time>
      </trkpt>
      <trkpt lat="50.44551" lon="3.52136">
        <ele>21.9</ele>
        <time>2022-03-22T13:59:47.000Z</time>
      </trkpt>
      <trkpt lat="50.44544" lon="3.52131">
        <ele>21.8</ele>
        <time>2022-03-22T13:59:49.000Z</time>
      </trkpt>
      <trkpt lat="50.44535" lon="3.52124">
        <ele>21.9</ele>
        <time>2022-03-22T13:59:51.000Z</time>
      </trkpt>
      <trkpt lat="50.44527" lon="3.52118">
        <ele>22</ele>
        <time>2022-03-22T13:59:53.000Z</time>
      </trkpt>
      <trkpt lat="50.44523" lon="3.52123">
        <ele>21.8</ele>
        <time>2022-03-22T13:59:55.028Z</time>
      </trkpt>
      <trkpt lat="50.44515" lon="3.52113">
        <ele>21.5</ele>
        <time>2022-03-22T13:59:56.000Z</time>
      </trkpt>
      <trkpt lat="50.4451" lon="3.52108">
        <ele>21.4</ele>
        <time>2022-03-22T13:59:57.000Z</time>
      </trkpt>
      <trkpt lat="50.44505" lon="3.52104">
        <ele>21.4</ele>
        <time>2022-03-22T13:59:58.000Z</time>
      </trkpt>
      <trkpt lat="50.44501" lon="3.52101">
        <ele>21.4</ele>
        <time>2022-03-22T13:59:59.000Z</time>
      </trkpt>
      <trkpt lat="50.44496" lon="3.52099">
        <ele>21.4</ele>
        <time>2022-03-22T14:00:00.000Z</time>
      </trkpt>
      <trkpt lat="50.44492" lon="3.52092">
        <ele>21.5</ele>
        <time>2022-03-22T14:00:01.481Z</time>
      </trkpt>
      <trkpt lat="50.44481" lon="3.52087">
        <ele>21.3</ele>
        <time>2022-03-22T14:00:04.000Z</time>
      </trkpt>
      <trkpt lat="50.44473" lon="3.52081">
        <ele>21</ele>
        <time>2022-03-22T14:00:06.000Z</time>
      </trkpt>
      <trkpt lat="50.44465" lon="3.52074">
        <ele>21.3</ele>
        <time>2022-03-22T14:00:08.000Z</time>
      </trkpt>
      <trkpt lat="50.44456" lon="3.52069">
        <ele>21.6</ele>
        <time>2022-03-22T14:00:10.000Z</time>
      </trkpt>
      <trkpt lat="50.44451" lon="3.52067">
        <ele>21.8</ele>
        <time>2022-03-22T14:00:11.000Z</time>
      </trkpt>
      <trkpt lat="50.44448" lon="3.52063">
        <ele>21.9</ele>
        <time>2022-03-22T14:00:12.000Z</time>
      </trkpt>
      <trkpt lat="50.44444" lon="3.52059">
        <ele>22</ele>
        <time>2022-03-22T14:00:13.000Z</time>
      </trkpt>
      <trkpt lat="50.44437" lon="3.52052">
        <ele>21.9</ele>
        <time>2022-03-22T14:00:15.000Z</time>
      </trkpt>
      <trkpt lat="50.44429" lon="3.52047">
        <ele>21.7</ele>
        <time>2022-03-22T14:00:17.000Z</time>
      </trkpt>
      <trkpt lat="50.4442" lon="3.52041">
        <ele>21.5</ele>
        <time>2022-03-22T14:00:19.000Z</time>
      </trkpt>
      <trkpt lat="50.44412" lon="3.52035">
        <ele>21.4</ele>
        <time>2022-03-22T14:00:21.000Z</time>
      </trkpt>
      <trkpt lat="50.44407" lon="3.52032">
        <ele>21.4</ele>
        <time>2022-03-22T14:00:22.000Z</time>
      </trkpt>
      <trkpt lat="50.44399" lon="3.52026">
        <ele>21.6</ele>
        <time>2022-03-22T14:00:24.000Z</time>
      </trkpt>
      <trkpt lat="50.44395" lon="3.52022">
        <ele>21.8</ele>
        <time>2022-03-22T14:00:25.000Z</time>
      </trkpt>
      <trkpt lat="50.44387" lon="3.52018">
        <ele>22</ele>
        <time>2022-03-22T14:00:27.000Z</time>
      </trkpt>
      <trkpt lat="50.44383" lon="3.52015">
        <ele>22</ele>
        <time>2022-03-22T14:00:28.000Z</time>
      </trkpt>
      <trkpt lat="50.44379" lon="3.52012">
        <ele>22</ele>
        <time>2022-03-22T14:00:29.000Z</time>
      </trkpt>
      <trkpt lat="50.44375" lon="3.52009">
        <ele>22</ele>
        <time>2022-03-22T14:00:30.000Z</time>
      </trkpt>
      <trkpt lat="50.44371" lon="3.52005">
        <ele>22</ele>
        <time>2022-03-22T14:00:31.000Z</time>
      </trkpt>
      <trkpt lat="50.44367" lon="3.52002">
        <ele>22</ele>
        <time>2022-03-22T14:00:32.000Z</time>
      </trkpt>
      <trkpt lat="50.44353" lon="3.51996">
        <ele>22.1</ele>
        <time>2022-03-22T14:00:36.000Z</time>
      </trkpt>
      <trkpt lat="50.4434" lon="3.51986">
        <ele>22.3</ele>
        <time>2022-03-22T14:00:38.981Z</time>
      </trkpt>
      <trkpt lat="50.44328" lon="3.51976">
        <ele>22.3</ele>
        <time>2022-03-22T14:00:42.000Z</time>
      </trkpt>
      <trkpt lat="50.44317" lon="3.51967">
        <ele>22.4</ele>
        <time>2022-03-22T14:00:45.000Z</time>
      </trkpt>
      <trkpt lat="50.44308" lon="3.51958">
        <ele>22.4</ele>
        <time>2022-03-22T14:00:47.839Z</time>
      </trkpt>
      <trkpt lat="50.44297" lon="3.51947">
        <ele>22.4</ele>
        <time>2022-03-22T14:00:51.000Z</time>
      </trkpt>
      <trkpt lat="50.44287" lon="3.5194">
        <ele>22.7</ele>
        <time>2022-03-22T14:00:54.000Z</time>
      </trkpt>
      <trkpt lat="50.44278" lon="3.51932">
        <ele>23</ele>
        <time>2022-03-22T14:00:56.957Z</time>
      </trkpt>
      <trkpt lat="50.44268" lon="3.51925">
        <ele>23.7</ele>
        <time>2022-03-22T14:01:00.015Z</time>
      </trkpt>
      <trkpt lat="50.44259" lon="3.51918">
        <ele>24.4</ele>
        <time>2022-03-22T14:01:02.719Z</time>
      </trkpt>
      <trkpt lat="50.44249" lon="3.51915">
        <ele>25</ele>
        <time>2022-03-22T14:01:05.677Z</time>
      </trkpt>
      <trkpt lat="50.4424" lon="3.51912">
        <ele>25.3</ele>
        <time>2022-03-22T14:01:08.937Z</time>
      </trkpt>
      <trkpt lat="50.44233" lon="3.51914">
        <ele>25.6</ele>
        <time>2022-03-22T14:01:12.058Z</time>
      </trkpt>
      <trkpt lat="50.44228" lon="3.51911">
        <ele>25.7</ele>
        <time>2022-03-22T14:01:18.000Z</time>
      </trkpt>
      <trkpt lat="50.44232" lon="3.51915">
        <ele>25.6</ele>
        <time>2022-03-22T14:01:21.000Z</time>
      </trkpt>
      <trkpt lat="50.44229" lon="3.51928">
        <ele>25.8</ele>
        <time>2022-03-22T14:01:38.737Z</time>
      </trkpt>
      <trkpt lat="50.44222" lon="3.51933">
        <ele>26</ele>
        <time>2022-03-22T14:01:41.616Z</time>
      </trkpt>
      <trkpt lat="50.44212" lon="3.51938">
        <ele>26.7</ele>
        <time>2022-03-22T14:01:44.320Z</time>
      </trkpt>
      <trkpt lat="50.44201" lon="3.51936">
        <ele>27.5</ele>
        <time>2022-03-22T14:01:47.259Z</time>
      </trkpt>
      <trkpt lat="50.44194" lon="3.51922">
        <ele>28</ele>
        <time>2022-03-22T14:01:50.141Z</time>
      </trkpt>
      <trkpt lat="50.44187" lon="3.51903">
        <ele>28.3</ele>
        <time>2022-03-22T14:01:53.818Z</time>
      </trkpt>
      <trkpt lat="50.44178" lon="3.51886">
        <ele>28.5</ele>
        <time>2022-03-22T14:01:56.799Z</time>
      </trkpt>
      <trkpt lat="50.4417" lon="3.51871">
        <ele>28.8</ele>
        <time>2022-03-22T14:01:59.538Z</time>
      </trkpt>
      <trkpt lat="50.44162" lon="3.51853">
        <ele>28.9</ele>
        <time>2022-03-22T14:02:02.556Z</time>
      </trkpt>
      <trkpt lat="50.44154" lon="3.51828">
        <ele>28.5</ele>
        <time>2022-03-22T14:02:06.000Z</time>
      </trkpt>
      <trkpt lat="50.44148" lon="3.51815">
        <ele>28.7</ele>
        <time>2022-03-22T14:02:08.762Z</time>
      </trkpt>
      <trkpt lat="50.44141" lon="3.51797">
        <ele>28.9</ele>
        <time>2022-03-22T14:02:11.662Z</time>
      </trkpt>
      <trkpt lat="50.44135" lon="3.51779">
        <ele>29</ele>
        <time>2022-03-22T14:02:14.382Z</time>
      </trkpt>
      <trkpt lat="50.44132" lon="3.51768">
        <ele>28.7</ele>
        <time>2022-03-22T14:02:15.919Z</time>
      </trkpt>
      <trkpt lat="50.44129" lon="3.51762">
        <ele>28.6</ele>
        <time>2022-03-22T14:02:17.000Z</time>
      </trkpt>
      <trkpt lat="50.44122" lon="3.51745">
        <ele>28.6</ele>
        <time>2022-03-22T14:02:19.782Z</time>
      </trkpt>
      <trkpt lat="50.4412" lon="3.51739">
        <ele>28.7</ele>
        <time>2022-03-22T14:02:20.905Z</time>
      </trkpt>
      <trkpt lat="50.44117" lon="3.51732">
        <ele>28.8</ele>
        <time>2022-03-22T14:02:22.000Z</time>
      </trkpt>
      <trkpt lat="50.44114" lon="3.5172">
        <ele>28.9</ele>
        <time>2022-03-22T14:02:24.103Z</time>
      </trkpt>
      <trkpt lat="50.44111" lon="3.51712">
        <ele>29</ele>
        <time>2022-03-22T14:02:25.527Z</time>
      </trkpt>
      <trkpt lat="50.44109" lon="3.51703">
        <ele>29</ele>
        <time>2022-03-22T14:02:26.881Z</time>
      </trkpt>
      <trkpt lat="50.44104" lon="3.51693">
        <ele>29</ele>
        <time>2022-03-22T14:02:28.923Z</time>
      </trkpt>
      <trkpt lat="50.44099" lon="3.51682">
        <ele>29.2</ele>
        <time>2022-03-22T14:02:31.103Z</time>
      </trkpt>
      <trkpt lat="50.44095" lon="3.51672">
        <ele>29.5</ele>
        <time>2022-03-22T14:02:32.905Z</time>
      </trkpt>
      <trkpt lat="50.44089" lon="3.51662">
        <ele>29.8</ele>
        <time>2022-03-22T14:02:35.000Z</time>
      </trkpt>
      <trkpt lat="50.44085" lon="3.51653">
        <ele>29.9</ele>
        <time>2022-03-22T14:02:37.000Z</time>
      </trkpt>
      <trkpt lat="50.4408" lon="3.51643">
        <ele>30</ele>
        <time>2022-03-22T14:02:39.000Z</time>
      </trkpt>
      <trkpt lat="50.44076" lon="3.51634">
        <ele>30</ele>
        <time>2022-03-22T14:02:41.000Z</time>
      </trkpt>
      <trkpt lat="50.44072" lon="3.51623">
        <ele>30</ele>
        <time>2022-03-22T14:02:43.000Z</time>
      </trkpt>
      <trkpt lat="50.44069" lon="3.51612">
        <ele>30</ele>
        <time>2022-03-22T14:02:44.884Z</time>
      </trkpt>
      <trkpt lat="50.44063" lon="3.51599">
        <ele>30</ele>
        <time>2022-03-22T14:02:47.424Z</time>
      </trkpt>
      <trkpt lat="50.4406" lon="3.51592">
        <ele>30</ele>
        <time>2022-03-22T14:02:48.764Z</time>
      </trkpt>
      <trkpt lat="50.44055" lon="3.5158">
        <ele>30</ele>
        <time>2022-03-22T14:02:51.063Z</time>
      </trkpt>
      <trkpt lat="50.44053" lon="3.51574">
        <ele>30.1</ele>
        <time>2022-03-22T14:02:52.124Z</time>
      </trkpt>
      <trkpt lat="50.4405" lon="3.51564">
        <ele>30.2</ele>
        <time>2022-03-22T14:02:53.864Z</time>
      </trkpt>
      <trkpt lat="50.44045" lon="3.51554">
        <ele>30.3</ele>
        <time>2022-03-22T14:02:56.000Z</time>
      </trkpt>
      <trkpt lat="50.44041" lon="3.51544">
        <ele>30.3</ele>
        <time>2022-03-22T14:02:58.000Z</time>
      </trkpt>
      <trkpt lat="50.44037" lon="3.51533">
        <ele>30.4</ele>
        <time>2022-03-22T14:03:00.000Z</time>
      </trkpt>
      <trkpt lat="50.44032" lon="3.51523">
        <ele>30.6</ele>
        <time>2022-03-22T14:03:02.164Z</time>
      </trkpt>
      <trkpt lat="50.44029" lon="3.51514">
        <ele>30.4</ele>
        <time>2022-03-22T14:03:03.784Z</time>
      </trkpt>
      <trkpt lat="50.44025" lon="3.51504">
        <ele>30.2</ele>
        <time>2022-03-22T14:03:06.000Z</time>
      </trkpt>
      <trkpt lat="50.44022" lon="3.51495">
        <ele>30.2</ele>
        <time>2022-03-22T14:03:08.122Z</time>
      </trkpt>
      <trkpt lat="50.44019" lon="3.51489">
        <ele>30.3</ele>
        <time>2022-03-22T14:03:10.001Z</time>
      </trkpt>
      <trkpt lat="50.44017" lon="3.51483">
        <ele>30.4</ele>
        <time>2022-03-22T14:03:12.000Z</time>
      </trkpt>
      <trkpt lat="50.44013" lon="3.51476">
        <ele>30.5</ele>
        <time>2022-03-22T14:03:34.000Z</time>
      </trkpt>
      <trkpt lat="50.4401" lon="3.51469">
        <ele>30.6</ele>
        <time>2022-03-22T14:03:36.000Z</time>
      </trkpt>
      <trkpt lat="50.44007" lon="3.51461">
        <ele>30.7</ele>
        <time>2022-03-22T14:03:37.884Z</time>
      </trkpt>
      <trkpt lat="50.44004" lon="3.51453">
        <ele>30.9</ele>
        <time>2022-03-22T14:03:40.000Z</time>
      </trkpt>
      <trkpt lat="50.44001" lon="3.51445">
        <ele>31</ele>
        <time>2022-03-22T14:03:43.000Z</time>
      </trkpt>
      <trkpt lat="50.43998" lon="3.51436">
        <ele>31.1</ele>
        <time>2022-03-22T14:03:46.123Z</time>
      </trkpt>
      <trkpt lat="50.43996" lon="3.51427">
        <ele>31.1</ele>
        <time>2022-03-22T14:03:48.784Z</time>
      </trkpt>
      <trkpt lat="50.43992" lon="3.51419">
        <ele>31.3</ele>
        <time>2022-03-22T14:03:51.000Z</time>
      </trkpt>
      <trkpt lat="50.43988" lon="3.51412">
        <ele>31.3</ele>
        <time>2022-03-22T14:03:52.905Z</time>
      </trkpt>
      <trkpt lat="50.43985" lon="3.51402">
        <ele>31</ele>
        <time>2022-03-22T14:03:54.683Z</time>
      </trkpt>
      <trkpt lat="50.43981" lon="3.51389">
        <ele>30.7</ele>
        <time>2022-03-22T14:03:56.941Z</time>
      </trkpt>
      <trkpt lat="50.43976" lon="3.51379">
        <ele>30.9</ele>
        <time>2022-03-22T14:03:59.000Z</time>
      </trkpt>
      <trkpt lat="50.43972" lon="3.51368">
        <ele>31</ele>
        <time>2022-03-22T14:04:01.000Z</time>
      </trkpt>
      <trkpt lat="50.43968" lon="3.51357">
        <ele>31.1</ele>
        <time>2022-03-22T14:04:03.083Z</time>
      </trkpt>
      <trkpt lat="50.43965" lon="3.51349">
        <ele>31.1</ele>
        <time>2022-03-22T14:04:04.528Z</time>
      </trkpt>
      <trkpt lat="50.43962" lon="3.51342">
        <ele>31.1</ele>
        <time>2022-03-22T14:04:05.800Z</time>
      </trkpt>
      <trkpt lat="50.43959" lon="3.51335">
        <ele>31</ele>
        <time>2022-03-22T14:04:07.000Z</time>
      </trkpt>
      <trkpt lat="50.43954" lon="3.51324">
        <ele>30.9</ele>
        <time>2022-03-22T14:04:09.000Z</time>
      </trkpt>
      <trkpt lat="50.43949" lon="3.51311">
        <ele>30.9</ele>
        <time>2022-03-22T14:04:11.216Z</time>
      </trkpt>
      <trkpt lat="50.43943" lon="3.51298">
        <ele>30.7</ele>
        <time>2022-03-22T14:04:13.000Z</time>
      </trkpt>
      <trkpt lat="50.4394" lon="3.51291">
        <ele>30.6</ele>
        <time>2022-03-22T14:04:14.000Z</time>
      </trkpt>
      <trkpt lat="50.43937" lon="3.51284">
        <ele>30.4</ele>
        <time>2022-03-22T14:04:15.000Z</time>
      </trkpt>
      <trkpt lat="50.43934" lon="3.51277">
        <ele>30.4</ele>
        <time>2022-03-22T14:04:16.000Z</time>
      </trkpt>
      <trkpt lat="50.43931" lon="3.51269">
        <ele>30.3</ele>
        <time>2022-03-22T14:04:17.000Z</time>
      </trkpt>
      <trkpt lat="50.43928" lon="3.51261">
        <ele>30.2</ele>
        <time>2022-03-22T14:04:18.000Z</time>
      </trkpt>
      <trkpt lat="50.43925" lon="3.51252">
        <ele>30.1</ele>
        <time>2022-03-22T14:04:19.000Z</time>
      </trkpt>
      <trkpt lat="50.43922" lon="3.51244">
        <ele>30</ele>
        <time>2022-03-22T14:04:20.000Z</time>
      </trkpt>
      <trkpt lat="50.43919" lon="3.51235">
        <ele>30</ele>
        <time>2022-03-22T14:04:21.000Z</time>
      </trkpt>
      <trkpt lat="50.43916" lon="3.51227">
        <ele>30</ele>
        <time>2022-03-22T14:04:22.000Z</time>
      </trkpt>
      <trkpt lat="50.43912" lon="3.51219">
        <ele>29.9</ele>
        <time>2022-03-22T14:04:23.000Z</time>
      </trkpt>
      <trkpt lat="50.43908" lon="3.5121">
        <ele>29.6</ele>
        <time>2022-03-22T14:04:24.000Z</time>
      </trkpt>
      <trkpt lat="50.43905" lon="3.51202">
        <ele>29.3</ele>
        <time>2022-03-22T14:04:25.000Z</time>
      </trkpt>
      <trkpt lat="50.43901" lon="3.51192">
        <ele>28.9</ele>
        <time>2022-03-22T14:04:26.000Z</time>
      </trkpt>
      <trkpt lat="50.43898" lon="3.51182">
        <ele>28.6</ele>
        <time>2022-03-22T14:04:27.000Z</time>
      </trkpt>
      <trkpt lat="50.43894" lon="3.51172">
        <ele>28.2</ele>
        <time>2022-03-22T14:04:28.000Z</time>
      </trkpt>
      <trkpt lat="50.43891" lon="3.51162">
        <ele>28</ele>
        <time>2022-03-22T14:04:29.000Z</time>
      </trkpt>
      <trkpt lat="50.43887" lon="3.51153">
        <ele>28</ele>
        <time>2022-03-22T14:04:30.000Z</time>
      </trkpt>
      <trkpt lat="50.43883" lon="3.51143">
        <ele>28</ele>
        <time>2022-03-22T14:04:31.000Z</time>
      </trkpt>
      <trkpt lat="50.43879" lon="3.51134">
        <ele>27.9</ele>
        <time>2022-03-22T14:04:32.000Z</time>
      </trkpt>
      <trkpt lat="50.43875" lon="3.51125">
        <ele>27.8</ele>
        <time>2022-03-22T14:04:33.000Z</time>
      </trkpt>
      <trkpt lat="50.43872" lon="3.51115">
        <ele>27.7</ele>
        <time>2022-03-22T14:04:34.000Z</time>
      </trkpt>
      <trkpt lat="50.43869" lon="3.51106">
        <ele>27.5</ele>
        <time>2022-03-22T14:04:35.000Z</time>
      </trkpt>
      <trkpt lat="50.43865" lon="3.51097">
        <ele>27.4</ele>
        <time>2022-03-22T14:04:36.000Z</time>
      </trkpt>
      <trkpt lat="50.43862" lon="3.51088">
        <ele>27.1</ele>
        <time>2022-03-22T14:04:37.000Z</time>
      </trkpt>
      <trkpt lat="50.43859" lon="3.51079">
        <ele>26.9</ele>
        <time>2022-03-22T14:04:38.000Z</time>
      </trkpt>
      <trkpt lat="50.43856" lon="3.5107">
        <ele>26.7</ele>
        <time>2022-03-22T14:04:39.000Z</time>
      </trkpt>
      <trkpt lat="50.43853" lon="3.51061">
        <ele>26.5</ele>
        <time>2022-03-22T14:04:40.000Z</time>
      </trkpt>
      <trkpt lat="50.43849" lon="3.51053">
        <ele>26.4</ele>
        <time>2022-03-22T14:04:41.000Z</time>
      </trkpt>
      <trkpt lat="50.43846" lon="3.51044">
        <ele>26.3</ele>
        <time>2022-03-22T14:04:42.000Z</time>
      </trkpt>
      <trkpt lat="50.43843" lon="3.51035">
        <ele>26.2</ele>
        <time>2022-03-22T14:04:43.000Z</time>
      </trkpt>
      <trkpt lat="50.43839" lon="3.51026">
        <ele>25.9</ele>
        <time>2022-03-22T14:04:44.000Z</time>
      </trkpt>
      <trkpt lat="50.43836" lon="3.51018">
        <ele>25.6</ele>
        <time>2022-03-22T14:04:45.000Z</time>
      </trkpt>
      <trkpt lat="50.43832" lon="3.5101">
        <ele>25.4</ele>
        <time>2022-03-22T14:04:46.000Z</time>
      </trkpt>
      <trkpt lat="50.43829" lon="3.51001">
        <ele>25.2</ele>
        <time>2022-03-22T14:04:47.000Z</time>
      </trkpt>
      <trkpt lat="50.43826" lon="3.50993">
        <ele>25.3</ele>
        <time>2022-03-22T14:04:48.000Z</time>
      </trkpt>
      <trkpt lat="50.43822" lon="3.50985">
        <ele>25.4</ele>
        <time>2022-03-22T14:04:49.000Z</time>
      </trkpt>
      <trkpt lat="50.43819" lon="3.50977">
        <ele>25.5</ele>
        <time>2022-03-22T14:04:50.000Z</time>
      </trkpt>
      <trkpt lat="50.43816" lon="3.50969">
        <ele>25.6</ele>
        <time>2022-03-22T14:04:51.000Z</time>
      </trkpt>
      <trkpt lat="50.43813" lon="3.50961">
        <ele>25.4</ele>
        <time>2022-03-22T14:04:52.000Z</time>
      </trkpt>
      <trkpt lat="50.4381" lon="3.50954">
        <ele>25.3</ele>
        <time>2022-03-22T14:04:53.000Z</time>
      </trkpt>
      <trkpt lat="50.43807" lon="3.50947">
        <ele>25.1</ele>
        <time>2022-03-22T14:04:54.000Z</time>
      </trkpt>
      <trkpt lat="50.43804" lon="3.50939">
        <ele>25</ele>
        <time>2022-03-22T14:04:55.000Z</time>
      </trkpt>
      <trkpt lat="50.43801" lon="3.50932">
        <ele>25.1</ele>
        <time>2022-03-22T14:04:56.000Z</time>
      </trkpt>
      <trkpt lat="50.43798" lon="3.50924">
        <ele>25.1</ele>
        <time>2022-03-22T14:04:57.000Z</time>
      </trkpt>
      <trkpt lat="50.43795" lon="3.50917">
        <ele>25</ele>
        <time>2022-03-22T14:04:58.000Z</time>
      </trkpt>
      <trkpt lat="50.43792" lon="3.50909">
        <ele>25</ele>
        <time>2022-03-22T14:04:59.000Z</time>
      </trkpt>
      <trkpt lat="50.43789" lon="3.50902">
        <ele>25</ele>
        <time>2022-03-22T14:05:00.000Z</time>
      </trkpt>
      <trkpt lat="50.43786" lon="3.50894">
        <ele>25</ele>
        <time>2022-03-22T14:05:01.000Z</time>
      </trkpt>
      <trkpt lat="50.43783" lon="3.50887">
        <ele>25</ele>
        <time>2022-03-22T14:05:02.000Z</time>
      </trkpt>
      <trkpt lat="50.4378" lon="3.5088">
        <ele>25</ele>
        <time>2022-03-22T14:05:03.000Z</time>
      </trkpt>
      <trkpt lat="50.43777" lon="3.50873">
        <ele>25</ele>
        <time>2022-03-22T14:05:04.000Z</time>
      </trkpt>
      <trkpt lat="50.43774" lon="3.50866">
        <ele>25</ele>
        <time>2022-03-22T14:05:05.000Z</time>
      </trkpt>
      <trkpt lat="50.43771" lon="3.50858">
        <ele>24.9</ele>
        <time>2022-03-22T14:05:06.000Z</time>
      </trkpt>
      <trkpt lat="50.43768" lon="3.5085">
        <ele>24.6</ele>
        <time>2022-03-22T14:05:07.000Z</time>
      </trkpt>
      <trkpt lat="50.43765" lon="3.50842">
        <ele>24.3</ele>
        <time>2022-03-22T14:05:08.000Z</time>
      </trkpt>
      <trkpt lat="50.43762" lon="3.50834">
        <ele>24</ele>
        <time>2022-03-22T14:05:09.000Z</time>
      </trkpt>
      <trkpt lat="50.43758" lon="3.50826">
        <ele>24</ele>
        <time>2022-03-22T14:05:10.000Z</time>
      </trkpt>
      <trkpt lat="50.43755" lon="3.50818">
        <ele>24</ele>
        <time>2022-03-22T14:05:11.000Z</time>
      </trkpt>
      <trkpt lat="50.43753" lon="3.50809">
        <ele>24</ele>
        <time>2022-03-22T14:05:12.000Z</time>
      </trkpt>
      <trkpt lat="50.4375" lon="3.508">
        <ele>24</ele>
        <time>2022-03-22T14:05:13.000Z</time>
      </trkpt>
      <trkpt lat="50.43747" lon="3.50792">
        <ele>23.9</ele>
        <time>2022-03-22T14:05:14.000Z</time>
      </trkpt>
      <trkpt lat="50.43744" lon="3.50783">
        <ele>23.8</ele>
        <time>2022-03-22T14:05:15.000Z</time>
      </trkpt>
      <trkpt lat="50.43741" lon="3.50775">
        <ele>23.6</ele>
        <time>2022-03-22T14:05:16.000Z</time>
      </trkpt>
      <trkpt lat="50.43738" lon="3.50767">
        <ele>23.3</ele>
        <time>2022-03-22T14:05:17.000Z</time>
      </trkpt>
      <trkpt lat="50.43735" lon="3.50758">
        <ele>23.1</ele>
        <time>2022-03-22T14:05:18.000Z</time>
      </trkpt>
      <trkpt lat="50.43732" lon="3.5075">
        <ele>23</ele>
        <time>2022-03-22T14:05:19.000Z</time>
      </trkpt>
      <trkpt lat="50.43728" lon="3.50743">
        <ele>23</ele>
        <time>2022-03-22T14:05:20.000Z</time>
      </trkpt>
      <trkpt lat="50.43724" lon="3.50735">
        <ele>23</ele>
        <time>2022-03-22T14:05:21.000Z</time>
      </trkpt>
      <trkpt lat="50.43721" lon="3.50727">
        <ele>23</ele>
        <time>2022-03-22T14:05:22.000Z</time>
      </trkpt>
      <trkpt lat="50.43718" lon="3.50719">
        <ele>23</ele>
        <time>2022-03-22T14:05:23.000Z</time>
      </trkpt>
      <trkpt lat="50.43715" lon="3.50711">
        <ele>23</ele>
        <time>2022-03-22T14:05:24.000Z</time>
      </trkpt>
      <trkpt lat="50.43713" lon="3.50702">
        <ele>23</ele>
        <time>2022-03-22T14:05:25.000Z</time>
      </trkpt>
      <trkpt lat="50.4371" lon="3.50694">
        <ele>23</ele>
        <time>2022-03-22T14:05:26.000Z</time>
      </trkpt>
      <trkpt lat="50.43707" lon="3.50686">
        <ele>23</ele>
        <time>2022-03-22T14:05:27.000Z</time>
      </trkpt>
      <trkpt lat="50.43704" lon="3.50678">
        <ele>23</ele>
        <time>2022-03-22T14:05:28.000Z</time>
      </trkpt>
      <trkpt lat="50.43701" lon="3.50671">
        <ele>23</ele>
        <time>2022-03-22T14:05:29.000Z</time>
      </trkpt>
      <trkpt lat="50.43698" lon="3.50664">
        <ele>23</ele>
        <time>2022-03-22T14:05:30.000Z</time>
      </trkpt>
      <trkpt lat="50.43695" lon="3.50656">
        <ele>23</ele>
        <time>2022-03-22T14:05:31.000Z</time>
      </trkpt>
      <trkpt lat="50.43692" lon="3.50648">
        <ele>23</ele>
        <time>2022-03-22T14:05:32.000Z</time>
      </trkpt>
      <trkpt lat="50.4369" lon="3.5064">
        <ele>23</ele>
        <time>2022-03-22T14:05:33.000Z</time>
      </trkpt>
      <trkpt lat="50.4369" lon="3.50632">
        <ele>23</ele>
        <time>2022-03-22T14:05:34.000Z</time>
      </trkpt>
      <trkpt lat="50.43693" lon="3.50623">
        <ele>23</ele>
        <time>2022-03-22T14:05:35.000Z</time>
      </trkpt>
      <trkpt lat="50.43696" lon="3.50615">
        <ele>23</ele>
        <time>2022-03-22T14:05:36.000Z</time>
      </trkpt>
      <trkpt lat="50.43701" lon="3.50608">
        <ele>23.3</ele>
        <time>2022-03-22T14:05:37.000Z</time>
      </trkpt>
      <trkpt lat="50.43705" lon="3.50601">
        <ele>23.6</ele>
        <time>2022-03-22T14:05:38.000Z</time>
      </trkpt>
      <trkpt lat="50.43709" lon="3.50595">
        <ele>23.8</ele>
        <time>2022-03-22T14:05:39.000Z</time>
      </trkpt>
      <trkpt lat="50.43714" lon="3.50589">
        <ele>23.9</ele>
        <time>2022-03-22T14:05:40.000Z</time>
      </trkpt>
      <trkpt lat="50.43718" lon="3.50583">
        <ele>24</ele>
        <time>2022-03-22T14:05:41.000Z</time>
      </trkpt>
      <trkpt lat="50.43722" lon="3.50576">
        <ele>24</ele>
        <time>2022-03-22T14:05:42.000Z</time>
      </trkpt>
      <trkpt lat="50.43725" lon="3.50569">
        <ele>24</ele>
        <time>2022-03-22T14:05:43.000Z</time>
      </trkpt>
      <trkpt lat="50.43728" lon="3.50563">
        <ele>24</ele>
        <time>2022-03-22T14:05:44.000Z</time>
      </trkpt>
      <trkpt lat="50.43732" lon="3.50557">
        <ele>24</ele>
        <time>2022-03-22T14:05:45.000Z</time>
      </trkpt>
      <trkpt lat="50.43736" lon="3.5055">
        <ele>24</ele>
        <time>2022-03-22T14:05:46.000Z</time>
      </trkpt>
      <trkpt lat="50.43739" lon="3.50544">
        <ele>24</ele>
        <time>2022-03-22T14:05:47.000Z</time>
      </trkpt>
      <trkpt lat="50.43742" lon="3.50538">
        <ele>24</ele>
        <time>2022-03-22T14:05:48.000Z</time>
      </trkpt>
      <trkpt lat="50.43745" lon="3.50533">
        <ele>24</ele>
        <time>2022-03-22T14:05:49.000Z</time>
      </trkpt>
      <trkpt lat="50.43748" lon="3.50527">
        <ele>24</ele>
        <time>2022-03-22T14:05:50.000Z</time>
      </trkpt>
      <trkpt lat="50.43753" lon="3.50518">
        <ele>24</ele>
        <time>2022-03-22T14:05:52.000Z</time>
      </trkpt>
      <trkpt lat="50.43757" lon="3.50513">
        <ele>23.9</ele>
        <time>2022-03-22T14:05:53.000Z</time>
      </trkpt>
      <trkpt lat="50.4376" lon="3.50507">
        <ele>23.7</ele>
        <time>2022-03-22T14:05:54.000Z</time>
      </trkpt>
      <trkpt lat="50.43763" lon="3.50502">
        <ele>23.6</ele>
        <time>2022-03-22T14:05:55.000Z</time>
      </trkpt>
      <trkpt lat="50.43766" lon="3.50496">
        <ele>23.4</ele>
        <time>2022-03-22T14:05:56.000Z</time>
      </trkpt>
      <trkpt lat="50.43771" lon="3.50487">
        <ele>23.2</ele>
        <time>2022-03-22T14:05:58.000Z</time>
      </trkpt>
      <trkpt lat="50.43776" lon="3.50476">
        <ele>23.1</ele>
        <time>2022-03-22T14:06:00.000Z</time>
      </trkpt>
      <trkpt lat="50.43782" lon="3.50466">
        <ele>23</ele>
        <time>2022-03-22T14:06:02.131Z</time>
      </trkpt>
      <trkpt lat="50.4379" lon="3.50456">
        <ele>23</ele>
        <time>2022-03-22T14:06:05.007Z</time>
      </trkpt>
      <trkpt lat="50.43793" lon="3.50448">
        <ele>23</ele>
        <time>2022-03-22T14:06:06.130Z</time>
      </trkpt>
      <trkpt lat="50.43798" lon="3.50438">
        <ele>23</ele>
        <time>2022-03-22T14:06:07.667Z</time>
      </trkpt>
      <trkpt lat="50.43801" lon="3.5043">
        <ele>23</ele>
        <time>2022-03-22T14:06:08.987Z</time>
      </trkpt>
      <trkpt lat="50.43802" lon="3.50422">
        <ele>23</ele>
        <time>2022-03-22T14:06:10.151Z</time>
      </trkpt>
      <trkpt lat="50.43803" lon="3.50411">
        <ele>23</ele>
        <time>2022-03-22T14:06:11.691Z</time>
      </trkpt>
      <trkpt lat="50.438" lon="3.50398">
        <ele>23</ele>
        <time>2022-03-22T14:06:13.789Z</time>
      </trkpt>
      <trkpt lat="50.43795" lon="3.50391">
        <ele>23</ele>
        <time>2022-03-22T14:06:15.000Z</time>
      </trkpt>
      <trkpt lat="50.43792" lon="3.50379">
        <ele>23</ele>
        <time>2022-03-22T14:06:17.000Z</time>
      </trkpt>
      <trkpt lat="50.43789" lon="3.50367">
        <ele>23</ele>
        <time>2022-03-22T14:06:19.000Z</time>
      </trkpt>
      <trkpt lat="50.43784" lon="3.50351">
        <ele>23</ele>
        <time>2022-03-22T14:06:21.606Z</time>
      </trkpt>
      <trkpt lat="50.43783" lon="3.50344">
        <ele>23</ele>
        <time>2022-03-22T14:06:22.748Z</time>
      </trkpt>
      <trkpt lat="50.43781" lon="3.50337">
        <ele>23</ele>
        <time>2022-03-22T14:06:23.886Z</time>
      </trkpt>
      <trkpt lat="50.43779" lon="3.5033">
        <ele>23</ele>
        <time>2022-03-22T14:06:25.000Z</time>
      </trkpt>
      <trkpt lat="50.43777" lon="3.50323">
        <ele>23</ele>
        <time>2022-03-22T14:06:26.129Z</time>
      </trkpt>
      <trkpt lat="50.43771" lon="3.50309">
        <ele>23</ele>
        <time>2022-03-22T14:06:28.000Z</time>
      </trkpt>
      <trkpt lat="50.43769" lon="3.50302">
        <ele>23</ele>
        <time>2022-03-22T14:06:29.000Z</time>
      </trkpt>
      <trkpt lat="50.43765" lon="3.50291">
        <ele>23</ele>
        <time>2022-03-22T14:06:31.000Z</time>
      </trkpt>
      <trkpt lat="50.43762" lon="3.50281">
        <ele>23</ele>
        <time>2022-03-22T14:06:32.594Z</time>
      </trkpt>
      <trkpt lat="50.43761" lon="3.50274">
        <ele>23</ele>
        <time>2022-03-22T14:06:33.647Z</time>
      </trkpt>
      <trkpt lat="50.43756" lon="3.50254">
        <ele>23</ele>
        <time>2022-03-22T14:06:36.000Z</time>
      </trkpt>
      <trkpt lat="50.43755" lon="3.50247">
        <ele>23</ele>
        <time>2022-03-22T14:06:37.000Z</time>
      </trkpt>
      <trkpt lat="50.43754" lon="3.50239">
        <ele>23</ele>
        <time>2022-03-22T14:06:38.000Z</time>
      </trkpt>
      <trkpt lat="50.43753" lon="3.50232">
        <ele>23</ele>
        <time>2022-03-22T14:06:39.000Z</time>
      </trkpt>
      <trkpt lat="50.4375" lon="3.50219">
        <ele>23</ele>
        <time>2022-03-22T14:06:41.000Z</time>
      </trkpt>
      <trkpt lat="50.43748" lon="3.50212">
        <ele>23</ele>
        <time>2022-03-22T14:06:42.000Z</time>
      </trkpt>
      <trkpt lat="50.4375" lon="3.50201">
        <ele>23</ele>
        <time>2022-03-22T14:06:43.929Z</time>
      </trkpt>
      <trkpt lat="50.43745" lon="3.50189">
        <ele>23</ele>
        <time>2022-03-22T14:06:45.000Z</time>
      </trkpt>
      <trkpt lat="50.43743" lon="3.50182">
        <ele>23</ele>
        <time>2022-03-22T14:06:46.000Z</time>
      </trkpt>
      <trkpt lat="50.43744" lon="3.50173">
        <ele>23</ele>
        <time>2022-03-22T14:06:48.000Z</time>
      </trkpt>
      <trkpt lat="50.4374" lon="3.50158">
        <ele>23</ele>
        <time>2022-03-22T14:06:50.182Z</time>
      </trkpt>
      <trkpt lat="50.43737" lon="3.50146">
        <ele>23</ele>
        <time>2022-03-22T14:06:51.533Z</time>
      </trkpt>
      <trkpt lat="50.43735" lon="3.50137">
        <ele>23</ele>
        <time>2022-03-22T14:06:52.757Z</time>
      </trkpt>
      <trkpt lat="50.43733" lon="3.5013">
        <ele>23</ele>
        <time>2022-03-22T14:06:53.820Z</time>
      </trkpt>
      <trkpt lat="50.43731" lon="3.50121">
        <ele>23</ele>
        <time>2022-03-22T14:06:55.165Z</time>
      </trkpt>
      <trkpt lat="50.43727" lon="3.50108">
        <ele>23</ele>
        <time>2022-03-22T14:06:57.000Z</time>
      </trkpt>
      <trkpt lat="50.43724" lon="3.50095">
        <ele>23</ele>
        <time>2022-03-22T14:06:59.000Z</time>
      </trkpt>
      <trkpt lat="50.43722" lon="3.50088">
        <ele>23</ele>
        <time>2022-03-22T14:07:00.098Z</time>
      </trkpt>
      <trkpt lat="50.43718" lon="3.50075">
        <ele>23</ele>
        <time>2022-03-22T14:07:02.139Z</time>
      </trkpt>
      <trkpt lat="50.43715" lon="3.50062">
        <ele>23</ele>
        <time>2022-03-22T14:07:03.657Z</time>
      </trkpt>
      <trkpt lat="50.43714" lon="3.50053">
        <ele>22.9</ele>
        <time>2022-03-22T14:07:05.000Z</time>
      </trkpt>
      <trkpt lat="50.43711" lon="3.50045">
        <ele>22.8</ele>
        <time>2022-03-22T14:07:06.000Z</time>
      </trkpt>
      <trkpt lat="50.43709" lon="3.50038">
        <ele>22.7</ele>
        <time>2022-03-22T14:07:07.000Z</time>
      </trkpt>
      <trkpt lat="50.43707" lon="3.50031">
        <ele>22.6</ele>
        <time>2022-03-22T14:07:08.000Z</time>
      </trkpt>
      <trkpt lat="50.43706" lon="3.50024">
        <ele>22.6</ele>
        <time>2022-03-22T14:07:08.939Z</time>
      </trkpt>
      <trkpt lat="50.43702" lon="3.50012">
        <ele>22.7</ele>
        <time>2022-03-22T14:07:10.576Z</time>
      </trkpt>
      <trkpt lat="50.437" lon="3.50005">
        <ele>22.8</ele>
        <time>2022-03-22T14:07:11.561Z</time>
      </trkpt>
      <trkpt lat="50.43698" lon="3.49998">
        <ele>22.9</ele>
        <time>2022-03-22T14:07:12.680Z</time>
      </trkpt>
      <trkpt lat="50.43696" lon="3.49992">
        <ele>22.9</ele>
        <time>2022-03-22T14:07:13.657Z</time>
      </trkpt>
      <trkpt lat="50.43694" lon="3.49984">
        <ele>23</ele>
        <time>2022-03-22T14:07:14.677Z</time>
      </trkpt>
      <trkpt lat="50.43692" lon="3.49975">
        <ele>23</ele>
        <time>2022-03-22T14:07:16.000Z</time>
      </trkpt>
      <trkpt lat="50.43689" lon="3.49966">
        <ele>23</ele>
        <time>2022-03-22T14:07:17.456Z</time>
      </trkpt>
      <trkpt lat="50.43688" lon="3.49959">
        <ele>23</ele>
        <time>2022-03-22T14:07:18.718Z</time>
      </trkpt>
      <trkpt lat="50.43686" lon="3.49946">
        <ele>23</ele>
        <time>2022-03-22T14:07:20.641Z</time>
      </trkpt>
      <trkpt lat="50.43684" lon="3.49938">
        <ele>23</ele>
        <time>2022-03-22T14:07:21.960Z</time>
      </trkpt>
      <trkpt lat="50.4368" lon="3.49925">
        <ele>23</ele>
        <time>2022-03-22T14:07:24.000Z</time>
      </trkpt>
      <trkpt lat="50.43677" lon="3.49913">
        <ele>22.9</ele>
        <time>2022-03-22T14:07:26.000Z</time>
      </trkpt>
      <trkpt lat="50.43675" lon="3.49903">
        <ele>22.5</ele>
        <time>2022-03-22T14:07:27.660Z</time>
      </trkpt>
      <trkpt lat="50.43673" lon="3.49894">
        <ele>22.2</ele>
        <time>2022-03-22T14:07:29.075Z</time>
      </trkpt>
      <trkpt lat="50.43672" lon="3.49887">
        <ele>22</ele>
        <time>2022-03-22T14:07:30.035Z</time>
      </trkpt>
      <trkpt lat="50.43669" lon="3.49875">
        <ele>22</ele>
        <time>2022-03-22T14:07:32.000Z</time>
      </trkpt>
      <trkpt lat="50.43666" lon="3.49862">
        <ele>22</ele>
        <time>2022-03-22T14:07:34.059Z</time>
      </trkpt>
      <trkpt lat="50.43665" lon="3.49855">
        <ele>22</ele>
        <time>2022-03-22T14:07:35.000Z</time>
      </trkpt>
      <trkpt lat="50.43663" lon="3.49848">
        <ele>22</ele>
        <time>2022-03-22T14:07:36.077Z</time>
      </trkpt>
      <trkpt lat="50.43661" lon="3.49842">
        <ele>22</ele>
        <time>2022-03-22T14:07:37.098Z</time>
      </trkpt>
      <trkpt lat="50.43659" lon="3.49833">
        <ele>22</ele>
        <time>2022-03-22T14:07:38.438Z</time>
      </trkpt>
      <trkpt lat="50.43655" lon="3.49822">
        <ele>21.8</ele>
        <time>2022-03-22T14:07:40.000Z</time>
      </trkpt>
      <trkpt lat="50.43652" lon="3.49809">
        <ele>21.5</ele>
        <time>2022-03-22T14:07:42.000Z</time>
      </trkpt>
      <trkpt lat="50.4365" lon="3.49802">
        <ele>21.3</ele>
        <time>2022-03-22T14:07:43.000Z</time>
      </trkpt>
      <trkpt lat="50.43648" lon="3.49795">
        <ele>21.2</ele>
        <time>2022-03-22T14:07:44.000Z</time>
      </trkpt>
      <trkpt lat="50.43646" lon="3.49789">
        <ele>21.1</ele>
        <time>2022-03-22T14:07:45.065Z</time>
      </trkpt>
      <trkpt lat="50.43643" lon="3.49778">
        <ele>21</ele>
        <time>2022-03-22T14:07:47.043Z</time>
      </trkpt>
      <trkpt lat="50.43642" lon="3.4977">
        <ele>21</ele>
        <time>2022-03-22T14:07:48.000Z</time>
      </trkpt>
      <trkpt lat="50.43647" lon="3.49761">
        <ele>21</ele>
        <time>2022-03-22T14:07:50.101Z</time>
      </trkpt>
      <trkpt lat="50.43644" lon="3.49747">
        <ele>21</ele>
        <time>2022-03-22T14:07:51.745Z</time>
      </trkpt>
      <trkpt lat="50.4364" lon="3.49736">
        <ele>21</ele>
        <time>2022-03-22T14:07:53.065Z</time>
      </trkpt>
      <trkpt lat="50.43638" lon="3.49729">
        <ele>21</ele>
        <time>2022-03-22T14:07:54.024Z</time>
      </trkpt>
      <trkpt lat="50.43635" lon="3.49722">
        <ele>21</ele>
        <time>2022-03-22T14:07:55.000Z</time>
      </trkpt>
      <trkpt lat="50.43633" lon="3.49715">
        <ele>21</ele>
        <time>2022-03-22T14:07:56.000Z</time>
      </trkpt>
      <trkpt lat="50.43631" lon="3.49708">
        <ele>21</ele>
        <time>2022-03-22T14:07:57.122Z</time>
      </trkpt>
      <trkpt lat="50.43628" lon="3.49696">
        <ele>21</ele>
        <time>2022-03-22T14:07:58.904Z</time>
      </trkpt>
      <trkpt lat="50.43625" lon="3.49684">
        <ele>21</ele>
        <time>2022-03-22T14:08:00.886Z</time>
      </trkpt>
      <trkpt lat="50.43624" lon="3.49677">
        <ele>21</ele>
        <time>2022-03-22T14:08:02.000Z</time>
      </trkpt>
      <trkpt lat="50.43623" lon="3.4967">
        <ele>21</ele>
        <time>2022-03-22T14:08:03.162Z</time>
      </trkpt>
      <trkpt lat="50.43621" lon="3.49663">
        <ele>21</ele>
        <time>2022-03-22T14:08:04.122Z</time>
      </trkpt>
      <trkpt lat="50.43617" lon="3.49653">
        <ele>21</ele>
        <time>2022-03-22T14:08:05.802Z</time>
      </trkpt>
      <trkpt lat="50.43613" lon="3.49638">
        <ele>21</ele>
        <time>2022-03-22T14:08:08.102Z</time>
      </trkpt>
      <trkpt lat="50.43611" lon="3.49626">
        <ele>21</ele>
        <time>2022-03-22T14:08:09.864Z</time>
      </trkpt>
      <trkpt lat="50.4361" lon="3.49613">
        <ele>21</ele>
        <time>2022-03-22T14:08:12.000Z</time>
      </trkpt>
      <trkpt lat="50.43609" lon="3.49602">
        <ele>21</ele>
        <time>2022-03-22T14:08:13.922Z</time>
      </trkpt>
      <trkpt lat="50.43607" lon="3.49592">
        <ele>21</ele>
        <time>2022-03-22T14:08:15.904Z</time>
      </trkpt>
      <trkpt lat="50.43604" lon="3.49582">
        <ele>21</ele>
        <time>2022-03-22T14:08:18.003Z</time>
      </trkpt>
      <trkpt lat="50.43599" lon="3.49566">
        <ele>21</ele>
        <time>2022-03-22T14:08:20.570Z</time>
      </trkpt>
      <trkpt lat="50.43596" lon="3.49558">
        <ele>21</ele>
        <time>2022-03-22T14:08:21.846Z</time>
      </trkpt>
      <trkpt lat="50.43594" lon="3.49549">
        <ele>21</ele>
        <time>2022-03-22T14:08:22.981Z</time>
      </trkpt>
      <trkpt lat="50.43592" lon="3.49541">
        <ele>21</ele>
        <time>2022-03-22T14:08:24.105Z</time>
      </trkpt>
      <trkpt lat="50.4359" lon="3.49524">
        <ele>21</ele>
        <time>2022-03-22T14:08:25.968Z</time>
      </trkpt>
      <trkpt lat="50.43585" lon="3.49506">
        <ele>21</ele>
        <time>2022-03-22T14:08:28.000Z</time>
      </trkpt>
      <trkpt lat="50.43583" lon="3.49497">
        <ele>21</ele>
        <time>2022-03-22T14:08:29.000Z</time>
      </trkpt>
      <trkpt lat="50.4358" lon="3.49489">
        <ele>21</ele>
        <time>2022-03-22T14:08:30.000Z</time>
      </trkpt>
      <trkpt lat="50.43578" lon="3.4948">
        <ele>21</ele>
        <time>2022-03-22T14:08:31.000Z</time>
      </trkpt>
      <trkpt lat="50.43575" lon="3.49472">
        <ele>21</ele>
        <time>2022-03-22T14:08:32.000Z</time>
      </trkpt>
      <trkpt lat="50.43573" lon="3.49465">
        <ele>21</ele>
        <time>2022-03-22T14:08:33.000Z</time>
      </trkpt>
      <trkpt lat="50.43571" lon="3.49458">
        <ele>21</ele>
        <time>2022-03-22T14:08:34.000Z</time>
      </trkpt>
      <trkpt lat="50.43568" lon="3.49452">
        <ele>21</ele>
        <time>2022-03-22T14:08:36.000Z</time>
      </trkpt>
      <trkpt lat="50.43566" lon="3.49446">
        <ele>21</ele>
        <time>2022-03-22T14:08:37.000Z</time>
      </trkpt>
      <trkpt lat="50.43565" lon="3.49438">
        <ele>21</ele>
        <time>2022-03-22T14:08:38.000Z</time>
      </trkpt>
      <trkpt lat="50.43562" lon="3.49424">
        <ele>21</ele>
        <time>2022-03-22T14:08:39.750Z</time>
      </trkpt>
      <trkpt lat="50.43559" lon="3.49416">
        <ele>21</ele>
        <time>2022-03-22T14:08:40.929Z</time>
      </trkpt>
      <trkpt lat="50.43557" lon="3.49409">
        <ele>21</ele>
        <time>2022-03-22T14:08:42.000Z</time>
      </trkpt>
      <trkpt lat="50.43556" lon="3.49402">
        <ele>21</ele>
        <time>2022-03-22T14:08:43.129Z</time>
      </trkpt>
      <trkpt lat="50.43554" lon="3.4939">
        <ele>21</ele>
        <time>2022-03-22T14:08:45.111Z</time>
      </trkpt>
      <trkpt lat="50.43551" lon="3.49373">
        <ele>21</ele>
        <time>2022-03-22T14:08:47.831Z</time>
      </trkpt>
      <trkpt lat="50.43549" lon="3.49366">
        <ele>21</ele>
        <time>2022-03-22T14:08:49.072Z</time>
      </trkpt>
      <trkpt lat="50.43546" lon="3.49354">
        <ele>21</ele>
        <time>2022-03-22T14:08:51.000Z</time>
      </trkpt>
      <trkpt lat="50.43543" lon="3.49342">
        <ele>21</ele>
        <time>2022-03-22T14:08:53.000Z</time>
      </trkpt>
      <trkpt lat="50.43541" lon="3.49329">
        <ele>21</ele>
        <time>2022-03-22T14:08:55.171Z</time>
      </trkpt>
      <trkpt lat="50.43538" lon="3.4932">
        <ele>21</ele>
        <time>2022-03-22T14:08:56.631Z</time>
      </trkpt>
      <trkpt lat="50.43535" lon="3.49313">
        <ele>21</ele>
        <time>2022-03-22T14:08:57.951Z</time>
      </trkpt>
      <trkpt lat="50.43532" lon="3.49302">
        <ele>21</ele>
        <time>2022-03-22T14:09:00.000Z</time>
      </trkpt>
      <trkpt lat="50.43529" lon="3.49289">
        <ele>21</ele>
        <time>2022-03-22T14:09:02.090Z</time>
      </trkpt>
      <trkpt lat="50.43525" lon="3.49272">
        <ele>21</ele>
        <time>2022-03-22T14:09:04.491Z</time>
      </trkpt>
      <trkpt lat="50.43523" lon="3.49264">
        <ele>21</ele>
        <time>2022-03-22T14:09:05.590Z</time>
      </trkpt>
      <trkpt lat="50.43521" lon="3.49257">
        <ele>21</ele>
        <time>2022-03-22T14:09:06.710Z</time>
      </trkpt>
      <trkpt lat="50.43519" lon="3.49249">
        <ele>21</ele>
        <time>2022-03-22T14:09:07.889Z</time>
      </trkpt>
      <trkpt lat="50.43517" lon="3.49241">
        <ele>21</ele>
        <time>2022-03-22T14:09:09.156Z</time>
      </trkpt>
      <trkpt lat="50.43513" lon="3.49229">
        <ele>21</ele>
        <time>2022-03-22T14:09:10.790Z</time>
      </trkpt>
      <trkpt lat="50.43511" lon="3.49221">
        <ele>21</ele>
        <time>2022-03-22T14:09:12.000Z</time>
      </trkpt>
      <trkpt lat="50.43507" lon="3.49208">
        <ele>20.5</ele>
        <time>2022-03-22T14:09:14.133Z</time>
      </trkpt>
      <trkpt lat="50.43505" lon="3.492">
        <ele>20.2</ele>
        <time>2022-03-22T14:09:15.290Z</time>
      </trkpt>
      <trkpt lat="50.43504" lon="3.49193">
        <ele>20</ele>
        <time>2022-03-22T14:09:16.310Z</time>
      </trkpt>
      <trkpt lat="50.43502" lon="3.49184">
        <ele>20</ele>
        <time>2022-03-22T14:09:17.734Z</time>
      </trkpt>
      <trkpt lat="50.43501" lon="3.49177">
        <ele>20</ele>
        <time>2022-03-22T14:09:18.933Z</time>
      </trkpt>
      <trkpt lat="50.435" lon="3.49169">
        <ele>20</ele>
        <time>2022-03-22T14:09:20.130Z</time>
      </trkpt>
      <trkpt lat="50.43497" lon="3.49158">
        <ele>20</ele>
        <time>2022-03-22T14:09:22.050Z</time>
      </trkpt>
      <trkpt lat="50.43494" lon="3.4915">
        <ele>20</ele>
        <time>2022-03-22T14:09:23.330Z</time>
      </trkpt>
      <trkpt lat="50.43492" lon="3.49143">
        <ele>20</ele>
        <time>2022-03-22T14:09:24.582Z</time>
      </trkpt>
      <trkpt lat="50.43488" lon="3.49128">
        <ele>20</ele>
        <time>2022-03-22T14:09:27.129Z</time>
      </trkpt>
      <trkpt lat="50.43486" lon="3.49116">
        <ele>20</ele>
        <time>2022-03-22T14:09:29.000Z</time>
      </trkpt>
      <trkpt lat="50.43483" lon="3.49103">
        <ele>20</ele>
        <time>2022-03-22T14:09:31.051Z</time>
      </trkpt>
      <trkpt lat="50.43482" lon="3.49094">
        <ele>20</ele>
        <time>2022-03-22T14:09:32.372Z</time>
      </trkpt>
      <trkpt lat="50.43478" lon="3.49081">
        <ele>20</ele>
        <time>2022-03-22T14:09:34.577Z</time>
      </trkpt>
      <trkpt lat="50.43477" lon="3.49071">
        <ele>20</ele>
        <time>2022-03-22T14:09:36.088Z</time>
      </trkpt>
      <trkpt lat="50.43475" lon="3.49057">
        <ele>20</ele>
        <time>2022-03-22T14:09:38.033Z</time>
      </trkpt>
      <trkpt lat="50.43473" lon="3.4905">
        <ele>20</ele>
        <time>2022-03-22T14:09:39.000Z</time>
      </trkpt>
      <trkpt lat="50.43468" lon="3.49034">
        <ele>20</ele>
        <time>2022-03-22T14:09:41.000Z</time>
      </trkpt>
      <trkpt lat="50.43466" lon="3.49027">
        <ele>20</ele>
        <time>2022-03-22T14:09:42.000Z</time>
      </trkpt>
      <trkpt lat="50.43464" lon="3.49021">
        <ele>20</ele>
        <time>2022-03-22T14:09:43.000Z</time>
      </trkpt>
      <trkpt lat="50.43461" lon="3.49014">
        <ele>20</ele>
        <time>2022-03-22T14:09:44.000Z</time>
      </trkpt>
      <trkpt lat="50.43459" lon="3.49006">
        <ele>20</ele>
        <time>2022-03-22T14:09:45.000Z</time>
      </trkpt>
      <trkpt lat="50.43458" lon="3.48998">
        <ele>20</ele>
        <time>2022-03-22T14:09:46.000Z</time>
      </trkpt>
      <trkpt lat="50.43456" lon="3.4899">
        <ele>20</ele>
        <time>2022-03-22T14:09:47.000Z</time>
      </trkpt>
      <trkpt lat="50.43454" lon="3.48983">
        <ele>20</ele>
        <time>2022-03-22T14:09:48.000Z</time>
      </trkpt>
      <trkpt lat="50.43453" lon="3.48975">
        <ele>20</ele>
        <time>2022-03-22T14:09:49.000Z</time>
      </trkpt>
      <trkpt lat="50.43452" lon="3.48967">
        <ele>20</ele>
        <time>2022-03-22T14:09:50.000Z</time>
      </trkpt>
      <trkpt lat="50.4345" lon="3.4896">
        <ele>20</ele>
        <time>2022-03-22T14:09:51.000Z</time>
      </trkpt>
      <trkpt lat="50.43448" lon="3.48951">
        <ele>20</ele>
        <time>2022-03-22T14:09:54.000Z</time>
      </trkpt>
      <trkpt lat="50.43447" lon="3.48942">
        <ele>20</ele>
        <time>2022-03-22T14:09:55.000Z</time>
      </trkpt>
      <trkpt lat="50.43445" lon="3.48928">
        <ele>20</ele>
        <time>2022-03-22T14:09:56.000Z</time>
      </trkpt>
      <trkpt lat="50.43443" lon="3.48918">
        <ele>20</ele>
        <time>2022-03-22T14:09:57.000Z</time>
      </trkpt>
      <trkpt lat="50.43441" lon="3.4891">
        <ele>20</ele>
        <time>2022-03-22T14:09:58.000Z</time>
      </trkpt>
      <trkpt lat="50.43439" lon="3.48901">
        <ele>20</ele>
        <time>2022-03-22T14:09:59.000Z</time>
      </trkpt>
      <trkpt lat="50.43437" lon="3.48893">
        <ele>20</ele>
        <time>2022-03-22T14:10:00.000Z</time>
      </trkpt>
      <trkpt lat="50.43436" lon="3.48887">
        <ele>20</ele>
        <time>2022-03-22T14:10:01.000Z</time>
      </trkpt>
      <trkpt lat="50.43431" lon="3.48872">
        <ele>20</ele>
        <time>2022-03-22T14:10:03.607Z</time>
      </trkpt>
      <trkpt lat="50.43428" lon="3.48863">
        <ele>20</ele>
        <time>2022-03-22T14:10:05.147Z</time>
      </trkpt>
      <trkpt lat="50.43425" lon="3.48851">
        <ele>20</ele>
        <time>2022-03-22T14:10:07.081Z</time>
      </trkpt>
      <trkpt lat="50.43423" lon="3.48844">
        <ele>20</ele>
        <time>2022-03-22T14:10:08.149Z</time>
      </trkpt>
      <trkpt lat="50.4342" lon="3.48829">
        <ele>20</ele>
        <time>2022-03-22T14:10:10.000Z</time>
      </trkpt>
      <trkpt lat="50.43418" lon="3.48822">
        <ele>20</ele>
        <time>2022-03-22T14:10:11.000Z</time>
      </trkpt>
      <trkpt lat="50.43416" lon="3.48814">
        <ele>20</ele>
        <time>2022-03-22T14:10:12.000Z</time>
      </trkpt>
      <trkpt lat="50.43414" lon="3.48807">
        <ele>20</ele>
        <time>2022-03-22T14:10:13.000Z</time>
      </trkpt>
      <trkpt lat="50.43412" lon="3.488">
        <ele>20</ele>
        <time>2022-03-22T14:10:14.000Z</time>
      </trkpt>
      <trkpt lat="50.4341" lon="3.48793">
        <ele>20</ele>
        <time>2022-03-22T14:10:15.000Z</time>
      </trkpt>
      <trkpt lat="50.43411" lon="3.48783">
        <ele>20</ele>
        <time>2022-03-22T14:10:17.298Z</time>
      </trkpt>
      <trkpt lat="50.43409" lon="3.48776">
        <ele>20</ele>
        <time>2022-03-22T14:10:18.278Z</time>
      </trkpt>
      <trkpt lat="50.43405" lon="3.48764">
        <ele>20</ele>
        <time>2022-03-22T14:10:19.921Z</time>
      </trkpt>
      <trkpt lat="50.43404" lon="3.48758">
        <ele>20</ele>
        <time>2022-03-22T14:10:21.000Z</time>
      </trkpt>
      <trkpt lat="50.43402" lon="3.48751">
        <ele>20</ele>
        <time>2022-03-22T14:10:22.019Z</time>
      </trkpt>
      <trkpt lat="50.434" lon="3.48744">
        <ele>20</ele>
        <time>2022-03-22T14:10:23.000Z</time>
      </trkpt>
      <trkpt lat="50.43398" lon="3.48737">
        <ele>20</ele>
        <time>2022-03-22T14:10:24.000Z</time>
      </trkpt>
      <trkpt lat="50.43396" lon="3.48731">
        <ele>20</ele>
        <time>2022-03-22T14:10:25.000Z</time>
      </trkpt>
      <trkpt lat="50.43392" lon="3.48718">
        <ele>20</ele>
        <time>2022-03-22T14:10:27.059Z</time>
      </trkpt>
      <trkpt lat="50.4339" lon="3.48712">
        <ele>20</ele>
        <time>2022-03-22T14:10:28.000Z</time>
      </trkpt>
      <trkpt lat="50.43389" lon="3.48705">
        <ele>20</ele>
        <time>2022-03-22T14:10:28.920Z</time>
      </trkpt>
      <trkpt lat="50.43386" lon="3.48697">
        <ele>20</ele>
        <time>2022-03-22T14:10:30.081Z</time>
      </trkpt>
      <trkpt lat="50.43384" lon="3.48689">
        <ele>20</ele>
        <time>2022-03-22T14:10:31.000Z</time>
      </trkpt>
      <trkpt lat="50.43382" lon="3.48682">
        <ele>20</ele>
        <time>2022-03-22T14:10:32.000Z</time>
      </trkpt>
      <trkpt lat="50.43378" lon="3.48674">
        <ele>20</ele>
        <time>2022-03-22T14:10:33.949Z</time>
      </trkpt>
      <trkpt lat="50.43377" lon="3.48665">
        <ele>20</ele>
        <time>2022-03-22T14:10:35.133Z</time>
      </trkpt>
      <trkpt lat="50.43376" lon="3.48654">
        <ele>19.8</ele>
        <time>2022-03-22T14:10:36.914Z</time>
      </trkpt>
      <trkpt lat="50.43374" lon="3.48641">
        <ele>19.6</ele>
        <time>2022-03-22T14:10:38.954Z</time>
      </trkpt>
      <trkpt lat="50.43372" lon="3.48634">
        <ele>19.6</ele>
        <time>2022-03-22T14:10:40.053Z</time>
      </trkpt>
      <trkpt lat="50.4337" lon="3.48628">
        <ele>19.7</ele>
        <time>2022-03-22T14:10:41.052Z</time>
      </trkpt>
      <trkpt lat="50.43366" lon="3.48615">
        <ele>19.8</ele>
        <time>2022-03-22T14:10:43.093Z</time>
      </trkpt>
      <trkpt lat="50.43364" lon="3.48609">
        <ele>19.8</ele>
        <time>2022-03-22T14:10:44.090Z</time>
      </trkpt>
      <trkpt lat="50.43362" lon="3.48601">
        <ele>19.6</ele>
        <time>2022-03-22T14:10:45.310Z</time>
      </trkpt>
      <trkpt lat="50.43361" lon="3.4859">
        <ele>19.2</ele>
        <time>2022-03-22T14:10:47.110Z</time>
      </trkpt>
      <trkpt lat="50.4336" lon="3.48583">
        <ele>19</ele>
        <time>2022-03-22T14:10:48.071Z</time>
      </trkpt>
      <trkpt lat="50.43358" lon="3.4857">
        <ele>19.1</ele>
        <time>2022-03-22T14:10:49.892Z</time>
      </trkpt>
      <trkpt lat="50.43356" lon="3.48563">
        <ele>19</ele>
        <time>2022-03-22T14:10:50.953Z</time>
      </trkpt>
      <trkpt lat="50.43354" lon="3.48555">
        <ele>19</ele>
        <time>2022-03-22T14:10:52.114Z</time>
      </trkpt>
      <trkpt lat="50.43352" lon="3.48537">
        <ele>19</ele>
        <time>2022-03-22T14:10:54.189Z</time>
      </trkpt>
      <trkpt lat="50.4335" lon="3.48528">
        <ele>19</ele>
        <time>2022-03-22T14:10:55.579Z</time>
      </trkpt>
      <trkpt lat="50.43348" lon="3.4852">
        <ele>18.9</ele>
        <time>2022-03-22T14:10:56.748Z</time>
      </trkpt>
      <trkpt lat="50.43346" lon="3.48509">
        <ele>18.7</ele>
        <time>2022-03-22T14:10:58.000Z</time>
      </trkpt>
      <trkpt lat="50.43344" lon="3.48501">
        <ele>18.6</ele>
        <time>2022-03-22T14:10:59.000Z</time>
      </trkpt>
      <trkpt lat="50.43342" lon="3.48494">
        <ele>18.5</ele>
        <time>2022-03-22T14:11:00.000Z</time>
      </trkpt>
      <trkpt lat="50.4334" lon="3.48481">
        <ele>18.2</ele>
        <time>2022-03-22T14:11:03.000Z</time>
      </trkpt>
      <trkpt lat="50.43338" lon="3.48472">
        <ele>18</ele>
        <time>2022-03-22T14:11:04.055Z</time>
      </trkpt>
      <trkpt lat="50.43336" lon="3.48464">
        <ele>18</ele>
        <time>2022-03-22T14:11:05.000Z</time>
      </trkpt>
      <trkpt lat="50.43333" lon="3.48456">
        <ele>18</ele>
        <time>2022-03-22T14:11:06.000Z</time>
      </trkpt>
      <trkpt lat="50.4333" lon="3.48445">
        <ele>18</ele>
        <time>2022-03-22T14:11:07.395Z</time>
      </trkpt>
      <trkpt lat="50.43328" lon="3.48436">
        <ele>18</ele>
        <time>2022-03-22T14:11:08.732Z</time>
      </trkpt>
      <trkpt lat="50.43327" lon="3.4843">
        <ele>18</ele>
        <time>2022-03-22T14:11:09.654Z</time>
      </trkpt>
      <trkpt lat="50.43325" lon="3.48421">
        <ele>18</ele>
        <time>2022-03-22T14:11:10.816Z</time>
      </trkpt>
      <trkpt lat="50.43323" lon="3.48414">
        <ele>18</ele>
        <time>2022-03-22T14:11:11.894Z</time>
      </trkpt>
      <trkpt lat="50.43318" lon="3.48398">
        <ele>18</ele>
        <time>2022-03-22T14:11:14.000Z</time>
      </trkpt>
      <trkpt lat="50.43317" lon="3.4839">
        <ele>18</ele>
        <time>2022-03-22T14:11:15.000Z</time>
      </trkpt>
      <trkpt lat="50.43316" lon="3.48382">
        <ele>18</ele>
        <time>2022-03-22T14:11:16.000Z</time>
      </trkpt>
      <trkpt lat="50.43314" lon="3.48374">
        <ele>18</ele>
        <time>2022-03-22T14:11:17.000Z</time>
      </trkpt>
      <trkpt lat="50.43313" lon="3.48366">
        <ele>18</ele>
        <time>2022-03-22T14:11:18.000Z</time>
      </trkpt>
      <trkpt lat="50.4331" lon="3.48358">
        <ele>18.1</ele>
        <time>2022-03-22T14:11:19.000Z</time>
      </trkpt>
      <trkpt lat="50.43308" lon="3.4835">
        <ele>18.4</ele>
        <time>2022-03-22T14:11:20.000Z</time>
      </trkpt>
      <trkpt lat="50.43306" lon="3.48342">
        <ele>18.7</ele>
        <time>2022-03-22T14:11:21.000Z</time>
      </trkpt>
      <trkpt lat="50.43304" lon="3.48335">
        <ele>18.9</ele>
        <time>2022-03-22T14:11:22.000Z</time>
      </trkpt>
      <trkpt lat="50.43302" lon="3.48328">
        <ele>18.9</ele>
        <time>2022-03-22T14:11:23.000Z</time>
      </trkpt>
      <trkpt lat="50.43299" lon="3.4832">
        <ele>18.9</ele>
        <time>2022-03-22T14:11:24.000Z</time>
      </trkpt>
      <trkpt lat="50.43298" lon="3.48314">
        <ele>18.9</ele>
        <time>2022-03-22T14:11:25.000Z</time>
      </trkpt>
      <trkpt lat="50.43296" lon="3.48307">
        <ele>19</ele>
        <time>2022-03-22T14:11:26.000Z</time>
      </trkpt>
      <trkpt lat="50.43295" lon="3.483">
        <ele>19</ele>
        <time>2022-03-22T14:11:27.000Z</time>
      </trkpt>
      <trkpt lat="50.43293" lon="3.48294">
        <ele>19</ele>
        <time>2022-03-22T14:11:28.000Z</time>
      </trkpt>
      <trkpt lat="50.4329" lon="3.48283">
        <ele>19</ele>
        <time>2022-03-22T14:11:30.000Z</time>
      </trkpt>
      <trkpt lat="50.43287" lon="3.48269">
        <ele>19</ele>
        <time>2022-03-22T14:11:32.000Z</time>
      </trkpt>
      <trkpt lat="50.43285" lon="3.48261">
        <ele>19</ele>
        <time>2022-03-22T14:11:33.000Z</time>
      </trkpt>
      <trkpt lat="50.43283" lon="3.48253">
        <ele>19</ele>
        <time>2022-03-22T14:11:34.000Z</time>
      </trkpt>
      <trkpt lat="50.43281" lon="3.48246">
        <ele>19</ele>
        <time>2022-03-22T14:11:35.341Z</time>
      </trkpt>
      <trkpt lat="50.43277" lon="3.48233">
        <ele>19</ele>
        <time>2022-03-22T14:11:37.762Z</time>
      </trkpt>
      <trkpt lat="50.43274" lon="3.48222">
        <ele>19</ele>
        <time>2022-03-22T14:11:40.384Z</time>
      </trkpt>
      <trkpt lat="50.43272" lon="3.48214">
        <ele>19</ele>
        <time>2022-03-22T14:11:43.081Z</time>
      </trkpt>
      <trkpt lat="50.4327" lon="3.48206">
        <ele>19</ele>
        <time>2022-03-22T14:11:47.000Z</time>
      </trkpt>
      <trkpt lat="50.43268" lon="3.48198">
        <ele>19</ele>
        <time>2022-03-22T14:11:50.000Z</time>
      </trkpt>
      <trkpt lat="50.43267" lon="3.4819">
        <ele>19</ele>
        <time>2022-03-22T14:11:51.986Z</time>
      </trkpt>
      <trkpt lat="50.43266" lon="3.4818">
        <ele>19</ele>
        <time>2022-03-22T14:11:54.000Z</time>
      </trkpt>
      <trkpt lat="50.43265" lon="3.48171">
        <ele>19</ele>
        <time>2022-03-22T14:11:55.823Z</time>
      </trkpt>
      <trkpt lat="50.43262" lon="3.48166">
        <ele>19</ele>
        <time>2022-03-22T14:11:58.000Z</time>
      </trkpt>
      <trkpt lat="50.43256" lon="3.4816">
        <ele>19</ele>
        <time>2022-03-22T14:12:00.045Z</time>
      </trkpt>
      <trkpt lat="50.4325" lon="3.48142">
        <ele>19</ele>
        <time>2022-03-22T14:12:02.000Z</time>
      </trkpt>
      <trkpt lat="50.43249" lon="3.48135">
        <ele>19</ele>
        <time>2022-03-22T14:12:03.000Z</time>
      </trkpt>
      <trkpt lat="50.43246" lon="3.48129">
        <ele>19</ele>
        <time>2022-03-22T14:12:04.000Z</time>
      </trkpt>
      <trkpt lat="50.43241" lon="3.48115">
        <ele>19</ele>
        <time>2022-03-22T14:12:06.409Z</time>
      </trkpt>
      <trkpt lat="50.43239" lon="3.48109">
        <ele>19</ele>
        <time>2022-03-22T14:12:07.587Z</time>
      </trkpt>
      <trkpt lat="50.43236" lon="3.48101">
        <ele>19</ele>
        <time>2022-03-22T14:12:09.108Z</time>
      </trkpt>
      <trkpt lat="50.43232" lon="3.48091">
        <ele>19</ele>
        <time>2022-03-22T14:12:10.493Z</time>
      </trkpt>
      <trkpt lat="50.43231" lon="3.48078">
        <ele>19</ele>
        <time>2022-03-22T14:12:12.735Z</time>
      </trkpt>
      <trkpt lat="50.43232" lon="3.48068">
        <ele>19</ele>
        <time>2022-03-22T14:12:14.000Z</time>
      </trkpt>
      <trkpt lat="50.43232" lon="3.48055">
        <ele>19</ele>
        <time>2022-03-22T14:12:16.019Z</time>
      </trkpt>
      <trkpt lat="50.43232" lon="3.48046">
        <ele>19</ele>
        <time>2022-03-22T14:12:17.417Z</time>
      </trkpt>
      <trkpt lat="50.43231" lon="3.48038">
        <ele>19</ele>
        <time>2022-03-22T14:12:18.679Z</time>
      </trkpt>
      <trkpt lat="50.43232" lon="3.48027">
        <ele>19</ele>
        <time>2022-03-22T14:12:21.556Z</time>
      </trkpt>
      <trkpt lat="50.4323" lon="3.48019">
        <ele>19</ele>
        <time>2022-03-22T14:12:25.018Z</time>
      </trkpt>
      <trkpt lat="50.43227" lon="3.48006">
        <ele>19</ele>
        <time>2022-03-22T14:12:27.263Z</time>
      </trkpt>
      <trkpt lat="50.43225" lon="3.47998">
        <ele>19</ele>
        <time>2022-03-22T14:12:28.549Z</time>
      </trkpt>
      <trkpt lat="50.43223" lon="3.47989">
        <ele>19</ele>
        <time>2022-03-22T14:12:29.756Z</time>
      </trkpt>
      <trkpt lat="50.4322" lon="3.47979">
        <ele>19</ele>
        <time>2022-03-22T14:12:31.121Z</time>
      </trkpt>
      <trkpt lat="50.43217" lon="3.47971">
        <ele>19</ele>
        <time>2022-03-22T14:12:32.158Z</time>
      </trkpt>
      <trkpt lat="50.43216" lon="3.47964">
        <ele>19</ele>
        <time>2022-03-22T14:12:33.059Z</time>
      </trkpt>
      <trkpt lat="50.43213" lon="3.4795">
        <ele>19</ele>
        <time>2022-03-22T14:12:35.437Z</time>
      </trkpt>
      <trkpt lat="50.43214" lon="3.47943">
        <ele>19</ele>
        <time>2022-03-22T14:12:38.696Z</time>
      </trkpt>
      <trkpt lat="50.4322" lon="3.47942">
        <ele>19</ele>
        <time>2022-03-22T14:12:42.900Z</time>
      </trkpt>
      <trkpt lat="50.43224" lon="3.47935">
        <ele>19</ele>
        <time>2022-03-22T14:12:46.479Z</time>
      </trkpt>
      <trkpt lat="50.43227" lon="3.47926">
        <ele>19</ele>
        <time>2022-03-22T14:12:49.000Z</time>
      </trkpt>
      <trkpt lat="50.43229" lon="3.4792">
        <ele>19</ele>
        <time>2022-03-22T14:12:51.000Z</time>
      </trkpt>
      <trkpt lat="50.43232" lon="3.47912">
        <ele>19</ele>
        <time>2022-03-22T14:12:54.000Z</time>
      </trkpt>
      <trkpt lat="50.43234" lon="3.47904">
        <ele>19</ele>
        <time>2022-03-22T14:12:57.000Z</time>
      </trkpt>
      <trkpt lat="50.43235" lon="3.47895">
        <ele>19</ele>
        <time>2022-03-22T14:13:00.000Z</time>
      </trkpt>
      <trkpt lat="50.43235" lon="3.47886">
        <ele>19</ele>
        <time>2022-03-22T14:13:02.000Z</time>
      </trkpt>
      <trkpt lat="50.43234" lon="3.47875">
        <ele>19</ele>
        <time>2022-03-22T14:13:04.000Z</time>
      </trkpt>
      <trkpt lat="50.43231" lon="3.47863">
        <ele>19</ele>
        <time>2022-03-22T14:13:06.000Z</time>
      </trkpt>
      <trkpt lat="50.43229" lon="3.47856">
        <ele>19</ele>
        <time>2022-03-22T14:13:07.000Z</time>
      </trkpt>
      <trkpt lat="50.43226" lon="3.47844">
        <ele>19</ele>
        <time>2022-03-22T14:13:09.000Z</time>
      </trkpt>
      <trkpt lat="50.43224" lon="3.47832">
        <ele>19</ele>
        <time>2022-03-22T14:13:11.000Z</time>
      </trkpt>
      <trkpt lat="50.43222" lon="3.47821">
        <ele>19</ele>
        <time>2022-03-22T14:13:13.000Z</time>
      </trkpt>
      <trkpt lat="50.4322" lon="3.47813">
        <ele>18.9</ele>
        <time>2022-03-22T14:13:14.000Z</time>
      </trkpt>
      <trkpt lat="50.43219" lon="3.47802">
        <ele>18.8</ele>
        <time>2022-03-22T14:13:16.000Z</time>
      </trkpt>
      <trkpt lat="50.43217" lon="3.47794">
        <ele>18.5</ele>
        <time>2022-03-22T14:13:18.000Z</time>
      </trkpt>
      <trkpt lat="50.43215" lon="3.47784">
        <ele>18.2</ele>
        <time>2022-03-22T14:13:20.000Z</time>
      </trkpt>
      <trkpt lat="50.43214" lon="3.47772">
        <ele>18</ele>
        <time>2022-03-22T14:13:22.000Z</time>
      </trkpt>
      <trkpt lat="50.43212" lon="3.47761">
        <ele>18</ele>
        <time>2022-03-22T14:13:24.000Z</time>
      </trkpt>
      <trkpt lat="50.4321" lon="3.4775">
        <ele>18</ele>
        <time>2022-03-22T14:13:26.000Z</time>
      </trkpt>
      <trkpt lat="50.43209" lon="3.47739">
        <ele>18</ele>
        <time>2022-03-22T14:13:28.000Z</time>
      </trkpt>
      <trkpt lat="50.43207" lon="3.47728">
        <ele>18</ele>
        <time>2022-03-22T14:13:30.000Z</time>
      </trkpt>
      <trkpt lat="50.43205" lon="3.47717">
        <ele>18</ele>
        <time>2022-03-22T14:13:32.000Z</time>
      </trkpt>
      <trkpt lat="50.43204" lon="3.47706">
        <ele>18</ele>
        <time>2022-03-22T14:13:34.000Z</time>
      </trkpt>
      <trkpt lat="50.43202" lon="3.47696">
        <ele>18</ele>
        <time>2022-03-22T14:13:35.979Z</time>
      </trkpt>
      <trkpt lat="50.432" lon="3.47682">
        <ele>18</ele>
        <time>2022-03-22T14:13:38.000Z</time>
      </trkpt>
      <trkpt lat="50.43198" lon="3.47669">
        <ele>18</ele>
        <time>2022-03-22T14:13:40.000Z</time>
      </trkpt>
      <trkpt lat="50.43197" lon="3.47658">
        <ele>18</ele>
        <time>2022-03-22T14:13:42.000Z</time>
      </trkpt>
      <trkpt lat="50.43196" lon="3.47647">
        <ele>18</ele>
        <time>2022-03-22T14:13:44.000Z</time>
      </trkpt>
      <trkpt lat="50.43194" lon="3.47634">
        <ele>18</ele>
        <time>2022-03-22T14:13:46.000Z</time>
      </trkpt>
      <trkpt lat="50.4319" lon="3.47617">
        <ele>18</ele>
        <time>2022-03-22T14:13:48.400Z</time>
      </trkpt>
      <trkpt lat="50.43188" lon="3.47606">
        <ele>18</ele>
        <time>2022-03-22T14:13:50.000Z</time>
      </trkpt>
      <trkpt lat="50.43187" lon="3.47599">
        <ele>18</ele>
        <time>2022-03-22T14:13:51.000Z</time>
      </trkpt>
      <trkpt lat="50.43185" lon="3.47586">
        <ele>18</ele>
        <time>2022-03-22T14:13:53.000Z</time>
      </trkpt>
      <trkpt lat="50.43183" lon="3.47573">
        <ele>18</ele>
        <time>2022-03-22T14:13:55.000Z</time>
      </trkpt>
      <trkpt lat="50.43182" lon="3.47565">
        <ele>18</ele>
        <time>2022-03-22T14:13:56.079Z</time>
      </trkpt>
      <trkpt lat="50.4318" lon="3.47547">
        <ele>18</ele>
        <time>2022-03-22T14:13:59.000Z</time>
      </trkpt>
      <trkpt lat="50.43178" lon="3.47534">
        <ele>18</ele>
        <time>2022-03-22T14:14:01.000Z</time>
      </trkpt>
      <trkpt lat="50.43177" lon="3.47521">
        <ele>18</ele>
        <time>2022-03-22T14:14:03.000Z</time>
      </trkpt>
      <trkpt lat="50.43176" lon="3.47508">
        <ele>18</ele>
        <time>2022-03-22T14:14:05.000Z</time>
      </trkpt>
      <trkpt lat="50.43175" lon="3.47495">
        <ele>18</ele>
        <time>2022-03-22T14:14:07.000Z</time>
      </trkpt>
      <trkpt lat="50.43173" lon="3.47482">
        <ele>18</ele>
        <time>2022-03-22T14:14:09.000Z</time>
      </trkpt>
      <trkpt lat="50.43173" lon="3.4747">
        <ele>18</ele>
        <time>2022-03-22T14:14:11.000Z</time>
      </trkpt>
      <trkpt lat="50.43172" lon="3.47457">
        <ele>18</ele>
        <time>2022-03-22T14:14:13.000Z</time>
      </trkpt>
      <trkpt lat="50.43171" lon="3.4745">
        <ele>18</ele>
        <time>2022-03-22T14:14:14.000Z</time>
      </trkpt>
      <trkpt lat="50.4317" lon="3.47437">
        <ele>18.2</ele>
        <time>2022-03-22T14:14:16.000Z</time>
      </trkpt>
      <trkpt lat="50.4317" lon="3.47424">
        <ele>18.6</ele>
        <time>2022-03-22T14:14:18.000Z</time>
      </trkpt>
      <trkpt lat="50.43168" lon="3.4741">
        <ele>19</ele>
        <time>2022-03-22T14:14:20.000Z</time>
      </trkpt>
      <trkpt lat="50.43167" lon="3.47399">
        <ele>19</ele>
        <time>2022-03-22T14:14:22.000Z</time>
      </trkpt>
      <trkpt lat="50.43166" lon="3.47386">
        <ele>19</ele>
        <time>2022-03-22T14:14:24.000Z</time>
      </trkpt>
      <trkpt lat="50.43166" lon="3.47373">
        <ele>19</ele>
        <time>2022-03-22T14:14:26.000Z</time>
      </trkpt>
      <trkpt lat="50.43166" lon="3.47361">
        <ele>19</ele>
        <time>2022-03-22T14:14:27.861Z</time>
      </trkpt>
      <trkpt lat="50.43166" lon="3.47354">
        <ele>19</ele>
        <time>2022-03-22T14:14:29.000Z</time>
      </trkpt>
      <trkpt lat="50.43164" lon="3.4734">
        <ele>19</ele>
        <time>2022-03-22T14:14:31.078Z</time>
      </trkpt>
      <trkpt lat="50.43163" lon="3.47333">
        <ele>19</ele>
        <time>2022-03-22T14:14:32.000Z</time>
      </trkpt>
      <trkpt lat="50.43163" lon="3.47326">
        <ele>19</ele>
        <time>2022-03-22T14:14:33.000Z</time>
      </trkpt>
      <trkpt lat="50.43162" lon="3.47308">
        <ele>19</ele>
        <time>2022-03-22T14:14:35.363Z</time>
      </trkpt>
      <trkpt lat="50.43162" lon="3.47295">
        <ele>19</ele>
        <time>2022-03-22T14:14:37.000Z</time>
      </trkpt>
      <trkpt lat="50.43161" lon="3.47287">
        <ele>19</ele>
        <time>2022-03-22T14:14:38.020Z</time>
      </trkpt>
      <trkpt lat="50.43161" lon="3.4728">
        <ele>19</ele>
        <time>2022-03-22T14:14:39.057Z</time>
      </trkpt>
      <trkpt lat="50.43158" lon="3.4727">
        <ele>19</ele>
        <time>2022-03-22T14:14:40.000Z</time>
      </trkpt>
      <trkpt lat="50.43157" lon="3.47262">
        <ele>19</ele>
        <time>2022-03-22T14:14:41.000Z</time>
      </trkpt>
      <trkpt lat="50.43155" lon="3.47254">
        <ele>19</ele>
        <time>2022-03-22T14:14:42.000Z</time>
      </trkpt>
      <trkpt lat="50.43152" lon="3.47246">
        <ele>19</ele>
        <time>2022-03-22T14:14:43.000Z</time>
      </trkpt>
      <trkpt lat="50.43149" lon="3.47238">
        <ele>19</ele>
        <time>2022-03-22T14:14:44.000Z</time>
      </trkpt>
      <trkpt lat="50.43145" lon="3.4723">
        <ele>19</ele>
        <time>2022-03-22T14:14:45.000Z</time>
      </trkpt>
      <trkpt lat="50.43142" lon="3.47223">
        <ele>19</ele>
        <time>2022-03-22T14:14:46.000Z</time>
      </trkpt>
      <trkpt lat="50.43139" lon="3.47215">
        <ele>19</ele>
        <time>2022-03-22T14:14:47.000Z</time>
      </trkpt>
      <trkpt lat="50.43136" lon="3.47208">
        <ele>19</ele>
        <time>2022-03-22T14:14:48.000Z</time>
      </trkpt>
      <trkpt lat="50.43134" lon="3.472">
        <ele>19</ele>
        <time>2022-03-22T14:14:49.000Z</time>
      </trkpt>
      <trkpt lat="50.43132" lon="3.47192">
        <ele>19</ele>
        <time>2022-03-22T14:14:50.000Z</time>
      </trkpt>
      <trkpt lat="50.43131" lon="3.47183">
        <ele>19</ele>
        <time>2022-03-22T14:14:51.000Z</time>
      </trkpt>
      <trkpt lat="50.43132" lon="3.47174">
        <ele>19</ele>
        <time>2022-03-22T14:14:52.000Z</time>
      </trkpt>
      <trkpt lat="50.43134" lon="3.47166">
        <ele>19</ele>
        <time>2022-03-22T14:14:53.000Z</time>
      </trkpt>
      <trkpt lat="50.43137" lon="3.47158">
        <ele>19</ele>
        <time>2022-03-22T14:14:54.000Z</time>
      </trkpt>
      <trkpt lat="50.4314" lon="3.4715">
        <ele>19</ele>
        <time>2022-03-22T14:14:55.000Z</time>
      </trkpt>
      <trkpt lat="50.43143" lon="3.47143">
        <ele>19</ele>
        <time>2022-03-22T14:14:56.000Z</time>
      </trkpt>
      <trkpt lat="50.43146" lon="3.47136">
        <ele>19</ele>
        <time>2022-03-22T14:14:57.000Z</time>
      </trkpt>
      <trkpt lat="50.43148" lon="3.47129">
        <ele>19</ele>
        <time>2022-03-22T14:14:58.000Z</time>
      </trkpt>
      <trkpt lat="50.43151" lon="3.47122">
        <ele>19</ele>
        <time>2022-03-22T14:14:59.000Z</time>
      </trkpt>
      <trkpt lat="50.43154" lon="3.47116">
        <ele>19</ele>
        <time>2022-03-22T14:15:00.000Z</time>
      </trkpt>
      <trkpt lat="50.43157" lon="3.47109">
        <ele>19</ele>
        <time>2022-03-22T14:15:01.000Z</time>
      </trkpt>
      <trkpt lat="50.4316" lon="3.47102">
        <ele>19</ele>
        <time>2022-03-22T14:15:02.000Z</time>
      </trkpt>
      <trkpt lat="50.43163" lon="3.47095">
        <ele>19</ele>
        <time>2022-03-22T14:15:03.000Z</time>
      </trkpt>
      <trkpt lat="50.43165" lon="3.47089">
        <ele>19</ele>
        <time>2022-03-22T14:15:04.000Z</time>
      </trkpt>
      <trkpt lat="50.43168" lon="3.47082">
        <ele>19</ele>
        <time>2022-03-22T14:15:05.000Z</time>
      </trkpt>
      <trkpt lat="50.4317" lon="3.47075">
        <ele>19</ele>
        <time>2022-03-22T14:15:06.000Z</time>
      </trkpt>
      <trkpt lat="50.43173" lon="3.47069">
        <ele>19</ele>
        <time>2022-03-22T14:15:07.000Z</time>
      </trkpt>
      <trkpt lat="50.43175" lon="3.47062">
        <ele>19</ele>
        <time>2022-03-22T14:15:08.000Z</time>
      </trkpt>
      <trkpt lat="50.43178" lon="3.47055">
        <ele>19</ele>
        <time>2022-03-22T14:15:09.000Z</time>
      </trkpt>
      <trkpt lat="50.43182" lon="3.47049">
        <ele>19</ele>
        <time>2022-03-22T14:15:10.000Z</time>
      </trkpt>
      <trkpt lat="50.43185" lon="3.47042">
        <ele>19</ele>
        <time>2022-03-22T14:15:11.000Z</time>
      </trkpt>
      <trkpt lat="50.43188" lon="3.47035">
        <ele>19</ele>
        <time>2022-03-22T14:15:12.000Z</time>
      </trkpt>
      <trkpt lat="50.43191" lon="3.47029">
        <ele>19</ele>
        <time>2022-03-22T14:15:13.000Z</time>
      </trkpt>
      <trkpt lat="50.43193" lon="3.47023">
        <ele>19</ele>
        <time>2022-03-22T14:15:14.000Z</time>
      </trkpt>
      <trkpt lat="50.43196" lon="3.47017">
        <ele>19</ele>
        <time>2022-03-22T14:15:15.000Z</time>
      </trkpt>
      <trkpt lat="50.43198" lon="3.4701">
        <ele>19</ele>
        <time>2022-03-22T14:15:16.000Z</time>
      </trkpt>
      <trkpt lat="50.43201" lon="3.47004">
        <ele>19</ele>
        <time>2022-03-22T14:15:17.000Z</time>
      </trkpt>
      <trkpt lat="50.43204" lon="3.46998">
        <ele>19</ele>
        <time>2022-03-22T14:15:18.000Z</time>
      </trkpt>
      <trkpt lat="50.43206" lon="3.4699">
        <ele>19</ele>
        <time>2022-03-22T14:15:19.000Z</time>
      </trkpt>
      <trkpt lat="50.43208" lon="3.46984">
        <ele>19</ele>
        <time>2022-03-22T14:15:20.000Z</time>
      </trkpt>
      <trkpt lat="50.43211" lon="3.46977">
        <ele>19</ele>
        <time>2022-03-22T14:15:21.000Z</time>
      </trkpt>
      <trkpt lat="50.43214" lon="3.4697">
        <ele>19</ele>
        <time>2022-03-22T14:15:22.000Z</time>
      </trkpt>
      <trkpt lat="50.43217" lon="3.46963">
        <ele>19</ele>
        <time>2022-03-22T14:15:23.000Z</time>
      </trkpt>
      <trkpt lat="50.4322" lon="3.46956">
        <ele>19</ele>
        <time>2022-03-22T14:15:24.000Z</time>
      </trkpt>
      <trkpt lat="50.43222" lon="3.46949">
        <ele>19</ele>
        <time>2022-03-22T14:15:25.000Z</time>
      </trkpt>
      <trkpt lat="50.43225" lon="3.46942">
        <ele>19</ele>
        <time>2022-03-22T14:15:26.000Z</time>
      </trkpt>
      <trkpt lat="50.43228" lon="3.46935">
        <ele>19</ele>
        <time>2022-03-22T14:15:27.000Z</time>
      </trkpt>
      <trkpt lat="50.43231" lon="3.46928">
        <ele>19</ele>
        <time>2022-03-22T14:15:28.000Z</time>
      </trkpt>
      <trkpt lat="50.43234" lon="3.46922">
        <ele>19</ele>
        <time>2022-03-22T14:15:29.000Z</time>
      </trkpt>
      <trkpt lat="50.43236" lon="3.46916">
        <ele>19</ele>
        <time>2022-03-22T14:15:30.000Z</time>
      </trkpt>
      <trkpt lat="50.43239" lon="3.4691">
        <ele>19</ele>
        <time>2022-03-22T14:15:31.000Z</time>
      </trkpt>
      <trkpt lat="50.43242" lon="3.46903">
        <ele>19</ele>
        <time>2022-03-22T14:15:32.000Z</time>
      </trkpt>
      <trkpt lat="50.43245" lon="3.46897">
        <ele>19</ele>
        <time>2022-03-22T14:15:33.000Z</time>
      </trkpt>
      <trkpt lat="50.43249" lon="3.4689">
        <ele>19</ele>
        <time>2022-03-22T14:15:34.000Z</time>
      </trkpt>
      <trkpt lat="50.43252" lon="3.46884">
        <ele>19</ele>
        <time>2022-03-22T14:15:35.000Z</time>
      </trkpt>
      <trkpt lat="50.43255" lon="3.46877">
        <ele>19</ele>
        <time>2022-03-22T14:15:36.000Z</time>
      </trkpt>
      <trkpt lat="50.43258" lon="3.46871">
        <ele>19</ele>
        <time>2022-03-22T14:15:37.000Z</time>
      </trkpt>
      <trkpt lat="50.4326" lon="3.46864">
        <ele>19</ele>
        <time>2022-03-22T14:15:38.000Z</time>
      </trkpt>
      <trkpt lat="50.43263" lon="3.46857">
        <ele>19</ele>
        <time>2022-03-22T14:15:39.000Z</time>
      </trkpt>
      <trkpt lat="50.43265" lon="3.4685">
        <ele>19</ele>
        <time>2022-03-22T14:15:40.000Z</time>
      </trkpt>
      <trkpt lat="50.43268" lon="3.46844">
        <ele>19</ele>
        <time>2022-03-22T14:15:41.000Z</time>
      </trkpt>
      <trkpt lat="50.43271" lon="3.46837">
        <ele>19</ele>
        <time>2022-03-22T14:15:42.000Z</time>
      </trkpt>
      <trkpt lat="50.43274" lon="3.4683">
        <ele>19</ele>
        <time>2022-03-22T14:15:43.000Z</time>
      </trkpt>
      <trkpt lat="50.43276" lon="3.46823">
        <ele>19</ele>
        <time>2022-03-22T14:15:44.000Z</time>
      </trkpt>
      <trkpt lat="50.43279" lon="3.46816">
        <ele>19</ele>
        <time>2022-03-22T14:15:45.000Z</time>
      </trkpt>
      <trkpt lat="50.43282" lon="3.4681">
        <ele>18.9</ele>
        <time>2022-03-22T14:15:46.000Z</time>
      </trkpt>
      <trkpt lat="50.43285" lon="3.46803">
        <ele>18.7</ele>
        <time>2022-03-22T14:15:47.000Z</time>
      </trkpt>
      <trkpt lat="50.43288" lon="3.46797">
        <ele>18.4</ele>
        <time>2022-03-22T14:15:48.000Z</time>
      </trkpt>
      <trkpt lat="50.4329" lon="3.4679">
        <ele>18.2</ele>
        <time>2022-03-22T14:15:49.000Z</time>
      </trkpt>
      <trkpt lat="50.43293" lon="3.46784">
        <ele>18.1</ele>
        <time>2022-03-22T14:15:50.000Z</time>
      </trkpt>
      <trkpt lat="50.43295" lon="3.46777">
        <ele>18</ele>
        <time>2022-03-22T14:15:51.000Z</time>
      </trkpt>
      <trkpt lat="50.43298" lon="3.4677">
        <ele>18</ele>
        <time>2022-03-22T14:15:52.000Z</time>
      </trkpt>
      <trkpt lat="50.43301" lon="3.46763">
        <ele>18</ele>
        <time>2022-03-22T14:15:53.000Z</time>
      </trkpt>
      <trkpt lat="50.43303" lon="3.46756">
        <ele>18</ele>
        <time>2022-03-22T14:15:54.000Z</time>
      </trkpt>
      <trkpt lat="50.43306" lon="3.4675">
        <ele>18</ele>
        <time>2022-03-22T14:15:55.000Z</time>
      </trkpt>
      <trkpt lat="50.43309" lon="3.46743">
        <ele>17.7</ele>
        <time>2022-03-22T14:15:56.000Z</time>
      </trkpt>
      <trkpt lat="50.43312" lon="3.46736">
        <ele>17.4</ele>
        <time>2022-03-22T14:15:57.000Z</time>
      </trkpt>
      <trkpt lat="50.43315" lon="3.4673">
        <ele>17.2</ele>
        <time>2022-03-22T14:15:58.000Z</time>
      </trkpt>
      <trkpt lat="50.43317" lon="3.46724">
        <ele>17</ele>
        <time>2022-03-22T14:15:59.000Z</time>
      </trkpt>
      <trkpt lat="50.43319" lon="3.46717">
        <ele>17</ele>
        <time>2022-03-22T14:16:00.000Z</time>
      </trkpt>
      <trkpt lat="50.43324" lon="3.46704">
        <ele>17</ele>
        <time>2022-03-22T14:16:02.000Z</time>
      </trkpt>
      <trkpt lat="50.43326" lon="3.46697">
        <ele>17</ele>
        <time>2022-03-22T14:16:03.000Z</time>
      </trkpt>
      <trkpt lat="50.43329" lon="3.46691">
        <ele>17</ele>
        <time>2022-03-22T14:16:04.000Z</time>
      </trkpt>
      <trkpt lat="50.43331" lon="3.46685">
        <ele>17</ele>
        <time>2022-03-22T14:16:05.000Z</time>
      </trkpt>
      <trkpt lat="50.43336" lon="3.46671">
        <ele>17</ele>
        <time>2022-03-22T14:16:07.000Z</time>
      </trkpt>
      <trkpt lat="50.43341" lon="3.46661">
        <ele>17</ele>
        <time>2022-03-22T14:16:09.000Z</time>
      </trkpt>
      <trkpt lat="50.43346" lon="3.46652">
        <ele>17</ele>
        <time>2022-03-22T14:16:11.000Z</time>
      </trkpt>
      <trkpt lat="50.43349" lon="3.46645">
        <ele>17</ele>
        <time>2022-03-22T14:16:12.000Z</time>
      </trkpt>
      <trkpt lat="50.43352" lon="3.46635">
        <ele>17.1</ele>
        <time>2022-03-22T14:16:14.000Z</time>
      </trkpt>
      <trkpt lat="50.43356" lon="3.46626">
        <ele>17.4</ele>
        <time>2022-03-22T14:16:16.000Z</time>
      </trkpt>
      <trkpt lat="50.43361" lon="3.46617">
        <ele>17.8</ele>
        <time>2022-03-22T14:16:18.000Z</time>
      </trkpt>
      <trkpt lat="50.43366" lon="3.46608">
        <ele>18.1</ele>
        <time>2022-03-22T14:16:20.000Z</time>
      </trkpt>
      <trkpt lat="50.43371" lon="3.46599">
        <ele>18.4</ele>
        <time>2022-03-22T14:16:22.000Z</time>
      </trkpt>
      <trkpt lat="50.43375" lon="3.46594">
        <ele>18.6</ele>
        <time>2022-03-22T14:16:24.000Z</time>
      </trkpt>
      <trkpt lat="50.4338" lon="3.46588">
        <ele>18.8</ele>
        <time>2022-03-22T14:16:26.000Z</time>
      </trkpt>
      <trkpt lat="50.43386" lon="3.46584">
        <ele>19</ele>
        <time>2022-03-22T14:16:28.000Z</time>
      </trkpt>
      <trkpt lat="50.43393" lon="3.46582">
        <ele>19.2</ele>
        <time>2022-03-22T14:16:31.000Z</time>
      </trkpt>
      <trkpt lat="50.43398" lon="3.46583">
        <ele>19.4</ele>
        <time>2022-03-22T14:16:33.000Z</time>
      </trkpt>
      <trkpt lat="50.43403" lon="3.46584">
        <ele>19.5</ele>
        <time>2022-03-22T14:16:35.000Z</time>
      </trkpt>
      <trkpt lat="50.43408" lon="3.46585">
        <ele>19.6</ele>
        <time>2022-03-22T14:16:37.000Z</time>
      </trkpt>
      <trkpt lat="50.43413" lon="3.46588">
        <ele>19.7</ele>
        <time>2022-03-22T14:16:39.000Z</time>
      </trkpt>
      <trkpt lat="50.43417" lon="3.46589">
        <ele>19.8</ele>
        <time>2022-03-22T14:16:41.000Z</time>
      </trkpt>
      <trkpt lat="50.43422" lon="3.46589">
        <ele>20.2</ele>
        <time>2022-03-22T14:16:43.000Z</time>
      </trkpt>
      <trkpt lat="50.43428" lon="3.4659">
        <ele>20.6</ele>
        <time>2022-03-22T14:16:45.000Z</time>
      </trkpt>
      <trkpt lat="50.43434" lon="3.4659">
        <ele>21</ele>
        <time>2022-03-22T14:16:47.000Z</time>
      </trkpt>
      <trkpt lat="50.43439" lon="3.46588">
        <ele>21.4</ele>
        <time>2022-03-22T14:16:49.000Z</time>
      </trkpt>
      <trkpt lat="50.43444" lon="3.46589">
        <ele>21.8</ele>
        <time>2022-03-22T14:16:51.000Z</time>
      </trkpt>
      <trkpt lat="50.4345" lon="3.46591">
        <ele>21.9</ele>
        <time>2022-03-22T14:16:54.000Z</time>
      </trkpt>
      <trkpt lat="50.43455" lon="3.46591">
        <ele>22.1</ele>
        <time>2022-03-22T14:16:57.000Z</time>
      </trkpt>
      <trkpt lat="50.4346" lon="3.46593">
        <ele>22.2</ele>
        <time>2022-03-22T14:17:00.000Z</time>
      </trkpt>
      <trkpt lat="50.43465" lon="3.4659">
        <ele>22.5</ele>
        <time>2022-03-22T14:17:02.000Z</time>
      </trkpt>
      <trkpt lat="50.43472" lon="3.46586">
        <ele>22.9</ele>
        <time>2022-03-22T14:17:04.000Z</time>
      </trkpt>
      <trkpt lat="50.43477" lon="3.46582">
        <ele>23.2</ele>
        <time>2022-03-22T14:17:06.000Z</time>
      </trkpt>
      <trkpt lat="50.43481" lon="3.46578">
        <ele>23.4</ele>
        <time>2022-03-22T14:17:08.000Z</time>
      </trkpt>
      <trkpt lat="50.43486" lon="3.46574">
        <ele>23.7</ele>
        <time>2022-03-22T14:17:10.000Z</time>
      </trkpt>
      <trkpt lat="50.4349" lon="3.46568">
        <ele>23.8</ele>
        <time>2022-03-22T14:17:12.000Z</time>
      </trkpt>
      <trkpt lat="50.43495" lon="3.46561">
        <ele>24</ele>
        <time>2022-03-22T14:17:14.170Z</time>
      </trkpt>
      <trkpt lat="50.43498" lon="3.46555">
        <ele>24</ele>
        <time>2022-03-22T14:17:15.653Z</time>
      </trkpt>
      <trkpt lat="50.43502" lon="3.4655">
        <ele>24.2</ele>
        <time>2022-03-22T14:17:17.071Z</time>
      </trkpt>
      <trkpt lat="50.43505" lon="3.46544">
        <ele>24.4</ele>
        <time>2022-03-22T14:17:18.691Z</time>
      </trkpt>
      <trkpt lat="50.43508" lon="3.46535">
        <ele>24.7</ele>
        <time>2022-03-22T14:17:21.000Z</time>
      </trkpt>
      <trkpt lat="50.43511" lon="3.46527">
        <ele>25</ele>
        <time>2022-03-22T14:17:23.000Z</time>
      </trkpt>
      <trkpt lat="50.43514" lon="3.46518">
        <ele>25</ele>
        <time>2022-03-22T14:17:25.000Z</time>
      </trkpt>
      <trkpt lat="50.43517" lon="3.46509">
        <ele>25</ele>
        <time>2022-03-22T14:17:27.000Z</time>
      </trkpt>
      <trkpt lat="50.43519" lon="3.46502">
        <ele>25</ele>
        <time>2022-03-22T14:17:29.000Z</time>
      </trkpt>
      <trkpt lat="50.43521" lon="3.46495">
        <ele>25</ele>
        <time>2022-03-22T14:17:31.000Z</time>
      </trkpt>
      <trkpt lat="50.43523" lon="3.46487">
        <ele>25.1</ele>
        <time>2022-03-22T14:17:33.000Z</time>
      </trkpt>
      <trkpt lat="50.43524" lon="3.4648">
        <ele>25.1</ele>
        <time>2022-03-22T14:17:35.000Z</time>
      </trkpt>
      <trkpt lat="50.43525" lon="3.46473">
        <ele>25.1</ele>
        <time>2022-03-22T14:17:37.000Z</time>
      </trkpt>
      <trkpt lat="50.43526" lon="3.46465">
        <ele>25.3</ele>
        <time>2022-03-22T14:17:39.000Z</time>
      </trkpt>
      <trkpt lat="50.43527" lon="3.46456">
        <ele>25.6</ele>
        <time>2022-03-22T14:17:41.000Z</time>
      </trkpt>
      <trkpt lat="50.43527" lon="3.46448">
        <ele>25.9</ele>
        <time>2022-03-22T14:17:43.000Z</time>
      </trkpt>
      <trkpt lat="50.43528" lon="3.46439">
        <ele>26</ele>
        <time>2022-03-22T14:17:45.000Z</time>
      </trkpt>
      <trkpt lat="50.43529" lon="3.46431">
        <ele>26</ele>
        <time>2022-03-22T14:17:47.000Z</time>
      </trkpt>
      <trkpt lat="50.4353" lon="3.46422">
        <ele>26</ele>
        <time>2022-03-22T14:17:49.000Z</time>
      </trkpt>
      <trkpt lat="50.4353" lon="3.46414">
        <ele>26</ele>
        <time>2022-03-22T14:17:50.955Z</time>
      </trkpt>
      <trkpt lat="50.43531" lon="3.46405">
        <ele>26</ele>
        <time>2022-03-22T14:17:53.000Z</time>
      </trkpt>
      <trkpt lat="50.43529" lon="3.46398">
        <ele>26</ele>
        <time>2022-03-22T14:17:54.000Z</time>
      </trkpt>
      <trkpt lat="50.4353" lon="3.46388">
        <ele>26</ele>
        <time>2022-03-22T14:17:56.000Z</time>
      </trkpt>
      <trkpt lat="50.43531" lon="3.46379">
        <ele>26</ele>
        <time>2022-03-22T14:17:58.000Z</time>
      </trkpt>
      <trkpt lat="50.43531" lon="3.46371">
        <ele>26</ele>
        <time>2022-03-22T14:18:00.000Z</time>
      </trkpt>
      <trkpt lat="50.43532" lon="3.46362">
        <ele>26</ele>
        <time>2022-03-22T14:18:02.000Z</time>
      </trkpt>
      <trkpt lat="50.43533" lon="3.46353">
        <ele>26</ele>
        <time>2022-03-22T14:18:04.000Z</time>
      </trkpt>
      <trkpt lat="50.43535" lon="3.46344">
        <ele>26</ele>
        <time>2022-03-22T14:18:06.000Z</time>
      </trkpt>
      <trkpt lat="50.43535" lon="3.46333">
        <ele>26</ele>
        <time>2022-03-22T14:18:08.000Z</time>
      </trkpt>
      <trkpt lat="50.43536" lon="3.46324">
        <ele>26</ele>
        <time>2022-03-22T14:18:10.000Z</time>
      </trkpt>
      <trkpt lat="50.43538" lon="3.46314">
        <ele>26</ele>
        <time>2022-03-22T14:18:12.000Z</time>
      </trkpt>
      <trkpt lat="50.43539" lon="3.46306">
        <ele>26</ele>
        <time>2022-03-22T14:18:14.000Z</time>
      </trkpt>
      <trkpt lat="50.43541" lon="3.46298">
        <ele>26.1</ele>
        <time>2022-03-22T14:18:15.848Z</time>
      </trkpt>
      <trkpt lat="50.43542" lon="3.46289">
        <ele>26.3</ele>
        <time>2022-03-22T14:18:18.000Z</time>
      </trkpt>
      <trkpt lat="50.43543" lon="3.4628">
        <ele>26.4</ele>
        <time>2022-03-22T14:18:20.030Z</time>
      </trkpt>
      <trkpt lat="50.43546" lon="3.46273">
        <ele>26.3</ele>
        <time>2022-03-22T14:18:22.000Z</time>
      </trkpt>
      <trkpt lat="50.43549" lon="3.46263">
        <ele>26.2</ele>
        <time>2022-03-22T14:18:24.000Z</time>
      </trkpt>
      <trkpt lat="50.43552" lon="3.46253">
        <ele>26.1</ele>
        <time>2022-03-22T14:18:26.000Z</time>
      </trkpt>
      <trkpt lat="50.43555" lon="3.46243">
        <ele>26.3</ele>
        <time>2022-03-22T14:18:28.000Z</time>
      </trkpt>
      <trkpt lat="50.43558" lon="3.46232">
        <ele>26.6</ele>
        <time>2022-03-22T14:18:30.000Z</time>
      </trkpt>
      <trkpt lat="50.43563" lon="3.46214">
        <ele>26.8</ele>
        <time>2022-03-22T14:18:33.110Z</time>
      </trkpt>
      <trkpt lat="50.43566" lon="3.46203">
        <ele>26.9</ele>
        <time>2022-03-22T14:18:35.150Z</time>
      </trkpt>
      <trkpt lat="50.43569" lon="3.46193">
        <ele>27</ele>
        <time>2022-03-22T14:18:36.768Z</time>
      </trkpt>
      <trkpt lat="50.43571" lon="3.46184">
        <ele>27</ele>
        <time>2022-03-22T14:18:38.580Z</time>
      </trkpt>
      <trkpt lat="50.43572" lon="3.46176">
        <ele>27</ele>
        <time>2022-03-22T14:18:40.052Z</time>
      </trkpt>
      <trkpt lat="50.43574" lon="3.46167">
        <ele>27</ele>
        <time>2022-03-22T14:18:42.000Z</time>
      </trkpt>
      <trkpt lat="50.43578" lon="3.46157">
        <ele>27</ele>
        <time>2022-03-22T14:18:44.172Z</time>
      </trkpt>
      <trkpt lat="50.4358" lon="3.46148">
        <ele>27</ele>
        <time>2022-03-22T14:18:46.000Z</time>
      </trkpt>
      <trkpt lat="50.43584" lon="3.46131">
        <ele>27</ele>
        <time>2022-03-22T14:18:49.000Z</time>
      </trkpt>
      <trkpt lat="50.43587" lon="3.46116">
        <ele>27</ele>
        <time>2022-03-22T14:18:52.000Z</time>
      </trkpt>
      <trkpt lat="50.43589" lon="3.46107">
        <ele>27.1</ele>
        <time>2022-03-22T14:18:54.000Z</time>
      </trkpt>
      <trkpt lat="50.43591" lon="3.46099">
        <ele>27.3</ele>
        <time>2022-03-22T14:18:56.000Z</time>
      </trkpt>
      <trkpt lat="50.43593" lon="3.46089">
        <ele>27.5</ele>
        <time>2022-03-22T14:18:58.000Z</time>
      </trkpt>
      <trkpt lat="50.43594" lon="3.46077">
        <ele>27.7</ele>
        <time>2022-03-22T14:19:00.000Z</time>
      </trkpt>
      <trkpt lat="50.43596" lon="3.46066">
        <ele>27.8</ele>
        <time>2022-03-22T14:19:02.112Z</time>
      </trkpt>
      <trkpt lat="50.43598" lon="3.46057">
        <ele>28</ele>
        <time>2022-03-22T14:19:03.708Z</time>
      </trkpt>
      <trkpt lat="50.436" lon="3.4605">
        <ele>28</ele>
        <time>2022-03-22T14:19:05.000Z</time>
      </trkpt>
      <trkpt lat="50.43602" lon="3.46035">
        <ele>28</ele>
        <time>2022-03-22T14:19:07.152Z</time>
      </trkpt>
      <trkpt lat="50.43603" lon="3.46015">
        <ele>28</ele>
        <time>2022-03-22T14:19:09.000Z</time>
      </trkpt>
      <trkpt lat="50.43603" lon="3.46006">
        <ele>28</ele>
        <time>2022-03-22T14:19:10.000Z</time>
      </trkpt>
      <trkpt lat="50.43603" lon="3.45998">
        <ele>28.1</ele>
        <time>2022-03-22T14:19:11.000Z</time>
      </trkpt>
      <trkpt lat="50.43603" lon="3.4599">
        <ele>28.4</ele>
        <time>2022-03-22T14:19:12.000Z</time>
      </trkpt>
      <trkpt lat="50.43603" lon="3.45982">
        <ele>28.6</ele>
        <time>2022-03-22T14:19:13.000Z</time>
      </trkpt>
      <trkpt lat="50.43603" lon="3.45974">
        <ele>28.9</ele>
        <time>2022-03-22T14:19:14.000Z</time>
      </trkpt>
      <trkpt lat="50.43603" lon="3.45966">
        <ele>29</ele>
        <time>2022-03-22T14:19:15.000Z</time>
      </trkpt>
      <trkpt lat="50.43604" lon="3.45958">
        <ele>29</ele>
        <time>2022-03-22T14:19:16.000Z</time>
      </trkpt>
      <trkpt lat="50.43604" lon="3.4595">
        <ele>29</ele>
        <time>2022-03-22T14:19:17.000Z</time>
      </trkpt>
      <trkpt lat="50.43605" lon="3.45943">
        <ele>29</ele>
        <time>2022-03-22T14:19:18.000Z</time>
      </trkpt>
      <trkpt lat="50.43606" lon="3.45935">
        <ele>29</ele>
        <time>2022-03-22T14:19:19.000Z</time>
      </trkpt>
      <trkpt lat="50.43606" lon="3.45926">
        <ele>29</ele>
        <time>2022-03-22T14:19:20.000Z</time>
      </trkpt>
      <trkpt lat="50.43607" lon="3.45918">
        <ele>29</ele>
        <time>2022-03-22T14:19:21.000Z</time>
      </trkpt>
      <trkpt lat="50.43608" lon="3.4591">
        <ele>29.2</ele>
        <time>2022-03-22T14:19:22.000Z</time>
      </trkpt>
      <trkpt lat="50.43609" lon="3.45903">
        <ele>29.5</ele>
        <time>2022-03-22T14:19:23.000Z</time>
      </trkpt>
      <trkpt lat="50.43609" lon="3.45895">
        <ele>29.7</ele>
        <time>2022-03-22T14:19:24.000Z</time>
      </trkpt>
      <trkpt lat="50.4361" lon="3.45888">
        <ele>30</ele>
        <time>2022-03-22T14:19:25.000Z</time>
      </trkpt>
      <trkpt lat="50.4361" lon="3.4588">
        <ele>30</ele>
        <time>2022-03-22T14:19:26.000Z</time>
      </trkpt>
      <trkpt lat="50.43611" lon="3.45873">
        <ele>30</ele>
        <time>2022-03-22T14:19:27.000Z</time>
      </trkpt>
      <trkpt lat="50.43611" lon="3.45865">
        <ele>30</ele>
        <time>2022-03-22T14:19:28.000Z</time>
      </trkpt>
      <trkpt lat="50.43611" lon="3.45853">
        <ele>30</ele>
        <time>2022-03-22T14:19:30.000Z</time>
      </trkpt>
      <trkpt lat="50.43611" lon="3.4584">
        <ele>30</ele>
        <time>2022-03-22T14:19:32.000Z</time>
      </trkpt>
      <trkpt lat="50.43612" lon="3.45832">
        <ele>30</ele>
        <time>2022-03-22T14:19:33.000Z</time>
      </trkpt>
      <trkpt lat="50.43613" lon="3.45821">
        <ele>30</ele>
        <time>2022-03-22T14:19:35.000Z</time>
      </trkpt>
      <trkpt lat="50.43613" lon="3.45811">
        <ele>30</ele>
        <time>2022-03-22T14:19:36.000Z</time>
      </trkpt>
      <trkpt lat="50.43614" lon="3.45803">
        <ele>30</ele>
        <time>2022-03-22T14:19:37.000Z</time>
      </trkpt>
      <trkpt lat="50.43614" lon="3.45795">
        <ele>30</ele>
        <time>2022-03-22T14:19:38.000Z</time>
      </trkpt>
      <trkpt lat="50.43612" lon="3.45782">
        <ele>30</ele>
        <time>2022-03-22T14:19:40.129Z</time>
      </trkpt>
      <trkpt lat="50.43613" lon="3.45773">
        <ele>30</ele>
        <time>2022-03-22T14:19:41.366Z</time>
      </trkpt>
      <trkpt lat="50.43615" lon="3.4576">
        <ele>30</ele>
        <time>2022-03-22T14:19:43.000Z</time>
      </trkpt>
      <trkpt lat="50.43615" lon="3.45753">
        <ele>30</ele>
        <time>2022-03-22T14:19:44.000Z</time>
      </trkpt>
      <trkpt lat="50.43612" lon="3.45744">
        <ele>30</ele>
        <time>2022-03-22T14:19:45.889Z</time>
      </trkpt>
      <trkpt lat="50.43612" lon="3.4573">
        <ele>30</ele>
        <time>2022-03-22T14:19:47.949Z</time>
      </trkpt>
      <trkpt lat="50.43613" lon="3.45717">
        <ele>30.2</ele>
        <time>2022-03-22T14:19:50.000Z</time>
      </trkpt>
      <trkpt lat="50.43615" lon="3.45703">
        <ele>30.6</ele>
        <time>2022-03-22T14:19:52.000Z</time>
      </trkpt>
      <trkpt lat="50.43615" lon="3.4569">
        <ele>30.9</ele>
        <time>2022-03-22T14:19:54.000Z</time>
      </trkpt>
      <trkpt lat="50.43616" lon="3.45677">
        <ele>30.8</ele>
        <time>2022-03-22T14:19:56.000Z</time>
      </trkpt>
      <trkpt lat="50.43616" lon="3.45663">
        <ele>30.8</ele>
        <time>2022-03-22T14:19:58.000Z</time>
      </trkpt>
      <trkpt lat="50.43617" lon="3.4565">
        <ele>30.9</ele>
        <time>2022-03-22T14:20:00.000Z</time>
      </trkpt>
      <trkpt lat="50.43619" lon="3.45637">
        <ele>31</ele>
        <time>2022-03-22T14:20:02.067Z</time>
      </trkpt>
      <trkpt lat="50.43621" lon="3.45625">
        <ele>31</ele>
        <time>2022-03-22T14:20:04.000Z</time>
      </trkpt>
      <trkpt lat="50.43624" lon="3.4561">
        <ele>31</ele>
        <time>2022-03-22T14:20:06.607Z</time>
      </trkpt>
      <trkpt lat="50.43626" lon="3.45603">
        <ele>31</ele>
        <time>2022-03-22T14:20:08.000Z</time>
      </trkpt>
      <trkpt lat="50.43629" lon="3.4559">
        <ele>31</ele>
        <time>2022-03-22T14:20:10.000Z</time>
      </trkpt>
      <trkpt lat="50.43632" lon="3.45579">
        <ele>31</ele>
        <time>2022-03-22T14:20:12.000Z</time>
      </trkpt>
      <trkpt lat="50.43635" lon="3.45567">
        <ele>31</ele>
        <time>2022-03-22T14:20:14.000Z</time>
      </trkpt>
      <trkpt lat="50.43638" lon="3.45556">
        <ele>31</ele>
        <time>2022-03-22T14:20:16.000Z</time>
      </trkpt>
      <trkpt lat="50.43641" lon="3.45545">
        <ele>31</ele>
        <time>2022-03-22T14:20:18.000Z</time>
      </trkpt>
      <trkpt lat="50.43643" lon="3.45534">
        <ele>31</ele>
        <time>2022-03-22T14:20:20.000Z</time>
      </trkpt>
      <trkpt lat="50.43645" lon="3.45522">
        <ele>31</ele>
        <time>2022-03-22T14:20:22.000Z</time>
      </trkpt>
      <trkpt lat="50.43649" lon="3.4551">
        <ele>31</ele>
        <time>2022-03-22T14:20:24.166Z</time>
      </trkpt>
      <trkpt lat="50.43651" lon="3.45502">
        <ele>31</ele>
        <time>2022-03-22T14:20:25.607Z</time>
      </trkpt>
      <trkpt lat="50.43652" lon="3.45494">
        <ele>30.9</ele>
        <time>2022-03-22T14:20:27.111Z</time>
      </trkpt>
      <trkpt lat="50.43655" lon="3.45483">
        <ele>30.7</ele>
        <time>2022-03-22T14:20:29.000Z</time>
      </trkpt>
      <trkpt lat="50.43657" lon="3.45472">
        <ele>30.7</ele>
        <time>2022-03-22T14:20:31.000Z</time>
      </trkpt>
      <trkpt lat="50.4366" lon="3.45461">
        <ele>30.8</ele>
        <time>2022-03-22T14:20:33.000Z</time>
      </trkpt>
      <trkpt lat="50.43662" lon="3.4545">
        <ele>30.8</ele>
        <time>2022-03-22T14:20:35.000Z</time>
      </trkpt>
      <trkpt lat="50.43664" lon="3.45439">
        <ele>30.9</ele>
        <time>2022-03-22T14:20:37.047Z</time>
      </trkpt>
      <trkpt lat="50.43667" lon="3.45428">
        <ele>31</ele>
        <time>2022-03-22T14:20:39.000Z</time>
      </trkpt>
      <trkpt lat="50.43669" lon="3.45417">
        <ele>31</ele>
        <time>2022-03-22T14:20:41.000Z</time>
      </trkpt>
      <trkpt lat="50.43671" lon="3.45407">
        <ele>31</ele>
        <time>2022-03-22T14:20:43.000Z</time>
      </trkpt>
      <trkpt lat="50.43673" lon="3.45396">
        <ele>31</ele>
        <time>2022-03-22T14:20:45.000Z</time>
      </trkpt>
      <trkpt lat="50.43675" lon="3.45385">
        <ele>31.1</ele>
        <time>2022-03-22T14:20:47.000Z</time>
      </trkpt>
      <trkpt lat="50.43678" lon="3.45375">
        <ele>31.5</ele>
        <time>2022-03-22T14:20:49.000Z</time>
      </trkpt>
      <trkpt lat="50.43681" lon="3.45364">
        <ele>31.9</ele>
        <time>2022-03-22T14:20:51.000Z</time>
      </trkpt>
      <trkpt lat="50.43683" lon="3.45354">
        <ele>32</ele>
        <time>2022-03-22T14:20:53.000Z</time>
      </trkpt>
      <trkpt lat="50.43685" lon="3.45343">
        <ele>32</ele>
        <time>2022-03-22T14:20:55.000Z</time>
      </trkpt>
      <trkpt lat="50.43688" lon="3.45332">
        <ele>32</ele>
        <time>2022-03-22T14:20:57.000Z</time>
      </trkpt>
      <trkpt lat="50.43693" lon="3.45313">
        <ele>32</ele>
        <time>2022-03-22T14:21:00.000Z</time>
      </trkpt>
      <trkpt lat="50.43695" lon="3.45301">
        <ele>32</ele>
        <time>2022-03-22T14:21:02.000Z</time>
      </trkpt>
      <trkpt lat="50.43696" lon="3.45292">
        <ele>31.9</ele>
        <time>2022-03-22T14:21:03.000Z</time>
      </trkpt>
      <trkpt lat="50.43697" lon="3.45285">
        <ele>31.9</ele>
        <time>2022-03-22T14:21:04.000Z</time>
      </trkpt>
      <trkpt lat="50.43699" lon="3.45277">
        <ele>31.8</ele>
        <time>2022-03-22T14:21:05.000Z</time>
      </trkpt>
      <trkpt lat="50.437" lon="3.4527">
        <ele>31.6</ele>
        <time>2022-03-22T14:21:06.000Z</time>
      </trkpt>
      <trkpt lat="50.43702" lon="3.45262">
        <ele>31.3</ele>
        <time>2022-03-22T14:21:07.000Z</time>
      </trkpt>
      <trkpt lat="50.43704" lon="3.45255">
        <ele>31.1</ele>
        <time>2022-03-22T14:21:08.000Z</time>
      </trkpt>
      <trkpt lat="50.43705" lon="3.45248">
        <ele>31</ele>
        <time>2022-03-22T14:21:09.000Z</time>
      </trkpt>
      <trkpt lat="50.43707" lon="3.45241">
        <ele>31</ele>
        <time>2022-03-22T14:21:10.000Z</time>
      </trkpt>
      <trkpt lat="50.43708" lon="3.45235">
        <ele>31</ele>
        <time>2022-03-22T14:21:11.000Z</time>
      </trkpt>
      <trkpt lat="50.43712" lon="3.45221">
        <ele>31</ele>
        <time>2022-03-22T14:21:13.000Z</time>
      </trkpt>
      <trkpt lat="50.43715" lon="3.45212">
        <ele>30.9</ele>
        <time>2022-03-22T14:21:15.000Z</time>
      </trkpt>
      <trkpt lat="50.43718" lon="3.45206">
        <ele>30.9</ele>
        <time>2022-03-22T14:21:18.000Z</time>
      </trkpt>
      <trkpt lat="50.43717" lon="3.45197">
        <ele>30.8</ele>
        <time>2022-03-22T14:21:21.000Z</time>
      </trkpt>
      <trkpt lat="50.4371" lon="3.45192">
        <ele>30.6</ele>
        <time>2022-03-22T14:21:23.000Z</time>
      </trkpt>
      <trkpt lat="50.43701" lon="3.45184">
        <ele>30.2</ele>
        <time>2022-03-22T14:21:25.000Z</time>
      </trkpt>
      <trkpt lat="50.43697" lon="3.4518">
        <ele>30.1</ele>
        <time>2022-03-22T14:21:26.000Z</time>
      </trkpt>
      <trkpt lat="50.43692" lon="3.45176">
        <ele>29.9</ele>
        <time>2022-03-22T14:21:27.000Z</time>
      </trkpt>
      <trkpt lat="50.43687" lon="3.45173">
        <ele>29.7</ele>
        <time>2022-03-22T14:21:28.000Z</time>
      </trkpt>
      <trkpt lat="50.43682" lon="3.45168">
        <ele>29.6</ele>
        <time>2022-03-22T14:21:29.000Z</time>
      </trkpt>
      <trkpt lat="50.43677" lon="3.45163">
        <ele>29.4</ele>
        <time>2022-03-22T14:21:30.000Z</time>
      </trkpt>
      <trkpt lat="50.43672" lon="3.45158">
        <ele>29.2</ele>
        <time>2022-03-22T14:21:31.000Z</time>
      </trkpt>
      <trkpt lat="50.43667" lon="3.45153">
        <ele>29</ele>
        <time>2022-03-22T14:21:32.000Z</time>
      </trkpt>
      <trkpt lat="50.43661" lon="3.45147">
        <ele>28.7</ele>
        <time>2022-03-22T14:21:33.000Z</time>
      </trkpt>
      <trkpt lat="50.43655" lon="3.45142">
        <ele>28.2</ele>
        <time>2022-03-22T14:21:34.000Z</time>
      </trkpt>
      <trkpt lat="50.4365" lon="3.45137">
        <ele>27.9</ele>
        <time>2022-03-22T14:21:35.000Z</time>
      </trkpt>
      <trkpt lat="50.43644" lon="3.45132">
        <ele>27.7</ele>
        <time>2022-03-22T14:21:36.000Z</time>
      </trkpt>
      <trkpt lat="50.43639" lon="3.45126">
        <ele>27.5</ele>
        <time>2022-03-22T14:21:37.000Z</time>
      </trkpt>
      <trkpt lat="50.43633" lon="3.45121">
        <ele>27.3</ele>
        <time>2022-03-22T14:21:38.000Z</time>
      </trkpt>
      <trkpt lat="50.43627" lon="3.45115">
        <ele>27.1</ele>
        <time>2022-03-22T14:21:39.000Z</time>
      </trkpt>
      <trkpt lat="50.43622" lon="3.45109">
        <ele>26.8</ele>
        <time>2022-03-22T14:21:40.000Z</time>
      </trkpt>
      <trkpt lat="50.43616" lon="3.45104">
        <ele>26.4</ele>
        <time>2022-03-22T14:21:41.000Z</time>
      </trkpt>
      <trkpt lat="50.43611" lon="3.45099">
        <ele>26</ele>
        <time>2022-03-22T14:21:42.000Z</time>
      </trkpt>
      <trkpt lat="50.43605" lon="3.45094">
        <ele>25.6</ele>
        <time>2022-03-22T14:21:43.000Z</time>
      </trkpt>
      <trkpt lat="50.43599" lon="3.45089">
        <ele>25.1</ele>
        <time>2022-03-22T14:21:44.000Z</time>
      </trkpt>
      <trkpt lat="50.43594" lon="3.45083">
        <ele>24.8</ele>
        <time>2022-03-22T14:21:45.000Z</time>
      </trkpt>
      <trkpt lat="50.43588" lon="3.45077">
        <ele>24.6</ele>
        <time>2022-03-22T14:21:46.000Z</time>
      </trkpt>
      <trkpt lat="50.43583" lon="3.45071">
        <ele>24.4</ele>
        <time>2022-03-22T14:21:47.000Z</time>
      </trkpt>
      <trkpt lat="50.43578" lon="3.45066">
        <ele>24.3</ele>
        <time>2022-03-22T14:21:48.000Z</time>
      </trkpt>
      <trkpt lat="50.43572" lon="3.4506">
        <ele>24.1</ele>
        <time>2022-03-22T14:21:49.000Z</time>
      </trkpt>
      <trkpt lat="50.43567" lon="3.45054">
        <ele>23.9</ele>
        <time>2022-03-22T14:21:50.000Z</time>
      </trkpt>
      <trkpt lat="50.43561" lon="3.45048">
        <ele>23.7</ele>
        <time>2022-03-22T14:21:51.000Z</time>
      </trkpt>
      <trkpt lat="50.43555" lon="3.45043">
        <ele>23.4</ele>
        <time>2022-03-22T14:21:52.000Z</time>
      </trkpt>
      <trkpt lat="50.43549" lon="3.45037">
        <ele>23.3</ele>
        <time>2022-03-22T14:21:53.000Z</time>
      </trkpt>
      <trkpt lat="50.43543" lon="3.4503">
        <ele>23.1</ele>
        <time>2022-03-22T14:21:54.000Z</time>
      </trkpt>
      <trkpt lat="50.43537" lon="3.45023">
        <ele>22.7</ele>
        <time>2022-03-22T14:21:55.000Z</time>
      </trkpt>
      <trkpt lat="50.43531" lon="3.45016">
        <ele>22.2</ele>
        <time>2022-03-22T14:21:56.000Z</time>
      </trkpt>
      <trkpt lat="50.43525" lon="3.4501">
        <ele>21.9</ele>
        <time>2022-03-22T14:21:57.000Z</time>
      </trkpt>
      <trkpt lat="50.43518" lon="3.45005">
        <ele>21.6</ele>
        <time>2022-03-22T14:21:58.000Z</time>
      </trkpt>
      <trkpt lat="50.43512" lon="3.44999">
        <ele>21.4</ele>
        <time>2022-03-22T14:21:59.000Z</time>
      </trkpt>
      <trkpt lat="50.43506" lon="3.44992">
        <ele>21.2</ele>
        <time>2022-03-22T14:22:00.000Z</time>
      </trkpt>
      <trkpt lat="50.435" lon="3.44985">
        <ele>21</ele>
        <time>2022-03-22T14:22:01.000Z</time>
      </trkpt>
      <trkpt lat="50.43493" lon="3.44979">
        <ele>20.7</ele>
        <time>2022-03-22T14:22:02.000Z</time>
      </trkpt>
      <trkpt lat="50.43487" lon="3.44973">
        <ele>20.5</ele>
        <time>2022-03-22T14:22:03.000Z</time>
      </trkpt>
      <trkpt lat="50.4348" lon="3.44968">
        <ele>20.3</ele>
        <time>2022-03-22T14:22:04.000Z</time>
      </trkpt>
      <trkpt lat="50.43474" lon="3.44961">
        <ele>20.1</ele>
        <time>2022-03-22T14:22:05.000Z</time>
      </trkpt>
      <trkpt lat="50.43468" lon="3.44955">
        <ele>19.8</ele>
        <time>2022-03-22T14:22:06.000Z</time>
      </trkpt>
      <trkpt lat="50.43461" lon="3.44949">
        <ele>19.6</ele>
        <time>2022-03-22T14:22:07.000Z</time>
      </trkpt>
      <trkpt lat="50.43455" lon="3.44943">
        <ele>19.4</ele>
        <time>2022-03-22T14:22:08.000Z</time>
      </trkpt>
      <trkpt lat="50.43449" lon="3.44937">
        <ele>19.2</ele>
        <time>2022-03-22T14:22:09.000Z</time>
      </trkpt>
      <trkpt lat="50.43443" lon="3.44931">
        <ele>18.9</ele>
        <time>2022-03-22T14:22:10.000Z</time>
      </trkpt>
      <trkpt lat="50.43438" lon="3.44925">
        <ele>18.8</ele>
        <time>2022-03-22T14:22:11.000Z</time>
      </trkpt>
      <trkpt lat="50.43432" lon="3.44919">
        <ele>18.6</ele>
        <time>2022-03-22T14:22:12.000Z</time>
      </trkpt>
      <trkpt lat="50.43427" lon="3.44914">
        <ele>18.5</ele>
        <time>2022-03-22T14:22:13.000Z</time>
      </trkpt>
      <trkpt lat="50.43422" lon="3.44908">
        <ele>18.5</ele>
        <time>2022-03-22T14:22:14.000Z</time>
      </trkpt>
      <trkpt lat="50.43417" lon="3.44903">
        <ele>18.5</ele>
        <time>2022-03-22T14:22:15.000Z</time>
      </trkpt>
      <trkpt lat="50.43412" lon="3.44898">
        <ele>18.6</ele>
        <time>2022-03-22T14:22:16.000Z</time>
      </trkpt>
      <trkpt lat="50.43407" lon="3.44892">
        <ele>18.6</ele>
        <time>2022-03-22T14:22:17.000Z</time>
      </trkpt>
      <trkpt lat="50.43402" lon="3.44886">
        <ele>18.5</ele>
        <time>2022-03-22T14:22:18.000Z</time>
      </trkpt>
      <trkpt lat="50.43397" lon="3.44881">
        <ele>18.3</ele>
        <time>2022-03-22T14:22:19.000Z</time>
      </trkpt>
      <trkpt lat="50.43392" lon="3.44876">
        <ele>18.1</ele>
        <time>2022-03-22T14:22:20.000Z</time>
      </trkpt>
      <trkpt lat="50.43387" lon="3.44871">
        <ele>18</ele>
        <time>2022-03-22T14:22:21.000Z</time>
      </trkpt>
      <trkpt lat="50.43383" lon="3.44867">
        <ele>18</ele>
        <time>2022-03-22T14:22:22.000Z</time>
      </trkpt>
      <trkpt lat="50.43378" lon="3.44863">
        <ele>18</ele>
        <time>2022-03-22T14:22:23.000Z</time>
      </trkpt>
      <trkpt lat="50.43373" lon="3.44858">
        <ele>18</ele>
        <time>2022-03-22T14:22:24.000Z</time>
      </trkpt>
      <trkpt lat="50.43369" lon="3.44854">
        <ele>18.1</ele>
        <time>2022-03-22T14:22:25.000Z</time>
      </trkpt>
      <trkpt lat="50.43364" lon="3.4485">
        <ele>18</ele>
        <time>2022-03-22T14:22:26.000Z</time>
      </trkpt>
      <trkpt lat="50.4336" lon="3.44845">
        <ele>18</ele>
        <time>2022-03-22T14:22:27.000Z</time>
      </trkpt>
      <trkpt lat="50.43356" lon="3.44841">
        <ele>17.9</ele>
        <time>2022-03-22T14:22:28.000Z</time>
      </trkpt>
      <trkpt lat="50.43351" lon="3.44837">
        <ele>18</ele>
        <time>2022-03-22T14:22:29.000Z</time>
      </trkpt>
      <trkpt lat="50.43347" lon="3.44832">
        <ele>18</ele>
        <time>2022-03-22T14:22:30.000Z</time>
      </trkpt>
      <trkpt lat="50.43343" lon="3.44827">
        <ele>18</ele>
        <time>2022-03-22T14:22:31.000Z</time>
      </trkpt>
      <trkpt lat="50.43338" lon="3.44823">
        <ele>18</ele>
        <time>2022-03-22T14:22:32.000Z</time>
      </trkpt>
      <trkpt lat="50.43334" lon="3.44818">
        <ele>18</ele>
        <time>2022-03-22T14:22:33.000Z</time>
      </trkpt>
      <trkpt lat="50.4333" lon="3.44813">
        <ele>17.9</ele>
        <time>2022-03-22T14:22:34.000Z</time>
      </trkpt>
      <trkpt lat="50.43326" lon="3.44808">
        <ele>17.7</ele>
        <time>2022-03-22T14:22:35.000Z</time>
      </trkpt>
      <trkpt lat="50.43321" lon="3.44803">
        <ele>17.6</ele>
        <time>2022-03-22T14:22:36.000Z</time>
      </trkpt>
      <trkpt lat="50.43316" lon="3.44798">
        <ele>17.5</ele>
        <time>2022-03-22T14:22:37.000Z</time>
      </trkpt>
      <trkpt lat="50.43312" lon="3.44793">
        <ele>17.6</ele>
        <time>2022-03-22T14:22:38.000Z</time>
      </trkpt>
      <trkpt lat="50.43307" lon="3.44788">
        <ele>17.7</ele>
        <time>2022-03-22T14:22:39.000Z</time>
      </trkpt>
      <trkpt lat="50.43303" lon="3.44783">
        <ele>17.7</ele>
        <time>2022-03-22T14:22:40.000Z</time>
      </trkpt>
      <trkpt lat="50.43298" lon="3.44778">
        <ele>17.7</ele>
        <time>2022-03-22T14:22:41.000Z</time>
      </trkpt>
      <trkpt lat="50.43293" lon="3.44774">
        <ele>17.5</ele>
        <time>2022-03-22T14:22:42.000Z</time>
      </trkpt>
      <trkpt lat="50.43289" lon="3.4477">
        <ele>17.3</ele>
        <time>2022-03-22T14:22:43.000Z</time>
      </trkpt>
      <trkpt lat="50.43284" lon="3.44766">
        <ele>17.1</ele>
        <time>2022-03-22T14:22:44.000Z</time>
      </trkpt>
      <trkpt lat="50.4328" lon="3.44761">
        <ele>17</ele>
        <time>2022-03-22T14:22:45.000Z</time>
      </trkpt>
      <trkpt lat="50.43275" lon="3.44756">
        <ele>17</ele>
        <time>2022-03-22T14:22:46.000Z</time>
      </trkpt>
      <trkpt lat="50.43271" lon="3.44752">
        <ele>17</ele>
        <time>2022-03-22T14:22:47.000Z</time>
      </trkpt>
      <trkpt lat="50.43267" lon="3.44748">
        <ele>17</ele>
        <time>2022-03-22T14:22:48.000Z</time>
      </trkpt>
      <trkpt lat="50.43262" lon="3.44744">
        <ele>17</ele>
        <time>2022-03-22T14:22:49.000Z</time>
      </trkpt>
      <trkpt lat="50.43258" lon="3.4474">
        <ele>17</ele>
        <time>2022-03-22T14:22:50.000Z</time>
      </trkpt>
      <trkpt lat="50.43253" lon="3.44736">
        <ele>17</ele>
        <time>2022-03-22T14:22:51.000Z</time>
      </trkpt>
      <trkpt lat="50.43249" lon="3.44732">
        <ele>17</ele>
        <time>2022-03-22T14:22:52.000Z</time>
      </trkpt>
      <trkpt lat="50.43245" lon="3.44728">
        <ele>17</ele>
        <time>2022-03-22T14:22:53.000Z</time>
      </trkpt>
      <trkpt lat="50.4324" lon="3.44724">
        <ele>17</ele>
        <time>2022-03-22T14:22:54.000Z</time>
      </trkpt>
      <trkpt lat="50.43236" lon="3.4472">
        <ele>17</ele>
        <time>2022-03-22T14:22:55.000Z</time>
      </trkpt>
      <trkpt lat="50.43232" lon="3.44715">
        <ele>17</ele>
        <time>2022-03-22T14:22:56.000Z</time>
      </trkpt>
      <trkpt lat="50.43228" lon="3.44711">
        <ele>17</ele>
        <time>2022-03-22T14:22:57.000Z</time>
      </trkpt>
      <trkpt lat="50.43224" lon="3.44707">
        <ele>17</ele>
        <time>2022-03-22T14:22:58.000Z</time>
      </trkpt>
      <trkpt lat="50.43219" lon="3.44703">
        <ele>17</ele>
        <time>2022-03-22T14:22:59.000Z</time>
      </trkpt>
      <trkpt lat="50.43215" lon="3.44699">
        <ele>17</ele>
        <time>2022-03-22T14:23:00.000Z</time>
      </trkpt>
      <trkpt lat="50.43211" lon="3.44695">
        <ele>17</ele>
        <time>2022-03-22T14:23:01.000Z</time>
      </trkpt>
      <trkpt lat="50.43207" lon="3.44691">
        <ele>17</ele>
        <time>2022-03-22T14:23:02.000Z</time>
      </trkpt>
      <trkpt lat="50.43203" lon="3.44687">
        <ele>17</ele>
        <time>2022-03-22T14:23:03.000Z</time>
      </trkpt>
      <trkpt lat="50.432" lon="3.44683">
        <ele>17</ele>
        <time>2022-03-22T14:23:04.000Z</time>
      </trkpt>
      <trkpt lat="50.43196" lon="3.44678">
        <ele>17</ele>
        <time>2022-03-22T14:23:05.000Z</time>
      </trkpt>
      <trkpt lat="50.43192" lon="3.44674">
        <ele>17</ele>
        <time>2022-03-22T14:23:06.000Z</time>
      </trkpt>
      <trkpt lat="50.43189" lon="3.4467">
        <ele>17</ele>
        <time>2022-03-22T14:23:07.000Z</time>
      </trkpt>
      <trkpt lat="50.43185" lon="3.44666">
        <ele>17</ele>
        <time>2022-03-22T14:23:08.000Z</time>
      </trkpt>
      <trkpt lat="50.43181" lon="3.44662">
        <ele>17</ele>
        <time>2022-03-22T14:23:09.000Z</time>
      </trkpt>
      <trkpt lat="50.43174" lon="3.44655">
        <ele>17</ele>
        <time>2022-03-22T14:23:11.000Z</time>
      </trkpt>
      <trkpt lat="50.43167" lon="3.44649">
        <ele>17</ele>
        <time>2022-03-22T14:23:13.000Z</time>
      </trkpt>
      <trkpt lat="50.43159" lon="3.44642">
        <ele>17</ele>
        <time>2022-03-22T14:23:15.000Z</time>
      </trkpt>
      <trkpt lat="50.43156" lon="3.44638">
        <ele>17</ele>
        <time>2022-03-22T14:23:16.000Z</time>
      </trkpt>
      <trkpt lat="50.43148" lon="3.44631">
        <ele>17</ele>
        <time>2022-03-22T14:23:17.030Z</time>
      </trkpt>
      <trkpt lat="50.43143" lon="3.44627">
        <ele>17</ele>
        <time>2022-03-22T14:23:19.000Z</time>
      </trkpt>
      <trkpt lat="50.43137" lon="3.44614">
        <ele>17</ele>
        <time>2022-03-22T14:23:22.125Z</time>
      </trkpt>
      <trkpt lat="50.43129" lon="3.44609">
        <ele>17</ele>
        <time>2022-03-22T14:23:23.823Z</time>
      </trkpt>
      <trkpt lat="50.43124" lon="3.44605">
        <ele>17</ele>
        <time>2022-03-22T14:23:25.000Z</time>
      </trkpt>
      <trkpt lat="50.4312" lon="3.44601">
        <ele>17</ele>
        <time>2022-03-22T14:23:26.000Z</time>
      </trkpt>
      <trkpt lat="50.43115" lon="3.44598">
        <ele>17</ele>
        <time>2022-03-22T14:23:27.000Z</time>
      </trkpt>
      <trkpt lat="50.43111" lon="3.44595">
        <ele>17</ele>
        <time>2022-03-22T14:23:28.000Z</time>
      </trkpt>
      <trkpt lat="50.43104" lon="3.44588">
        <ele>17</ele>
        <time>2022-03-22T14:23:29.901Z</time>
      </trkpt>
      <trkpt lat="50.43101" lon="3.44583">
        <ele>17</ele>
        <time>2022-03-22T14:23:31.000Z</time>
      </trkpt>
      <trkpt lat="50.43094" lon="3.44572">
        <ele>17</ele>
        <time>2022-03-22T14:23:33.000Z</time>
      </trkpt>
      <trkpt lat="50.43084" lon="3.44568">
        <ele>17</ele>
        <time>2022-03-22T14:23:36.415Z</time>
      </trkpt>
      <trkpt lat="50.43077" lon="3.4456">
        <ele>17</ele>
        <time>2022-03-22T14:23:37.977Z</time>
      </trkpt>
      <trkpt lat="50.43073" lon="3.44554">
        <ele>17</ele>
        <time>2022-03-22T14:23:38.934Z</time>
      </trkpt>
      <trkpt lat="50.43068" lon="3.44547">
        <ele>17</ele>
        <time>2022-03-22T14:23:40.000Z</time>
      </trkpt>
      <trkpt lat="50.43061" lon="3.44545">
        <ele>17</ele>
        <time>2022-03-22T14:23:42.514Z</time>
      </trkpt>
      <trkpt lat="50.43054" lon="3.44537">
        <ele>17</ele>
        <time>2022-03-22T14:23:44.014Z</time>
      </trkpt>
      <trkpt lat="50.43051" lon="3.44531">
        <ele>17</ele>
        <time>2022-03-22T14:23:45.000Z</time>
      </trkpt>
      <trkpt lat="50.43047" lon="3.44527">
        <ele>17</ele>
        <time>2022-03-22T14:23:46.000Z</time>
      </trkpt>
      <trkpt lat="50.43043" lon="3.44523">
        <ele>17</ele>
        <time>2022-03-22T14:23:47.000Z</time>
      </trkpt>
      <trkpt lat="50.43039" lon="3.44518">
        <ele>17</ele>
        <time>2022-03-22T14:23:48.000Z</time>
      </trkpt>
      <trkpt lat="50.43035" lon="3.44513">
        <ele>17</ele>
        <time>2022-03-22T14:23:49.176Z</time>
      </trkpt>
      <trkpt lat="50.43028" lon="3.44507">
        <ele>17</ele>
        <time>2022-03-22T14:23:51.000Z</time>
      </trkpt>
      <trkpt lat="50.43021" lon="3.445">
        <ele>17</ele>
        <time>2022-03-22T14:23:53.000Z</time>
      </trkpt>
      <trkpt lat="50.43011" lon="3.4449">
        <ele>16.9</ele>
        <time>2022-03-22T14:23:56.000Z</time>
      </trkpt>
      <trkpt lat="50.43005" lon="3.44485">
        <ele>16.9</ele>
        <time>2022-03-22T14:23:57.875Z</time>
      </trkpt>
      <trkpt lat="50.42999" lon="3.44479">
        <ele>17</ele>
        <time>2022-03-22T14:23:59.416Z</time>
      </trkpt>
      <trkpt lat="50.42995" lon="3.44475">
        <ele>17</ele>
        <time>2022-03-22T14:24:00.653Z</time>
      </trkpt>
      <trkpt lat="50.4299" lon="3.4447">
        <ele>17</ele>
        <time>2022-03-22T14:24:02.051Z</time>
      </trkpt>
      <trkpt lat="50.42982" lon="3.44464">
        <ele>17</ele>
        <time>2022-03-22T14:24:04.154Z</time>
      </trkpt>
      <trkpt lat="50.42977" lon="3.4446">
        <ele>17</ele>
        <time>2022-03-22T14:24:05.533Z</time>
      </trkpt>
      <trkpt lat="50.42973" lon="3.44456">
        <ele>17</ele>
        <time>2022-03-22T14:24:06.814Z</time>
      </trkpt>
      <trkpt lat="50.42969" lon="3.44451">
        <ele>17.1</ele>
        <time>2022-03-22T14:24:08.134Z</time>
      </trkpt>
      <trkpt lat="50.42964" lon="3.44447">
        <ele>17.3</ele>
        <time>2022-03-22T14:24:09.534Z</time>
      </trkpt>
      <trkpt lat="50.42956" lon="3.44438">
        <ele>17.6</ele>
        <time>2022-03-22T14:24:12.153Z</time>
      </trkpt>
      <trkpt lat="50.4295" lon="3.44432">
        <ele>17.8</ele>
        <time>2022-03-22T14:24:14.074Z</time>
      </trkpt>
      <trkpt lat="50.42944" lon="3.44425">
        <ele>18</ele>
        <time>2022-03-22T14:24:16.000Z</time>
      </trkpt>
      <trkpt lat="50.42938" lon="3.44418">
        <ele>18</ele>
        <time>2022-03-22T14:24:18.155Z</time>
      </trkpt>
      <trkpt lat="50.42931" lon="3.44411">
        <ele>17.9</ele>
        <time>2022-03-22T14:24:20.511Z</time>
      </trkpt>
      <trkpt lat="50.42925" lon="3.44403">
        <ele>17.9</ele>
        <time>2022-03-22T14:24:22.913Z</time>
      </trkpt>
      <trkpt lat="50.42918" lon="3.44398">
        <ele>18</ele>
        <time>2022-03-22T14:24:25.131Z</time>
      </trkpt>
      <trkpt lat="50.42913" lon="3.44393">
        <ele>18.1</ele>
        <time>2022-03-22T14:24:27.000Z</time>
      </trkpt>
      <trkpt lat="50.4291" lon="3.44385">
        <ele>18.2</ele>
        <time>2022-03-22T14:24:29.000Z</time>
      </trkpt>
      <trkpt lat="50.4291" lon="3.44375">
        <ele>18.2</ele>
        <time>2022-03-22T14:24:31.000Z</time>
      </trkpt>
      <trkpt lat="50.42911" lon="3.44363">
        <ele>18.2</ele>
        <time>2022-03-22T14:24:33.124Z</time>
      </trkpt>
      <trkpt lat="50.42912" lon="3.44352">
        <ele>18.2</ele>
        <time>2022-03-22T14:24:35.000Z</time>
      </trkpt>
      <trkpt lat="50.42913" lon="3.4434">
        <ele>18.1</ele>
        <time>2022-03-22T14:24:37.000Z</time>
      </trkpt>
      <trkpt lat="50.42913" lon="3.44327">
        <ele>18.1</ele>
        <time>2022-03-22T14:24:39.000Z</time>
      </trkpt>
      <trkpt lat="50.42914" lon="3.44315">
        <ele>18.1</ele>
        <time>2022-03-22T14:24:41.000Z</time>
      </trkpt>
      <trkpt lat="50.42914" lon="3.44302">
        <ele>18.1</ele>
        <time>2022-03-22T14:24:43.000Z</time>
      </trkpt>
      <trkpt lat="50.42915" lon="3.44288">
        <ele>18</ele>
        <time>2022-03-22T14:24:45.000Z</time>
      </trkpt>
      <trkpt lat="50.42916" lon="3.44276">
        <ele>18</ele>
        <time>2022-03-22T14:24:47.000Z</time>
      </trkpt>
      <trkpt lat="50.42917" lon="3.44263">
        <ele>18</ele>
        <time>2022-03-22T14:24:49.000Z</time>
      </trkpt>
      <trkpt lat="50.42918" lon="3.44249">
        <ele>18</ele>
        <time>2022-03-22T14:24:51.000Z</time>
      </trkpt>
      <trkpt lat="50.4292" lon="3.4423">
        <ele>18</ele>
        <time>2022-03-22T14:24:54.000Z</time>
      </trkpt>
      <trkpt lat="50.42921" lon="3.44217">
        <ele>18</ele>
        <time>2022-03-22T14:24:56.000Z</time>
      </trkpt>
      <trkpt lat="50.42921" lon="3.4421">
        <ele>18</ele>
        <time>2022-03-22T14:24:57.133Z</time>
      </trkpt>
      <trkpt lat="50.42921" lon="3.44203">
        <ele>18</ele>
        <time>2022-03-22T14:24:58.174Z</time>
      </trkpt>
      <trkpt lat="50.42923" lon="3.44196">
        <ele>18</ele>
        <time>2022-03-22T14:24:59.608Z</time>
      </trkpt>
      <trkpt lat="50.42923" lon="3.44185">
        <ele>17.9</ele>
        <time>2022-03-22T14:25:02.000Z</time>
      </trkpt>
      <trkpt lat="50.42923" lon="3.44173">
        <ele>17.8</ele>
        <time>2022-03-22T14:25:04.133Z</time>
      </trkpt>
      <trkpt lat="50.42923" lon="3.44161">
        <ele>17.6</ele>
        <time>2022-03-22T14:25:05.858Z</time>
      </trkpt>
      <trkpt lat="50.42923" lon="3.44152">
        <ele>17.4</ele>
        <time>2022-03-22T14:25:07.196Z</time>
      </trkpt>
      <trkpt lat="50.42923" lon="3.44141">
        <ele>17.1</ele>
        <time>2022-03-22T14:25:08.833Z</time>
      </trkpt>
      <trkpt lat="50.42923" lon="3.44132">
        <ele>16.9</ele>
        <time>2022-03-22T14:25:10.114Z</time>
      </trkpt>
      <trkpt lat="50.42924" lon="3.44116">
        <ele>16.8</ele>
        <time>2022-03-22T14:25:12.000Z</time>
      </trkpt>
      <trkpt lat="50.42924" lon="3.44108">
        <ele>16.7</ele>
        <time>2022-03-22T14:25:13.000Z</time>
      </trkpt>
      <trkpt lat="50.42924" lon="3.44101">
        <ele>16.7</ele>
        <time>2022-03-22T14:25:14.000Z</time>
      </trkpt>
      <trkpt lat="50.42924" lon="3.44094">
        <ele>16.7</ele>
        <time>2022-03-22T14:25:15.000Z</time>
      </trkpt>
      <trkpt lat="50.42926" lon="3.44084">
        <ele>16.7</ele>
        <time>2022-03-22T14:25:17.630Z</time>
      </trkpt>
      <trkpt lat="50.42927" lon="3.44073">
        <ele>17</ele>
        <time>2022-03-22T14:25:19.640Z</time>
      </trkpt>
      <trkpt lat="50.42929" lon="3.44064">
        <ele>17.3</ele>
        <time>2022-03-22T14:25:21.958Z</time>
      </trkpt>
      <trkpt lat="50.42931" lon="3.44056">
        <ele>17.5</ele>
        <time>2022-03-22T14:25:24.168Z</time>
      </trkpt>
      <trkpt lat="50.42937" lon="3.44045">
        <ele>17.6</ele>
        <time>2022-03-22T14:25:26.761Z</time>
      </trkpt>
      <trkpt lat="50.42942" lon="3.44038">
        <ele>17.7</ele>
        <time>2022-03-22T14:25:28.960Z</time>
      </trkpt>
      <trkpt lat="50.42947" lon="3.44031">
        <ele>17.8</ele>
        <time>2022-03-22T14:25:31.139Z</time>
      </trkpt>
      <trkpt lat="50.42952" lon="3.44026">
        <ele>17.7</ele>
        <time>2022-03-22T14:25:33.059Z</time>
      </trkpt>
      <trkpt lat="50.42957" lon="3.44021">
        <ele>17.7</ele>
        <time>2022-03-22T14:25:35.000Z</time>
      </trkpt>
      <trkpt lat="50.42955" lon="3.44015">
        <ele>17.8</ele>
        <time>2022-03-22T14:25:39.000Z</time>
      </trkpt>
      <trkpt lat="50.4295" lon="3.4401">
        <ele>17.9</ele>
        <time>2022-03-22T14:25:45.863Z</time>
      </trkpt>
      <trkpt lat="50.42943" lon="3.44012">
        <ele>18</ele>
        <time>2022-03-22T14:25:47.780Z</time>
      </trkpt>
      <trkpt lat="50.42938" lon="3.4401">
        <ele>18.1</ele>
        <time>2022-03-22T14:25:49.019Z</time>
      </trkpt>
      <trkpt lat="50.42934" lon="3.44006">
        <ele>18.1</ele>
        <time>2022-03-22T14:25:50.042Z</time>
      </trkpt>
      <trkpt lat="50.42931" lon="3.43999">
        <ele>18</ele>
        <time>2022-03-22T14:25:51.000Z</time>
      </trkpt>
      <trkpt lat="50.4293" lon="3.43992">
        <ele>18</ele>
        <time>2022-03-22T14:25:52.000Z</time>
      </trkpt>
      <trkpt lat="50.4293" lon="3.43984">
        <ele>18</ele>
        <time>2022-03-22T14:25:53.000Z</time>
      </trkpt>
      <trkpt lat="50.42934" lon="3.43973">
        <ele>18</ele>
        <time>2022-03-22T14:25:54.000Z</time>
      </trkpt>
      <trkpt lat="50.42937" lon="3.43966">
        <ele>17.9</ele>
        <time>2022-03-22T14:25:55.000Z</time>
      </trkpt>
      <trkpt lat="50.42942" lon="3.43959">
        <ele>17.9</ele>
        <time>2022-03-22T14:25:56.000Z</time>
      </trkpt>
      <trkpt lat="50.42947" lon="3.43952">
        <ele>18</ele>
        <time>2022-03-22T14:25:57.000Z</time>
      </trkpt>
      <trkpt lat="50.42952" lon="3.43946">
        <ele>18</ele>
        <time>2022-03-22T14:25:58.000Z</time>
      </trkpt>
      <trkpt lat="50.42957" lon="3.4394">
        <ele>17.8</ele>
        <time>2022-03-22T14:25:59.000Z</time>
      </trkpt>
      <trkpt lat="50.42962" lon="3.43934">
        <ele>17.7</ele>
        <time>2022-03-22T14:26:00.000Z</time>
      </trkpt>
      <trkpt lat="50.42967" lon="3.4393">
        <ele>17.8</ele>
        <time>2022-03-22T14:26:01.000Z</time>
      </trkpt>
      <trkpt lat="50.42971" lon="3.43925">
        <ele>17.9</ele>
        <time>2022-03-22T14:26:02.000Z</time>
      </trkpt>
      <trkpt lat="50.42975" lon="3.4392">
        <ele>18</ele>
        <time>2022-03-22T14:26:03.000Z</time>
      </trkpt>
      <trkpt lat="50.42979" lon="3.43915">
        <ele>18</ele>
        <time>2022-03-22T14:26:04.000Z</time>
      </trkpt>
      <trkpt lat="50.42983" lon="3.43911">
        <ele>17.9</ele>
        <time>2022-03-22T14:26:05.000Z</time>
      </trkpt>
      <trkpt lat="50.42988" lon="3.43906">
        <ele>17.8</ele>
        <time>2022-03-22T14:26:06.000Z</time>
      </trkpt>
      <trkpt lat="50.42992" lon="3.43901">
        <ele>17.8</ele>
        <time>2022-03-22T14:26:07.000Z</time>
      </trkpt>
      <trkpt lat="50.42996" lon="3.43896">
        <ele>17.9</ele>
        <time>2022-03-22T14:26:08.000Z</time>
      </trkpt>
      <trkpt lat="50.43" lon="3.43891">
        <ele>18</ele>
        <time>2022-03-22T14:26:09.000Z</time>
      </trkpt>
      <trkpt lat="50.43004" lon="3.43886">
        <ele>18</ele>
        <time>2022-03-22T14:26:10.000Z</time>
      </trkpt>
      <trkpt lat="50.43008" lon="3.43882">
        <ele>18</ele>
        <time>2022-03-22T14:26:11.000Z</time>
      </trkpt>
      <trkpt lat="50.43012" lon="3.43877">
        <ele>18</ele>
        <time>2022-03-22T14:26:12.000Z</time>
      </trkpt>
      <trkpt lat="50.43017" lon="3.43873">
        <ele>18</ele>
        <time>2022-03-22T14:26:13.000Z</time>
      </trkpt>
      <trkpt lat="50.43021" lon="3.43869">
        <ele>18</ele>
        <time>2022-03-22T14:26:14.000Z</time>
      </trkpt>
      <trkpt lat="50.43024" lon="3.43864">
        <ele>18</ele>
        <time>2022-03-22T14:26:15.000Z</time>
      </trkpt>
      <trkpt lat="50.43028" lon="3.43859">
        <ele>18</ele>
        <time>2022-03-22T14:26:16.000Z</time>
      </trkpt>
      <trkpt lat="50.43032" lon="3.43855">
        <ele>18</ele>
        <time>2022-03-22T14:26:17.000Z</time>
      </trkpt>
      <trkpt lat="50.43036" lon="3.4385">
        <ele>18</ele>
        <time>2022-03-22T14:26:18.000Z</time>
      </trkpt>
      <trkpt lat="50.4304" lon="3.43845">
        <ele>18</ele>
        <time>2022-03-22T14:26:19.000Z</time>
      </trkpt>
      <trkpt lat="50.43044" lon="3.43841">
        <ele>18</ele>
        <time>2022-03-22T14:26:20.000Z</time>
      </trkpt>
      <trkpt lat="50.43048" lon="3.43835">
        <ele>18</ele>
        <time>2022-03-22T14:26:21.000Z</time>
      </trkpt>
      <trkpt lat="50.43051" lon="3.43829">
        <ele>18</ele>
        <time>2022-03-22T14:26:22.000Z</time>
      </trkpt>
      <trkpt lat="50.43051" lon="3.43818">
        <ele>18</ele>
        <time>2022-03-22T14:26:24.000Z</time>
      </trkpt>
      <trkpt lat="50.4305" lon="3.43808">
        <ele>18</ele>
        <time>2022-03-22T14:26:25.000Z</time>
      </trkpt>
      <trkpt lat="50.43049" lon="3.43796">
        <ele>17.9</ele>
        <time>2022-03-22T14:26:26.000Z</time>
      </trkpt>
      <trkpt lat="50.43048" lon="3.43785">
        <ele>17.8</ele>
        <time>2022-03-22T14:26:27.000Z</time>
      </trkpt>
      <trkpt lat="50.43047" lon="3.43775">
        <ele>17.7</ele>
        <time>2022-03-22T14:26:28.000Z</time>
      </trkpt>
      <trkpt lat="50.43047" lon="3.43765">
        <ele>17.7</ele>
        <time>2022-03-22T14:26:29.000Z</time>
      </trkpt>
      <trkpt lat="50.43047" lon="3.43756">
        <ele>17.7</ele>
        <time>2022-03-22T14:26:30.000Z</time>
      </trkpt>
      <trkpt lat="50.43047" lon="3.43747">
        <ele>17.7</ele>
        <time>2022-03-22T14:26:31.000Z</time>
      </trkpt>
      <trkpt lat="50.43046" lon="3.43738">
        <ele>17.8</ele>
        <time>2022-03-22T14:26:32.000Z</time>
      </trkpt>
      <trkpt lat="50.43045" lon="3.4373">
        <ele>17.9</ele>
        <time>2022-03-22T14:26:33.000Z</time>
      </trkpt>
      <trkpt lat="50.43044" lon="3.43721">
        <ele>18</ele>
        <time>2022-03-22T14:26:34.000Z</time>
      </trkpt>
      <trkpt lat="50.43043" lon="3.43713">
        <ele>18</ele>
        <time>2022-03-22T14:26:35.000Z</time>
      </trkpt>
      <trkpt lat="50.43042" lon="3.43704">
        <ele>18</ele>
        <time>2022-03-22T14:26:36.000Z</time>
      </trkpt>
      <trkpt lat="50.4304" lon="3.43695">
        <ele>18</ele>
        <time>2022-03-22T14:26:37.000Z</time>
      </trkpt>
      <trkpt lat="50.43038" lon="3.43687">
        <ele>18</ele>
        <time>2022-03-22T14:26:38.000Z</time>
      </trkpt>
      <trkpt lat="50.43036" lon="3.43679">
        <ele>18</ele>
        <time>2022-03-22T14:26:39.000Z</time>
      </trkpt>
      <trkpt lat="50.43035" lon="3.43671">
        <ele>18</ele>
        <time>2022-03-22T14:26:40.000Z</time>
      </trkpt>
      <trkpt lat="50.43033" lon="3.43663">
        <ele>18</ele>
        <time>2022-03-22T14:26:41.000Z</time>
      </trkpt>
      <trkpt lat="50.43031" lon="3.43655">
        <ele>18</ele>
        <time>2022-03-22T14:26:42.000Z</time>
      </trkpt>
      <trkpt lat="50.43029" lon="3.43647">
        <ele>18</ele>
        <time>2022-03-22T14:26:43.000Z</time>
      </trkpt>
      <trkpt lat="50.43028" lon="3.43639">
        <ele>18</ele>
        <time>2022-03-22T14:26:44.000Z</time>
      </trkpt>
      <trkpt lat="50.43027" lon="3.43631">
        <ele>18</ele>
        <time>2022-03-22T14:26:45.000Z</time>
      </trkpt>
      <trkpt lat="50.43026" lon="3.43622">
        <ele>18</ele>
        <time>2022-03-22T14:26:46.000Z</time>
      </trkpt>
      <trkpt lat="50.43026" lon="3.43614">
        <ele>18</ele>
        <time>2022-03-22T14:26:47.000Z</time>
      </trkpt>
      <trkpt lat="50.43026" lon="3.43607">
        <ele>18</ele>
        <time>2022-03-22T14:26:48.000Z</time>
      </trkpt>
      <trkpt lat="50.43027" lon="3.43595">
        <ele>18</ele>
        <time>2022-03-22T14:26:50.000Z</time>
      </trkpt>
      <trkpt lat="50.43028" lon="3.43583">
        <ele>18</ele>
        <time>2022-03-22T14:26:52.000Z</time>
      </trkpt>
      <trkpt lat="50.43028" lon="3.43571">
        <ele>18.4</ele>
        <time>2022-03-22T14:26:54.000Z</time>
      </trkpt>
      <trkpt lat="50.4303" lon="3.43558">
        <ele>18.9</ele>
        <time>2022-03-22T14:26:56.310Z</time>
      </trkpt>
      <trkpt lat="50.4303" lon="3.4355">
        <ele>18.8</ele>
        <time>2022-03-22T14:26:57.711Z</time>
      </trkpt>
      <trkpt lat="50.43031" lon="3.43543">
        <ele>18.6</ele>
        <time>2022-03-22T14:26:59.000Z</time>
      </trkpt>
      <trkpt lat="50.43032" lon="3.43532">
        <ele>18.3</ele>
        <time>2022-03-22T14:27:00.934Z</time>
      </trkpt>
      <trkpt lat="50.43033" lon="3.43523">
        <ele>18.2</ele>
        <time>2022-03-22T14:27:02.000Z</time>
      </trkpt>
      <trkpt lat="50.43033" lon="3.43515">
        <ele>18.1</ele>
        <time>2022-03-22T14:27:03.000Z</time>
      </trkpt>
      <trkpt lat="50.43033" lon="3.43507">
        <ele>18</ele>
        <time>2022-03-22T14:27:04.000Z</time>
      </trkpt>
      <trkpt lat="50.43034" lon="3.43499">
        <ele>18</ele>
        <time>2022-03-22T14:27:05.000Z</time>
      </trkpt>
      <trkpt lat="50.43034" lon="3.43491">
        <ele>18</ele>
        <time>2022-03-22T14:27:06.000Z</time>
      </trkpt>
      <trkpt lat="50.43034" lon="3.43482">
        <ele>18</ele>
        <time>2022-03-22T14:27:07.000Z</time>
      </trkpt>
      <trkpt lat="50.43034" lon="3.43473">
        <ele>18</ele>
        <time>2022-03-22T14:27:08.000Z</time>
      </trkpt>
      <trkpt lat="50.43035" lon="3.43464">
        <ele>17.8</ele>
        <time>2022-03-22T14:27:09.000Z</time>
      </trkpt>
      <trkpt lat="50.43035" lon="3.43456">
        <ele>17.6</ele>
        <time>2022-03-22T14:27:10.000Z</time>
      </trkpt>
      <trkpt lat="50.43035" lon="3.43447">
        <ele>17.3</ele>
        <time>2022-03-22T14:27:11.000Z</time>
      </trkpt>
      <trkpt lat="50.43036" lon="3.43438">
        <ele>17.3</ele>
        <time>2022-03-22T14:27:12.000Z</time>
      </trkpt>
      <trkpt lat="50.43036" lon="3.4343">
        <ele>17.3</ele>
        <time>2022-03-22T14:27:13.000Z</time>
      </trkpt>
      <trkpt lat="50.43036" lon="3.43421">
        <ele>17.3</ele>
        <time>2022-03-22T14:27:14.000Z</time>
      </trkpt>
      <trkpt lat="50.43037" lon="3.43413">
        <ele>17.3</ele>
        <time>2022-03-22T14:27:15.000Z</time>
      </trkpt>
      <trkpt lat="50.43037" lon="3.43404">
        <ele>17.3</ele>
        <time>2022-03-22T14:27:16.000Z</time>
      </trkpt>
      <trkpt lat="50.43038" lon="3.43395">
        <ele>17.4</ele>
        <time>2022-03-22T14:27:17.000Z</time>
      </trkpt>
      <trkpt lat="50.43039" lon="3.43386">
        <ele>17.4</ele>
        <time>2022-03-22T14:27:18.000Z</time>
      </trkpt>
      <trkpt lat="50.43039" lon="3.43377">
        <ele>17.2</ele>
        <time>2022-03-22T14:27:19.000Z</time>
      </trkpt>
      <trkpt lat="50.4304" lon="3.43368">
        <ele>17.1</ele>
        <time>2022-03-22T14:27:20.000Z</time>
      </trkpt>
      <trkpt lat="50.4304" lon="3.43359">
        <ele>17</ele>
        <time>2022-03-22T14:27:21.000Z</time>
      </trkpt>
      <trkpt lat="50.4304" lon="3.4335">
        <ele>17.2</ele>
        <time>2022-03-22T14:27:22.000Z</time>
      </trkpt>
      <trkpt lat="50.4304" lon="3.43342">
        <ele>17.3</ele>
        <time>2022-03-22T14:27:23.000Z</time>
      </trkpt>
      <trkpt lat="50.4304" lon="3.43333">
        <ele>17.4</ele>
        <time>2022-03-22T14:27:24.000Z</time>
      </trkpt>
      <trkpt lat="50.43041" lon="3.43325">
        <ele>17.6</ele>
        <time>2022-03-22T14:27:25.000Z</time>
      </trkpt>
      <trkpt lat="50.43041" lon="3.43316">
        <ele>17.8</ele>
        <time>2022-03-22T14:27:26.000Z</time>
      </trkpt>
      <trkpt lat="50.43042" lon="3.43308">
        <ele>18</ele>
        <time>2022-03-22T14:27:27.000Z</time>
      </trkpt>
      <trkpt lat="50.43042" lon="3.433">
        <ele>17.9</ele>
        <time>2022-03-22T14:27:28.000Z</time>
      </trkpt>
      <trkpt lat="50.43042" lon="3.43291">
        <ele>17.7</ele>
        <time>2022-03-22T14:27:29.000Z</time>
      </trkpt>
      <trkpt lat="50.43042" lon="3.43283">
        <ele>17.6</ele>
        <time>2022-03-22T14:27:30.000Z</time>
      </trkpt>
      <trkpt lat="50.43042" lon="3.43275">
        <ele>17.6</ele>
        <time>2022-03-22T14:27:31.000Z</time>
      </trkpt>
      <trkpt lat="50.43043" lon="3.43267">
        <ele>17.7</ele>
        <time>2022-03-22T14:27:32.000Z</time>
      </trkpt>
      <trkpt lat="50.43043" lon="3.43259">
        <ele>17.9</ele>
        <time>2022-03-22T14:27:33.000Z</time>
      </trkpt>
      <trkpt lat="50.43044" lon="3.43251">
        <ele>18</ele>
        <time>2022-03-22T14:27:34.000Z</time>
      </trkpt>
      <trkpt lat="50.43044" lon="3.43243">
        <ele>18</ele>
        <time>2022-03-22T14:27:35.000Z</time>
      </trkpt>
      <trkpt lat="50.43044" lon="3.43236">
        <ele>18</ele>
        <time>2022-03-22T14:27:36.000Z</time>
      </trkpt>
      <trkpt lat="50.43044" lon="3.43228">
        <ele>18</ele>
        <time>2022-03-22T14:27:37.000Z</time>
      </trkpt>
      <trkpt lat="50.43045" lon="3.4322">
        <ele>18</ele>
        <time>2022-03-22T14:27:38.000Z</time>
      </trkpt>
      <trkpt lat="50.43045" lon="3.43212">
        <ele>18</ele>
        <time>2022-03-22T14:27:39.000Z</time>
      </trkpt>
      <trkpt lat="50.43045" lon="3.43204">
        <ele>18</ele>
        <time>2022-03-22T14:27:40.000Z</time>
      </trkpt>
      <trkpt lat="50.43045" lon="3.43195">
        <ele>18</ele>
        <time>2022-03-22T14:27:41.000Z</time>
      </trkpt>
      <trkpt lat="50.43045" lon="3.43187">
        <ele>18</ele>
        <time>2022-03-22T14:27:42.000Z</time>
      </trkpt>
      <trkpt lat="50.43045" lon="3.43178">
        <ele>18</ele>
        <time>2022-03-22T14:27:43.000Z</time>
      </trkpt>
      <trkpt lat="50.43045" lon="3.43169">
        <ele>18</ele>
        <time>2022-03-22T14:27:44.000Z</time>
      </trkpt>
      <trkpt lat="50.43045" lon="3.43161">
        <ele>17.8</ele>
        <time>2022-03-22T14:27:45.000Z</time>
      </trkpt>
      <trkpt lat="50.43046" lon="3.43153">
        <ele>17.5</ele>
        <time>2022-03-22T14:27:46.000Z</time>
      </trkpt>
      <trkpt lat="50.43046" lon="3.43146">
        <ele>17.3</ele>
        <time>2022-03-22T14:27:47.000Z</time>
      </trkpt>
      <trkpt lat="50.43047" lon="3.43138">
        <ele>17</ele>
        <time>2022-03-22T14:27:48.000Z</time>
      </trkpt>
      <trkpt lat="50.43047" lon="3.4313">
        <ele>17</ele>
        <time>2022-03-22T14:27:49.000Z</time>
      </trkpt>
      <trkpt lat="50.43047" lon="3.43122">
        <ele>17</ele>
        <time>2022-03-22T14:27:50.000Z</time>
      </trkpt>
      <trkpt lat="50.43047" lon="3.43114">
        <ele>17</ele>
        <time>2022-03-22T14:27:51.000Z</time>
      </trkpt>
      <trkpt lat="50.43047" lon="3.43105">
        <ele>17</ele>
        <time>2022-03-22T14:27:52.000Z</time>
      </trkpt>
      <trkpt lat="50.43048" lon="3.43097">
        <ele>17</ele>
        <time>2022-03-22T14:27:53.000Z</time>
      </trkpt>
      <trkpt lat="50.43049" lon="3.43088">
        <ele>17</ele>
        <time>2022-03-22T14:27:54.000Z</time>
      </trkpt>
      <trkpt lat="50.43049" lon="3.4308">
        <ele>17</ele>
        <time>2022-03-22T14:27:55.000Z</time>
      </trkpt>
      <trkpt lat="50.4305" lon="3.43071">
        <ele>17</ele>
        <time>2022-03-22T14:27:56.000Z</time>
      </trkpt>
      <trkpt lat="50.4305" lon="3.43063">
        <ele>17</ele>
        <time>2022-03-22T14:27:57.000Z</time>
      </trkpt>
      <trkpt lat="50.43051" lon="3.43055">
        <ele>17</ele>
        <time>2022-03-22T14:27:58.000Z</time>
      </trkpt>
      <trkpt lat="50.43052" lon="3.43046">
        <ele>17</ele>
        <time>2022-03-22T14:27:59.000Z</time>
      </trkpt>
      <trkpt lat="50.43053" lon="3.43038">
        <ele>17</ele>
        <time>2022-03-22T14:28:00.000Z</time>
      </trkpt>
      <trkpt lat="50.43055" lon="3.4303">
        <ele>17</ele>
        <time>2022-03-22T14:28:01.000Z</time>
      </trkpt>
      <trkpt lat="50.43056" lon="3.43023">
        <ele>17</ele>
        <time>2022-03-22T14:28:02.000Z</time>
      </trkpt>
      <trkpt lat="50.43058" lon="3.43016">
        <ele>17.1</ele>
        <time>2022-03-22T14:28:03.000Z</time>
      </trkpt>
      <trkpt lat="50.4306" lon="3.43009">
        <ele>17.1</ele>
        <time>2022-03-22T14:28:04.000Z</time>
      </trkpt>
      <trkpt lat="50.43063" lon="3.43001">
        <ele>17</ele>
        <time>2022-03-22T14:28:05.000Z</time>
      </trkpt>
      <trkpt lat="50.43065" lon="3.42995">
        <ele>17</ele>
        <time>2022-03-22T14:28:06.000Z</time>
      </trkpt>
      <trkpt lat="50.43067" lon="3.42988">
        <ele>17</ele>
        <time>2022-03-22T14:28:07.000Z</time>
      </trkpt>
      <trkpt lat="50.4307" lon="3.42982">
        <ele>17</ele>
        <time>2022-03-22T14:28:08.000Z</time>
      </trkpt>
      <trkpt lat="50.43072" lon="3.42975">
        <ele>17</ele>
        <time>2022-03-22T14:28:09.000Z</time>
      </trkpt>
      <trkpt lat="50.43074" lon="3.42968">
        <ele>17</ele>
        <time>2022-03-22T14:28:10.000Z</time>
      </trkpt>
      <trkpt lat="50.43076" lon="3.42962">
        <ele>17</ele>
        <time>2022-03-22T14:28:11.000Z</time>
      </trkpt>
      <trkpt lat="50.43079" lon="3.42956">
        <ele>17</ele>
        <time>2022-03-22T14:28:12.000Z</time>
      </trkpt>
      <trkpt lat="50.43081" lon="3.42949">
        <ele>17</ele>
        <time>2022-03-22T14:28:13.000Z</time>
      </trkpt>
      <trkpt lat="50.43083" lon="3.42943">
        <ele>17</ele>
        <time>2022-03-22T14:28:14.000Z</time>
      </trkpt>
      <trkpt lat="50.43085" lon="3.42936">
        <ele>17.1</ele>
        <time>2022-03-22T14:28:15.000Z</time>
      </trkpt>
      <trkpt lat="50.43088" lon="3.4293">
        <ele>17.2</ele>
        <time>2022-03-22T14:28:16.000Z</time>
      </trkpt>
      <trkpt lat="50.4309" lon="3.42924">
        <ele>17.2</ele>
        <time>2022-03-22T14:28:17.000Z</time>
      </trkpt>
      <trkpt lat="50.43092" lon="3.42917">
        <ele>17.3</ele>
        <time>2022-03-22T14:28:18.000Z</time>
      </trkpt>
      <trkpt lat="50.43094" lon="3.42911">
        <ele>17.4</ele>
        <time>2022-03-22T14:28:19.000Z</time>
      </trkpt>
      <trkpt lat="50.43098" lon="3.42899">
        <ele>17.5</ele>
        <time>2022-03-22T14:28:21.000Z</time>
      </trkpt>
      <trkpt lat="50.43103" lon="3.42886">
        <ele>17.6</ele>
        <time>2022-03-22T14:28:23.000Z</time>
      </trkpt>
      <trkpt lat="50.43105" lon="3.4288">
        <ele>17.5</ele>
        <time>2022-03-22T14:28:24.000Z</time>
      </trkpt>
      <trkpt lat="50.43109" lon="3.42867">
        <ele>17.2</ele>
        <time>2022-03-22T14:28:26.000Z</time>
      </trkpt>
      <trkpt lat="50.43111" lon="3.4286">
        <ele>17</ele>
        <time>2022-03-22T14:28:27.000Z</time>
      </trkpt>
      <trkpt lat="50.43113" lon="3.42854">
        <ele>17.1</ele>
        <time>2022-03-22T14:28:28.000Z</time>
      </trkpt>
      <trkpt lat="50.43117" lon="3.42842">
        <ele>17.2</ele>
        <time>2022-03-22T14:28:30.000Z</time>
      </trkpt>
      <trkpt lat="50.43119" lon="3.42836">
        <ele>17.3</ele>
        <time>2022-03-22T14:28:31.000Z</time>
      </trkpt>
      <trkpt lat="50.43123" lon="3.42824">
        <ele>17.4</ele>
        <time>2022-03-22T14:28:33.000Z</time>
      </trkpt>
      <trkpt lat="50.43125" lon="3.42818">
        <ele>17.5</ele>
        <time>2022-03-22T14:28:34.000Z</time>
      </trkpt>
      <trkpt lat="50.43127" lon="3.42811">
        <ele>17.6</ele>
        <time>2022-03-22T14:28:35.000Z</time>
      </trkpt>
      <trkpt lat="50.43129" lon="3.42804">
        <ele>17.6</ele>
        <time>2022-03-22T14:28:36.000Z</time>
      </trkpt>
      <trkpt lat="50.43131" lon="3.42797">
        <ele>17.5</ele>
        <time>2022-03-22T14:28:37.000Z</time>
      </trkpt>
      <trkpt lat="50.43133" lon="3.4279">
        <ele>17.3</ele>
        <time>2022-03-22T14:28:38.000Z</time>
      </trkpt>
      <trkpt lat="50.43135" lon="3.42783">
        <ele>17.2</ele>
        <time>2022-03-22T14:28:39.000Z</time>
      </trkpt>
      <trkpt lat="50.43136" lon="3.4277">
        <ele>17</ele>
        <time>2022-03-22T14:28:41.000Z</time>
      </trkpt>
      <trkpt lat="50.43136" lon="3.42762">
        <ele>17</ele>
        <time>2022-03-22T14:28:42.000Z</time>
      </trkpt>
      <trkpt lat="50.43135" lon="3.42754">
        <ele>17</ele>
        <time>2022-03-22T14:28:43.000Z</time>
      </trkpt>
      <trkpt lat="50.43134" lon="3.42746">
        <ele>17</ele>
        <time>2022-03-22T14:28:44.000Z</time>
      </trkpt>
      <trkpt lat="50.43132" lon="3.42738">
        <ele>17</ele>
        <time>2022-03-22T14:28:45.000Z</time>
      </trkpt>
      <trkpt lat="50.4313" lon="3.42729">
        <ele>17</ele>
        <time>2022-03-22T14:28:46.000Z</time>
      </trkpt>
      <trkpt lat="50.43129" lon="3.42721">
        <ele>17</ele>
        <time>2022-03-22T14:28:47.000Z</time>
      </trkpt>
      <trkpt lat="50.43127" lon="3.42712">
        <ele>17.2</ele>
        <time>2022-03-22T14:28:48.000Z</time>
      </trkpt>
      <trkpt lat="50.43125" lon="3.42704">
        <ele>17.3</ele>
        <time>2022-03-22T14:28:49.000Z</time>
      </trkpt>
      <trkpt lat="50.43123" lon="3.42696">
        <ele>17.4</ele>
        <time>2022-03-22T14:28:50.000Z</time>
      </trkpt>
      <trkpt lat="50.43122" lon="3.42689">
        <ele>17.4</ele>
        <time>2022-03-22T14:28:51.000Z</time>
      </trkpt>
      <trkpt lat="50.4312" lon="3.42681">
        <ele>17.3</ele>
        <time>2022-03-22T14:28:52.000Z</time>
      </trkpt>
      <trkpt lat="50.43119" lon="3.42673">
        <ele>17.3</ele>
        <time>2022-03-22T14:28:53.000Z</time>
      </trkpt>
      <trkpt lat="50.43117" lon="3.42666">
        <ele>17.2</ele>
        <time>2022-03-22T14:28:54.000Z</time>
      </trkpt>
      <trkpt lat="50.43116" lon="3.42658">
        <ele>17.2</ele>
        <time>2022-03-22T14:28:55.000Z</time>
      </trkpt>
      <trkpt lat="50.43114" lon="3.42651">
        <ele>17.1</ele>
        <time>2022-03-22T14:28:56.000Z</time>
      </trkpt>
      <trkpt lat="50.43112" lon="3.42643">
        <ele>17</ele>
        <time>2022-03-22T14:28:57.000Z</time>
      </trkpt>
      <trkpt lat="50.4311" lon="3.42635">
        <ele>17</ele>
        <time>2022-03-22T14:28:58.000Z</time>
      </trkpt>
      <trkpt lat="50.43109" lon="3.42628">
        <ele>17</ele>
        <time>2022-03-22T14:28:59.000Z</time>
      </trkpt>
      <trkpt lat="50.43108" lon="3.4262">
        <ele>16.9</ele>
        <time>2022-03-22T14:29:00.000Z</time>
      </trkpt>
      <trkpt lat="50.43106" lon="3.42613">
        <ele>16.8</ele>
        <time>2022-03-22T14:29:01.000Z</time>
      </trkpt>
      <trkpt lat="50.43105" lon="3.42605">
        <ele>16.8</ele>
        <time>2022-03-22T14:29:02.000Z</time>
      </trkpt>
      <trkpt lat="50.43103" lon="3.42597">
        <ele>16.7</ele>
        <time>2022-03-22T14:29:03.000Z</time>
      </trkpt>
      <trkpt lat="50.43102" lon="3.4259">
        <ele>16.7</ele>
        <time>2022-03-22T14:29:04.000Z</time>
      </trkpt>
      <trkpt lat="50.43101" lon="3.42582">
        <ele>16.7</ele>
        <time>2022-03-22T14:29:05.000Z</time>
      </trkpt>
      <trkpt lat="50.43099" lon="3.42574">
        <ele>16.7</ele>
        <time>2022-03-22T14:29:06.000Z</time>
      </trkpt>
      <trkpt lat="50.43098" lon="3.42567">
        <ele>16.8</ele>
        <time>2022-03-22T14:29:07.000Z</time>
      </trkpt>
      <trkpt lat="50.43097" lon="3.42559">
        <ele>16.9</ele>
        <time>2022-03-22T14:29:08.000Z</time>
      </trkpt>
      <trkpt lat="50.43095" lon="3.42552">
        <ele>16.9</ele>
        <time>2022-03-22T14:29:09.000Z</time>
      </trkpt>
      <trkpt lat="50.43094" lon="3.42544">
        <ele>16.8</ele>
        <time>2022-03-22T14:29:10.000Z</time>
      </trkpt>
      <trkpt lat="50.43093" lon="3.42537">
        <ele>16.8</ele>
        <time>2022-03-22T14:29:11.000Z</time>
      </trkpt>
      <trkpt lat="50.43091" lon="3.4253">
        <ele>16.7</ele>
        <time>2022-03-22T14:29:12.000Z</time>
      </trkpt>
      <trkpt lat="50.4309" lon="3.42522">
        <ele>16.8</ele>
        <time>2022-03-22T14:29:13.000Z</time>
      </trkpt>
      <trkpt lat="50.43088" lon="3.42515">
        <ele>16.8</ele>
        <time>2022-03-22T14:29:14.000Z</time>
      </trkpt>
      <trkpt lat="50.43087" lon="3.42508">
        <ele>16.9</ele>
        <time>2022-03-22T14:29:15.000Z</time>
      </trkpt>
      <trkpt lat="50.43086" lon="3.425">
        <ele>16.9</ele>
        <time>2022-03-22T14:29:16.000Z</time>
      </trkpt>
      <trkpt lat="50.43084" lon="3.42492">
        <ele>17</ele>
        <time>2022-03-22T14:29:17.000Z</time>
      </trkpt>
      <trkpt lat="50.43083" lon="3.42485">
        <ele>17</ele>
        <time>2022-03-22T14:29:18.000Z</time>
      </trkpt>
      <trkpt lat="50.43081" lon="3.42478">
        <ele>16.9</ele>
        <time>2022-03-22T14:29:19.000Z</time>
      </trkpt>
      <trkpt lat="50.43079" lon="3.42471">
        <ele>16.8</ele>
        <time>2022-03-22T14:29:20.000Z</time>
      </trkpt>
      <trkpt lat="50.43078" lon="3.42463">
        <ele>16.5</ele>
        <time>2022-03-22T14:29:21.000Z</time>
      </trkpt>
      <trkpt lat="50.43076" lon="3.42456">
        <ele>16.3</ele>
        <time>2022-03-22T14:29:22.000Z</time>
      </trkpt>
      <trkpt lat="50.43075" lon="3.42448">
        <ele>16.1</ele>
        <time>2022-03-22T14:29:23.000Z</time>
      </trkpt>
      <trkpt lat="50.43073" lon="3.4244">
        <ele>16.1</ele>
        <time>2022-03-22T14:29:24.000Z</time>
      </trkpt>
      <trkpt lat="50.43071" lon="3.42432">
        <ele>16.2</ele>
        <time>2022-03-22T14:29:25.000Z</time>
      </trkpt>
      <trkpt lat="50.4307" lon="3.42424">
        <ele>16.4</ele>
        <time>2022-03-22T14:29:26.000Z</time>
      </trkpt>
      <trkpt lat="50.43068" lon="3.42416">
        <ele>16.6</ele>
        <time>2022-03-22T14:29:27.000Z</time>
      </trkpt>
      <trkpt lat="50.43067" lon="3.42408">
        <ele>16.8</ele>
        <time>2022-03-22T14:29:28.000Z</time>
      </trkpt>
      <trkpt lat="50.43065" lon="3.424">
        <ele>17.1</ele>
        <time>2022-03-22T14:29:29.000Z</time>
      </trkpt>
      <trkpt lat="50.43064" lon="3.42392">
        <ele>17.3</ele>
        <time>2022-03-22T14:29:30.000Z</time>
      </trkpt>
      <trkpt lat="50.43062" lon="3.42384">
        <ele>17.4</ele>
        <time>2022-03-22T14:29:31.000Z</time>
      </trkpt>
      <trkpt lat="50.43061" lon="3.42376">
        <ele>17.2</ele>
        <time>2022-03-22T14:29:32.000Z</time>
      </trkpt>
      <trkpt lat="50.43059" lon="3.42368">
        <ele>17.1</ele>
        <time>2022-03-22T14:29:33.000Z</time>
      </trkpt>
      <trkpt lat="50.43057" lon="3.42359">
        <ele>16.9</ele>
        <time>2022-03-22T14:29:34.000Z</time>
      </trkpt>
      <trkpt lat="50.43056" lon="3.42351">
        <ele>17</ele>
        <time>2022-03-22T14:29:35.000Z</time>
      </trkpt>
      <trkpt lat="50.43054" lon="3.42342">
        <ele>17.1</ele>
        <time>2022-03-22T14:29:36.000Z</time>
      </trkpt>
      <trkpt lat="50.43053" lon="3.42334">
        <ele>17.1</ele>
        <time>2022-03-22T14:29:37.000Z</time>
      </trkpt>
      <trkpt lat="50.43051" lon="3.42327">
        <ele>17</ele>
        <time>2022-03-22T14:29:38.000Z</time>
      </trkpt>
      <trkpt lat="50.4305" lon="3.42319">
        <ele>16.9</ele>
        <time>2022-03-22T14:29:39.000Z</time>
      </trkpt>
      <trkpt lat="50.43048" lon="3.42312">
        <ele>16.9</ele>
        <time>2022-03-22T14:29:40.000Z</time>
      </trkpt>
      <trkpt lat="50.43047" lon="3.42304">
        <ele>16.9</ele>
        <time>2022-03-22T14:29:41.000Z</time>
      </trkpt>
      <trkpt lat="50.43045" lon="3.42297">
        <ele>17.1</ele>
        <time>2022-03-22T14:29:42.000Z</time>
      </trkpt>
      <trkpt lat="50.43044" lon="3.4229">
        <ele>17.2</ele>
        <time>2022-03-22T14:29:43.000Z</time>
      </trkpt>
      <trkpt lat="50.43042" lon="3.42282">
        <ele>17.5</ele>
        <time>2022-03-22T14:29:44.000Z</time>
      </trkpt>
      <trkpt lat="50.43041" lon="3.42275">
        <ele>17.5</ele>
        <time>2022-03-22T14:29:45.000Z</time>
      </trkpt>
      <trkpt lat="50.43039" lon="3.42268">
        <ele>17.6</ele>
        <time>2022-03-22T14:29:46.000Z</time>
      </trkpt>
      <trkpt lat="50.43038" lon="3.4226">
        <ele>17.5</ele>
        <time>2022-03-22T14:29:47.000Z</time>
      </trkpt>
      <trkpt lat="50.43036" lon="3.42253">
        <ele>17.5</ele>
        <time>2022-03-22T14:29:48.000Z</time>
      </trkpt>
      <trkpt lat="50.43034" lon="3.42245">
        <ele>17.4</ele>
        <time>2022-03-22T14:29:49.000Z</time>
      </trkpt>
      <trkpt lat="50.43033" lon="3.42237">
        <ele>17.2</ele>
        <time>2022-03-22T14:29:50.000Z</time>
      </trkpt>
      <trkpt lat="50.43031" lon="3.4223">
        <ele>17.1</ele>
        <time>2022-03-22T14:29:51.000Z</time>
      </trkpt>
      <trkpt lat="50.4303" lon="3.42222">
        <ele>16.9</ele>
        <time>2022-03-22T14:29:52.000Z</time>
      </trkpt>
      <trkpt lat="50.43029" lon="3.42215">
        <ele>17</ele>
        <time>2022-03-22T14:29:53.000Z</time>
      </trkpt>
      <trkpt lat="50.43027" lon="3.42208">
        <ele>17.1</ele>
        <time>2022-03-22T14:29:54.000Z</time>
      </trkpt>
      <trkpt lat="50.43026" lon="3.42201">
        <ele>17.1</ele>
        <time>2022-03-22T14:29:55.000Z</time>
      </trkpt>
      <trkpt lat="50.43024" lon="3.42193">
        <ele>17.3</ele>
        <time>2022-03-22T14:29:56.000Z</time>
      </trkpt>
      <trkpt lat="50.43023" lon="3.42186">
        <ele>17.3</ele>
        <time>2022-03-22T14:29:57.000Z</time>
      </trkpt>
      <trkpt lat="50.43022" lon="3.42179">
        <ele>17.3</ele>
        <time>2022-03-22T14:29:58.000Z</time>
      </trkpt>
      <trkpt lat="50.43021" lon="3.42171">
        <ele>17.3</ele>
        <time>2022-03-22T14:29:59.000Z</time>
      </trkpt>
      <trkpt lat="50.4302" lon="3.42164">
        <ele>17.3</ele>
        <time>2022-03-22T14:30:00.000Z</time>
      </trkpt>
      <trkpt lat="50.43018" lon="3.42157">
        <ele>17.4</ele>
        <time>2022-03-22T14:30:01.000Z</time>
      </trkpt>
      <trkpt lat="50.43016" lon="3.4215">
        <ele>17.4</ele>
        <time>2022-03-22T14:30:02.000Z</time>
      </trkpt>
      <trkpt lat="50.43015" lon="3.42143">
        <ele>17.5</ele>
        <time>2022-03-22T14:30:03.000Z</time>
      </trkpt>
      <trkpt lat="50.43014" lon="3.42136">
        <ele>17.4</ele>
        <time>2022-03-22T14:30:04.000Z</time>
      </trkpt>
      <trkpt lat="50.43013" lon="3.42129">
        <ele>17.3</ele>
        <time>2022-03-22T14:30:05.000Z</time>
      </trkpt>
      <trkpt lat="50.43011" lon="3.42122">
        <ele>17.2</ele>
        <time>2022-03-22T14:30:06.000Z</time>
      </trkpt>
      <trkpt lat="50.43009" lon="3.42108">
        <ele>17</ele>
        <time>2022-03-22T14:30:08.000Z</time>
      </trkpt>
      <trkpt lat="50.43007" lon="3.42101">
        <ele>16.9</ele>
        <time>2022-03-22T14:30:09.000Z</time>
      </trkpt>
      <trkpt lat="50.43006" lon="3.42094">
        <ele>16.9</ele>
        <time>2022-03-22T14:30:10.000Z</time>
      </trkpt>
      <trkpt lat="50.43004" lon="3.42086">
        <ele>16.9</ele>
        <time>2022-03-22T14:30:11.000Z</time>
      </trkpt>
      <trkpt lat="50.43003" lon="3.42078">
        <ele>16.9</ele>
        <time>2022-03-22T14:30:12.000Z</time>
      </trkpt>
      <trkpt lat="50.43002" lon="3.42071">
        <ele>16.9</ele>
        <time>2022-03-22T14:30:13.000Z</time>
      </trkpt>
      <trkpt lat="50.43" lon="3.42064">
        <ele>17</ele>
        <time>2022-03-22T14:30:14.000Z</time>
      </trkpt>
      <trkpt lat="50.42998" lon="3.42053">
        <ele>17.1</ele>
        <time>2022-03-22T14:30:16.000Z</time>
      </trkpt>
      <trkpt lat="50.42995" lon="3.42039">
        <ele>17.2</ele>
        <time>2022-03-22T14:30:18.000Z</time>
      </trkpt>
      <trkpt lat="50.42994" lon="3.42031">
        <ele>17.2</ele>
        <time>2022-03-22T14:30:19.000Z</time>
      </trkpt>
      <trkpt lat="50.42992" lon="3.42024">
        <ele>17.2</ele>
        <time>2022-03-22T14:30:20.000Z</time>
      </trkpt>
      <trkpt lat="50.42991" lon="3.42016">
        <ele>17</ele>
        <time>2022-03-22T14:30:21.000Z</time>
      </trkpt>
      <trkpt lat="50.4299" lon="3.42009">
        <ele>16.9</ele>
        <time>2022-03-22T14:30:22.000Z</time>
      </trkpt>
      <trkpt lat="50.42988" lon="3.42001">
        <ele>16.9</ele>
        <time>2022-03-22T14:30:23.000Z</time>
      </trkpt>
      <trkpt lat="50.42986" lon="3.41994">
        <ele>17</ele>
        <time>2022-03-22T14:30:24.000Z</time>
      </trkpt>
      <trkpt lat="50.42985" lon="3.41987">
        <ele>17.1</ele>
        <time>2022-03-22T14:30:25.000Z</time>
      </trkpt>
      <trkpt lat="50.42983" lon="3.41981">
        <ele>17.2</ele>
        <time>2022-03-22T14:30:26.000Z</time>
      </trkpt>
      <trkpt lat="50.42982" lon="3.41974">
        <ele>17.3</ele>
        <time>2022-03-22T14:30:27.000Z</time>
      </trkpt>
      <trkpt lat="50.42981" lon="3.41967">
        <ele>17.2</ele>
        <time>2022-03-22T14:30:28.000Z</time>
      </trkpt>
      <trkpt lat="50.4298" lon="3.4196">
        <ele>17.1</ele>
        <time>2022-03-22T14:30:29.000Z</time>
      </trkpt>
      <trkpt lat="50.42977" lon="3.41948">
        <ele>16.9</ele>
        <time>2022-03-22T14:30:31.000Z</time>
      </trkpt>
      <trkpt lat="50.42975" lon="3.4194">
        <ele>16.8</ele>
        <time>2022-03-22T14:30:32.000Z</time>
      </trkpt>
      <trkpt lat="50.42973" lon="3.41928">
        <ele>16.4</ele>
        <time>2022-03-22T14:30:34.000Z</time>
      </trkpt>
      <trkpt lat="50.42973" lon="3.41916">
        <ele>16</ele>
        <time>2022-03-22T14:30:36.000Z</time>
      </trkpt>
      <trkpt lat="50.4297" lon="3.41902">
        <ele>16.2</ele>
        <time>2022-03-22T14:30:38.070Z</time>
      </trkpt>
      <trkpt lat="50.42967" lon="3.41893">
        <ele>16.4</ele>
        <time>2022-03-22T14:30:39.000Z</time>
      </trkpt>
      <trkpt lat="50.42966" lon="3.41885">
        <ele>16.4</ele>
        <time>2022-03-22T14:30:40.000Z</time>
      </trkpt>
      <trkpt lat="50.42964" lon="3.41879">
        <ele>16.6</ele>
        <time>2022-03-22T14:30:41.000Z</time>
      </trkpt>
      <trkpt lat="50.42963" lon="3.41866">
        <ele>16.7</ele>
        <time>2022-03-22T14:30:42.988Z</time>
      </trkpt>
      <trkpt lat="50.4296" lon="3.41857">
        <ele>16.8</ele>
        <time>2022-03-22T14:30:44.448Z</time>
      </trkpt>
      <trkpt lat="50.42958" lon="3.41849">
        <ele>16.8</ele>
        <time>2022-03-22T14:30:45.870Z</time>
      </trkpt>
      <trkpt lat="50.42956" lon="3.41841">
        <ele>16.7</ele>
        <time>2022-03-22T14:30:47.000Z</time>
      </trkpt>
      <trkpt lat="50.42953" lon="3.41828">
        <ele>16.7</ele>
        <time>2022-03-22T14:30:49.000Z</time>
      </trkpt>
      <trkpt lat="50.42951" lon="3.41815">
        <ele>16.8</ele>
        <time>2022-03-22T14:30:51.000Z</time>
      </trkpt>
      <trkpt lat="50.42948" lon="3.41804">
        <ele>16.9</ele>
        <time>2022-03-22T14:30:53.000Z</time>
      </trkpt>
      <trkpt lat="50.42948" lon="3.41795">
        <ele>16.9</ele>
        <time>2022-03-22T14:30:55.373Z</time>
      </trkpt>
      <trkpt lat="50.42946" lon="3.41786">
        <ele>16.9</ele>
        <time>2022-03-22T14:31:23.000Z</time>
      </trkpt>
      <trkpt lat="50.42944" lon="3.41776">
        <ele>17</ele>
        <time>2022-03-22T14:31:25.000Z</time>
      </trkpt>
      <trkpt lat="50.42942" lon="3.41768">
        <ele>17.1</ele>
        <time>2022-03-22T14:31:27.000Z</time>
      </trkpt>
      <trkpt lat="50.4294" lon="3.4176">
        <ele>17.2</ele>
        <time>2022-03-22T14:31:28.990Z</time>
      </trkpt>
      <trkpt lat="50.42937" lon="3.41749">
        <ele>17.3</ele>
        <time>2022-03-22T14:31:31.031Z</time>
      </trkpt>
      <trkpt lat="50.42934" lon="3.41738">
        <ele>17.2</ele>
        <time>2022-03-22T14:31:33.110Z</time>
      </trkpt>
      <trkpt lat="50.42932" lon="3.41729">
        <ele>17.1</ele>
        <time>2022-03-22T14:31:34.550Z</time>
      </trkpt>
      <trkpt lat="50.4293" lon="3.41721">
        <ele>17</ele>
        <time>2022-03-22T14:31:36.000Z</time>
      </trkpt>
      <trkpt lat="50.42927" lon="3.4171">
        <ele>17</ele>
        <time>2022-03-22T14:31:38.000Z</time>
      </trkpt>
      <trkpt lat="50.42925" lon="3.41702">
        <ele>17</ele>
        <time>2022-03-22T14:31:39.558Z</time>
      </trkpt>
      <trkpt lat="50.42923" lon="3.41692">
        <ele>17</ele>
        <time>2022-03-22T14:31:41.000Z</time>
      </trkpt>
      <trkpt lat="50.4292" lon="3.41676">
        <ele>17</ele>
        <time>2022-03-22T14:31:44.000Z</time>
      </trkpt>
      <trkpt lat="50.42917" lon="3.41659">
        <ele>17</ele>
        <time>2022-03-22T14:31:47.000Z</time>
      </trkpt>
      <trkpt lat="50.42913" lon="3.4164">
        <ele>17</ele>
        <time>2022-03-22T14:31:50.000Z</time>
      </trkpt>
      <trkpt lat="50.4291" lon="3.4162">
        <ele>17.5</ele>
        <time>2022-03-22T14:31:53.000Z</time>
      </trkpt>
      <trkpt lat="50.42907" lon="3.416">
        <ele>17.7</ele>
        <time>2022-03-22T14:31:56.000Z</time>
      </trkpt>
      <trkpt lat="50.42904" lon="3.4158">
        <ele>17.5</ele>
        <time>2022-03-22T14:31:58.932Z</time>
      </trkpt>
      <trkpt lat="50.42901" lon="3.41554">
        <ele>17.4</ele>
        <time>2022-03-22T14:32:02.000Z</time>
      </trkpt>
      <trkpt lat="50.42897" lon="3.41532">
        <ele>17</ele>
        <time>2022-03-22T14:32:05.000Z</time>
      </trkpt>
      <trkpt lat="50.42894" lon="3.41511">
        <ele>17</ele>
        <time>2022-03-22T14:32:08.000Z</time>
      </trkpt>
      <trkpt lat="50.42895" lon="3.4149">
        <ele>16.9</ele>
        <time>2022-03-22T14:32:11.000Z</time>
      </trkpt>
      <trkpt lat="50.42906" lon="3.41472">
        <ele>16.4</ele>
        <time>2022-03-22T14:32:14.000Z</time>
      </trkpt>
      <trkpt lat="50.42917" lon="3.41451">
        <ele>16.8</ele>
        <time>2022-03-22T14:32:17.000Z</time>
      </trkpt>
      <trkpt lat="50.42927" lon="3.41432">
        <ele>16.8</ele>
        <time>2022-03-22T14:32:20.000Z</time>
      </trkpt>
      <trkpt lat="50.42938" lon="3.41412">
        <ele>16.4</ele>
        <time>2022-03-22T14:32:23.000Z</time>
      </trkpt>
      <trkpt lat="50.42948" lon="3.41394">
        <ele>16.7</ele>
        <time>2022-03-22T14:32:26.000Z</time>
      </trkpt>
      <trkpt lat="50.42957" lon="3.41375">
        <ele>16.8</ele>
        <time>2022-03-22T14:32:29.000Z</time>
      </trkpt>
      <trkpt lat="50.42966" lon="3.41359">
        <ele>17</ele>
        <time>2022-03-22T14:32:32.000Z</time>
      </trkpt>
      <trkpt lat="50.42972" lon="3.41346">
        <ele>17</ele>
        <time>2022-03-22T14:32:35.000Z</time>
      </trkpt>
      <trkpt lat="50.42978" lon="3.41325">
        <ele>17</ele>
        <time>2022-03-22T14:32:38.000Z</time>
      </trkpt>
      <trkpt lat="50.42982" lon="3.41316">
        <ele>17</ele>
        <time>2022-03-22T14:32:41.000Z</time>
      </trkpt>
      <trkpt lat="50.42994" lon="3.41298">
        <ele>17</ele>
        <time>2022-03-22T14:32:44.000Z</time>
      </trkpt>
      <trkpt lat="50.43008" lon="3.41283">
        <ele>17</ele>
        <time>2022-03-22T14:32:47.000Z</time>
      </trkpt>
      <trkpt lat="50.43022" lon="3.41274">
        <ele>17</ele>
        <time>2022-03-22T14:32:50.000Z</time>
      </trkpt>
      <trkpt lat="50.43037" lon="3.41268">
        <ele>17</ele>
        <time>2022-03-22T14:32:53.000Z</time>
      </trkpt>
      <trkpt lat="50.43052" lon="3.41265">
        <ele>17</ele>
        <time>2022-03-22T14:32:56.000Z</time>
      </trkpt>
      <trkpt lat="50.43066" lon="3.41261">
        <ele>17</ele>
        <time>2022-03-22T14:32:59.000Z</time>
      </trkpt>
      <trkpt lat="50.43078" lon="3.41253">
        <ele>17</ele>
        <time>2022-03-22T14:33:02.000Z</time>
      </trkpt>
      <trkpt lat="50.43082" lon="3.41244">
        <ele>17</ele>
        <time>2022-03-22T14:33:05.000Z</time>
      </trkpt>
      <trkpt lat="50.4309" lon="3.41235">
        <ele>17</ele>
        <time>2022-03-22T14:33:08.000Z</time>
      </trkpt>
      <trkpt lat="50.431" lon="3.41223">
        <ele>17</ele>
        <time>2022-03-22T14:33:11.000Z</time>
      </trkpt>
      <trkpt lat="50.43107" lon="3.41219">
        <ele>17</ele>
        <time>2022-03-22T14:33:14.023Z</time>
      </trkpt>
      <trkpt lat="50.43114" lon="3.41226">
        <ele>17</ele>
        <time>2022-03-22T14:33:16.881Z</time>
      </trkpt>
      <trkpt lat="50.43122" lon="3.41234">
        <ele>17</ele>
        <time>2022-03-22T14:33:19.758Z</time>
      </trkpt>
      <trkpt lat="50.43133" lon="3.41243">
        <ele>17</ele>
        <time>2022-03-22T14:33:22.582Z</time>
      </trkpt>
      <trkpt lat="50.43144" lon="3.41253">
        <ele>17</ele>
        <time>2022-03-22T14:33:25.641Z</time>
      </trkpt>
      <trkpt lat="50.43156" lon="3.41263">
        <ele>17</ele>
        <time>2022-03-22T14:33:29.000Z</time>
      </trkpt>
      <trkpt lat="50.43166" lon="3.41275">
        <ele>17</ele>
        <time>2022-03-22T14:33:32.122Z</time>
      </trkpt>
      <trkpt lat="50.43175" lon="3.41285">
        <ele>16.8</ele>
        <time>2022-03-22T14:33:34.921Z</time>
      </trkpt>
      <trkpt lat="50.43184" lon="3.41294">
        <ele>16.7</ele>
        <time>2022-03-22T14:33:37.899Z</time>
      </trkpt>
      <trkpt lat="50.43194" lon="3.41303">
        <ele>16.9</ele>
        <time>2022-03-22T14:33:40.919Z</time>
      </trkpt>
      <trkpt lat="50.43202" lon="3.41313">
        <ele>17</ele>
        <time>2022-03-22T14:33:43.741Z</time>
      </trkpt>
      <trkpt lat="50.43212" lon="3.41321">
        <ele>17</ele>
        <time>2022-03-22T14:33:46.498Z</time>
      </trkpt>
      <trkpt lat="50.43224" lon="3.4133">
        <ele>17</ele>
        <time>2022-03-22T14:33:49.879Z</time>
      </trkpt>
      <trkpt lat="50.43234" lon="3.41338">
        <ele>17.1</ele>
        <time>2022-03-22T14:33:52.899Z</time>
      </trkpt>
      <trkpt lat="50.43243" lon="3.41347">
        <ele>17.4</ele>
        <time>2022-03-22T14:33:55.678Z</time>
      </trkpt>
      <trkpt lat="50.43251" lon="3.41357">
        <ele>17.8</ele>
        <time>2022-03-22T14:33:58.501Z</time>
      </trkpt>
      <trkpt lat="50.4326" lon="3.41364">
        <ele>17.6</ele>
        <time>2022-03-22T14:34:01.302Z</time>
      </trkpt>
      <trkpt lat="50.4327" lon="3.41374">
        <ele>17.3</ele>
        <time>2022-03-22T14:34:04.259Z</time>
      </trkpt>
      <trkpt lat="50.43281" lon="3.41384">
        <ele>17</ele>
        <time>2022-03-22T14:34:07.620Z</time>
      </trkpt>
      <trkpt lat="50.43289" lon="3.4139">
        <ele>17</ele>
        <time>2022-03-22T14:34:11.000Z</time>
      </trkpt>
      <trkpt lat="50.43285" lon="3.41387">
        <ele>17</ele>
        <time>2022-03-22T14:34:20.000Z</time>
      </trkpt>
      <trkpt lat="50.43291" lon="3.41388">
        <ele>17</ele>
        <time>2022-03-22T14:34:59.899Z</time>
      </trkpt>
      <trkpt lat="50.43298" lon="3.41395">
        <ele>17</ele>
        <time>2022-03-22T14:35:02.977Z</time>
      </trkpt>
      <trkpt lat="50.43304" lon="3.41402">
        <ele>17</ele>
        <time>2022-03-22T14:35:06.000Z</time>
      </trkpt>
      <trkpt lat="50.43309" lon="3.41408">
        <ele>17</ele>
        <time>2022-03-22T14:35:26.938Z</time>
      </trkpt>
      <trkpt lat="50.43315" lon="3.41415">
        <ele>17</ele>
        <time>2022-03-22T14:35:29.000Z</time>
      </trkpt>
      <trkpt lat="50.43322" lon="3.41421">
        <ele>17</ele>
        <time>2022-03-22T14:35:31.000Z</time>
      </trkpt>
      <trkpt lat="50.43333" lon="3.4143">
        <ele>17</ele>
        <time>2022-03-22T14:35:34.021Z</time>
      </trkpt>
      <trkpt lat="50.43339" lon="3.41437">
        <ele>17</ele>
        <time>2022-03-22T14:35:36.000Z</time>
      </trkpt>
      <trkpt lat="50.43347" lon="3.41445">
        <ele>17</ele>
        <time>2022-03-22T14:35:38.000Z</time>
      </trkpt>
      <trkpt lat="50.43354" lon="3.41452">
        <ele>16.9</ele>
        <time>2022-03-22T14:35:40.000Z</time>
      </trkpt>
      <trkpt lat="50.43358" lon="3.41455">
        <ele>17</ele>
        <time>2022-03-22T14:35:41.142Z</time>
      </trkpt>
      <trkpt lat="50.43364" lon="3.41461">
        <ele>17</ele>
        <time>2022-03-22T14:35:42.863Z</time>
      </trkpt>
      <trkpt lat="50.43368" lon="3.41465">
        <ele>16.9</ele>
        <time>2022-03-22T14:35:44.019Z</time>
      </trkpt>
      <trkpt lat="50.43374" lon="3.41472">
        <ele>17</ele>
        <time>2022-03-22T14:35:46.000Z</time>
      </trkpt>
      <trkpt lat="50.4338" lon="3.41479">
        <ele>16.9</ele>
        <time>2022-03-22T14:35:56.542Z</time>
      </trkpt>
      <trkpt lat="50.43386" lon="3.41483">
        <ele>17</ele>
        <time>2022-03-22T14:35:58.000Z</time>
      </trkpt>
      <trkpt lat="50.4339" lon="3.41487">
        <ele>17</ele>
        <time>2022-03-22T14:35:59.120Z</time>
      </trkpt>
      <trkpt lat="50.43397" lon="3.41494">
        <ele>17</ele>
        <time>2022-03-22T14:36:00.762Z</time>
      </trkpt>
      <trkpt lat="50.43405" lon="3.41501">
        <ele>17</ele>
        <time>2022-03-22T14:36:02.941Z</time>
      </trkpt>
      <trkpt lat="50.43413" lon="3.41509">
        <ele>17</ele>
        <time>2022-03-22T14:36:05.098Z</time>
      </trkpt>
      <trkpt lat="50.43419" lon="3.41513">
        <ele>17.1</ele>
        <time>2022-03-22T14:36:06.261Z</time>
      </trkpt>
      <trkpt lat="50.43424" lon="3.41519">
        <ele>17.3</ele>
        <time>2022-03-22T14:36:07.801Z</time>
      </trkpt>
      <trkpt lat="50.43429" lon="3.41523">
        <ele>17.4</ele>
        <time>2022-03-22T14:36:09.000Z</time>
      </trkpt>
      <trkpt lat="50.43436" lon="3.41529">
        <ele>17.7</ele>
        <time>2022-03-22T14:36:11.000Z</time>
      </trkpt>
      <trkpt lat="50.43444" lon="3.41536">
        <ele>17.7</ele>
        <time>2022-03-22T14:36:13.002Z</time>
      </trkpt>
      <trkpt lat="50.43452" lon="3.41542">
        <ele>17.4</ele>
        <time>2022-03-22T14:36:15.138Z</time>
      </trkpt>
      <trkpt lat="50.43458" lon="3.41546">
        <ele>17.2</ele>
        <time>2022-03-22T14:36:16.388Z</time>
      </trkpt>
      <trkpt lat="50.43464" lon="3.41549">
        <ele>17.1</ele>
        <time>2022-03-22T14:36:17.942Z</time>
      </trkpt>
      <trkpt lat="50.43468" lon="3.41552">
        <ele>17</ele>
        <time>2022-03-22T14:36:19.118Z</time>
      </trkpt>
      <trkpt lat="50.43479" lon="3.41557">
        <ele>17.3</ele>
        <time>2022-03-22T14:36:22.000Z</time>
      </trkpt>
      <trkpt lat="50.43485" lon="3.41556">
        <ele>17.5</ele>
        <time>2022-03-22T14:36:25.139Z</time>
      </trkpt>
      <trkpt lat="50.4349" lon="3.41557">
        <ele>17.7</ele>
        <time>2022-03-22T14:36:34.541Z</time>
      </trkpt>
      <trkpt lat="50.43497" lon="3.41558">
        <ele>18.1</ele>
        <time>2022-03-22T14:36:37.122Z</time>
      </trkpt>
      <trkpt lat="50.43506" lon="3.41559">
        <ele>18.5</ele>
        <time>2022-03-22T14:36:39.122Z</time>
      </trkpt>
      <trkpt lat="50.43518" lon="3.41559">
        <ele>18.9</ele>
        <time>2022-03-22T14:36:41.000Z</time>
      </trkpt>
      <trkpt lat="50.43523" lon="3.41559">
        <ele>19.1</ele>
        <time>2022-03-22T14:36:42.000Z</time>
      </trkpt>
      <trkpt lat="50.43528" lon="3.41552">
        <ele>18.9</ele>
        <time>2022-03-22T14:36:44.000Z</time>
      </trkpt>
      <trkpt lat="50.43536" lon="3.41554">
        <ele>18.9</ele>
        <time>2022-03-22T14:36:45.388Z</time>
      </trkpt>
      <trkpt lat="50.43546" lon="3.4156">
        <ele>19.3</ele>
        <time>2022-03-22T14:36:47.000Z</time>
      </trkpt>
      <trkpt lat="50.4355" lon="3.41561">
        <ele>19.4</ele>
        <time>2022-03-22T14:36:48.000Z</time>
      </trkpt>
      <trkpt lat="50.43555" lon="3.41562">
        <ele>19.5</ele>
        <time>2022-03-22T14:36:49.000Z</time>
      </trkpt>
      <trkpt lat="50.4356" lon="3.41562">
        <ele>19.3</ele>
        <time>2022-03-22T14:36:50.000Z</time>
      </trkpt>
      <trkpt lat="50.43567" lon="3.41563">
        <ele>19.1</ele>
        <time>2022-03-22T14:36:52.000Z</time>
      </trkpt>
      <trkpt lat="50.43571" lon="3.41563">
        <ele>19</ele>
        <time>2022-03-22T14:36:53.000Z</time>
      </trkpt>
      <trkpt lat="50.43581" lon="3.41563">
        <ele>18.6</ele>
        <time>2022-03-22T14:36:55.126Z</time>
      </trkpt>
      <trkpt lat="50.43587" lon="3.41563">
        <ele>18.4</ele>
        <time>2022-03-22T14:36:56.427Z</time>
      </trkpt>
      <trkpt lat="50.43592" lon="3.41564">
        <ele>18.2</ele>
        <time>2022-03-22T14:36:57.528Z</time>
      </trkpt>
      <trkpt lat="50.43597" lon="3.41564">
        <ele>18</ele>
        <time>2022-03-22T14:36:58.665Z</time>
      </trkpt>
      <trkpt lat="50.43603" lon="3.41565">
        <ele>17.7</ele>
        <time>2022-03-22T14:36:59.966Z</time>
      </trkpt>
      <trkpt lat="50.43608" lon="3.41565">
        <ele>17.5</ele>
        <time>2022-03-22T14:37:01.000Z</time>
      </trkpt>
      <trkpt lat="50.43618" lon="3.41565">
        <ele>17.3</ele>
        <time>2022-03-22T14:37:03.346Z</time>
      </trkpt>
      <trkpt lat="50.43625" lon="3.41565">
        <ele>17.3</ele>
        <time>2022-03-22T14:37:04.909Z</time>
      </trkpt>
      <trkpt lat="50.4363" lon="3.41566">
        <ele>17.4</ele>
        <time>2022-03-22T14:37:06.170Z</time>
      </trkpt>
      <trkpt lat="50.43636" lon="3.41565">
        <ele>17.3</ele>
        <time>2022-03-22T14:37:07.808Z</time>
      </trkpt>
      <trkpt lat="50.43641" lon="3.41566">
        <ele>17.4</ele>
        <time>2022-03-22T14:37:10.000Z</time>
      </trkpt>
      <trkpt lat="50.43645" lon="3.41559">
        <ele>17.1</ele>
        <time>2022-03-22T14:37:13.906Z</time>
      </trkpt>
      <trkpt lat="50.43652" lon="3.41563">
        <ele>17.3</ele>
        <time>2022-03-22T14:37:16.925Z</time>
      </trkpt>
      <trkpt lat="50.43659" lon="3.41563">
        <ele>17.3</ele>
        <time>2022-03-22T14:37:19.000Z</time>
      </trkpt>
      <trkpt lat="50.43665" lon="3.41563">
        <ele>17.3</ele>
        <time>2022-03-22T14:37:21.000Z</time>
      </trkpt>
      <trkpt lat="50.43672" lon="3.41563">
        <ele>17.3</ele>
        <time>2022-03-22T14:37:22.986Z</time>
      </trkpt>
      <trkpt lat="50.43679" lon="3.41562">
        <ele>17.2</ele>
        <time>2022-03-22T14:37:25.107Z</time>
      </trkpt>
      <trkpt lat="50.43686" lon="3.41563">
        <ele>17.3</ele>
        <time>2022-03-22T14:37:26.810Z</time>
      </trkpt>
      <trkpt lat="50.43694" lon="3.41564">
        <ele>17.3</ele>
        <time>2022-03-22T14:37:29.000Z</time>
      </trkpt>
      <trkpt lat="50.43701" lon="3.41565">
        <ele>17.3</ele>
        <time>2022-03-22T14:37:31.028Z</time>
      </trkpt>
      <trkpt lat="50.43708" lon="3.41565">
        <ele>17.2</ele>
        <time>2022-03-22T14:37:33.000Z</time>
      </trkpt>
      <trkpt lat="50.43716" lon="3.41566">
        <ele>17.1</ele>
        <time>2022-03-22T14:37:35.000Z</time>
      </trkpt>
      <trkpt lat="50.43723" lon="3.41566">
        <ele>17</ele>
        <time>2022-03-22T14:37:36.968Z</time>
      </trkpt>
      <trkpt lat="50.43731" lon="3.41567">
        <ele>17.1</ele>
        <time>2022-03-22T14:37:39.000Z</time>
      </trkpt>
      <trkpt lat="50.43738" lon="3.41568">
        <ele>17.3</ele>
        <time>2022-03-22T14:37:41.166Z</time>
      </trkpt>
      <trkpt lat="50.43743" lon="3.41568">
        <ele>17.3</ele>
        <time>2022-03-22T14:37:42.388Z</time>
      </trkpt>
      <trkpt lat="50.43749" lon="3.41568">
        <ele>17.4</ele>
        <time>2022-03-22T14:37:44.027Z</time>
      </trkpt>
      <trkpt lat="50.43754" lon="3.4157">
        <ele>17.4</ele>
        <time>2022-03-22T14:37:45.050Z</time>
      </trkpt>
      <trkpt lat="50.43762" lon="3.41573">
        <ele>17.4</ele>
        <time>2022-03-22T14:37:47.000Z</time>
      </trkpt>
      <trkpt lat="50.43774" lon="3.41576">
        <ele>17.1</ele>
        <time>2022-03-22T14:37:49.848Z</time>
      </trkpt>
      <trkpt lat="50.43778" lon="3.41576">
        <ele>17</ele>
        <time>2022-03-22T14:37:51.000Z</time>
      </trkpt>
      <trkpt lat="50.43786" lon="3.41576">
        <ele>17.1</ele>
        <time>2022-03-22T14:37:53.000Z</time>
      </trkpt>
      <trkpt lat="50.43794" lon="3.41579">
        <ele>17.1</ele>
        <time>2022-03-22T14:37:55.000Z</time>
      </trkpt>
      <trkpt lat="50.43802" lon="3.41579">
        <ele>17.1</ele>
        <time>2022-03-22T14:37:57.091Z</time>
      </trkpt>
      <trkpt lat="50.4381" lon="3.41581">
        <ele>17.2</ele>
        <time>2022-03-22T14:37:59.000Z</time>
      </trkpt>
      <trkpt lat="50.43815" lon="3.41582">
        <ele>17.4</ele>
        <time>2022-03-22T14:38:00.268Z</time>
      </trkpt>
      <trkpt lat="50.43825" lon="3.41585">
        <ele>17.7</ele>
        <time>2022-03-22T14:38:02.807Z</time>
      </trkpt>
      <trkpt lat="50.4383" lon="3.41586">
        <ele>17.8</ele>
        <time>2022-03-22T14:38:04.000Z</time>
      </trkpt>
      <trkpt lat="50.43839" lon="3.41589">
        <ele>17.8</ele>
        <time>2022-03-22T14:38:06.000Z</time>
      </trkpt>
      <trkpt lat="50.43846" lon="3.41591">
        <ele>17.7</ele>
        <time>2022-03-22T14:38:08.070Z</time>
      </trkpt>
      <trkpt lat="50.43854" lon="3.41595">
        <ele>17.6</ele>
        <time>2022-03-22T14:38:10.426Z</time>
      </trkpt>
      <trkpt lat="50.43863" lon="3.41598">
        <ele>17.4</ele>
        <time>2022-03-22T14:38:13.170Z</time>
      </trkpt>
      <trkpt lat="50.43868" lon="3.41601">
        <ele>17.3</ele>
        <time>2022-03-22T14:38:14.748Z</time>
      </trkpt>
      <trkpt lat="50.43873" lon="3.41603">
        <ele>17.2</ele>
        <time>2022-03-22T14:38:15.968Z</time>
      </trkpt>
      <trkpt lat="50.4388" lon="3.41606">
        <ele>17.1</ele>
        <time>2022-03-22T14:38:17.989Z</time>
      </trkpt>
      <trkpt lat="50.43888" lon="3.41609">
        <ele>17</ele>
        <time>2022-03-22T14:38:20.000Z</time>
      </trkpt>
      <trkpt lat="50.43897" lon="3.41612">
        <ele>17</ele>
        <time>2022-03-22T14:38:22.129Z</time>
      </trkpt>
      <trkpt lat="50.43901" lon="3.41614">
        <ele>16.9</ele>
        <time>2022-03-22T14:38:23.045Z</time>
      </trkpt>
      <trkpt lat="50.43908" lon="3.41617">
        <ele>16.9</ele>
        <time>2022-03-22T14:38:25.000Z</time>
      </trkpt>
      <trkpt lat="50.43915" lon="3.4162">
        <ele>17</ele>
        <time>2022-03-22T14:38:27.008Z</time>
      </trkpt>
      <trkpt lat="50.43923" lon="3.41623">
        <ele>17</ele>
        <time>2022-03-22T14:38:29.048Z</time>
      </trkpt>
      <trkpt lat="50.4393" lon="3.41625">
        <ele>17</ele>
        <time>2022-03-22T14:38:31.000Z</time>
      </trkpt>
      <trkpt lat="50.43937" lon="3.41628">
        <ele>17</ele>
        <time>2022-03-22T14:38:33.000Z</time>
      </trkpt>
      <trkpt lat="50.43942" lon="3.41629">
        <ele>17</ele>
        <time>2022-03-22T14:38:34.174Z</time>
      </trkpt>
      <trkpt lat="50.43948" lon="3.41631">
        <ele>17</ele>
        <time>2022-03-22T14:38:35.624Z</time>
      </trkpt>
      <trkpt lat="50.43955" lon="3.41635">
        <ele>17</ele>
        <time>2022-03-22T14:38:37.906Z</time>
      </trkpt>
      <trkpt lat="50.43962" lon="3.41639">
        <ele>17</ele>
        <time>2022-03-22T14:38:40.000Z</time>
      </trkpt>
      <trkpt lat="50.43969" lon="3.41642">
        <ele>16.9</ele>
        <time>2022-03-22T14:38:42.000Z</time>
      </trkpt>
      <trkpt lat="50.43974" lon="3.41647">
        <ele>16.7</ele>
        <time>2022-03-22T14:38:44.000Z</time>
      </trkpt>
      <trkpt lat="50.43979" lon="3.41652">
        <ele>16.6</ele>
        <time>2022-03-22T14:38:46.109Z</time>
      </trkpt>
      <trkpt lat="50.43983" lon="3.41655">
        <ele>16.6</ele>
        <time>2022-03-22T14:38:47.308Z</time>
      </trkpt>
      <trkpt lat="50.43992" lon="3.41663">
        <ele>16.8</ele>
        <time>2022-03-22T14:38:50.000Z</time>
      </trkpt>
      <trkpt lat="50.43998" lon="3.41669">
        <ele>16.9</ele>
        <time>2022-03-22T14:38:52.000Z</time>
      </trkpt>
      <trkpt lat="50.44003" lon="3.41677">
        <ele>17</ele>
        <time>2022-03-22T14:38:53.989Z</time>
      </trkpt>
      <trkpt lat="50.44009" lon="3.41686">
        <ele>17</ele>
        <time>2022-03-22T14:38:56.000Z</time>
      </trkpt>
      <trkpt lat="50.44013" lon="3.41696">
        <ele>17</ele>
        <time>2022-03-22T14:38:58.000Z</time>
      </trkpt>
      <trkpt lat="50.44019" lon="3.4171">
        <ele>16.8</ele>
        <time>2022-03-22T14:39:00.649Z</time>
      </trkpt>
      <trkpt lat="50.44021" lon="3.41716">
        <ele>16.8</ele>
        <time>2022-03-22T14:39:02.000Z</time>
      </trkpt>
      <trkpt lat="50.44023" lon="3.41724">
        <ele>16.8</ele>
        <time>2022-03-22T14:39:03.308Z</time>
      </trkpt>
      <trkpt lat="50.44024" lon="3.41737">
        <ele>16.9</ele>
        <time>2022-03-22T14:39:05.647Z</time>
      </trkpt>
      <trkpt lat="50.44024" lon="3.41744">
        <ele>16.9</ele>
        <time>2022-03-22T14:39:06.986Z</time>
      </trkpt>
      <trkpt lat="50.44025" lon="3.41756">
        <ele>16.9</ele>
        <time>2022-03-22T14:39:09.000Z</time>
      </trkpt>
      <trkpt lat="50.44027" lon="3.41766">
        <ele>17</ele>
        <time>2022-03-22T14:39:11.005Z</time>
      </trkpt>
      <trkpt lat="50.44031" lon="3.41775">
        <ele>17</ele>
        <time>2022-03-22T14:39:13.007Z</time>
      </trkpt>
      <trkpt lat="50.44037" lon="3.41784">
        <ele>17</ele>
        <time>2022-03-22T14:39:15.000Z</time>
      </trkpt>
      <trkpt lat="50.44041" lon="3.41795">
        <ele>17</ele>
        <time>2022-03-22T14:39:17.000Z</time>
      </trkpt>
      <trkpt lat="50.44045" lon="3.41806">
        <ele>17</ele>
        <time>2022-03-22T14:39:19.248Z</time>
      </trkpt>
      <trkpt lat="50.44047" lon="3.41819">
        <ele>17</ele>
        <time>2022-03-22T14:39:21.665Z</time>
      </trkpt>
      <trkpt lat="50.44049" lon="3.41826">
        <ele>17</ele>
        <time>2022-03-22T14:39:23.066Z</time>
      </trkpt>
      <trkpt lat="50.44051" lon="3.41838">
        <ele>17</ele>
        <time>2022-03-22T14:39:25.000Z</time>
      </trkpt>
      <trkpt lat="50.44053" lon="3.4185">
        <ele>16.9</ele>
        <time>2022-03-22T14:39:27.131Z</time>
      </trkpt>
      <trkpt lat="50.44054" lon="3.41862">
        <ele>16.9</ele>
        <time>2022-03-22T14:39:29.167Z</time>
      </trkpt>
      <trkpt lat="50.44055" lon="3.4187">
        <ele>17</ele>
        <time>2022-03-22T14:39:30.290Z</time>
      </trkpt>
      <trkpt lat="50.44056" lon="3.41878">
        <ele>17</ele>
        <time>2022-03-22T14:39:31.549Z</time>
      </trkpt>
      <trkpt lat="50.44058" lon="3.41893">
        <ele>17.1</ele>
        <time>2022-03-22T14:39:33.746Z</time>
      </trkpt>
      <trkpt lat="50.4406" lon="3.41902">
        <ele>17.2</ele>
        <time>2022-03-22T14:39:35.000Z</time>
      </trkpt>
      <trkpt lat="50.44063" lon="3.41916">
        <ele>17.3</ele>
        <time>2022-03-22T14:39:37.111Z</time>
      </trkpt>
      <trkpt lat="50.44064" lon="3.41924">
        <ele>17.2</ele>
        <time>2022-03-22T14:39:38.346Z</time>
      </trkpt>
      <trkpt lat="50.44066" lon="3.41933">
        <ele>17.2</ele>
        <time>2022-03-22T14:39:39.667Z</time>
      </trkpt>
      <trkpt lat="50.44068" lon="3.41941">
        <ele>17.1</ele>
        <time>2022-03-22T14:39:40.886Z</time>
      </trkpt>
      <trkpt lat="50.44069" lon="3.41949">
        <ele>17.1</ele>
        <time>2022-03-22T14:39:42.087Z</time>
      </trkpt>
      <trkpt lat="50.44072" lon="3.41961">
        <ele>17.4</ele>
        <time>2022-03-22T14:39:44.000Z</time>
      </trkpt>
      <trkpt lat="50.44073" lon="3.41969">
        <ele>17.6</ele>
        <time>2022-03-22T14:39:45.000Z</time>
      </trkpt>
      <trkpt lat="50.44074" lon="3.41976">
        <ele>17.7</ele>
        <time>2022-03-22T14:39:46.000Z</time>
      </trkpt>
      <trkpt lat="50.44076" lon="3.41989">
        <ele>17.7</ele>
        <time>2022-03-22T14:39:49.077Z</time>
      </trkpt>
      <trkpt lat="50.44078" lon="3.41997">
        <ele>17.8</ele>
        <time>2022-03-22T14:39:50.000Z</time>
      </trkpt>
      <trkpt lat="50.44079" lon="3.4201">
        <ele>17.8</ele>
        <time>2022-03-22T14:39:51.611Z</time>
      </trkpt>
      <trkpt lat="50.4408" lon="3.42019">
        <ele>17.9</ele>
        <time>2022-03-22T14:39:52.818Z</time>
      </trkpt>
      <trkpt lat="50.44081" lon="3.4203">
        <ele>17.9</ele>
        <time>2022-03-22T14:39:54.000Z</time>
      </trkpt>
      <trkpt lat="50.44084" lon="3.42036">
        <ele>18</ele>
        <time>2022-03-22T14:39:55.333Z</time>
      </trkpt>
      <trkpt lat="50.44085" lon="3.42044">
        <ele>18</ele>
        <time>2022-03-22T14:39:56.492Z</time>
      </trkpt>
      <trkpt lat="50.44085" lon="3.42056">
        <ele>18</ele>
        <time>2022-03-22T14:39:58.000Z</time>
      </trkpt>
      <trkpt lat="50.44086" lon="3.42064">
        <ele>17.7</ele>
        <time>2022-03-22T14:39:59.000Z</time>
      </trkpt>
      <trkpt lat="50.44087" lon="3.42071">
        <ele>17.4</ele>
        <time>2022-03-22T14:40:00.000Z</time>
      </trkpt>
      <trkpt lat="50.44088" lon="3.42079">
        <ele>17.2</ele>
        <time>2022-03-22T14:40:01.000Z</time>
      </trkpt>
      <trkpt lat="50.44089" lon="3.42086">
        <ele>17</ele>
        <time>2022-03-22T14:40:02.000Z</time>
      </trkpt>
      <trkpt lat="50.44091" lon="3.42099">
        <ele>17</ele>
        <time>2022-03-22T14:40:04.000Z</time>
      </trkpt>
      <trkpt lat="50.44093" lon="3.42106">
        <ele>17</ele>
        <time>2022-03-22T14:40:05.000Z</time>
      </trkpt>
      <trkpt lat="50.44096" lon="3.42126">
        <ele>17</ele>
        <time>2022-03-22T14:40:08.000Z</time>
      </trkpt>
      <trkpt lat="50.44097" lon="3.42133">
        <ele>17</ele>
        <time>2022-03-22T14:40:09.102Z</time>
      </trkpt>
      <trkpt lat="50.441" lon="3.4214">
        <ele>17</ele>
        <time>2022-03-22T14:40:10.237Z</time>
      </trkpt>
      <trkpt lat="50.44101" lon="3.42147">
        <ele>17</ele>
        <time>2022-03-22T14:40:11.296Z</time>
      </trkpt>
      <trkpt lat="50.44102" lon="3.42159">
        <ele>17</ele>
        <time>2022-03-22T14:40:13.013Z</time>
      </trkpt>
      <trkpt lat="50.44103" lon="3.42166">
        <ele>17</ele>
        <time>2022-03-22T14:40:13.992Z</time>
      </trkpt>
      <trkpt lat="50.44104" lon="3.42178">
        <ele>17.3</ele>
        <time>2022-03-22T14:40:15.976Z</time>
      </trkpt>
      <trkpt lat="50.44107" lon="3.42185">
        <ele>17.6</ele>
        <time>2022-03-22T14:40:17.000Z</time>
      </trkpt>
      <trkpt lat="50.4411" lon="3.42192">
        <ele>17.9</ele>
        <time>2022-03-22T14:40:18.000Z</time>
      </trkpt>
      <trkpt lat="50.44113" lon="3.42198">
        <ele>18.4</ele>
        <time>2022-03-22T14:40:19.000Z</time>
      </trkpt>
      <trkpt lat="50.44115" lon="3.42204">
        <ele>18.8</ele>
        <time>2022-03-22T14:40:20.000Z</time>
      </trkpt>
      <trkpt lat="50.44117" lon="3.42211">
        <ele>19.1</ele>
        <time>2022-03-22T14:40:21.000Z</time>
      </trkpt>
      <trkpt lat="50.44119" lon="3.42218">
        <ele>19.3</ele>
        <time>2022-03-22T14:40:22.000Z</time>
      </trkpt>
      <trkpt lat="50.44121" lon="3.42225">
        <ele>19.2</ele>
        <time>2022-03-22T14:40:23.000Z</time>
      </trkpt>
      <trkpt lat="50.44122" lon="3.4224">
        <ele>18.6</ele>
        <time>2022-03-22T14:40:25.000Z</time>
      </trkpt>
      <trkpt lat="50.44123" lon="3.42248">
        <ele>18.2</ele>
        <time>2022-03-22T14:40:26.000Z</time>
      </trkpt>
      <trkpt lat="50.44123" lon="3.42255">
        <ele>17.9</ele>
        <time>2022-03-22T14:40:27.000Z</time>
      </trkpt>
      <trkpt lat="50.44122" lon="3.42267">
        <ele>17.5</ele>
        <time>2022-03-22T14:40:29.017Z</time>
      </trkpt>
      <trkpt lat="50.44121" lon="3.42275">
        <ele>17.1</ele>
        <time>2022-03-22T14:40:30.099Z</time>
      </trkpt>
      <trkpt lat="50.44122" lon="3.42288">
        <ele>17</ele>
        <time>2022-03-22T14:40:32.000Z</time>
      </trkpt>
      <trkpt lat="50.44124" lon="3.42301">
        <ele>17</ele>
        <time>2022-03-22T14:40:34.157Z</time>
      </trkpt>
      <trkpt lat="50.44127" lon="3.42312">
        <ele>17</ele>
        <time>2022-03-22T14:40:36.138Z</time>
      </trkpt>
      <trkpt lat="50.44127" lon="3.42322">
        <ele>17</ele>
        <time>2022-03-22T14:40:37.736Z</time>
      </trkpt>
      <trkpt lat="50.44128" lon="3.42337">
        <ele>17.1</ele>
        <time>2022-03-22T14:40:40.593Z</time>
      </trkpt>
      <trkpt lat="50.4413" lon="3.42348">
        <ele>17.5</ele>
        <time>2022-03-22T14:40:42.616Z</time>
      </trkpt>
      <trkpt lat="50.44132" lon="3.42355">
        <ele>17.8</ele>
        <time>2022-03-22T14:40:44.000Z</time>
      </trkpt>
      <trkpt lat="50.44134" lon="3.42366">
        <ele>18</ele>
        <time>2022-03-22T14:40:46.000Z</time>
      </trkpt>
      <trkpt lat="50.44136" lon="3.42377">
        <ele>18</ele>
        <time>2022-03-22T14:40:48.000Z</time>
      </trkpt>
      <trkpt lat="50.44138" lon="3.42386">
        <ele>18</ele>
        <time>2022-03-22T14:40:49.736Z</time>
      </trkpt>
      <trkpt lat="50.44139" lon="3.42393">
        <ele>18</ele>
        <time>2022-03-22T14:40:51.113Z</time>
      </trkpt>
      <trkpt lat="50.44141" lon="3.42403">
        <ele>18</ele>
        <time>2022-03-22T14:40:52.794Z</time>
      </trkpt>
      <trkpt lat="50.44142" lon="3.42416">
        <ele>18</ele>
        <time>2022-03-22T14:40:55.000Z</time>
      </trkpt>
      <trkpt lat="50.44144" lon="3.42423">
        <ele>17.8</ele>
        <time>2022-03-22T14:40:56.453Z</time>
      </trkpt>
      <trkpt lat="50.44145" lon="3.42437">
        <ele>17.4</ele>
        <time>2022-03-22T14:40:58.816Z</time>
      </trkpt>
      <trkpt lat="50.44147" lon="3.42444">
        <ele>17.3</ele>
        <time>2022-03-22T14:41:00.000Z</time>
      </trkpt>
      <trkpt lat="50.44149" lon="3.42456">
        <ele>17.6</ele>
        <time>2022-03-22T14:41:02.000Z</time>
      </trkpt>
      <trkpt lat="50.44151" lon="3.42468">
        <ele>17.9</ele>
        <time>2022-03-22T14:41:04.016Z</time>
      </trkpt>
      <trkpt lat="50.44152" lon="3.42475">
        <ele>18</ele>
        <time>2022-03-22T14:41:05.180Z</time>
      </trkpt>
      <trkpt lat="50.44155" lon="3.42489">
        <ele>18</ele>
        <time>2022-03-22T14:41:07.794Z</time>
      </trkpt>
      <trkpt lat="50.44156" lon="3.42501">
        <ele>18</ele>
        <time>2022-03-22T14:41:10.000Z</time>
      </trkpt>
      <trkpt lat="50.44158" lon="3.42512">
        <ele>18</ele>
        <time>2022-03-22T14:41:11.934Z</time>
      </trkpt>
      <trkpt lat="50.44161" lon="3.42526">
        <ele>18</ele>
        <time>2022-03-22T14:41:14.657Z</time>
      </trkpt>
      <trkpt lat="50.44163" lon="3.4254">
        <ele>18</ele>
        <time>2022-03-22T14:41:17.373Z</time>
      </trkpt>
      <trkpt lat="50.44164" lon="3.42548">
        <ele>18</ele>
        <time>2022-03-22T14:41:18.776Z</time>
      </trkpt>
      <trkpt lat="50.44168" lon="3.42564">
        <ele>18</ele>
        <time>2022-03-22T14:41:22.056Z</time>
      </trkpt>
      <trkpt lat="50.44169" lon="3.42574">
        <ele>18</ele>
        <time>2022-03-22T14:41:24.000Z</time>
      </trkpt>
      <trkpt lat="50.44169" lon="3.42584">
        <ele>18</ele>
        <time>2022-03-22T14:41:26.000Z</time>
      </trkpt>
      <trkpt lat="50.44171" lon="3.42594">
        <ele>17.7</ele>
        <time>2022-03-22T14:41:28.000Z</time>
      </trkpt>
      <trkpt lat="50.44172" lon="3.42604">
        <ele>17.4</ele>
        <time>2022-03-22T14:41:30.000Z</time>
      </trkpt>
      <trkpt lat="50.44174" lon="3.42613">
        <ele>17.3</ele>
        <time>2022-03-22T14:41:32.181Z</time>
      </trkpt>
      <trkpt lat="50.44176" lon="3.42623">
        <ele>17.3</ele>
        <time>2022-03-22T14:41:34.915Z</time>
      </trkpt>
      <trkpt lat="50.44178" lon="3.4263">
        <ele>17.4</ele>
        <time>2022-03-22T14:41:37.000Z</time>
      </trkpt>
      <trkpt lat="50.44179" lon="3.42638">
        <ele>17.4</ele>
        <time>2022-03-22T14:41:39.076Z</time>
      </trkpt>
      <trkpt lat="50.44182" lon="3.42646">
        <ele>17.6</ele>
        <time>2022-03-22T14:41:42.121Z</time>
      </trkpt>
      <trkpt lat="50.44182" lon="3.42657">
        <ele>17.6</ele>
        <time>2022-03-22T14:41:45.098Z</time>
      </trkpt>
      <trkpt lat="50.44183" lon="3.42664">
        <ele>17.6</ele>
        <time>2022-03-22T14:41:46.798Z</time>
      </trkpt>
      <trkpt lat="50.44185" lon="3.42674">
        <ele>17.7</ele>
        <time>2022-03-22T14:41:49.000Z</time>
      </trkpt>
      <trkpt lat="50.44187" lon="3.42685">
        <ele>17.7</ele>
        <time>2022-03-22T14:41:51.000Z</time>
      </trkpt>
      <trkpt lat="50.44189" lon="3.42694">
        <ele>17.8</ele>
        <time>2022-03-22T14:41:52.600Z</time>
      </trkpt>
      <trkpt lat="50.44191" lon="3.42706">
        <ele>17.5</ele>
        <time>2022-03-22T14:41:54.000Z</time>
      </trkpt>
      <trkpt lat="50.44192" lon="3.42713">
        <ele>17.3</ele>
        <time>2022-03-22T14:41:55.000Z</time>
      </trkpt>
      <trkpt lat="50.44194" lon="3.42721">
        <ele>17</ele>
        <time>2022-03-22T14:41:56.000Z</time>
      </trkpt>
      <trkpt lat="50.44195" lon="3.42728">
        <ele>17</ele>
        <time>2022-03-22T14:41:57.000Z</time>
      </trkpt>
      <trkpt lat="50.44196" lon="3.42736">
        <ele>17</ele>
        <time>2022-03-22T14:41:58.000Z</time>
      </trkpt>
      <trkpt lat="50.44197" lon="3.42744">
        <ele>16.9</ele>
        <time>2022-03-22T14:41:59.000Z</time>
      </trkpt>
      <trkpt lat="50.44198" lon="3.42752">
        <ele>16.9</ele>
        <time>2022-03-22T14:42:00.000Z</time>
      </trkpt>
      <trkpt lat="50.44199" lon="3.42759">
        <ele>16.9</ele>
        <time>2022-03-22T14:42:01.000Z</time>
      </trkpt>
      <trkpt lat="50.44201" lon="3.42767">
        <ele>16.9</ele>
        <time>2022-03-22T14:42:02.000Z</time>
      </trkpt>
      <trkpt lat="50.44202" lon="3.42775">
        <ele>17</ele>
        <time>2022-03-22T14:42:03.000Z</time>
      </trkpt>
      <trkpt lat="50.44203" lon="3.42783">
        <ele>17</ele>
        <time>2022-03-22T14:42:04.000Z</time>
      </trkpt>
      <trkpt lat="50.44204" lon="3.42791">
        <ele>17</ele>
        <time>2022-03-22T14:42:05.000Z</time>
      </trkpt>
      <trkpt lat="50.44205" lon="3.42799">
        <ele>17</ele>
        <time>2022-03-22T14:42:06.000Z</time>
      </trkpt>
      <trkpt lat="50.44205" lon="3.42807">
        <ele>17</ele>
        <time>2022-03-22T14:42:07.000Z</time>
      </trkpt>
      <trkpt lat="50.44206" lon="3.42815">
        <ele>17</ele>
        <time>2022-03-22T14:42:08.000Z</time>
      </trkpt>
      <trkpt lat="50.44208" lon="3.42822">
        <ele>17</ele>
        <time>2022-03-22T14:42:09.000Z</time>
      </trkpt>
      <trkpt lat="50.44209" lon="3.4283">
        <ele>17</ele>
        <time>2022-03-22T14:42:10.000Z</time>
      </trkpt>
      <trkpt lat="50.4421" lon="3.42837">
        <ele>17.1</ele>
        <time>2022-03-22T14:42:11.000Z</time>
      </trkpt>
      <trkpt lat="50.44212" lon="3.42844">
        <ele>17.1</ele>
        <time>2022-03-22T14:42:12.000Z</time>
      </trkpt>
      <trkpt lat="50.44213" lon="3.42851">
        <ele>17.2</ele>
        <time>2022-03-22T14:42:13.000Z</time>
      </trkpt>
      <trkpt lat="50.44214" lon="3.42858">
        <ele>17.3</ele>
        <time>2022-03-22T14:42:14.000Z</time>
      </trkpt>
      <trkpt lat="50.44215" lon="3.42865">
        <ele>17.3</ele>
        <time>2022-03-22T14:42:15.000Z</time>
      </trkpt>
      <trkpt lat="50.44216" lon="3.42876">
        <ele>17.5</ele>
        <time>2022-03-22T14:42:17.000Z</time>
      </trkpt>
      <trkpt lat="50.44219" lon="3.42889">
        <ele>17.9</ele>
        <time>2022-03-22T14:42:19.000Z</time>
      </trkpt>
      <trkpt lat="50.44221" lon="3.42902">
        <ele>18</ele>
        <time>2022-03-22T14:42:21.000Z</time>
      </trkpt>
      <trkpt lat="50.44222" lon="3.42909">
        <ele>18</ele>
        <time>2022-03-22T14:42:22.000Z</time>
      </trkpt>
      <trkpt lat="50.44223" lon="3.4292">
        <ele>18</ele>
        <time>2022-03-22T14:42:24.000Z</time>
      </trkpt>
      <trkpt lat="50.44222" lon="3.42928">
        <ele>18</ele>
        <time>2022-03-22T14:42:25.239Z</time>
      </trkpt>
      <trkpt lat="50.4422" lon="3.42934">
        <ele>17.9</ele>
        <time>2022-03-22T14:42:26.420Z</time>
      </trkpt>
      <trkpt lat="50.44216" lon="3.42947">
        <ele>17.7</ele>
        <time>2022-03-22T14:42:28.637Z</time>
      </trkpt>
      <trkpt lat="50.44215" lon="3.42956">
        <ele>17.4</ele>
        <time>2022-03-22T14:42:30.021Z</time>
      </trkpt>
      <trkpt lat="50.44213" lon="3.4297">
        <ele>17.1</ele>
        <time>2022-03-22T14:42:32.101Z</time>
      </trkpt>
      <trkpt lat="50.44211" lon="3.4298">
        <ele>17.3</ele>
        <time>2022-03-22T14:42:34.000Z</time>
      </trkpt>
      <trkpt lat="50.4421" lon="3.42989">
        <ele>17.6</ele>
        <time>2022-03-22T14:42:37.000Z</time>
      </trkpt>
      <trkpt lat="50.44208" lon="3.42998">
        <ele>17.9</ele>
        <time>2022-03-22T14:42:39.122Z</time>
      </trkpt>
      <trkpt lat="50.44206" lon="3.43006">
        <ele>17.9</ele>
        <time>2022-03-22T14:42:40.857Z</time>
      </trkpt>
      <trkpt lat="50.44207" lon="3.43018">
        <ele>17.6</ele>
        <time>2022-03-22T14:42:43.000Z</time>
      </trkpt>
      <trkpt lat="50.44208" lon="3.4303">
        <ele>17.5</ele>
        <time>2022-03-22T14:42:45.000Z</time>
      </trkpt>
      <trkpt lat="50.44211" lon="3.43048">
        <ele>17.6</ele>
        <time>2022-03-22T14:42:48.000Z</time>
      </trkpt>
      <trkpt lat="50.44213" lon="3.4306">
        <ele>17.7</ele>
        <time>2022-03-22T14:42:50.000Z</time>
      </trkpt>
      <trkpt lat="50.44217" lon="3.43075">
        <ele>17.9</ele>
        <time>2022-03-22T14:42:53.000Z</time>
      </trkpt>
      <trkpt lat="50.44219" lon="3.43083">
        <ele>18</ele>
        <time>2022-03-22T14:42:55.000Z</time>
      </trkpt>
      <trkpt lat="50.44221" lon="3.43092">
        <ele>18</ele>
        <time>2022-03-22T14:42:57.000Z</time>
      </trkpt>
      <trkpt lat="50.44225" lon="3.43102">
        <ele>18</ele>
        <time>2022-03-22T14:42:59.000Z</time>
      </trkpt>
      <trkpt lat="50.44233" lon="3.43106">
        <ele>18</ele>
        <time>2022-03-22T14:43:01.000Z</time>
      </trkpt>
      <trkpt lat="50.4424" lon="3.43103">
        <ele>18</ele>
        <time>2022-03-22T14:43:03.000Z</time>
      </trkpt>
      <trkpt lat="50.44244" lon="3.43108">
        <ele>18</ele>
        <time>2022-03-22T14:43:04.000Z</time>
      </trkpt>
      <trkpt lat="50.44246" lon="3.43114">
        <ele>18</ele>
        <time>2022-03-22T14:43:05.000Z</time>
      </trkpt>
      <trkpt lat="50.4425" lon="3.43128">
        <ele>18</ele>
        <time>2022-03-22T14:43:07.000Z</time>
      </trkpt>
      <trkpt lat="50.44252" lon="3.43135">
        <ele>17.9</ele>
        <time>2022-03-22T14:43:08.000Z</time>
      </trkpt>
      <trkpt lat="50.44254" lon="3.43148">
        <ele>17.9</ele>
        <time>2022-03-22T14:43:10.000Z</time>
      </trkpt>
      <trkpt lat="50.44255" lon="3.43154">
        <ele>17.8</ele>
        <time>2022-03-22T14:43:11.031Z</time>
      </trkpt>
      <trkpt lat="50.44257" lon="3.43167">
        <ele>17.7</ele>
        <time>2022-03-22T14:43:13.000Z</time>
      </trkpt>
      <trkpt lat="50.44259" lon="3.43181">
        <ele>17.7</ele>
        <time>2022-03-22T14:43:15.000Z</time>
      </trkpt>
      <trkpt lat="50.4426" lon="3.43187">
        <ele>17.6</ele>
        <time>2022-03-22T14:43:16.000Z</time>
      </trkpt>
      <trkpt lat="50.44263" lon="3.43214">
        <ele>17.5</ele>
        <time>2022-03-22T14:43:20.000Z</time>
      </trkpt>
      <trkpt lat="50.44264" lon="3.43221">
        <ele>17.5</ele>
        <time>2022-03-22T14:43:21.000Z</time>
      </trkpt>
      <trkpt lat="50.44266" lon="3.43229">
        <ele>17.5</ele>
        <time>2022-03-22T14:43:22.000Z</time>
      </trkpt>
      <trkpt lat="50.44267" lon="3.43236">
        <ele>17.5</ele>
        <time>2022-03-22T14:43:23.000Z</time>
      </trkpt>
      <trkpt lat="50.44268" lon="3.43243">
        <ele>17.6</ele>
        <time>2022-03-22T14:43:24.158Z</time>
      </trkpt>
      <trkpt lat="50.44269" lon="3.43254">
        <ele>17.7</ele>
        <time>2022-03-22T14:43:25.737Z</time>
      </trkpt>
      <trkpt lat="50.44271" lon="3.43263">
        <ele>17.8</ele>
        <time>2022-03-22T14:43:27.000Z</time>
      </trkpt>
      <trkpt lat="50.44274" lon="3.43275">
        <ele>17.9</ele>
        <time>2022-03-22T14:43:29.000Z</time>
      </trkpt>
      <trkpt lat="50.44278" lon="3.43289">
        <ele>17.6</ele>
        <time>2022-03-22T14:43:31.000Z</time>
      </trkpt>
      <trkpt lat="50.44279" lon="3.43297">
        <ele>17.3</ele>
        <time>2022-03-22T14:43:32.000Z</time>
      </trkpt>
      <trkpt lat="50.4428" lon="3.43305">
        <ele>17</ele>
        <time>2022-03-22T14:43:33.000Z</time>
      </trkpt>
      <trkpt lat="50.44281" lon="3.43313">
        <ele>17</ele>
        <time>2022-03-22T14:43:34.000Z</time>
      </trkpt>
      <trkpt lat="50.44282" lon="3.43322">
        <ele>17</ele>
        <time>2022-03-22T14:43:35.000Z</time>
      </trkpt>
      <trkpt lat="50.44284" lon="3.4333">
        <ele>17</ele>
        <time>2022-03-22T14:43:36.000Z</time>
      </trkpt>
      <trkpt lat="50.44286" lon="3.43339">
        <ele>17</ele>
        <time>2022-03-22T14:43:37.000Z</time>
      </trkpt>
      <trkpt lat="50.44288" lon="3.43346">
        <ele>17</ele>
        <time>2022-03-22T14:43:38.000Z</time>
      </trkpt>
      <trkpt lat="50.44289" lon="3.43354">
        <ele>17</ele>
        <time>2022-03-22T14:43:39.000Z</time>
      </trkpt>
      <trkpt lat="50.44291" lon="3.43363">
        <ele>17</ele>
        <time>2022-03-22T14:43:40.000Z</time>
      </trkpt>
      <trkpt lat="50.44293" lon="3.43371">
        <ele>17</ele>
        <time>2022-03-22T14:43:41.000Z</time>
      </trkpt>
      <trkpt lat="50.44296" lon="3.43378">
        <ele>17</ele>
        <time>2022-03-22T14:43:42.000Z</time>
      </trkpt>
      <trkpt lat="50.44299" lon="3.43385">
        <ele>17</ele>
        <time>2022-03-22T14:43:43.000Z</time>
      </trkpt>
      <trkpt lat="50.44302" lon="3.43392">
        <ele>17</ele>
        <time>2022-03-22T14:43:44.000Z</time>
      </trkpt>
      <trkpt lat="50.44305" lon="3.43399">
        <ele>17</ele>
        <time>2022-03-22T14:43:45.000Z</time>
      </trkpt>
      <trkpt lat="50.44308" lon="3.43405">
        <ele>17</ele>
        <time>2022-03-22T14:43:46.000Z</time>
      </trkpt>
      <trkpt lat="50.44311" lon="3.43412">
        <ele>17</ele>
        <time>2022-03-22T14:43:47.000Z</time>
      </trkpt>
      <trkpt lat="50.44313" lon="3.43417">
        <ele>17</ele>
        <time>2022-03-22T14:43:48.000Z</time>
      </trkpt>
      <trkpt lat="50.44318" lon="3.43428">
        <ele>17</ele>
        <time>2022-03-22T14:43:50.000Z</time>
      </trkpt>
      <trkpt lat="50.44323" lon="3.43436">
        <ele>17</ele>
        <time>2022-03-22T14:43:52.000Z</time>
      </trkpt>
      <trkpt lat="50.44327" lon="3.43444">
        <ele>17</ele>
        <time>2022-03-22T14:43:54.000Z</time>
      </trkpt>
      <trkpt lat="50.4433" lon="3.43451">
        <ele>17</ele>
        <time>2022-03-22T14:43:55.000Z</time>
      </trkpt>
      <trkpt lat="50.44333" lon="3.43459">
        <ele>17</ele>
        <time>2022-03-22T14:43:56.000Z</time>
      </trkpt>
      <trkpt lat="50.44336" lon="3.43468">
        <ele>17</ele>
        <time>2022-03-22T14:43:57.000Z</time>
      </trkpt>
      <trkpt lat="50.44339" lon="3.43475">
        <ele>17</ele>
        <time>2022-03-22T14:43:58.000Z</time>
      </trkpt>
      <trkpt lat="50.44343" lon="3.43483">
        <ele>17</ele>
        <time>2022-03-22T14:43:59.000Z</time>
      </trkpt>
      <trkpt lat="50.44347" lon="3.43491">
        <ele>17</ele>
        <time>2022-03-22T14:44:00.000Z</time>
      </trkpt>
      <trkpt lat="50.44351" lon="3.43498">
        <ele>17</ele>
        <time>2022-03-22T14:44:01.000Z</time>
      </trkpt>
      <trkpt lat="50.44355" lon="3.43506">
        <ele>17</ele>
        <time>2022-03-22T14:44:02.000Z</time>
      </trkpt>
      <trkpt lat="50.44358" lon="3.43512">
        <ele>17</ele>
        <time>2022-03-22T14:44:03.000Z</time>
      </trkpt>
      <trkpt lat="50.44362" lon="3.43519">
        <ele>17</ele>
        <time>2022-03-22T14:44:04.000Z</time>
      </trkpt>
      <trkpt lat="50.44365" lon="3.43525">
        <ele>17</ele>
        <time>2022-03-22T14:44:05.000Z</time>
      </trkpt>
      <trkpt lat="50.44369" lon="3.43532">
        <ele>17</ele>
        <time>2022-03-22T14:44:06.000Z</time>
      </trkpt>
      <trkpt lat="50.44372" lon="3.43539">
        <ele>17</ele>
        <time>2022-03-22T14:44:07.000Z</time>
      </trkpt>
      <trkpt lat="50.44375" lon="3.43546">
        <ele>17</ele>
        <time>2022-03-22T14:44:08.000Z</time>
      </trkpt>
      <trkpt lat="50.44378" lon="3.43552">
        <ele>17</ele>
        <time>2022-03-22T14:44:09.000Z</time>
      </trkpt>
      <trkpt lat="50.44381" lon="3.43558">
        <ele>17</ele>
        <time>2022-03-22T14:44:10.000Z</time>
      </trkpt>
      <trkpt lat="50.44385" lon="3.43564">
        <ele>17</ele>
        <time>2022-03-22T14:44:11.000Z</time>
      </trkpt>
      <trkpt lat="50.44388" lon="3.4357">
        <ele>17</ele>
        <time>2022-03-22T14:44:12.000Z</time>
      </trkpt>
      <trkpt lat="50.44392" lon="3.43576">
        <ele>17</ele>
        <time>2022-03-22T14:44:13.000Z</time>
      </trkpt>
      <trkpt lat="50.44395" lon="3.43582">
        <ele>17</ele>
        <time>2022-03-22T14:44:14.000Z</time>
      </trkpt>
      <trkpt lat="50.44399" lon="3.43588">
        <ele>17</ele>
        <time>2022-03-22T14:44:15.000Z</time>
      </trkpt>
      <trkpt lat="50.44403" lon="3.43594">
        <ele>17</ele>
        <time>2022-03-22T14:44:17.000Z</time>
      </trkpt>
      <trkpt lat="50.44408" lon="3.43599">
        <ele>17</ele>
        <time>2022-03-22T14:44:19.000Z</time>
      </trkpt>
      <trkpt lat="50.44413" lon="3.43607">
        <ele>17</ele>
        <time>2022-03-22T14:44:21.000Z</time>
      </trkpt>
      <trkpt lat="50.44419" lon="3.43614">
        <ele>16.9</ele>
        <time>2022-03-22T14:44:23.000Z</time>
      </trkpt>
      <trkpt lat="50.44424" lon="3.43623">
        <ele>16.7</ele>
        <time>2022-03-22T14:44:24.619Z</time>
      </trkpt>
      <trkpt lat="50.44429" lon="3.4363">
        <ele>16.6</ele>
        <time>2022-03-22T14:44:26.000Z</time>
      </trkpt>
      <trkpt lat="50.44432" lon="3.43635">
        <ele>16.6</ele>
        <time>2022-03-22T14:44:27.000Z</time>
      </trkpt>
      <trkpt lat="50.44437" lon="3.43644">
        <ele>16.7</ele>
        <time>2022-03-22T14:44:29.000Z</time>
      </trkpt>
      <trkpt lat="50.44436" lon="3.43654">
        <ele>16.7</ele>
        <time>2022-03-22T14:44:31.000Z</time>
      </trkpt>
      <trkpt lat="50.44432" lon="3.43669">
        <ele>16.6</ele>
        <time>2022-03-22T14:44:34.057Z</time>
      </trkpt>
      <trkpt lat="50.44429" lon="3.43678">
        <ele>16.7</ele>
        <time>2022-03-22T14:44:35.000Z</time>
      </trkpt>
      <trkpt lat="50.44426" lon="3.43686">
        <ele>16.8</ele>
        <time>2022-03-22T14:44:36.000Z</time>
      </trkpt>
      <trkpt lat="50.44423" lon="3.43692">
        <ele>16.9</ele>
        <time>2022-03-22T14:44:37.000Z</time>
      </trkpt>
      <trkpt lat="50.44419" lon="3.43703">
        <ele>17</ele>
        <time>2022-03-22T14:44:39.000Z</time>
      </trkpt>
      <trkpt lat="50.44414" lon="3.43716">
        <ele>16.9</ele>
        <time>2022-03-22T14:44:42.000Z</time>
      </trkpt>
      <trkpt lat="50.44416" lon="3.43723">
        <ele>16.9</ele>
        <time>2022-03-22T14:44:46.000Z</time>
      </trkpt>
      <trkpt lat="50.44416" lon="3.43731">
        <ele>16.7</ele>
        <time>2022-03-22T14:44:48.000Z</time>
      </trkpt>
      <trkpt lat="50.44418" lon="3.43741">
        <ele>16.4</ele>
        <time>2022-03-22T14:44:50.000Z</time>
      </trkpt>
      <trkpt lat="50.44421" lon="3.43753">
        <ele>16.2</ele>
        <time>2022-03-22T14:44:52.000Z</time>
      </trkpt>
      <trkpt lat="50.44426" lon="3.43764">
        <ele>16.3</ele>
        <time>2022-03-22T14:44:54.000Z</time>
      </trkpt>
      <trkpt lat="50.44432" lon="3.43773">
        <ele>16.6</ele>
        <time>2022-03-22T14:44:55.936Z</time>
      </trkpt>
      <trkpt lat="50.44435" lon="3.43778">
        <ele>16.7</ele>
        <time>2022-03-22T14:44:57.000Z</time>
      </trkpt>
      <trkpt lat="50.44438" lon="3.43784">
        <ele>16.6</ele>
        <time>2022-03-22T14:44:58.000Z</time>
      </trkpt>
      <trkpt lat="50.44443" lon="3.43792">
        <ele>16.5</ele>
        <time>2022-03-22T14:44:59.677Z</time>
      </trkpt>
      <trkpt lat="50.44447" lon="3.43799">
        <ele>16.3</ele>
        <time>2022-03-22T14:45:01.098Z</time>
      </trkpt>
      <trkpt lat="50.44452" lon="3.43808">
        <ele>16.3</ele>
        <time>2022-03-22T14:45:02.775Z</time>
      </trkpt>
      <trkpt lat="50.44459" lon="3.43818">
        <ele>16.5</ele>
        <time>2022-03-22T14:45:05.000Z</time>
      </trkpt>
      <trkpt lat="50.44464" lon="3.43827">
        <ele>16.7</ele>
        <time>2022-03-22T14:45:07.000Z</time>
      </trkpt>
      <trkpt lat="50.4447" lon="3.43825">
        <ele>16.9</ele>
        <time>2022-03-22T14:45:10.000Z</time>
      </trkpt>
      <trkpt lat="50.44473" lon="3.43819">
        <ele>17</ele>
        <time>2022-03-22T14:45:12.000Z</time>
      </trkpt>
      <trkpt lat="50.44475" lon="3.43811">
        <ele>17</ele>
        <time>2022-03-22T14:45:15.095Z</time>
      </trkpt>
      <trkpt lat="50.44479" lon="3.43806">
        <ele>17</ele>
        <time>2022-03-22T14:45:18.000Z</time>
      </trkpt>
      <trkpt lat="50.44483" lon="3.438">
        <ele>17</ele>
        <time>2022-03-22T14:45:20.000Z</time>
      </trkpt>
      <trkpt lat="50.44488" lon="3.43793">
        <ele>17</ele>
        <time>2022-03-22T14:45:22.000Z</time>
      </trkpt>
      <trkpt lat="50.44493" lon="3.43787">
        <ele>17</ele>
        <time>2022-03-22T14:45:24.097Z</time>
      </trkpt>
      <trkpt lat="50.445" lon="3.43788">
        <ele>17</ele>
        <time>2022-03-22T14:45:26.000Z</time>
      </trkpt>
      <trkpt lat="50.44507" lon="3.4379">
        <ele>17</ele>
        <time>2022-03-22T14:45:28.000Z</time>
      </trkpt>
      <trkpt lat="50.44515" lon="3.43789">
        <ele>17</ele>
        <time>2022-03-22T14:45:30.000Z</time>
      </trkpt>
      <trkpt lat="50.44523" lon="3.43788">
        <ele>17</ele>
        <time>2022-03-22T14:45:31.977Z</time>
      </trkpt>
      <trkpt lat="50.44528" lon="3.43788">
        <ele>17</ele>
        <time>2022-03-22T14:45:33.176Z</time>
      </trkpt>
      <trkpt lat="50.44534" lon="3.43788">
        <ele>17.1</ele>
        <time>2022-03-22T14:45:34.580Z</time>
      </trkpt>
      <trkpt lat="50.44541" lon="3.43789">
        <ele>17.2</ele>
        <time>2022-03-22T14:45:37.000Z</time>
      </trkpt>
      <trkpt lat="50.44547" lon="3.43799">
        <ele>17.5</ele>
        <time>2022-03-22T14:45:39.635Z</time>
      </trkpt>
      <trkpt lat="50.44551" lon="3.43805">
        <ele>17.8</ele>
        <time>2022-03-22T14:45:41.000Z</time>
      </trkpt>
      <trkpt lat="50.44556" lon="3.43815">
        <ele>18</ele>
        <time>2022-03-22T14:45:43.000Z</time>
      </trkpt>
      <trkpt lat="50.44561" lon="3.43823">
        <ele>17.8</ele>
        <time>2022-03-22T14:45:44.997Z</time>
      </trkpt>
      <trkpt lat="50.44565" lon="3.43833">
        <ele>17.7</ele>
        <time>2022-03-22T14:45:47.000Z</time>
      </trkpt>
      <trkpt lat="50.4457" lon="3.43843">
        <ele>17.7</ele>
        <time>2022-03-22T14:45:49.000Z</time>
      </trkpt>
      <trkpt lat="50.44575" lon="3.43853">
        <ele>17.8</ele>
        <time>2022-03-22T14:45:51.000Z</time>
      </trkpt>
      <trkpt lat="50.44578" lon="3.43858">
        <ele>17.9</ele>
        <time>2022-03-22T14:45:52.175Z</time>
      </trkpt>
      <trkpt lat="50.44582" lon="3.43866">
        <ele>18</ele>
        <time>2022-03-22T14:45:53.774Z</time>
      </trkpt>
      <trkpt lat="50.44588" lon="3.43874">
        <ele>17.9</ele>
        <time>2022-03-22T14:45:56.000Z</time>
      </trkpt>
      <trkpt lat="50.44594" lon="3.43883">
        <ele>17.9</ele>
        <time>2022-03-22T14:45:58.057Z</time>
      </trkpt>
      <trkpt lat="50.44598" lon="3.43893">
        <ele>18</ele>
        <time>2022-03-22T14:46:00.054Z</time>
      </trkpt>
      <trkpt lat="50.44603" lon="3.43902">
        <ele>18</ele>
        <time>2022-03-22T14:46:02.000Z</time>
      </trkpt>
      <trkpt lat="50.44608" lon="3.43909">
        <ele>18</ele>
        <time>2022-03-22T14:46:04.036Z</time>
      </trkpt>
      <trkpt lat="50.44613" lon="3.43918">
        <ele>18</ele>
        <time>2022-03-22T14:46:06.000Z</time>
      </trkpt>
      <trkpt lat="50.44619" lon="3.43926">
        <ele>18</ele>
        <time>2022-03-22T14:46:08.014Z</time>
      </trkpt>
      <trkpt lat="50.44626" lon="3.43933">
        <ele>18</ele>
        <time>2022-03-22T14:46:10.000Z</time>
      </trkpt>
      <trkpt lat="50.4463" lon="3.43936">
        <ele>18</ele>
        <time>2022-03-22T14:46:11.000Z</time>
      </trkpt>
      <trkpt lat="50.44638" lon="3.43943">
        <ele>18</ele>
        <time>2022-03-22T14:46:13.095Z</time>
      </trkpt>
      <trkpt lat="50.44647" lon="3.43952">
        <ele>18.3</ele>
        <time>2022-03-22T14:46:15.000Z</time>
      </trkpt>
      <trkpt lat="50.44652" lon="3.43956">
        <ele>18.4</ele>
        <time>2022-03-22T14:46:16.000Z</time>
      </trkpt>
      <trkpt lat="50.44657" lon="3.43959">
        <ele>18.5</ele>
        <time>2022-03-22T14:46:17.000Z</time>
      </trkpt>
      <trkpt lat="50.44663" lon="3.43961">
        <ele>18.6</ele>
        <time>2022-03-22T14:46:18.000Z</time>
      </trkpt>
      <trkpt lat="50.44668" lon="3.43963">
        <ele>18.7</ele>
        <time>2022-03-22T14:46:19.000Z</time>
      </trkpt>
      <trkpt lat="50.44673" lon="3.43965">
        <ele>18.7</ele>
        <time>2022-03-22T14:46:20.000Z</time>
      </trkpt>
      <trkpt lat="50.44678" lon="3.43967">
        <ele>18.8</ele>
        <time>2022-03-22T14:46:21.000Z</time>
      </trkpt>
      <trkpt lat="50.44683" lon="3.43969">
        <ele>18.9</ele>
        <time>2022-03-22T14:46:22.000Z</time>
      </trkpt>
      <trkpt lat="50.44687" lon="3.43971">
        <ele>19</ele>
        <time>2022-03-22T14:46:23.000Z</time>
      </trkpt>
      <trkpt lat="50.44692" lon="3.43973">
        <ele>19</ele>
        <time>2022-03-22T14:46:24.000Z</time>
      </trkpt>
      <trkpt lat="50.44696" lon="3.43975">
        <ele>18.9</ele>
        <time>2022-03-22T14:46:25.000Z</time>
      </trkpt>
      <trkpt lat="50.44705" lon="3.43979">
        <ele>18.6</ele>
        <time>2022-03-22T14:46:27.000Z</time>
      </trkpt>
      <trkpt lat="50.44709" lon="3.43981">
        <ele>18.5</ele>
        <time>2022-03-22T14:46:28.000Z</time>
      </trkpt>
      <trkpt lat="50.44716" lon="3.43983">
        <ele>18.2</ele>
        <time>2022-03-22T14:46:30.000Z</time>
      </trkpt>
      <trkpt lat="50.44724" lon="3.43987">
        <ele>18</ele>
        <time>2022-03-22T14:46:32.000Z</time>
      </trkpt>
      <trkpt lat="50.4473" lon="3.4399">
        <ele>18.2</ele>
        <time>2022-03-22T14:46:34.000Z</time>
      </trkpt>
      <trkpt lat="50.44733" lon="3.43996">
        <ele>18.3</ele>
        <time>2022-03-22T14:46:38.000Z</time>
      </trkpt>
      <trkpt lat="50.44738" lon="3.43998">
        <ele>18.5</ele>
        <time>2022-03-22T14:46:41.000Z</time>
      </trkpt>
      <trkpt lat="50.44743" lon="3.44002">
        <ele>18.7</ele>
        <time>2022-03-22T14:46:45.000Z</time>
      </trkpt>
      <trkpt lat="50.44744" lon="3.43994">
        <ele>18.6</ele>
        <time>2022-03-22T14:46:54.000Z</time>
      </trkpt>
      <trkpt lat="50.44744" lon="3.43986">
        <ele>18.4</ele>
        <time>2022-03-22T14:46:56.000Z</time>
      </trkpt>
      <trkpt lat="50.44745" lon="3.43975">
        <ele>18.1</ele>
        <time>2022-03-22T14:46:58.000Z</time>
      </trkpt>
      <trkpt lat="50.44746" lon="3.43964">
        <ele>18</ele>
        <time>2022-03-22T14:47:00.000Z</time>
      </trkpt>
      <trkpt lat="50.44746" lon="3.43956">
        <ele>18</ele>
        <time>2022-03-22T14:47:03.000Z</time>
      </trkpt>
      <trkpt lat="50.44752" lon="3.43952">
        <ele>18</ele>
        <time>2022-03-22T14:47:06.097Z</time>
      </trkpt>
      <trkpt lat="50.44755" lon="3.43958">
        <ele>18</ele>
        <time>2022-03-22T14:47:08.000Z</time>
      </trkpt>
      <trkpt lat="50.44762" lon="3.43965">
        <ele>18</ele>
        <time>2022-03-22T14:47:11.674Z</time>
      </trkpt>
      <trkpt lat="50.44769" lon="3.43973">
        <ele>18</ele>
        <time>2022-03-22T14:47:13.916Z</time>
      </trkpt>
      <trkpt lat="50.44776" lon="3.43979">
        <ele>18</ele>
        <time>2022-03-22T14:47:15.000Z</time>
      </trkpt>
      <trkpt lat="50.44781" lon="3.43984">
        <ele>17.9</ele>
        <time>2022-03-22T14:47:16.000Z</time>
      </trkpt>
      <trkpt lat="50.44785" lon="3.43989">
        <ele>17.9</ele>
        <time>2022-03-22T14:47:17.000Z</time>
      </trkpt>
      <trkpt lat="50.4479" lon="3.43994">
        <ele>17.9</ele>
        <time>2022-03-22T14:47:18.000Z</time>
      </trkpt>
      <trkpt lat="50.44794" lon="3.43999">
        <ele>18</ele>
        <time>2022-03-22T14:47:19.000Z</time>
      </trkpt>
      <trkpt lat="50.44799" lon="3.44004">
        <ele>18</ele>
        <time>2022-03-22T14:47:20.000Z</time>
      </trkpt>
      <trkpt lat="50.44804" lon="3.44007">
        <ele>18</ele>
        <time>2022-03-22T14:47:21.000Z</time>
      </trkpt>
      <trkpt lat="50.44808" lon="3.44011">
        <ele>17.9</ele>
        <time>2022-03-22T14:47:22.000Z</time>
      </trkpt>
      <trkpt lat="50.44813" lon="3.44015">
        <ele>17.7</ele>
        <time>2022-03-22T14:47:23.000Z</time>
      </trkpt>
      <trkpt lat="50.44817" lon="3.44019">
        <ele>17.6</ele>
        <time>2022-03-22T14:47:24.000Z</time>
      </trkpt>
      <trkpt lat="50.44821" lon="3.44024">
        <ele>17.4</ele>
        <time>2022-03-22T14:47:25.000Z</time>
      </trkpt>
      <trkpt lat="50.44825" lon="3.44029">
        <ele>17.3</ele>
        <time>2022-03-22T14:47:26.000Z</time>
      </trkpt>
      <trkpt lat="50.44828" lon="3.44034">
        <ele>17.4</ele>
        <time>2022-03-22T14:47:27.000Z</time>
      </trkpt>
      <trkpt lat="50.44833" lon="3.44042">
        <ele>17.5</ele>
        <time>2022-03-22T14:47:29.000Z</time>
      </trkpt>
      <trkpt lat="50.44838" lon="3.4405">
        <ele>17.8</ele>
        <time>2022-03-22T14:47:31.000Z</time>
      </trkpt>
      <trkpt lat="50.44843" lon="3.44059">
        <ele>18.1</ele>
        <time>2022-03-22T14:47:33.169Z</time>
      </trkpt>
      <trkpt lat="50.44848" lon="3.44062">
        <ele>18.1</ele>
        <time>2022-03-22T14:47:35.000Z</time>
      </trkpt>
      <trkpt lat="50.44851" lon="3.44069">
        <ele>18.2</ele>
        <time>2022-03-22T14:47:36.000Z</time>
      </trkpt>
      <trkpt lat="50.44853" lon="3.44075">
        <ele>18.2</ele>
        <time>2022-03-22T14:47:37.000Z</time>
      </trkpt>
      <trkpt lat="50.44856" lon="3.44081">
        <ele>18.2</ele>
        <time>2022-03-22T14:47:38.000Z</time>
      </trkpt>
      <trkpt lat="50.44861" lon="3.44092">
        <ele>18</ele>
        <time>2022-03-22T14:47:40.000Z</time>
      </trkpt>
      <trkpt lat="50.44866" lon="3.44104">
        <ele>18</ele>
        <time>2022-03-22T14:47:42.083Z</time>
      </trkpt>
      <trkpt lat="50.44871" lon="3.44115">
        <ele>18</ele>
        <time>2022-03-22T14:47:44.082Z</time>
      </trkpt>
      <trkpt lat="50.44875" lon="3.44128">
        <ele>17.7</ele>
        <time>2022-03-22T14:47:46.606Z</time>
      </trkpt>
      <trkpt lat="50.44878" lon="3.44135">
        <ele>17.5</ele>
        <time>2022-03-22T14:47:48.023Z</time>
      </trkpt>
      <trkpt lat="50.44882" lon="3.44142">
        <ele>17.2</ele>
        <time>2022-03-22T14:47:49.500Z</time>
      </trkpt>
      <trkpt lat="50.44886" lon="3.44154">
        <ele>17.1</ele>
        <time>2022-03-22T14:47:52.000Z</time>
      </trkpt>
      <trkpt lat="50.44889" lon="3.4416">
        <ele>17</ele>
        <time>2022-03-22T14:47:57.683Z</time>
      </trkpt>
      <trkpt lat="50.44893" lon="3.44171">
        <ele>17.1</ele>
        <time>2022-03-22T14:48:00.000Z</time>
      </trkpt>
      <trkpt lat="50.44898" lon="3.44178">
        <ele>17.3</ele>
        <time>2022-03-22T14:48:01.942Z</time>
      </trkpt>
      <trkpt lat="50.44903" lon="3.44186">
        <ele>17.3</ele>
        <time>2022-03-22T14:48:04.045Z</time>
      </trkpt>
      <trkpt lat="50.44908" lon="3.44195">
        <ele>17.3</ele>
        <time>2022-03-22T14:48:06.000Z</time>
      </trkpt>
      <trkpt lat="50.44912" lon="3.44201">
        <ele>17.2</ele>
        <time>2022-03-22T14:48:07.685Z</time>
      </trkpt>
      <trkpt lat="50.44915" lon="3.44208">
        <ele>17.1</ele>
        <time>2022-03-22T14:48:09.184Z</time>
      </trkpt>
      <trkpt lat="50.44918" lon="3.44216">
        <ele>17</ele>
        <time>2022-03-22T14:48:10.764Z</time>
      </trkpt>
      <trkpt lat="50.44921" lon="3.44222">
        <ele>17</ele>
        <time>2022-03-22T14:48:12.100Z</time>
      </trkpt>
      <trkpt lat="50.44927" lon="3.44232">
        <ele>17</ele>
        <time>2022-03-22T14:48:14.179Z</time>
      </trkpt>
      <trkpt lat="50.4493" lon="3.44238">
        <ele>17</ele>
        <time>2022-03-22T14:48:15.487Z</time>
      </trkpt>
      <trkpt lat="50.44933" lon="3.44244">
        <ele>17</ele>
        <time>2022-03-22T14:48:16.763Z</time>
      </trkpt>
      <trkpt lat="50.44938" lon="3.44254">
        <ele>17</ele>
        <time>2022-03-22T14:48:19.000Z</time>
      </trkpt>
      <trkpt lat="50.44943" lon="3.44264">
        <ele>17</ele>
        <time>2022-03-22T14:48:21.000Z</time>
      </trkpt>
      <trkpt lat="50.44948" lon="3.44272">
        <ele>17</ele>
        <time>2022-03-22T14:48:22.965Z</time>
      </trkpt>
      <trkpt lat="50.44954" lon="3.44286">
        <ele>17</ele>
        <time>2022-03-22T14:48:25.743Z</time>
      </trkpt>
      <trkpt lat="50.44957" lon="3.44293">
        <ele>17</ele>
        <time>2022-03-22T14:48:27.000Z</time>
      </trkpt>
      <trkpt lat="50.44963" lon="3.44304">
        <ele>17</ele>
        <time>2022-03-22T14:48:29.000Z</time>
      </trkpt>
      <trkpt lat="50.44967" lon="3.44314">
        <ele>17</ele>
        <time>2022-03-22T14:48:31.003Z</time>
      </trkpt>
      <trkpt lat="50.44973" lon="3.44326">
        <ele>17</ele>
        <time>2022-03-22T14:48:33.344Z</time>
      </trkpt>
      <trkpt lat="50.4498" lon="3.44337">
        <ele>17</ele>
        <time>2022-03-22T14:48:35.920Z</time>
      </trkpt>
      <trkpt lat="50.44986" lon="3.44344">
        <ele>17</ele>
        <time>2022-03-22T14:48:38.000Z</time>
      </trkpt>
      <trkpt lat="50.44995" lon="3.44353">
        <ele>17</ele>
        <time>2022-03-22T14:48:40.600Z</time>
      </trkpt>
      <trkpt lat="50.45" lon="3.44357">
        <ele>17</ele>
        <time>2022-03-22T14:48:41.902Z</time>
      </trkpt>
      <trkpt lat="50.45007" lon="3.44363">
        <ele>17</ele>
        <time>2022-03-22T14:48:44.000Z</time>
      </trkpt>
      <trkpt lat="50.45014" lon="3.44368">
        <ele>17</ele>
        <time>2022-03-22T14:48:46.000Z</time>
      </trkpt>
      <trkpt lat="50.4502" lon="3.44375">
        <ele>17</ele>
        <time>2022-03-22T14:48:48.024Z</time>
      </trkpt>
      <trkpt lat="50.45029" lon="3.44382">
        <ele>17</ele>
        <time>2022-03-22T14:48:50.482Z</time>
      </trkpt>
      <trkpt lat="50.45033" lon="3.44387">
        <ele>17</ele>
        <time>2022-03-22T14:48:51.962Z</time>
      </trkpt>
      <trkpt lat="50.45039" lon="3.44394">
        <ele>17</ele>
        <time>2022-03-22T14:48:54.000Z</time>
      </trkpt>
      <trkpt lat="50.45045" lon="3.444">
        <ele>17</ele>
        <time>2022-03-22T14:48:56.000Z</time>
      </trkpt>
      <trkpt lat="50.45052" lon="3.44404">
        <ele>17</ele>
        <time>2022-03-22T14:48:58.000Z</time>
      </trkpt>
      <trkpt lat="50.45061" lon="3.4441">
        <ele>17</ele>
        <time>2022-03-22T14:49:00.663Z</time>
      </trkpt>
      <trkpt lat="50.45067" lon="3.44417">
        <ele>17</ele>
        <time>2022-03-22T14:49:03.000Z</time>
      </trkpt>
      <trkpt lat="50.45074" lon="3.44423">
        <ele>17</ele>
        <time>2022-03-22T14:49:04.984Z</time>
      </trkpt>
      <trkpt lat="50.45081" lon="3.4443">
        <ele>17</ele>
        <time>2022-03-22T14:49:07.064Z</time>
      </trkpt>
      <trkpt lat="50.45087" lon="3.44438">
        <ele>17</ele>
        <time>2022-03-22T14:49:09.000Z</time>
      </trkpt>
      <trkpt lat="50.45094" lon="3.44444">
        <ele>17</ele>
        <time>2022-03-22T14:49:10.983Z</time>
      </trkpt>
      <trkpt lat="50.45098" lon="3.44448">
        <ele>17</ele>
        <time>2022-03-22T14:49:12.000Z</time>
      </trkpt>
      <trkpt lat="50.45105" lon="3.44455">
        <ele>17</ele>
        <time>2022-03-22T14:49:13.941Z</time>
      </trkpt>
      <trkpt lat="50.4511" lon="3.44459">
        <ele>17</ele>
        <time>2022-03-22T14:49:15.343Z</time>
      </trkpt>
      <trkpt lat="50.45115" lon="3.44463">
        <ele>17</ele>
        <time>2022-03-22T14:49:16.702Z</time>
      </trkpt>
      <trkpt lat="50.45119" lon="3.44467">
        <ele>17.1</ele>
        <time>2022-03-22T14:49:18.022Z</time>
      </trkpt>
      <trkpt lat="50.45129" lon="3.44476">
        <ele>17</ele>
        <time>2022-03-22T14:49:20.701Z</time>
      </trkpt>
      <trkpt lat="50.45133" lon="3.4448">
        <ele>17</ele>
        <time>2022-03-22T14:49:21.782Z</time>
      </trkpt>
      <trkpt lat="50.45141" lon="3.44488">
        <ele>17</ele>
        <time>2022-03-22T14:49:24.000Z</time>
      </trkpt>
      <trkpt lat="50.45146" lon="3.44492">
        <ele>17.1</ele>
        <time>2022-03-22T14:49:25.205Z</time>
      </trkpt>
      <trkpt lat="50.45151" lon="3.44497">
        <ele>17</ele>
        <time>2022-03-22T14:49:26.761Z</time>
      </trkpt>
      <trkpt lat="50.45156" lon="3.44501">
        <ele>17</ele>
        <time>2022-03-22T14:49:28.004Z</time>
      </trkpt>
      <trkpt lat="50.4516" lon="3.44505">
        <ele>17</ele>
        <time>2022-03-22T14:49:29.142Z</time>
      </trkpt>
      <trkpt lat="50.45167" lon="3.44511">
        <ele>17</ele>
        <time>2022-03-22T14:49:31.000Z</time>
      </trkpt>
      <trkpt lat="50.45174" lon="3.44518">
        <ele>17.1</ele>
        <time>2022-03-22T14:49:33.122Z</time>
      </trkpt>
      <trkpt lat="50.45181" lon="3.44525">
        <ele>17.1</ele>
        <time>2022-03-22T14:49:35.023Z</time>
      </trkpt>
      <trkpt lat="50.45186" lon="3.44531">
        <ele>17</ele>
        <time>2022-03-22T14:49:36.683Z</time>
      </trkpt>
      <trkpt lat="50.45191" lon="3.44535">
        <ele>17</ele>
        <time>2022-03-22T14:49:37.962Z</time>
      </trkpt>
      <trkpt lat="50.45198" lon="3.44542">
        <ele>17</ele>
        <time>2022-03-22T14:49:40.000Z</time>
      </trkpt>
      <trkpt lat="50.45205" lon="3.44549">
        <ele>17</ele>
        <time>2022-03-22T14:49:42.000Z</time>
      </trkpt>
      <trkpt lat="50.45214" lon="3.44558">
        <ele>17</ele>
        <time>2022-03-22T14:49:44.980Z</time>
      </trkpt>
      <trkpt lat="50.45222" lon="3.44565">
        <ele>17</ele>
        <time>2022-03-22T14:49:47.064Z</time>
      </trkpt>
      <trkpt lat="50.45229" lon="3.44571">
        <ele>17</ele>
        <time>2022-03-22T14:49:49.000Z</time>
      </trkpt>
      <trkpt lat="50.45237" lon="3.44576">
        <ele>17</ele>
        <time>2022-03-22T14:49:51.000Z</time>
      </trkpt>
      <trkpt lat="50.45245" lon="3.4458">
        <ele>17</ele>
        <time>2022-03-22T14:49:53.000Z</time>
      </trkpt>
      <trkpt lat="50.45251" lon="3.44585">
        <ele>17</ele>
        <time>2022-03-22T14:49:54.742Z</time>
      </trkpt>
      <trkpt lat="50.45255" lon="3.44588">
        <ele>17</ele>
        <time>2022-03-22T14:49:56.004Z</time>
      </trkpt>
      <trkpt lat="50.4526" lon="3.44588">
        <ele>17</ele>
        <time>2022-03-22T14:49:57.106Z</time>
      </trkpt>
      <trkpt lat="50.45268" lon="3.44588">
        <ele>17</ele>
        <time>2022-03-22T14:49:58.823Z</time>
      </trkpt>
      <trkpt lat="50.45273" lon="3.44588">
        <ele>17</ele>
        <time>2022-03-22T14:50:00.142Z</time>
      </trkpt>
      <trkpt lat="50.45278" lon="3.44587">
        <ele>17</ele>
        <time>2022-03-22T14:50:01.161Z</time>
      </trkpt>
      <trkpt lat="50.45286" lon="3.44588">
        <ele>17</ele>
        <time>2022-03-22T14:50:02.840Z</time>
      </trkpt>
      <trkpt lat="50.45291" lon="3.4459">
        <ele>16.9</ele>
        <time>2022-03-22T14:50:04.042Z</time>
      </trkpt>
      <trkpt lat="50.45298" lon="3.44596">
        <ele>16.7</ele>
        <time>2022-03-22T14:50:06.610Z</time>
      </trkpt>
      <trkpt lat="50.45303" lon="3.44594">
        <ele>16.7</ele>
        <time>2022-03-22T14:50:10.000Z</time>
      </trkpt>
      <trkpt lat="50.45306" lon="3.44599">
        <ele>16.5</ele>
        <time>2022-03-22T14:50:11.723Z</time>
      </trkpt>
      <trkpt lat="50.45308" lon="3.44611">
        <ele>16.4</ele>
        <time>2022-03-22T14:50:14.003Z</time>
      </trkpt>
      <trkpt lat="50.4531" lon="3.44622">
        <ele>17</ele>
        <time>2022-03-22T14:50:16.000Z</time>
      </trkpt>
      <trkpt lat="50.45316" lon="3.44636">
        <ele>17.8</ele>
        <time>2022-03-22T14:50:18.000Z</time>
      </trkpt>
      <trkpt lat="50.4532" lon="3.4464">
        <ele>18</ele>
        <time>2022-03-22T14:50:19.000Z</time>
      </trkpt>
      <trkpt lat="50.45325" lon="3.44644">
        <ele>18.1</ele>
        <time>2022-03-22T14:50:20.000Z</time>
      </trkpt>
      <trkpt lat="50.45329" lon="3.44646">
        <ele>18.3</ele>
        <time>2022-03-22T14:50:21.000Z</time>
      </trkpt>
      <trkpt lat="50.45334" lon="3.44649">
        <ele>18.2</ele>
        <time>2022-03-22T14:50:22.000Z</time>
      </trkpt>
      <trkpt lat="50.45338" lon="3.4465">
        <ele>18</ele>
        <time>2022-03-22T14:50:23.000Z</time>
      </trkpt>
      <trkpt lat="50.45343" lon="3.44646">
        <ele>18</ele>
        <time>2022-03-22T14:50:25.000Z</time>
      </trkpt>
      <trkpt lat="50.45347" lon="3.44649">
        <ele>17.6</ele>
        <time>2022-03-22T14:50:26.000Z</time>
      </trkpt>
      <trkpt lat="50.45352" lon="3.44651">
        <ele>17.4</ele>
        <time>2022-03-22T14:50:27.097Z</time>
      </trkpt>
      <trkpt lat="50.45358" lon="3.44656">
        <ele>17.1</ele>
        <time>2022-03-22T14:50:28.717Z</time>
      </trkpt>
      <trkpt lat="50.45363" lon="3.44659">
        <ele>17</ele>
        <time>2022-03-22T14:50:30.097Z</time>
      </trkpt>
      <trkpt lat="50.45372" lon="3.44667">
        <ele>17</ele>
        <time>2022-03-22T14:50:33.000Z</time>
      </trkpt>
      <trkpt lat="50.45379" lon="3.44672">
        <ele>17</ele>
        <time>2022-03-22T14:50:35.338Z</time>
      </trkpt>
      <trkpt lat="50.45384" lon="3.44676">
        <ele>17</ele>
        <time>2022-03-22T14:50:37.000Z</time>
      </trkpt>
      <trkpt lat="50.45389" lon="3.44682">
        <ele>17</ele>
        <time>2022-03-22T14:50:39.000Z</time>
      </trkpt>
      <trkpt lat="50.45394" lon="3.44686">
        <ele>17</ele>
        <time>2022-03-22T14:50:41.000Z</time>
      </trkpt>
      <trkpt lat="50.454" lon="3.4469">
        <ele>17</ele>
        <time>2022-03-22T14:50:43.000Z</time>
      </trkpt>
      <trkpt lat="50.45404" lon="3.44694">
        <ele>17</ele>
        <time>2022-03-22T14:50:46.000Z</time>
      </trkpt>
      <trkpt lat="50.45409" lon="3.44698">
        <ele>17</ele>
        <time>2022-03-22T14:51:43.000Z</time>
      </trkpt>
      <trkpt lat="50.45414" lon="3.44701">
        <ele>17</ele>
        <time>2022-03-22T14:51:45.000Z</time>
      </trkpt>
      <trkpt lat="50.45419" lon="3.44705">
        <ele>17</ele>
        <time>2022-03-22T14:51:47.000Z</time>
      </trkpt>
      <trkpt lat="50.45425" lon="3.44709">
        <ele>17</ele>
        <time>2022-03-22T14:51:49.116Z</time>
      </trkpt>
      <trkpt lat="50.45433" lon="3.44714">
        <ele>17</ele>
        <time>2022-03-22T14:51:51.000Z</time>
      </trkpt>
      <trkpt lat="50.45441" lon="3.4472">
        <ele>17</ele>
        <time>2022-03-22T14:51:53.000Z</time>
      </trkpt>
      <trkpt lat="50.45446" lon="3.44722">
        <ele>17</ele>
        <time>2022-03-22T14:51:54.000Z</time>
      </trkpt>
      <trkpt lat="50.4545" lon="3.44723">
        <ele>17</ele>
        <time>2022-03-22T14:51:55.000Z</time>
      </trkpt>
      <trkpt lat="50.45455" lon="3.44725">
        <ele>17</ele>
        <time>2022-03-22T14:51:56.000Z</time>
      </trkpt>
      <trkpt lat="50.45462" lon="3.4473">
        <ele>17</ele>
        <time>2022-03-22T14:51:58.000Z</time>
      </trkpt>
      <trkpt lat="50.45466" lon="3.44733">
        <ele>17</ele>
        <time>2022-03-22T14:51:59.138Z</time>
      </trkpt>
      <trkpt lat="50.45473" lon="3.4474">
        <ele>17</ele>
        <time>2022-03-22T14:52:01.015Z</time>
      </trkpt>
      <trkpt lat="50.45481" lon="3.44746">
        <ele>17</ele>
        <time>2022-03-22T14:52:03.000Z</time>
      </trkpt>
      <trkpt lat="50.45489" lon="3.44749">
        <ele>17</ele>
        <time>2022-03-22T14:52:05.000Z</time>
      </trkpt>
      <trkpt lat="50.45494" lon="3.44752">
        <ele>17</ele>
        <time>2022-03-22T14:52:06.398Z</time>
      </trkpt>
      <trkpt lat="50.45499" lon="3.44756">
        <ele>17</ele>
        <time>2022-03-22T14:52:07.616Z</time>
      </trkpt>
      <trkpt lat="50.45503" lon="3.4476">
        <ele>17</ele>
        <time>2022-03-22T14:52:09.000Z</time>
      </trkpt>
      <trkpt lat="50.45511" lon="3.44766">
        <ele>17</ele>
        <time>2022-03-22T14:52:11.155Z</time>
      </trkpt>
      <trkpt lat="50.45518" lon="3.44771">
        <ele>17</ele>
        <time>2022-03-22T14:52:12.936Z</time>
      </trkpt>
      <trkpt lat="50.45525" lon="3.44777">
        <ele>17</ele>
        <time>2022-03-22T14:52:15.000Z</time>
      </trkpt>
      <trkpt lat="50.45532" lon="3.44782">
        <ele>17</ele>
        <time>2022-03-22T14:52:17.118Z</time>
      </trkpt>
      <trkpt lat="50.45539" lon="3.44788">
        <ele>17</ele>
        <time>2022-03-22T14:52:19.438Z</time>
      </trkpt>
      <trkpt lat="50.45544" lon="3.44792">
        <ele>17</ele>
        <time>2022-03-22T14:52:21.076Z</time>
      </trkpt>
      <trkpt lat="50.45551" lon="3.44797">
        <ele>17</ele>
        <time>2022-03-22T14:52:23.000Z</time>
      </trkpt>
      <trkpt lat="50.4556" lon="3.44801">
        <ele>17</ele>
        <time>2022-03-22T14:52:25.617Z</time>
      </trkpt>
      <trkpt lat="50.45564" lon="3.44805">
        <ele>17</ele>
        <time>2022-03-22T14:52:27.033Z</time>
      </trkpt>
      <trkpt lat="50.45572" lon="3.4481">
        <ele>17</ele>
        <time>2022-03-22T14:52:29.000Z</time>
      </trkpt>
      <trkpt lat="50.45579" lon="3.44815">
        <ele>17</ele>
        <time>2022-03-22T14:52:31.000Z</time>
      </trkpt>
      <trkpt lat="50.45585" lon="3.44821">
        <ele>17</ele>
        <time>2022-03-22T14:52:33.000Z</time>
      </trkpt>
      <trkpt lat="50.4559" lon="3.44826">
        <ele>17</ele>
        <time>2022-03-22T14:52:34.337Z</time>
      </trkpt>
      <trkpt lat="50.45596" lon="3.44833">
        <ele>17</ele>
        <time>2022-03-22T14:52:36.978Z</time>
      </trkpt>
      <trkpt lat="50.45602" lon="3.44837">
        <ele>17</ele>
        <time>2022-03-22T14:52:39.000Z</time>
      </trkpt>
      <trkpt lat="50.45607" lon="3.44843">
        <ele>17</ele>
        <time>2022-03-22T14:52:41.000Z</time>
      </trkpt>
      <trkpt lat="50.45613" lon="3.44849">
        <ele>17</ele>
        <time>2022-03-22T14:52:43.096Z</time>
      </trkpt>
      <trkpt lat="50.45617" lon="3.44853">
        <ele>17</ele>
        <time>2022-03-22T14:52:44.548Z</time>
      </trkpt>
      <trkpt lat="50.45621" lon="3.44858">
        <ele>17</ele>
        <time>2022-03-22T14:52:45.975Z</time>
      </trkpt>
      <trkpt lat="50.45625" lon="3.44865">
        <ele>17</ele>
        <time>2022-03-22T14:52:47.817Z</time>
      </trkpt>
      <trkpt lat="50.45631" lon="3.4487">
        <ele>17</ele>
        <time>2022-03-22T14:52:49.658Z</time>
      </trkpt>
      <trkpt lat="50.45636" lon="3.44878">
        <ele>17</ele>
        <time>2022-03-22T14:52:51.694Z</time>
      </trkpt>
      <trkpt lat="50.4564" lon="3.44884">
        <ele>17</ele>
        <time>2022-03-22T14:52:53.078Z</time>
      </trkpt>
      <trkpt lat="50.45644" lon="3.44888">
        <ele>17</ele>
        <time>2022-03-22T14:52:54.455Z</time>
      </trkpt>
      <trkpt lat="50.45648" lon="3.44893">
        <ele>17</ele>
        <time>2022-03-22T14:52:55.976Z</time>
      </trkpt>
      <trkpt lat="50.45656" lon="3.44902">
        <ele>17</ele>
        <time>2022-03-22T14:52:59.000Z</time>
      </trkpt>
      <trkpt lat="50.4566" lon="3.44903">
        <ele>17</ele>
        <time>2022-03-22T14:53:39.000Z</time>
      </trkpt>
      <trkpt lat="50.45665" lon="3.44908">
        <ele>17</ele>
        <time>2022-03-22T14:53:40.895Z</time>
      </trkpt>
      <trkpt lat="50.45674" lon="3.44917">
        <ele>17</ele>
        <time>2022-03-22T14:53:43.000Z</time>
      </trkpt>
      <trkpt lat="50.45678" lon="3.4492">
        <ele>17</ele>
        <time>2022-03-22T14:53:44.000Z</time>
      </trkpt>
      <trkpt lat="50.45683" lon="3.44924">
        <ele>17</ele>
        <time>2022-03-22T14:53:45.000Z</time>
      </trkpt>
      <trkpt lat="50.45689" lon="3.44927">
        <ele>17</ele>
        <time>2022-03-22T14:53:46.000Z</time>
      </trkpt>
      <trkpt lat="50.45694" lon="3.44931">
        <ele>17</ele>
        <time>2022-03-22T14:53:47.000Z</time>
      </trkpt>
      <trkpt lat="50.457" lon="3.44935">
        <ele>17</ele>
        <time>2022-03-22T14:53:48.000Z</time>
      </trkpt>
      <trkpt lat="50.45707" lon="3.44939">
        <ele>17</ele>
        <time>2022-03-22T14:53:49.000Z</time>
      </trkpt>
      <trkpt lat="50.45713" lon="3.44944">
        <ele>17</ele>
        <time>2022-03-22T14:53:50.000Z</time>
      </trkpt>
      <trkpt lat="50.4572" lon="3.44947">
        <ele>17</ele>
        <time>2022-03-22T14:53:51.000Z</time>
      </trkpt>
      <trkpt lat="50.45728" lon="3.44951">
        <ele>17</ele>
        <time>2022-03-22T14:53:52.000Z</time>
      </trkpt>
      <trkpt lat="50.45734" lon="3.44955">
        <ele>17</ele>
        <time>2022-03-22T14:53:53.000Z</time>
      </trkpt>
      <trkpt lat="50.4574" lon="3.44959">
        <ele>17</ele>
        <time>2022-03-22T14:53:54.000Z</time>
      </trkpt>
      <trkpt lat="50.45746" lon="3.44962">
        <ele>17</ele>
        <time>2022-03-22T14:53:55.000Z</time>
      </trkpt>
      <trkpt lat="50.45752" lon="3.44965">
        <ele>16.9</ele>
        <time>2022-03-22T14:53:56.000Z</time>
      </trkpt>
      <trkpt lat="50.45757" lon="3.44968">
        <ele>16.7</ele>
        <time>2022-03-22T14:53:57.000Z</time>
      </trkpt>
      <trkpt lat="50.45763" lon="3.44971">
        <ele>16.5</ele>
        <time>2022-03-22T14:53:58.000Z</time>
      </trkpt>
      <trkpt lat="50.45768" lon="3.44975">
        <ele>16.4</ele>
        <time>2022-03-22T14:53:59.000Z</time>
      </trkpt>
      <trkpt lat="50.45773" lon="3.44978">
        <ele>16.3</ele>
        <time>2022-03-22T14:54:00.000Z</time>
      </trkpt>
      <trkpt lat="50.45778" lon="3.44981">
        <ele>16.3</ele>
        <time>2022-03-22T14:54:01.000Z</time>
      </trkpt>
      <trkpt lat="50.45782" lon="3.44985">
        <ele>16.5</ele>
        <time>2022-03-22T14:54:02.000Z</time>
      </trkpt>
      <trkpt lat="50.45787" lon="3.44988">
        <ele>16.6</ele>
        <time>2022-03-22T14:54:03.000Z</time>
      </trkpt>
      <trkpt lat="50.45792" lon="3.44992">
        <ele>16.7</ele>
        <time>2022-03-22T14:54:04.000Z</time>
      </trkpt>
      <trkpt lat="50.45797" lon="3.44995">
        <ele>16.8</ele>
        <time>2022-03-22T14:54:05.000Z</time>
      </trkpt>
      <trkpt lat="50.45802" lon="3.44998">
        <ele>16.9</ele>
        <time>2022-03-22T14:54:06.000Z</time>
      </trkpt>
      <trkpt lat="50.45807" lon="3.45001">
        <ele>16.9</ele>
        <time>2022-03-22T14:54:07.000Z</time>
      </trkpt>
      <trkpt lat="50.45811" lon="3.45005">
        <ele>16.8</ele>
        <time>2022-03-22T14:54:08.000Z</time>
      </trkpt>
      <trkpt lat="50.45815" lon="3.4501">
        <ele>16.7</ele>
        <time>2022-03-22T14:54:09.000Z</time>
      </trkpt>
      <trkpt lat="50.45819" lon="3.45014">
        <ele>16.5</ele>
        <time>2022-03-22T14:54:10.000Z</time>
      </trkpt>
      <trkpt lat="50.45823" lon="3.45018">
        <ele>16.4</ele>
        <time>2022-03-22T14:54:11.000Z</time>
      </trkpt>
      <trkpt lat="50.45828" lon="3.45023">
        <ele>16.2</ele>
        <time>2022-03-22T14:54:12.000Z</time>
      </trkpt>
      <trkpt lat="50.45832" lon="3.45028">
        <ele>16.1</ele>
        <time>2022-03-22T14:54:13.000Z</time>
      </trkpt>
      <trkpt lat="50.45836" lon="3.45032">
        <ele>16.1</ele>
        <time>2022-03-22T14:54:14.000Z</time>
      </trkpt>
      <trkpt lat="50.4584" lon="3.45037">
        <ele>16.3</ele>
        <time>2022-03-22T14:54:15.000Z</time>
      </trkpt>
      <trkpt lat="50.45844" lon="3.45041">
        <ele>16.3</ele>
        <time>2022-03-22T14:54:16.000Z</time>
      </trkpt>
      <trkpt lat="50.45848" lon="3.45045">
        <ele>16.3</ele>
        <time>2022-03-22T14:54:17.000Z</time>
      </trkpt>
      <trkpt lat="50.45852" lon="3.4505">
        <ele>16.3</ele>
        <time>2022-03-22T14:54:18.000Z</time>
      </trkpt>
      <trkpt lat="50.45855" lon="3.45055">
        <ele>16.2</ele>
        <time>2022-03-22T14:54:19.000Z</time>
      </trkpt>
      <trkpt lat="50.45859" lon="3.45059">
        <ele>16.1</ele>
        <time>2022-03-22T14:54:20.000Z</time>
      </trkpt>
      <trkpt lat="50.45866" lon="3.45068">
        <ele>16</ele>
        <time>2022-03-22T14:54:22.000Z</time>
      </trkpt>
      <trkpt lat="50.45871" lon="3.45077">
        <ele>16</ele>
        <time>2022-03-22T14:54:24.000Z</time>
      </trkpt>
      <trkpt lat="50.45877" lon="3.45085">
        <ele>16</ele>
        <time>2022-03-22T14:54:26.000Z</time>
      </trkpt>
      <trkpt lat="50.45884" lon="3.45093">
        <ele>16.1</ele>
        <time>2022-03-22T14:54:28.000Z</time>
      </trkpt>
      <trkpt lat="50.45888" lon="3.45099">
        <ele>16</ele>
        <time>2022-03-22T14:54:29.000Z</time>
      </trkpt>
      <trkpt lat="50.45891" lon="3.45107">
        <ele>16</ele>
        <time>2022-03-22T14:54:30.891Z</time>
      </trkpt>
      <trkpt lat="50.45895" lon="3.45112">
        <ele>16</ele>
        <time>2022-03-22T14:54:31.952Z</time>
      </trkpt>
      <trkpt lat="50.459" lon="3.45118">
        <ele>16</ele>
        <time>2022-03-22T14:54:33.316Z</time>
      </trkpt>
      <trkpt lat="50.45907" lon="3.45127">
        <ele>16</ele>
        <time>2022-03-22T14:54:35.000Z</time>
      </trkpt>
      <trkpt lat="50.45915" lon="3.45142">
        <ele>16</ele>
        <time>2022-03-22T14:54:37.787Z</time>
      </trkpt>
      <trkpt lat="50.45919" lon="3.45147">
        <ele>16</ele>
        <time>2022-03-22T14:54:39.068Z</time>
      </trkpt>
      <trkpt lat="50.45927" lon="3.45155">
        <ele>16</ele>
        <time>2022-03-22T14:54:41.000Z</time>
      </trkpt>
      <trkpt lat="50.4593" lon="3.4516">
        <ele>16</ele>
        <time>2022-03-22T14:54:42.000Z</time>
      </trkpt>
      <trkpt lat="50.45934" lon="3.45166">
        <ele>16</ele>
        <time>2022-03-22T14:54:43.000Z</time>
      </trkpt>
      <trkpt lat="50.45938" lon="3.45171">
        <ele>16</ele>
        <time>2022-03-22T14:54:44.000Z</time>
      </trkpt>
      <trkpt lat="50.45941" lon="3.45176">
        <ele>16</ele>
        <time>2022-03-22T14:54:45.000Z</time>
      </trkpt>
      <trkpt lat="50.45944" lon="3.45181">
        <ele>16</ele>
        <time>2022-03-22T14:54:46.000Z</time>
      </trkpt>
      <trkpt lat="50.4595" lon="3.45193">
        <ele>16</ele>
        <time>2022-03-22T14:54:49.660Z</time>
      </trkpt>
      <trkpt lat="50.45956" lon="3.45201">
        <ele>16.1</ele>
        <time>2022-03-22T14:54:51.044Z</time>
      </trkpt>
      <trkpt lat="50.4596" lon="3.45207">
        <ele>16.2</ele>
        <time>2022-03-22T14:54:52.120Z</time>
      </trkpt>
      <trkpt lat="50.45964" lon="3.45214">
        <ele>16.2</ele>
        <time>2022-03-22T14:54:53.143Z</time>
      </trkpt>
      <trkpt lat="50.45971" lon="3.45222">
        <ele>16</ele>
        <time>2022-03-22T14:54:55.019Z</time>
      </trkpt>
      <trkpt lat="50.45975" lon="3.45227">
        <ele>16.2</ele>
        <time>2022-03-22T14:54:56.000Z</time>
      </trkpt>
      <trkpt lat="50.45982" lon="3.45238">
        <ele>16.4</ele>
        <time>2022-03-22T14:54:58.160Z</time>
      </trkpt>
      <trkpt lat="50.45985" lon="3.45242">
        <ele>16.4</ele>
        <time>2022-03-22T14:54:59.144Z</time>
      </trkpt>
      <trkpt lat="50.4599" lon="3.45248">
        <ele>16.3</ele>
        <time>2022-03-22T14:55:00.421Z</time>
      </trkpt>
      <trkpt lat="50.45994" lon="3.45253">
        <ele>16.2</ele>
        <time>2022-03-22T14:55:01.601Z</time>
      </trkpt>
      <trkpt lat="50.46001" lon="3.45261">
        <ele>16</ele>
        <time>2022-03-22T14:55:03.660Z</time>
      </trkpt>
      <trkpt lat="50.46004" lon="3.45266">
        <ele>16</ele>
        <time>2022-03-22T14:55:04.823Z</time>
      </trkpt>
      <trkpt lat="50.46008" lon="3.45271">
        <ele>16</ele>
        <time>2022-03-22T14:55:06.081Z</time>
      </trkpt>
      <trkpt lat="50.46013" lon="3.45278">
        <ele>16</ele>
        <time>2022-03-22T14:55:07.800Z</time>
      </trkpt>
      <trkpt lat="50.46016" lon="3.45283">
        <ele>16.1</ele>
        <time>2022-03-22T14:55:09.038Z</time>
      </trkpt>
      <trkpt lat="50.46022" lon="3.45293">
        <ele>16.1</ele>
        <time>2022-03-22T14:55:11.000Z</time>
      </trkpt>
      <trkpt lat="50.46028" lon="3.45301">
        <ele>16</ele>
        <time>2022-03-22T14:55:12.962Z</time>
      </trkpt>
      <trkpt lat="50.46035" lon="3.45308">
        <ele>16</ele>
        <time>2022-03-22T14:55:15.000Z</time>
      </trkpt>
      <trkpt lat="50.46041" lon="3.45318">
        <ele>16</ele>
        <time>2022-03-22T14:55:17.343Z</time>
      </trkpt>
      <trkpt lat="50.46046" lon="3.45327">
        <ele>16</ele>
        <time>2022-03-22T14:55:19.000Z</time>
      </trkpt>
      <trkpt lat="50.46053" lon="3.45335">
        <ele>16</ele>
        <time>2022-03-22T14:55:21.000Z</time>
      </trkpt>
      <trkpt lat="50.46057" lon="3.4534">
        <ele>16</ele>
        <time>2022-03-22T14:55:22.000Z</time>
      </trkpt>
      <trkpt lat="50.46061" lon="3.45346">
        <ele>16</ele>
        <time>2022-03-22T14:55:23.000Z</time>
      </trkpt>
      <trkpt lat="50.46064" lon="3.45351">
        <ele>16</ele>
        <time>2022-03-22T14:55:24.000Z</time>
      </trkpt>
      <trkpt lat="50.46067" lon="3.45356">
        <ele>16</ele>
        <time>2022-03-22T14:55:25.000Z</time>
      </trkpt>
      <trkpt lat="50.46071" lon="3.45361">
        <ele>16</ele>
        <time>2022-03-22T14:55:26.000Z</time>
      </trkpt>
      <trkpt lat="50.46075" lon="3.45367">
        <ele>16</ele>
        <time>2022-03-22T14:55:28.510Z</time>
      </trkpt>
      <trkpt lat="50.4608" lon="3.45374">
        <ele>16</ele>
        <time>2022-03-22T14:55:29.867Z</time>
      </trkpt>
      <trkpt lat="50.46085" lon="3.45381">
        <ele>16</ele>
        <time>2022-03-22T14:55:31.153Z</time>
      </trkpt>
      <trkpt lat="50.46089" lon="3.45386">
        <ele>16</ele>
        <time>2022-03-22T14:55:32.108Z</time>
      </trkpt>
      <trkpt lat="50.46094" lon="3.45393">
        <ele>16.1</ele>
        <time>2022-03-22T14:55:33.506Z</time>
      </trkpt>
      <trkpt lat="50.46098" lon="3.45399">
        <ele>16.4</ele>
        <time>2022-03-22T14:55:34.668Z</time>
      </trkpt>
      <trkpt lat="50.46102" lon="3.45403">
        <ele>16.5</ele>
        <time>2022-03-22T14:55:35.809Z</time>
      </trkpt>
      <trkpt lat="50.46106" lon="3.45408">
        <ele>16.7</ele>
        <time>2022-03-22T14:55:37.006Z</time>
      </trkpt>
      <trkpt lat="50.46112" lon="3.45417">
        <ele>17</ele>
        <time>2022-03-22T14:55:39.000Z</time>
      </trkpt>
      <trkpt lat="50.46118" lon="3.45426">
        <ele>16.8</ele>
        <time>2022-03-22T14:55:41.000Z</time>
      </trkpt>
      <trkpt lat="50.46122" lon="3.4543">
        <ele>16.6</ele>
        <time>2022-03-22T14:55:42.029Z</time>
      </trkpt>
      <trkpt lat="50.46129" lon="3.45438">
        <ele>16.4</ele>
        <time>2022-03-22T14:55:44.000Z</time>
      </trkpt>
      <trkpt lat="50.46135" lon="3.45447">
        <ele>16.2</ele>
        <time>2022-03-22T14:55:46.086Z</time>
      </trkpt>
      <trkpt lat="50.46139" lon="3.45452">
        <ele>16.3</ele>
        <time>2022-03-22T14:55:47.000Z</time>
      </trkpt>
      <trkpt lat="50.46143" lon="3.45457">
        <ele>16.4</ele>
        <time>2022-03-22T14:55:48.000Z</time>
      </trkpt>
      <trkpt lat="50.46146" lon="3.45462">
        <ele>16.5</ele>
        <time>2022-03-22T14:55:49.000Z</time>
      </trkpt>
      <trkpt lat="50.4615" lon="3.45467">
        <ele>16.5</ele>
        <time>2022-03-22T14:55:50.000Z</time>
      </trkpt>
      <trkpt lat="50.46156" lon="3.45476">
        <ele>16.5</ele>
        <time>2022-03-22T14:55:52.000Z</time>
      </trkpt>
      <trkpt lat="50.4616" lon="3.45481">
        <ele>16.5</ele>
        <time>2022-03-22T14:55:53.000Z</time>
      </trkpt>
      <trkpt lat="50.46163" lon="3.45486">
        <ele>16.6</ele>
        <time>2022-03-22T14:55:54.000Z</time>
      </trkpt>
      <trkpt lat="50.46167" lon="3.45491">
        <ele>16.7</ele>
        <time>2022-03-22T14:55:55.000Z</time>
      </trkpt>
      <trkpt lat="50.4617" lon="3.45496">
        <ele>16.8</ele>
        <time>2022-03-22T14:55:56.000Z</time>
      </trkpt>
      <trkpt lat="50.46174" lon="3.455">
        <ele>16.7</ele>
        <time>2022-03-22T14:55:57.000Z</time>
      </trkpt>
      <trkpt lat="50.46178" lon="3.45505">
        <ele>16.7</ele>
        <time>2022-03-22T14:55:58.000Z</time>
      </trkpt>
      <trkpt lat="50.46181" lon="3.45509">
        <ele>16.7</ele>
        <time>2022-03-22T14:55:59.000Z</time>
      </trkpt>
      <trkpt lat="50.46187" lon="3.45518">
        <ele>16.7</ele>
        <time>2022-03-22T14:56:01.000Z</time>
      </trkpt>
      <trkpt lat="50.4619" lon="3.45524">
        <ele>16.9</ele>
        <time>2022-03-22T14:56:02.000Z</time>
      </trkpt>
      <trkpt lat="50.46193" lon="3.4553">
        <ele>17</ele>
        <time>2022-03-22T14:56:03.000Z</time>
      </trkpt>
      <trkpt lat="50.46197" lon="3.45535">
        <ele>16.9</ele>
        <time>2022-03-22T14:56:04.000Z</time>
      </trkpt>
      <trkpt lat="50.462" lon="3.45539">
        <ele>16.8</ele>
        <time>2022-03-22T14:56:05.000Z</time>
      </trkpt>
      <trkpt lat="50.46207" lon="3.45548">
        <ele>16.5</ele>
        <time>2022-03-22T14:56:07.000Z</time>
      </trkpt>
      <trkpt lat="50.46213" lon="3.45557">
        <ele>16.3</ele>
        <time>2022-03-22T14:56:09.000Z</time>
      </trkpt>
      <trkpt lat="50.4622" lon="3.45567">
        <ele>16.1</ele>
        <time>2022-03-22T14:56:11.000Z</time>
      </trkpt>
      <trkpt lat="50.4623" lon="3.45582">
        <ele>16</ele>
        <time>2022-03-22T14:56:14.000Z</time>
      </trkpt>
      <trkpt lat="50.46235" lon="3.45588">
        <ele>16.1</ele>
        <time>2022-03-22T14:56:15.000Z</time>
      </trkpt>
      <trkpt lat="50.46239" lon="3.45594">
        <ele>16.2</ele>
        <time>2022-03-22T14:56:16.000Z</time>
      </trkpt>
      <trkpt lat="50.46243" lon="3.456">
        <ele>16.4</ele>
        <time>2022-03-22T14:56:17.000Z</time>
      </trkpt>
      <trkpt lat="50.46247" lon="3.45605">
        <ele>16.7</ele>
        <time>2022-03-22T14:56:18.000Z</time>
      </trkpt>
      <trkpt lat="50.46251" lon="3.4561">
        <ele>16.9</ele>
        <time>2022-03-22T14:56:19.000Z</time>
      </trkpt>
      <trkpt lat="50.46254" lon="3.45615">
        <ele>16.9</ele>
        <time>2022-03-22T14:56:20.000Z</time>
      </trkpt>
      <trkpt lat="50.46258" lon="3.4562">
        <ele>16.7</ele>
        <time>2022-03-22T14:56:21.000Z</time>
      </trkpt>
      <trkpt lat="50.46261" lon="3.45626">
        <ele>16.6</ele>
        <time>2022-03-22T14:56:22.000Z</time>
      </trkpt>
      <trkpt lat="50.46265" lon="3.4563">
        <ele>16.5</ele>
        <time>2022-03-22T14:56:23.000Z</time>
      </trkpt>
      <trkpt lat="50.46269" lon="3.45636">
        <ele>16.3</ele>
        <time>2022-03-22T14:56:24.000Z</time>
      </trkpt>
      <trkpt lat="50.46272" lon="3.45641">
        <ele>16.3</ele>
        <time>2022-03-22T14:56:25.000Z</time>
      </trkpt>
      <trkpt lat="50.46276" lon="3.45646">
        <ele>16.3</ele>
        <time>2022-03-22T14:56:26.000Z</time>
      </trkpt>
      <trkpt lat="50.4628" lon="3.45651">
        <ele>16.4</ele>
        <time>2022-03-22T14:56:27.000Z</time>
      </trkpt>
      <trkpt lat="50.46283" lon="3.45656">
        <ele>16.5</ele>
        <time>2022-03-22T14:56:28.000Z</time>
      </trkpt>
      <trkpt lat="50.46287" lon="3.45661">
        <ele>16.5</ele>
        <time>2022-03-22T14:56:29.000Z</time>
      </trkpt>
      <trkpt lat="50.4629" lon="3.45666">
        <ele>16.5</ele>
        <time>2022-03-22T14:56:30.000Z</time>
      </trkpt>
      <trkpt lat="50.46293" lon="3.45671">
        <ele>16.5</ele>
        <time>2022-03-22T14:56:31.000Z</time>
      </trkpt>
      <trkpt lat="50.46297" lon="3.45676">
        <ele>16.5</ele>
        <time>2022-03-22T14:56:32.000Z</time>
      </trkpt>
      <trkpt lat="50.46303" lon="3.45684">
        <ele>16.7</ele>
        <time>2022-03-22T14:56:34.000Z</time>
      </trkpt>
      <trkpt lat="50.46309" lon="3.45693">
        <ele>16.8</ele>
        <time>2022-03-22T14:56:36.000Z</time>
      </trkpt>
      <trkpt lat="50.46316" lon="3.45702">
        <ele>16.6</ele>
        <time>2022-03-22T14:56:38.000Z</time>
      </trkpt>
      <trkpt lat="50.46322" lon="3.45707">
        <ele>16.4</ele>
        <time>2022-03-22T14:56:40.000Z</time>
      </trkpt>
      <trkpt lat="50.46326" lon="3.45712">
        <ele>16.3</ele>
        <time>2022-03-22T14:56:41.232Z</time>
      </trkpt>
      <trkpt lat="50.46331" lon="3.45719">
        <ele>16.1</ele>
        <time>2022-03-22T14:56:42.614Z</time>
      </trkpt>
      <trkpt lat="50.46338" lon="3.45729">
        <ele>16</ele>
        <time>2022-03-22T14:56:44.677Z</time>
      </trkpt>
      <trkpt lat="50.46343" lon="3.45736">
        <ele>16</ele>
        <time>2022-03-22T14:56:46.172Z</time>
      </trkpt>
      <trkpt lat="50.46347" lon="3.45741">
        <ele>16</ele>
        <time>2022-03-22T14:56:47.151Z</time>
      </trkpt>
      <trkpt lat="50.46351" lon="3.4575">
        <ele>16</ele>
        <time>2022-03-22T14:56:48.635Z</time>
      </trkpt>
      <trkpt lat="50.46356" lon="3.45757">
        <ele>16.2</ele>
        <time>2022-03-22T14:56:50.651Z</time>
      </trkpt>
      <trkpt lat="50.4636" lon="3.45762">
        <ele>16.4</ele>
        <time>2022-03-22T14:56:52.034Z</time>
      </trkpt>
      <trkpt lat="50.46366" lon="3.45771">
        <ele>16.6</ele>
        <time>2022-03-22T14:56:54.000Z</time>
      </trkpt>
      <trkpt lat="50.46373" lon="3.4578">
        <ele>16.6</ele>
        <time>2022-03-22T14:56:56.094Z</time>
      </trkpt>
      <trkpt lat="50.46381" lon="3.45793">
        <ele>16.5</ele>
        <time>2022-03-22T14:56:58.000Z</time>
      </trkpt>
      <trkpt lat="50.46385" lon="3.45798">
        <ele>16.7</ele>
        <time>2022-03-22T14:56:59.000Z</time>
      </trkpt>
      <trkpt lat="50.46389" lon="3.45804">
        <ele>16.9</ele>
        <time>2022-03-22T14:57:00.000Z</time>
      </trkpt>
      <trkpt lat="50.46394" lon="3.4581">
        <ele>16.8</ele>
        <time>2022-03-22T14:57:01.000Z</time>
      </trkpt>
      <trkpt lat="50.46398" lon="3.45815">
        <ele>16.8</ele>
        <time>2022-03-22T14:57:02.000Z</time>
      </trkpt>
      <trkpt lat="50.46402" lon="3.45821">
        <ele>16.8</ele>
        <time>2022-03-22T14:57:03.000Z</time>
      </trkpt>
      <trkpt lat="50.46406" lon="3.45826">
        <ele>16.8</ele>
        <time>2022-03-22T14:57:04.000Z</time>
      </trkpt>
      <trkpt lat="50.4641" lon="3.45831">
        <ele>16.9</ele>
        <time>2022-03-22T14:57:05.000Z</time>
      </trkpt>
      <trkpt lat="50.46414" lon="3.45836">
        <ele>17</ele>
        <time>2022-03-22T14:57:06.000Z</time>
      </trkpt>
      <trkpt lat="50.46418" lon="3.45841">
        <ele>17</ele>
        <time>2022-03-22T14:57:07.000Z</time>
      </trkpt>
      <trkpt lat="50.46421" lon="3.45846">
        <ele>16.8</ele>
        <time>2022-03-22T14:57:08.000Z</time>
      </trkpt>
      <trkpt lat="50.46425" lon="3.45851">
        <ele>16.7</ele>
        <time>2022-03-22T14:57:09.000Z</time>
      </trkpt>
      <trkpt lat="50.46429" lon="3.45857">
        <ele>16.6</ele>
        <time>2022-03-22T14:57:10.000Z</time>
      </trkpt>
      <trkpt lat="50.46433" lon="3.45862">
        <ele>16.4</ele>
        <time>2022-03-22T14:57:11.000Z</time>
      </trkpt>
      <trkpt lat="50.46437" lon="3.45868">
        <ele>16.4</ele>
        <time>2022-03-22T14:57:12.000Z</time>
      </trkpt>
      <trkpt lat="50.46441" lon="3.45873">
        <ele>16.5</ele>
        <time>2022-03-22T14:57:13.000Z</time>
      </trkpt>
      <trkpt lat="50.46444" lon="3.45878">
        <ele>16.6</ele>
        <time>2022-03-22T14:57:14.000Z</time>
      </trkpt>
      <trkpt lat="50.46448" lon="3.45883">
        <ele>16.7</ele>
        <time>2022-03-22T14:57:15.000Z</time>
      </trkpt>
      <trkpt lat="50.46452" lon="3.45888">
        <ele>16.7</ele>
        <time>2022-03-22T14:57:16.000Z</time>
      </trkpt>
      <trkpt lat="50.46455" lon="3.45894">
        <ele>16.7</ele>
        <time>2022-03-22T14:57:17.000Z</time>
      </trkpt>
      <trkpt lat="50.46459" lon="3.45899">
        <ele>16.7</ele>
        <time>2022-03-22T14:57:18.000Z</time>
      </trkpt>
      <trkpt lat="50.46462" lon="3.45904">
        <ele>16.7</ele>
        <time>2022-03-22T14:57:19.000Z</time>
      </trkpt>
      <trkpt lat="50.46466" lon="3.45909">
        <ele>16.8</ele>
        <time>2022-03-22T14:57:20.000Z</time>
      </trkpt>
      <trkpt lat="50.46472" lon="3.45919">
        <ele>17</ele>
        <time>2022-03-22T14:57:22.000Z</time>
      </trkpt>
      <trkpt lat="50.46478" lon="3.45929">
        <ele>16.8</ele>
        <time>2022-03-22T14:57:24.000Z</time>
      </trkpt>
      <trkpt lat="50.46484" lon="3.45937">
        <ele>16.6</ele>
        <time>2022-03-22T14:57:26.000Z</time>
      </trkpt>
      <trkpt lat="50.4649" lon="3.45944">
        <ele>16.4</ele>
        <time>2022-03-22T14:57:28.000Z</time>
      </trkpt>
      <trkpt lat="50.46496" lon="3.45952">
        <ele>16.3</ele>
        <time>2022-03-22T14:57:30.000Z</time>
      </trkpt>
      <trkpt lat="50.465" lon="3.45959">
        <ele>16.5</ele>
        <time>2022-03-22T14:57:31.000Z</time>
      </trkpt>
      <trkpt lat="50.46506" lon="3.45966">
        <ele>16.6</ele>
        <time>2022-03-22T14:57:33.000Z</time>
      </trkpt>
      <trkpt lat="50.46512" lon="3.45974">
        <ele>16.6</ele>
        <time>2022-03-22T14:57:35.025Z</time>
      </trkpt>
      <trkpt lat="50.46518" lon="3.45983">
        <ele>16.6</ele>
        <time>2022-03-22T14:57:37.000Z</time>
      </trkpt>
      <trkpt lat="50.46524" lon="3.4599">
        <ele>16.7</ele>
        <time>2022-03-22T14:57:38.926Z</time>
      </trkpt>
      <trkpt lat="50.46527" lon="3.45995">
        <ele>16.8</ele>
        <time>2022-03-22T14:57:40.000Z</time>
      </trkpt>
      <trkpt lat="50.4653" lon="3.46001">
        <ele>16.9</ele>
        <time>2022-03-22T14:57:41.164Z</time>
      </trkpt>
      <trkpt lat="50.46534" lon="3.46006">
        <ele>16.8</ele>
        <time>2022-03-22T14:57:42.264Z</time>
      </trkpt>
      <trkpt lat="50.46539" lon="3.46013">
        <ele>16.8</ele>
        <time>2022-03-22T14:57:43.946Z</time>
      </trkpt>
      <trkpt lat="50.46546" lon="3.46021">
        <ele>16.8</ele>
        <time>2022-03-22T14:57:46.000Z</time>
      </trkpt>
      <trkpt lat="50.46552" lon="3.4603">
        <ele>17</ele>
        <time>2022-03-22T14:57:47.969Z</time>
      </trkpt>
      <trkpt lat="50.46558" lon="3.46038">
        <ele>16.9</ele>
        <time>2022-03-22T14:57:50.000Z</time>
      </trkpt>
      <trkpt lat="50.46563" lon="3.46046">
        <ele>16.7</ele>
        <time>2022-03-22T14:57:52.000Z</time>
      </trkpt>
      <trkpt lat="50.46569" lon="3.46055">
        <ele>16.5</ele>
        <time>2022-03-22T14:57:54.128Z</time>
      </trkpt>
      <trkpt lat="50.46574" lon="3.46062">
        <ele>16.5</ele>
        <time>2022-03-22T14:57:55.787Z</time>
      </trkpt>
      <trkpt lat="50.4658" lon="3.4607">
        <ele>16.6</ele>
        <time>2022-03-22T14:57:58.000Z</time>
      </trkpt>
      <trkpt lat="50.46586" lon="3.46077">
        <ele>16.7</ele>
        <time>2022-03-22T14:58:00.000Z</time>
      </trkpt>
      <trkpt lat="50.46592" lon="3.46085">
        <ele>16.7</ele>
        <time>2022-03-22T14:58:01.988Z</time>
      </trkpt>
      <trkpt lat="50.46597" lon="3.46093">
        <ele>16.7</ele>
        <time>2022-03-22T14:58:04.066Z</time>
      </trkpt>
      <trkpt lat="50.46603" lon="3.46101">
        <ele>16.7</ele>
        <time>2022-03-22T14:58:06.000Z</time>
      </trkpt>
      <trkpt lat="50.46611" lon="3.4611">
        <ele>17</ele>
        <time>2022-03-22T14:58:08.767Z</time>
      </trkpt>
      <trkpt lat="50.46617" lon="3.46119">
        <ele>16.8</ele>
        <time>2022-03-22T14:58:10.949Z</time>
      </trkpt>
      <trkpt lat="50.46622" lon="3.46127">
        <ele>16.8</ele>
        <time>2022-03-22T14:58:13.000Z</time>
      </trkpt>
      <trkpt lat="50.46628" lon="3.46134">
        <ele>16.9</ele>
        <time>2022-03-22T14:58:15.000Z</time>
      </trkpt>
      <trkpt lat="50.46636" lon="3.46146">
        <ele>17</ele>
        <time>2022-03-22T14:58:18.000Z</time>
      </trkpt>
      <trkpt lat="50.46641" lon="3.46153">
        <ele>17</ele>
        <time>2022-03-22T14:58:20.000Z</time>
      </trkpt>
      <trkpt lat="50.46647" lon="3.46161">
        <ele>16.9</ele>
        <time>2022-03-22T14:58:22.150Z</time>
      </trkpt>
      <trkpt lat="50.46652" lon="3.46169">
        <ele>17</ele>
        <time>2022-03-22T14:58:24.000Z</time>
      </trkpt>
      <trkpt lat="50.46659" lon="3.46176">
        <ele>17</ele>
        <time>2022-03-22T14:58:26.000Z</time>
      </trkpt>
      <trkpt lat="50.46665" lon="3.46186">
        <ele>17</ele>
        <time>2022-03-22T14:58:28.366Z</time>
      </trkpt>
      <trkpt lat="50.46669" lon="3.46192">
        <ele>16.9</ele>
        <time>2022-03-22T14:58:29.823Z</time>
      </trkpt>
      <trkpt lat="50.46676" lon="3.46201">
        <ele>16.7</ele>
        <time>2022-03-22T14:58:32.000Z</time>
      </trkpt>
      <trkpt lat="50.46682" lon="3.46209">
        <ele>16.4</ele>
        <time>2022-03-22T14:58:34.000Z</time>
      </trkpt>
      <trkpt lat="50.46688" lon="3.46218">
        <ele>16.2</ele>
        <time>2022-03-22T14:58:36.000Z</time>
      </trkpt>
      <trkpt lat="50.46693" lon="3.46226">
        <ele>16.1</ele>
        <time>2022-03-22T14:58:37.746Z</time>
      </trkpt>
      <trkpt lat="50.46697" lon="3.46231">
        <ele>16</ele>
        <time>2022-03-22T14:58:39.028Z</time>
      </trkpt>
      <trkpt lat="50.46703" lon="3.4624">
        <ele>16</ele>
        <time>2022-03-22T14:58:40.986Z</time>
      </trkpt>
      <trkpt lat="50.46706" lon="3.46245">
        <ele>16</ele>
        <time>2022-03-22T14:58:42.136Z</time>
      </trkpt>
      <trkpt lat="50.46711" lon="3.46251">
        <ele>16</ele>
        <time>2022-03-22T14:58:43.626Z</time>
      </trkpt>
      <trkpt lat="50.46715" lon="3.46257">
        <ele>16</ele>
        <time>2022-03-22T14:58:44.867Z</time>
      </trkpt>
      <trkpt lat="50.46719" lon="3.46261">
        <ele>16</ele>
        <time>2022-03-22T14:58:46.104Z</time>
      </trkpt>
      <trkpt lat="50.46724" lon="3.46267">
        <ele>16.1</ele>
        <time>2022-03-22T14:58:47.784Z</time>
      </trkpt>
      <trkpt lat="50.4673" lon="3.46275">
        <ele>16.3</ele>
        <time>2022-03-22T14:58:50.000Z</time>
      </trkpt>
      <trkpt lat="50.46736" lon="3.46283">
        <ele>16.6</ele>
        <time>2022-03-22T14:58:52.168Z</time>
      </trkpt>
      <trkpt lat="50.46741" lon="3.46292">
        <ele>16.8</ele>
        <time>2022-03-22T14:58:53.963Z</time>
      </trkpt>
      <trkpt lat="50.46746" lon="3.463">
        <ele>17</ele>
        <time>2022-03-22T14:58:56.000Z</time>
      </trkpt>
      <trkpt lat="50.46752" lon="3.46308">
        <ele>16.9</ele>
        <time>2022-03-22T14:58:58.000Z</time>
      </trkpt>
      <trkpt lat="50.46758" lon="3.46317">
        <ele>16.8</ele>
        <time>2022-03-22T14:59:00.046Z</time>
      </trkpt>
      <trkpt lat="50.46764" lon="3.46325">
        <ele>16.8</ele>
        <time>2022-03-22T14:59:02.107Z</time>
      </trkpt>
      <trkpt lat="50.46771" lon="3.46332">
        <ele>17</ele>
        <time>2022-03-22T14:59:04.026Z</time>
      </trkpt>
      <trkpt lat="50.46778" lon="3.4634">
        <ele>17.2</ele>
        <time>2022-03-22T14:59:06.428Z</time>
      </trkpt>
      <trkpt lat="50.46784" lon="3.46348">
        <ele>17.4</ele>
        <time>2022-03-22T14:59:08.693Z</time>
      </trkpt>
      <trkpt lat="50.46788" lon="3.46353">
        <ele>17.4</ele>
        <time>2022-03-22T14:59:10.000Z</time>
      </trkpt>
      <trkpt lat="50.46795" lon="3.4636">
        <ele>17.4</ele>
        <time>2022-03-22T14:59:12.000Z</time>
      </trkpt>
      <trkpt lat="50.46801" lon="3.46366">
        <ele>17.3</ele>
        <time>2022-03-22T14:59:13.888Z</time>
      </trkpt>
      <trkpt lat="50.46805" lon="3.4637">
        <ele>17.3</ele>
        <time>2022-03-22T14:59:15.167Z</time>
      </trkpt>
      <trkpt lat="50.4681" lon="3.46375">
        <ele>17.4</ele>
        <time>2022-03-22T14:59:16.764Z</time>
      </trkpt>
      <trkpt lat="50.46814" lon="3.46379">
        <ele>17.4</ele>
        <time>2022-03-22T14:59:18.000Z</time>
      </trkpt>
      <trkpt lat="50.4682" lon="3.46385">
        <ele>17.4</ele>
        <time>2022-03-22T14:59:19.908Z</time>
      </trkpt>
      <trkpt lat="50.46826" lon="3.46392">
        <ele>17.2</ele>
        <time>2022-03-22T14:59:22.000Z</time>
      </trkpt>
      <trkpt lat="50.46832" lon="3.46398">
        <ele>17</ele>
        <time>2022-03-22T14:59:24.000Z</time>
      </trkpt>
      <trkpt lat="50.46839" lon="3.46404">
        <ele>17</ele>
        <time>2022-03-22T14:59:25.987Z</time>
      </trkpt>
      <trkpt lat="50.46845" lon="3.46409">
        <ele>17</ele>
        <time>2022-03-22T14:59:27.925Z</time>
      </trkpt>
      <trkpt lat="50.46852" lon="3.46416">
        <ele>17</ele>
        <time>2022-03-22T14:59:30.107Z</time>
      </trkpt>
      <trkpt lat="50.46859" lon="3.46422">
        <ele>17</ele>
        <time>2022-03-22T14:59:32.090Z</time>
      </trkpt>
      <trkpt lat="50.46866" lon="3.46427">
        <ele>17</ele>
        <time>2022-03-22T14:59:34.000Z</time>
      </trkpt>
      <trkpt lat="50.46872" lon="3.46434">
        <ele>17</ele>
        <time>2022-03-22T14:59:36.000Z</time>
      </trkpt>
      <trkpt lat="50.46879" lon="3.46439">
        <ele>17</ele>
        <time>2022-03-22T14:59:37.965Z</time>
      </trkpt>
      <trkpt lat="50.46886" lon="3.46446">
        <ele>17</ele>
        <time>2022-03-22T14:59:40.000Z</time>
      </trkpt>
      <trkpt lat="50.46894" lon="3.46455">
        <ele>17</ele>
        <time>2022-03-22T14:59:42.545Z</time>
      </trkpt>
      <trkpt lat="50.46899" lon="3.4646">
        <ele>17</ele>
        <time>2022-03-22T14:59:44.000Z</time>
      </trkpt>
      <trkpt lat="50.46904" lon="3.46465">
        <ele>17</ele>
        <time>2022-03-22T14:59:45.168Z</time>
      </trkpt>
      <trkpt lat="50.4691" lon="3.46472">
        <ele>17</ele>
        <time>2022-03-22T14:59:47.000Z</time>
      </trkpt>
      <trkpt lat="50.46918" lon="3.46479">
        <ele>17</ele>
        <time>2022-03-22T14:59:49.000Z</time>
      </trkpt>
      <trkpt lat="50.46925" lon="3.46486">
        <ele>16.8</ele>
        <time>2022-03-22T14:59:51.000Z</time>
      </trkpt>
      <trkpt lat="50.46931" lon="3.46493">
        <ele>16.9</ele>
        <time>2022-03-22T14:59:53.000Z</time>
      </trkpt>
      <trkpt lat="50.46939" lon="3.46499">
        <ele>17</ele>
        <time>2022-03-22T14:59:55.000Z</time>
      </trkpt>
      <trkpt lat="50.46946" lon="3.46507">
        <ele>17</ele>
        <time>2022-03-22T14:59:57.000Z</time>
      </trkpt>
      <trkpt lat="50.46953" lon="3.46513">
        <ele>16.8</ele>
        <time>2022-03-22T14:59:58.926Z</time>
      </trkpt>
      <trkpt lat="50.4696" lon="3.46521">
        <ele>16.9</ele>
        <time>2022-03-22T15:00:01.068Z</time>
      </trkpt>
      <trkpt lat="50.46967" lon="3.46527">
        <ele>17</ele>
        <time>2022-03-22T15:00:03.000Z</time>
      </trkpt>
      <trkpt lat="50.46971" lon="3.46531">
        <ele>17</ele>
        <time>2022-03-22T15:00:04.163Z</time>
      </trkpt>
      <trkpt lat="50.46978" lon="3.46538">
        <ele>17</ele>
        <time>2022-03-22T15:00:05.887Z</time>
      </trkpt>
      <trkpt lat="50.46982" lon="3.46542">
        <ele>17</ele>
        <time>2022-03-22T15:00:07.000Z</time>
      </trkpt>
      <trkpt lat="50.46988" lon="3.4655">
        <ele>17</ele>
        <time>2022-03-22T15:00:08.965Z</time>
      </trkpt>
      <trkpt lat="50.46996" lon="3.46557">
        <ele>17</ele>
        <time>2022-03-22T15:00:11.023Z</time>
      </trkpt>
      <trkpt lat="50.47003" lon="3.46565">
        <ele>17.2</ele>
        <time>2022-03-22T15:00:13.085Z</time>
      </trkpt>
      <trkpt lat="50.47007" lon="3.46569">
        <ele>17.5</ele>
        <time>2022-03-22T15:00:14.067Z</time>
      </trkpt>
      <trkpt lat="50.47014" lon="3.46577">
        <ele>18</ele>
        <time>2022-03-22T15:00:16.000Z</time>
      </trkpt>
      <trkpt lat="50.47018" lon="3.46589">
        <ele>18</ele>
        <time>2022-03-22T15:00:18.148Z</time>
      </trkpt>
      <trkpt lat="50.47022" lon="3.46594">
        <ele>18</ele>
        <time>2022-03-22T15:00:19.484Z</time>
      </trkpt>
      <trkpt lat="50.4703" lon="3.46598">
        <ele>17.9</ele>
        <time>2022-03-22T15:00:21.884Z</time>
      </trkpt>
      <trkpt lat="50.47036" lon="3.46601">
        <ele>17.5</ele>
        <time>2022-03-22T15:00:23.904Z</time>
      </trkpt>
      <trkpt lat="50.47041" lon="3.46607">
        <ele>17.2</ele>
        <time>2022-03-22T15:00:26.000Z</time>
      </trkpt>
      <trkpt lat="50.47047" lon="3.46614">
        <ele>17</ele>
        <time>2022-03-22T15:00:28.000Z</time>
      </trkpt>
      <trkpt lat="50.47054" lon="3.46619">
        <ele>17</ele>
        <time>2022-03-22T15:00:30.000Z</time>
      </trkpt>
      <trkpt lat="50.47062" lon="3.46626">
        <ele>17</ele>
        <time>2022-03-22T15:00:32.143Z</time>
      </trkpt>
      <trkpt lat="50.47069" lon="3.46633">
        <ele>17</ele>
        <time>2022-03-22T15:00:34.000Z</time>
      </trkpt>
      <trkpt lat="50.47076" lon="3.46639">
        <ele>17</ele>
        <time>2022-03-22T15:00:35.986Z</time>
      </trkpt>
      <trkpt lat="50.47083" lon="3.46644">
        <ele>17</ele>
        <time>2022-03-22T15:00:37.904Z</time>
      </trkpt>
      <trkpt lat="50.4709" lon="3.46649">
        <ele>16.8</ele>
        <time>2022-03-22T15:00:40.000Z</time>
      </trkpt>
      <trkpt lat="50.47096" lon="3.46655">
        <ele>16.8</ele>
        <time>2022-03-22T15:00:42.087Z</time>
      </trkpt>
      <trkpt lat="50.47104" lon="3.46662">
        <ele>16.9</ele>
        <time>2022-03-22T15:00:44.000Z</time>
      </trkpt>
      <trkpt lat="50.47108" lon="3.46665">
        <ele>16.9</ele>
        <time>2022-03-22T15:00:45.000Z</time>
      </trkpt>
      <trkpt lat="50.47116" lon="3.4667">
        <ele>17</ele>
        <time>2022-03-22T15:00:47.000Z</time>
      </trkpt>
      <trkpt lat="50.4712" lon="3.46671">
        <ele>17</ele>
        <time>2022-03-22T15:00:48.106Z</time>
      </trkpt>
      <trkpt lat="50.47125" lon="3.46673">
        <ele>17</ele>
        <time>2022-03-22T15:00:49.144Z</time>
      </trkpt>
      <trkpt lat="50.47134" lon="3.46675">
        <ele>17</ele>
        <time>2022-03-22T15:00:51.189Z</time>
      </trkpt>
      <trkpt lat="50.47141" lon="3.46675">
        <ele>17</ele>
        <time>2022-03-22T15:00:53.048Z</time>
      </trkpt>
      <trkpt lat="50.47149" lon="3.46675">
        <ele>17</ele>
        <time>2022-03-22T15:00:55.000Z</time>
      </trkpt>
      <trkpt lat="50.47156" lon="3.46674">
        <ele>17</ele>
        <time>2022-03-22T15:00:57.086Z</time>
      </trkpt>
      <trkpt lat="50.47164" lon="3.46672">
        <ele>17</ele>
        <time>2022-03-22T15:00:59.000Z</time>
      </trkpt>
      <trkpt lat="50.47172" lon="3.46669">
        <ele>17</ele>
        <time>2022-03-22T15:01:01.000Z</time>
      </trkpt>
      <trkpt lat="50.4718" lon="3.46665">
        <ele>17</ele>
        <time>2022-03-22T15:01:03.000Z</time>
      </trkpt>
      <trkpt lat="50.47188" lon="3.46661">
        <ele>17</ele>
        <time>2022-03-22T15:01:05.000Z</time>
      </trkpt>
      <trkpt lat="50.47197" lon="3.46655">
        <ele>17</ele>
        <time>2022-03-22T15:01:07.463Z</time>
      </trkpt>
      <trkpt lat="50.47203" lon="3.46652">
        <ele>17</ele>
        <time>2022-03-22T15:01:08.987Z</time>
      </trkpt>
      <trkpt lat="50.47207" lon="3.4665">
        <ele>17</ele>
        <time>2022-03-22T15:01:10.124Z</time>
      </trkpt>
      <trkpt lat="50.47215" lon="3.46645">
        <ele>17</ele>
        <time>2022-03-22T15:01:12.000Z</time>
      </trkpt>
      <trkpt lat="50.4722" lon="3.46642">
        <ele>17</ele>
        <time>2022-03-22T15:01:13.187Z</time>
      </trkpt>
      <trkpt lat="50.47226" lon="3.46638">
        <ele>17</ele>
        <time>2022-03-22T15:01:15.000Z</time>
      </trkpt>
      <trkpt lat="50.47234" lon="3.46633">
        <ele>17</ele>
        <time>2022-03-22T15:01:17.000Z</time>
      </trkpt>
      <trkpt lat="50.47242" lon="3.46629">
        <ele>17</ele>
        <time>2022-03-22T15:01:19.000Z</time>
      </trkpt>
      <trkpt lat="50.4725" lon="3.46625">
        <ele>17</ele>
        <time>2022-03-22T15:01:21.000Z</time>
      </trkpt>
      <trkpt lat="50.47258" lon="3.4662">
        <ele>17</ele>
        <time>2022-03-22T15:01:23.000Z</time>
      </trkpt>
      <trkpt lat="50.47271" lon="3.46613">
        <ele>17</ele>
        <time>2022-03-22T15:01:26.187Z</time>
      </trkpt>
      <trkpt lat="50.47276" lon="3.46609">
        <ele>16.9</ele>
        <time>2022-03-22T15:01:27.347Z</time>
      </trkpt>
      <trkpt lat="50.47281" lon="3.46605">
        <ele>16.8</ele>
        <time>2022-03-22T15:01:28.684Z</time>
      </trkpt>
      <trkpt lat="50.47286" lon="3.46603">
        <ele>16.8</ele>
        <time>2022-03-22T15:01:29.905Z</time>
      </trkpt>
      <trkpt lat="50.4729" lon="3.46602">
        <ele>16.8</ele>
        <time>2022-03-22T15:01:31.000Z</time>
      </trkpt>
      <trkpt lat="50.47298" lon="3.46597">
        <ele>16.9</ele>
        <time>2022-03-22T15:01:32.974Z</time>
      </trkpt>
      <trkpt lat="50.47305" lon="3.46593">
        <ele>17</ele>
        <time>2022-03-22T15:01:35.000Z</time>
      </trkpt>
      <trkpt lat="50.47317" lon="3.46586">
        <ele>17</ele>
        <time>2022-03-22T15:01:38.000Z</time>
      </trkpt>
      <trkpt lat="50.47325" lon="3.4658">
        <ele>17</ele>
        <time>2022-03-22T15:01:40.166Z</time>
      </trkpt>
      <trkpt lat="50.47333" lon="3.46575">
        <ele>17</ele>
        <time>2022-03-22T15:01:42.146Z</time>
      </trkpt>
      <trkpt lat="50.47339" lon="3.46571">
        <ele>17</ele>
        <time>2022-03-22T15:01:43.653Z</time>
      </trkpt>
      <trkpt lat="50.47344" lon="3.46568">
        <ele>17</ele>
        <time>2022-03-22T15:01:44.946Z</time>
      </trkpt>
      <trkpt lat="50.47351" lon="3.46563">
        <ele>17</ele>
        <time>2022-03-22T15:01:47.000Z</time>
      </trkpt>
      <trkpt lat="50.47358" lon="3.46557">
        <ele>17</ele>
        <time>2022-03-22T15:01:49.000Z</time>
      </trkpt>
      <trkpt lat="50.47365" lon="3.46552">
        <ele>16.9</ele>
        <time>2022-03-22T15:01:51.000Z</time>
      </trkpt>
      <trkpt lat="50.4737" lon="3.46549">
        <ele>16.8</ele>
        <time>2022-03-22T15:01:52.246Z</time>
      </trkpt>
      <trkpt lat="50.47376" lon="3.46545">
        <ele>16.6</ele>
        <time>2022-03-22T15:01:53.850Z</time>
      </trkpt>
      <trkpt lat="50.47383" lon="3.46541">
        <ele>16.5</ele>
        <time>2022-03-22T15:01:56.000Z</time>
      </trkpt>
      <trkpt lat="50.4739" lon="3.46536">
        <ele>16.3</ele>
        <time>2022-03-22T15:01:57.904Z</time>
      </trkpt>
      <trkpt lat="50.47394" lon="3.46533">
        <ele>16.3</ele>
        <time>2022-03-22T15:01:59.000Z</time>
      </trkpt>
      <trkpt lat="50.47401" lon="3.46527">
        <ele>16.4</ele>
        <time>2022-03-22T15:02:01.000Z</time>
      </trkpt>
      <trkpt lat="50.47408" lon="3.46522">
        <ele>16.5</ele>
        <time>2022-03-22T15:02:03.000Z</time>
      </trkpt>
      <trkpt lat="50.47415" lon="3.46517">
        <ele>16.6</ele>
        <time>2022-03-22T15:02:04.966Z</time>
      </trkpt>
      <trkpt lat="50.47419" lon="3.46514">
        <ele>16.5</ele>
        <time>2022-03-22T15:02:06.086Z</time>
      </trkpt>
      <trkpt lat="50.47427" lon="3.4651">
        <ele>16.6</ele>
        <time>2022-03-22T15:02:08.000Z</time>
      </trkpt>
      <trkpt lat="50.47434" lon="3.46504">
        <ele>16.7</ele>
        <time>2022-03-22T15:02:10.000Z</time>
      </trkpt>
      <trkpt lat="50.47441" lon="3.46499">
        <ele>16.8</ele>
        <time>2022-03-22T15:02:12.000Z</time>
      </trkpt>
      <trkpt lat="50.47448" lon="3.46494">
        <ele>16.8</ele>
        <time>2022-03-22T15:02:14.000Z</time>
      </trkpt>
      <trkpt lat="50.47455" lon="3.46489">
        <ele>16.8</ele>
        <time>2022-03-22T15:02:15.926Z</time>
      </trkpt>
      <trkpt lat="50.47459" lon="3.46487">
        <ele>16.8</ele>
        <time>2022-03-22T15:02:17.000Z</time>
      </trkpt>
      <trkpt lat="50.47467" lon="3.46482">
        <ele>16.9</ele>
        <time>2022-03-22T15:02:19.024Z</time>
      </trkpt>
      <trkpt lat="50.47474" lon="3.46478">
        <ele>16.9</ele>
        <time>2022-03-22T15:02:21.000Z</time>
      </trkpt>
      <trkpt lat="50.47482" lon="3.46475">
        <ele>16.7</ele>
        <time>2022-03-22T15:02:23.000Z</time>
      </trkpt>
      <trkpt lat="50.4749" lon="3.46473">
        <ele>16.4</ele>
        <time>2022-03-22T15:02:25.000Z</time>
      </trkpt>
      <trkpt lat="50.47499" lon="3.4647">
        <ele>16</ele>
        <time>2022-03-22T15:02:27.106Z</time>
      </trkpt>
      <trkpt lat="50.47507" lon="3.46469">
        <ele>16</ele>
        <time>2022-03-22T15:02:28.903Z</time>
      </trkpt>
      <trkpt lat="50.47515" lon="3.46468">
        <ele>16</ele>
        <time>2022-03-22T15:02:31.111Z</time>
      </trkpt>
      <trkpt lat="50.47521" lon="3.46468">
        <ele>16</ele>
        <time>2022-03-22T15:02:32.367Z</time>
      </trkpt>
      <trkpt lat="50.47526" lon="3.46468">
        <ele>16</ele>
        <time>2022-03-22T15:02:33.843Z</time>
      </trkpt>
      <trkpt lat="50.47531" lon="3.46468">
        <ele>16.1</ele>
        <time>2022-03-22T15:02:35.000Z</time>
      </trkpt>
      <trkpt lat="50.4754" lon="3.46467">
        <ele>16.4</ele>
        <time>2022-03-22T15:02:37.000Z</time>
      </trkpt>
      <trkpt lat="50.47547" lon="3.46466">
        <ele>16.5</ele>
        <time>2022-03-22T15:02:38.903Z</time>
      </trkpt>
      <trkpt lat="50.47557" lon="3.46465">
        <ele>16.7</ele>
        <time>2022-03-22T15:02:41.344Z</time>
      </trkpt>
      <trkpt lat="50.47562" lon="3.46464">
        <ele>16.7</ele>
        <time>2022-03-22T15:02:42.525Z</time>
      </trkpt>
      <trkpt lat="50.47568" lon="3.46463">
        <ele>16.7</ele>
        <time>2022-03-22T15:02:44.067Z</time>
      </trkpt>
      <trkpt lat="50.47576" lon="3.46464">
        <ele>16.7</ele>
        <time>2022-03-22T15:02:46.000Z</time>
      </trkpt>
      <trkpt lat="50.47586" lon="3.46462">
        <ele>16.6</ele>
        <time>2022-03-22T15:02:48.544Z</time>
      </trkpt>
      <trkpt lat="50.47592" lon="3.46461">
        <ele>16.6</ele>
        <time>2022-03-22T15:02:50.085Z</time>
      </trkpt>
      <trkpt lat="50.47599" lon="3.46461">
        <ele>16.6</ele>
        <time>2022-03-22T15:02:52.000Z</time>
      </trkpt>
      <trkpt lat="50.47608" lon="3.46459">
        <ele>16.5</ele>
        <time>2022-03-22T15:02:54.107Z</time>
      </trkpt>
      <trkpt lat="50.47616" lon="3.46458">
        <ele>16.6</ele>
        <time>2022-03-22T15:02:56.000Z</time>
      </trkpt>
      <trkpt lat="50.47623" lon="3.46456">
        <ele>16.7</ele>
        <time>2022-03-22T15:02:57.945Z</time>
      </trkpt>
      <trkpt lat="50.47631" lon="3.46456">
        <ele>16.8</ele>
        <time>2022-03-22T15:03:00.006Z</time>
      </trkpt>
      <trkpt lat="50.47639" lon="3.46453">
        <ele>17</ele>
        <time>2022-03-22T15:03:02.000Z</time>
      </trkpt>
      <trkpt lat="50.47646" lon="3.46452">
        <ele>16.8</ele>
        <time>2022-03-22T15:03:04.000Z</time>
      </trkpt>
      <trkpt lat="50.47655" lon="3.4645">
        <ele>16.5</ele>
        <time>2022-03-22T15:03:06.000Z</time>
      </trkpt>
      <trkpt lat="50.47663" lon="3.46448">
        <ele>16.2</ele>
        <time>2022-03-22T15:03:08.000Z</time>
      </trkpt>
      <trkpt lat="50.47671" lon="3.46445">
        <ele>16.2</ele>
        <time>2022-03-22T15:03:10.000Z</time>
      </trkpt>
      <trkpt lat="50.47679" lon="3.46443">
        <ele>16.4</ele>
        <time>2022-03-22T15:03:12.000Z</time>
      </trkpt>
      <trkpt lat="50.47687" lon="3.46441">
        <ele>16.6</ele>
        <time>2022-03-22T15:03:14.004Z</time>
      </trkpt>
      <trkpt lat="50.47696" lon="3.46439">
        <ele>16.8</ele>
        <time>2022-03-22T15:03:16.128Z</time>
      </trkpt>
      <trkpt lat="50.47704" lon="3.46436">
        <ele>16.7</ele>
        <time>2022-03-22T15:03:18.000Z</time>
      </trkpt>
      <trkpt lat="50.47711" lon="3.46434">
        <ele>16.6</ele>
        <time>2022-03-22T15:03:20.000Z</time>
      </trkpt>
      <trkpt lat="50.47719" lon="3.46432">
        <ele>16.6</ele>
        <time>2022-03-22T15:03:22.000Z</time>
      </trkpt>
      <trkpt lat="50.47727" lon="3.46431">
        <ele>16.5</ele>
        <time>2022-03-22T15:03:24.000Z</time>
      </trkpt>
      <trkpt lat="50.47735" lon="3.46429">
        <ele>16.4</ele>
        <time>2022-03-22T15:03:26.000Z</time>
      </trkpt>
      <trkpt lat="50.47741" lon="3.46428">
        <ele>16.4</ele>
        <time>2022-03-22T15:03:27.647Z</time>
      </trkpt>
      <trkpt lat="50.47746" lon="3.46427">
        <ele>16.4</ele>
        <time>2022-03-22T15:03:28.965Z</time>
      </trkpt>
      <trkpt lat="50.47753" lon="3.46424">
        <ele>16.3</ele>
        <time>2022-03-22T15:03:30.947Z</time>
      </trkpt>
      <trkpt lat="50.47762" lon="3.46421">
        <ele>16.5</ele>
        <time>2022-03-22T15:03:33.187Z</time>
      </trkpt>
      <trkpt lat="50.47766" lon="3.46419">
        <ele>16.6</ele>
        <time>2022-03-22T15:03:34.126Z</time>
      </trkpt>
      <trkpt lat="50.47773" lon="3.46414">
        <ele>16.7</ele>
        <time>2022-03-22T15:03:35.986Z</time>
      </trkpt>
      <trkpt lat="50.47782" lon="3.4641">
        <ele>16.8</ele>
        <time>2022-03-22T15:03:38.346Z</time>
      </trkpt>
      <trkpt lat="50.47788" lon="3.46405">
        <ele>16.6</ele>
        <time>2022-03-22T15:03:40.027Z</time>
      </trkpt>
      <trkpt lat="50.47795" lon="3.46401">
        <ele>16.4</ele>
        <time>2022-03-22T15:03:41.988Z</time>
      </trkpt>
      <trkpt lat="50.47799" lon="3.46397">
        <ele>16.3</ele>
        <time>2022-03-22T15:03:43.085Z</time>
      </trkpt>
      <trkpt lat="50.47806" lon="3.46392">
        <ele>16.1</ele>
        <time>2022-03-22T15:03:45.043Z</time>
      </trkpt>
      <trkpt lat="50.47812" lon="3.46387">
        <ele>16.2</ele>
        <time>2022-03-22T15:03:46.724Z</time>
      </trkpt>
      <trkpt lat="50.47816" lon="3.46383">
        <ele>16.2</ele>
        <time>2022-03-22T15:03:48.000Z</time>
      </trkpt>
      <trkpt lat="50.47826" lon="3.46372">
        <ele>16.1</ele>
        <time>2022-03-22T15:03:51.000Z</time>
      </trkpt>
      <trkpt lat="50.47836" lon="3.46362">
        <ele>16.1</ele>
        <time>2022-03-22T15:03:54.000Z</time>
      </trkpt>
      <trkpt lat="50.47843" lon="3.46355">
        <ele>16.3</ele>
        <time>2022-03-22T15:03:56.048Z</time>
      </trkpt>
      <trkpt lat="50.4785" lon="3.46349">
        <ele>16.3</ele>
        <time>2022-03-22T15:03:58.000Z</time>
      </trkpt>
      <trkpt lat="50.47857" lon="3.46343">
        <ele>16.3</ele>
        <time>2022-03-22T15:03:59.983Z</time>
      </trkpt>
      <trkpt lat="50.47863" lon="3.46336">
        <ele>16.2</ele>
        <time>2022-03-22T15:04:02.005Z</time>
      </trkpt>
      <trkpt lat="50.4787" lon="3.4633">
        <ele>16.2</ele>
        <time>2022-03-22T15:04:03.945Z</time>
      </trkpt>
      <trkpt lat="50.47877" lon="3.46325">
        <ele>16.3</ele>
        <time>2022-03-22T15:04:06.000Z</time>
      </trkpt>
      <trkpt lat="50.47885" lon="3.4632">
        <ele>16.4</ele>
        <time>2022-03-22T15:04:08.027Z</time>
      </trkpt>
      <trkpt lat="50.47891" lon="3.46313">
        <ele>16.3</ele>
        <time>2022-03-22T15:04:10.000Z</time>
      </trkpt>
      <trkpt lat="50.47898" lon="3.46308">
        <ele>16.4</ele>
        <time>2022-03-22T15:04:12.000Z</time>
      </trkpt>
      <trkpt lat="50.47905" lon="3.46302">
        <ele>16.5</ele>
        <time>2022-03-22T15:04:13.966Z</time>
      </trkpt>
      <trkpt lat="50.47913" lon="3.46296">
        <ele>16.6</ele>
        <time>2022-03-22T15:04:16.000Z</time>
      </trkpt>
      <trkpt lat="50.4792" lon="3.46289">
        <ele>16.5</ele>
        <time>2022-03-22T15:04:18.000Z</time>
      </trkpt>
      <trkpt lat="50.47925" lon="3.46285">
        <ele>16.5</ele>
        <time>2022-03-22T15:04:19.164Z</time>
      </trkpt>
      <trkpt lat="50.47932" lon="3.46279">
        <ele>16.6</ele>
        <time>2022-03-22T15:04:20.945Z</time>
      </trkpt>
      <trkpt lat="50.47942" lon="3.46273">
        <ele>16.8</ele>
        <time>2022-03-22T15:04:23.523Z</time>
      </trkpt>
      <trkpt lat="50.47947" lon="3.46269">
        <ele>16.7</ele>
        <time>2022-03-22T15:04:25.000Z</time>
      </trkpt>
      <trkpt lat="50.47956" lon="3.46266">
        <ele>16.6</ele>
        <time>2022-03-22T15:04:27.000Z</time>
      </trkpt>
      <trkpt lat="50.47964" lon="3.46264">
        <ele>16.5</ele>
        <time>2022-03-22T15:04:29.000Z</time>
      </trkpt>
      <trkpt lat="50.47972" lon="3.46263">
        <ele>16.5</ele>
        <time>2022-03-22T15:04:31.000Z</time>
      </trkpt>
      <trkpt lat="50.4798" lon="3.46262">
        <ele>16.4</ele>
        <time>2022-03-22T15:04:33.000Z</time>
      </trkpt>
      <trkpt lat="50.47989" lon="3.46263">
        <ele>16.5</ele>
        <time>2022-03-22T15:04:35.090Z</time>
      </trkpt>
      <trkpt lat="50.47997" lon="3.46265">
        <ele>16.5</ele>
        <time>2022-03-22T15:04:37.000Z</time>
      </trkpt>
      <trkpt lat="50.48005" lon="3.46268">
        <ele>16.6</ele>
        <time>2022-03-22T15:04:39.046Z</time>
      </trkpt>
      <trkpt lat="50.48015" lon="3.46271">
        <ele>16.8</ele>
        <time>2022-03-22T15:04:41.345Z</time>
      </trkpt>
      <trkpt lat="50.48025" lon="3.46276">
        <ele>16.9</ele>
        <time>2022-03-22T15:04:44.000Z</time>
      </trkpt>
      <trkpt lat="50.48032" lon="3.4628">
        <ele>16.9</ele>
        <time>2022-03-22T15:04:46.000Z</time>
      </trkpt>
      <trkpt lat="50.48041" lon="3.46284">
        <ele>16.6</ele>
        <time>2022-03-22T15:04:48.426Z</time>
      </trkpt>
      <trkpt lat="50.48046" lon="3.46286">
        <ele>16.5</ele>
        <time>2022-03-22T15:04:50.024Z</time>
      </trkpt>
      <trkpt lat="50.48054" lon="3.46289">
        <ele>16.4</ele>
        <time>2022-03-22T15:04:52.000Z</time>
      </trkpt>
      <trkpt lat="50.48061" lon="3.46293">
        <ele>16.5</ele>
        <time>2022-03-22T15:04:54.000Z</time>
      </trkpt>
      <trkpt lat="50.48069" lon="3.46296">
        <ele>16.7</ele>
        <time>2022-03-22T15:04:56.000Z</time>
      </trkpt>
      <trkpt lat="50.48077" lon="3.46303">
        <ele>16.9</ele>
        <time>2022-03-22T15:04:58.000Z</time>
      </trkpt>
      <trkpt lat="50.48085" lon="3.46308">
        <ele>17</ele>
        <time>2022-03-22T15:05:00.000Z</time>
      </trkpt>
      <trkpt lat="50.48092" lon="3.46312">
        <ele>17</ele>
        <time>2022-03-22T15:05:01.928Z</time>
      </trkpt>
      <trkpt lat="50.48096" lon="3.46316">
        <ele>17</ele>
        <time>2022-03-22T15:05:03.000Z</time>
      </trkpt>
      <trkpt lat="50.48105" lon="3.4632">
        <ele>17</ele>
        <time>2022-03-22T15:05:05.000Z</time>
      </trkpt>
      <trkpt lat="50.48112" lon="3.46325">
        <ele>17</ele>
        <time>2022-03-22T15:05:07.000Z</time>
      </trkpt>
      <trkpt lat="50.4812" lon="3.46328">
        <ele>16.9</ele>
        <time>2022-03-22T15:05:09.000Z</time>
      </trkpt>
      <trkpt lat="50.48127" lon="3.4633">
        <ele>16.9</ele>
        <time>2022-03-22T15:05:10.967Z</time>
      </trkpt>
      <trkpt lat="50.48136" lon="3.46331">
        <ele>16.9</ele>
        <time>2022-03-22T15:05:13.000Z</time>
      </trkpt>
      <trkpt lat="50.48145" lon="3.46331">
        <ele>16.9</ele>
        <time>2022-03-22T15:05:15.000Z</time>
      </trkpt>
      <trkpt lat="50.48156" lon="3.46328">
        <ele>16.8</ele>
        <time>2022-03-22T15:05:17.000Z</time>
      </trkpt>
      <trkpt lat="50.48169" lon="3.46324">
        <ele>16.7</ele>
        <time>2022-03-22T15:05:19.970Z</time>
      </trkpt>
      <trkpt lat="50.48173" lon="3.46323">
        <ele>16.6</ele>
        <time>2022-03-22T15:05:21.030Z</time>
      </trkpt>
      <trkpt lat="50.48182" lon="3.4632">
        <ele>16.5</ele>
        <time>2022-03-22T15:05:23.000Z</time>
      </trkpt>
      <trkpt lat="50.48186" lon="3.46319">
        <ele>16.5</ele>
        <time>2022-03-22T15:05:24.000Z</time>
      </trkpt>
      <trkpt lat="50.48191" lon="3.46318">
        <ele>16.4</ele>
        <time>2022-03-22T15:05:25.000Z</time>
      </trkpt>
      <trkpt lat="50.482" lon="3.46316">
        <ele>16.4</ele>
        <time>2022-03-22T15:05:27.000Z</time>
      </trkpt>
      <trkpt lat="50.48205" lon="3.46315">
        <ele>16.3</ele>
        <time>2022-03-22T15:05:28.000Z</time>
      </trkpt>
      <trkpt lat="50.4821" lon="3.46314">
        <ele>16.3</ele>
        <time>2022-03-22T15:05:29.000Z</time>
      </trkpt>
      <trkpt lat="50.48214" lon="3.46312">
        <ele>16.2</ele>
        <time>2022-03-22T15:05:30.000Z</time>
      </trkpt>
      <trkpt lat="50.48219" lon="3.46312">
        <ele>16.2</ele>
        <time>2022-03-22T15:05:31.000Z</time>
      </trkpt>
      <trkpt lat="50.48224" lon="3.46311">
        <ele>16.2</ele>
        <time>2022-03-22T15:05:32.000Z</time>
      </trkpt>
      <trkpt lat="50.48233" lon="3.46309">
        <ele>16.5</ele>
        <time>2022-03-22T15:05:34.000Z</time>
      </trkpt>
      <trkpt lat="50.48237" lon="3.46307">
        <ele>16.6</ele>
        <time>2022-03-22T15:05:35.000Z</time>
      </trkpt>
      <trkpt lat="50.48245" lon="3.46307">
        <ele>16.8</ele>
        <time>2022-03-22T15:05:37.000Z</time>
      </trkpt>
      <trkpt lat="50.48253" lon="3.46303">
        <ele>16.9</ele>
        <time>2022-03-22T15:05:39.000Z</time>
      </trkpt>
      <trkpt lat="50.48261" lon="3.46299">
        <ele>16.9</ele>
        <time>2022-03-22T15:05:41.001Z</time>
      </trkpt>
      <trkpt lat="50.48266" lon="3.46299">
        <ele>16.9</ele>
        <time>2022-03-22T15:05:42.158Z</time>
      </trkpt>
      <trkpt lat="50.48273" lon="3.46297">
        <ele>16.9</ele>
        <time>2022-03-22T15:05:43.860Z</time>
      </trkpt>
      <trkpt lat="50.48277" lon="3.46295">
        <ele>17</ele>
        <time>2022-03-22T15:05:45.000Z</time>
      </trkpt>
      <trkpt lat="50.48285" lon="3.46292">
        <ele>16.7</ele>
        <time>2022-03-22T15:05:46.960Z</time>
      </trkpt>
      <trkpt lat="50.4829" lon="3.4629">
        <ele>16.6</ele>
        <time>2022-03-22T15:05:48.000Z</time>
      </trkpt>
      <trkpt lat="50.48295" lon="3.46288">
        <ele>16.4</ele>
        <time>2022-03-22T15:05:49.424Z</time>
      </trkpt>
      <trkpt lat="50.48301" lon="3.46286">
        <ele>16.2</ele>
        <time>2022-03-22T15:05:50.921Z</time>
      </trkpt>
      <trkpt lat="50.48306" lon="3.46284">
        <ele>16</ele>
        <time>2022-03-22T15:05:52.000Z</time>
      </trkpt>
      <trkpt lat="50.48311" lon="3.46282">
        <ele>16</ele>
        <time>2022-03-22T15:05:53.000Z</time>
      </trkpt>
      <trkpt lat="50.48319" lon="3.46279">
        <ele>16</ele>
        <time>2022-03-22T15:05:54.992Z</time>
      </trkpt>
      <trkpt lat="50.48325" lon="3.46277">
        <ele>16</ele>
        <time>2022-03-22T15:05:56.000Z</time>
      </trkpt>
      <trkpt lat="50.4833" lon="3.46275">
        <ele>16.1</ele>
        <time>2022-03-22T15:05:57.000Z</time>
      </trkpt>
      <trkpt lat="50.48338" lon="3.46272">
        <ele>16.2</ele>
        <time>2022-03-22T15:05:59.000Z</time>
      </trkpt>
      <trkpt lat="50.48343" lon="3.4627">
        <ele>16.2</ele>
        <time>2022-03-22T15:06:00.000Z</time>
      </trkpt>
      <trkpt lat="50.48348" lon="3.46268">
        <ele>16.2</ele>
        <time>2022-03-22T15:06:01.000Z</time>
      </trkpt>
      <trkpt lat="50.48352" lon="3.46267">
        <ele>16.1</ele>
        <time>2022-03-22T15:06:02.000Z</time>
      </trkpt>
      <trkpt lat="50.48357" lon="3.46265">
        <ele>16.1</ele>
        <time>2022-03-22T15:06:03.000Z</time>
      </trkpt>
      <trkpt lat="50.48364" lon="3.4626">
        <ele>16</ele>
        <time>2022-03-22T15:06:05.040Z</time>
      </trkpt>
      <trkpt lat="50.48371" lon="3.46257">
        <ele>16.1</ele>
        <time>2022-03-22T15:06:07.000Z</time>
      </trkpt>
      <trkpt lat="50.48376" lon="3.46251">
        <ele>16</ele>
        <time>2022-03-22T15:06:09.141Z</time>
      </trkpt>
      <trkpt lat="50.4838" lon="3.46241">
        <ele>16.1</ele>
        <time>2022-03-22T15:06:11.000Z</time>
      </trkpt>
      <trkpt lat="50.48382" lon="3.46229">
        <ele>16.2</ele>
        <time>2022-03-22T15:06:13.000Z</time>
      </trkpt>
      <trkpt lat="50.48386" lon="3.46216">
        <ele>16.3</ele>
        <time>2022-03-22T15:06:15.496Z</time>
      </trkpt>
      <trkpt lat="50.48388" lon="3.46209">
        <ele>16.5</ele>
        <time>2022-03-22T15:06:16.678Z</time>
      </trkpt>
      <trkpt lat="50.48396" lon="3.46207">
        <ele>16.7</ele>
        <time>2022-03-22T15:06:18.996Z</time>
      </trkpt>
      <trkpt lat="50.48403" lon="3.46213">
        <ele>16.7</ele>
        <time>2022-03-22T15:06:21.081Z</time>
      </trkpt>
      <trkpt lat="50.48408" lon="3.4622">
        <ele>16.7</ele>
        <time>2022-03-22T15:06:22.919Z</time>
      </trkpt>
      <trkpt lat="50.48411" lon="3.46233">
        <ele>16.8</ele>
        <time>2022-03-22T15:06:25.623Z</time>
      </trkpt>
      <trkpt lat="50.48417" lon="3.46242">
        <ele>17</ele>
        <time>2022-03-22T15:06:28.000Z</time>
      </trkpt>
      <trkpt lat="50.48425" lon="3.46238">
        <ele>17</ele>
        <time>2022-03-22T15:06:30.058Z</time>
      </trkpt>
      <trkpt lat="50.48432" lon="3.46234">
        <ele>17</ele>
        <time>2022-03-22T15:06:31.942Z</time>
      </trkpt>
      <trkpt lat="50.48439" lon="3.46229">
        <ele>17</ele>
        <time>2022-03-22T15:06:33.920Z</time>
      </trkpt>
      <trkpt lat="50.48446" lon="3.46222">
        <ele>17</ele>
        <time>2022-03-22T15:06:36.000Z</time>
      </trkpt>
      <trkpt lat="50.48456" lon="3.46213">
        <ele>17</ele>
        <time>2022-03-22T15:06:38.898Z</time>
      </trkpt>
      <trkpt lat="50.48463" lon="3.46206">
        <ele>17</ele>
        <time>2022-03-22T15:06:41.000Z</time>
      </trkpt>
      <trkpt lat="50.48468" lon="3.46202">
        <ele>17</ele>
        <time>2022-03-22T15:06:42.239Z</time>
      </trkpt>
      <trkpt lat="50.48472" lon="3.46196">
        <ele>17</ele>
        <time>2022-03-22T15:06:43.622Z</time>
      </trkpt>
      <trkpt lat="50.48477" lon="3.46192">
        <ele>16.9</ele>
        <time>2022-03-22T15:06:44.880Z</time>
      </trkpt>
      <trkpt lat="50.48483" lon="3.46185">
        <ele>16.7</ele>
        <time>2022-03-22T15:06:47.000Z</time>
      </trkpt>
      <trkpt lat="50.4849" lon="3.46177">
        <ele>16.4</ele>
        <time>2022-03-22T15:06:49.080Z</time>
      </trkpt>
      <trkpt lat="50.48496" lon="3.46171">
        <ele>16.2</ele>
        <time>2022-03-22T15:06:50.919Z</time>
      </trkpt>
      <trkpt lat="50.48502" lon="3.46164">
        <ele>16</ele>
        <time>2022-03-22T15:06:52.759Z</time>
      </trkpt>
      <trkpt lat="50.48506" lon="3.46159">
        <ele>16</ele>
        <time>2022-03-22T15:06:54.000Z</time>
      </trkpt>
      <trkpt lat="50.4851" lon="3.46155">
        <ele>16</ele>
        <time>2022-03-22T15:06:55.056Z</time>
      </trkpt>
      <trkpt lat="50.48516" lon="3.46147">
        <ele>16</ele>
        <time>2022-03-22T15:06:56.920Z</time>
      </trkpt>
      <trkpt lat="50.48528" lon="3.46137">
        <ele>16</ele>
        <time>2022-03-22T15:06:59.938Z</time>
      </trkpt>
      <trkpt lat="50.48535" lon="3.46129">
        <ele>16</ele>
        <time>2022-03-22T15:07:01.980Z</time>
      </trkpt>
      <trkpt lat="50.48542" lon="3.46122">
        <ele>16</ele>
        <time>2022-03-22T15:07:03.919Z</time>
      </trkpt>
      <trkpt lat="50.48546" lon="3.46118">
        <ele>16</ele>
        <time>2022-03-22T15:07:05.000Z</time>
      </trkpt>
      <trkpt lat="50.48555" lon="3.46106">
        <ele>16</ele>
        <time>2022-03-22T15:07:08.001Z</time>
      </trkpt>
      <trkpt lat="50.48561" lon="3.461">
        <ele>16</ele>
        <time>2022-03-22T15:07:10.000Z</time>
      </trkpt>
      <trkpt lat="50.48567" lon="3.46093">
        <ele>16</ele>
        <time>2022-03-22T15:07:12.038Z</time>
      </trkpt>
      <trkpt lat="50.48573" lon="3.46086">
        <ele>16</ele>
        <time>2022-03-22T15:07:14.058Z</time>
      </trkpt>
      <trkpt lat="50.48579" lon="3.46079">
        <ele>16</ele>
        <time>2022-03-22T15:07:15.940Z</time>
      </trkpt>
      <trkpt lat="50.48586" lon="3.46072">
        <ele>16</ele>
        <time>2022-03-22T15:07:18.000Z</time>
      </trkpt>
      <trkpt lat="50.48592" lon="3.46065">
        <ele>16</ele>
        <time>2022-03-22T15:07:20.000Z</time>
      </trkpt>
      <trkpt lat="50.48596" lon="3.46061">
        <ele>16</ele>
        <time>2022-03-22T15:07:21.019Z</time>
      </trkpt>
      <trkpt lat="50.48602" lon="3.46057">
        <ele>16</ele>
        <time>2022-03-22T15:07:22.000Z</time>
      </trkpt>
      <trkpt lat="50.48609" lon="3.46048">
        <ele>16</ele>
        <time>2022-03-22T15:07:24.000Z</time>
      </trkpt>
      <trkpt lat="50.48611" lon="3.46038">
        <ele>16</ele>
        <time>2022-03-22T15:07:26.000Z</time>
      </trkpt>
      <trkpt lat="50.48617" lon="3.46035">
        <ele>16</ele>
        <time>2022-03-22T15:07:27.000Z</time>
      </trkpt>
      <trkpt lat="50.48621" lon="3.46032">
        <ele>16</ele>
        <time>2022-03-22T15:07:28.000Z</time>
      </trkpt>
      <trkpt lat="50.48629" lon="3.46025">
        <ele>16</ele>
        <time>2022-03-22T15:07:30.064Z</time>
      </trkpt>
      <trkpt lat="50.48636" lon="3.46017">
        <ele>16</ele>
        <time>2022-03-22T15:07:31.965Z</time>
      </trkpt>
      <trkpt lat="50.48639" lon="3.46013">
        <ele>16</ele>
        <time>2022-03-22T15:07:33.171Z</time>
      </trkpt>
      <trkpt lat="50.48645" lon="3.46007">
        <ele>16</ele>
        <time>2022-03-22T15:07:35.000Z</time>
      </trkpt>
      <trkpt lat="50.48651" lon="3.46001">
        <ele>16</ele>
        <time>2022-03-22T15:07:37.104Z</time>
      </trkpt>
      <trkpt lat="50.48656" lon="3.45995">
        <ele>16</ele>
        <time>2022-03-22T15:07:38.763Z</time>
      </trkpt>
      <trkpt lat="50.4866" lon="3.45991">
        <ele>16</ele>
        <time>2022-03-22T15:07:40.000Z</time>
      </trkpt>
      <trkpt lat="50.48666" lon="3.45985">
        <ele>16</ele>
        <time>2022-03-22T15:07:42.000Z</time>
      </trkpt>
      <trkpt lat="50.48673" lon="3.45977">
        <ele>16</ele>
        <time>2022-03-22T15:07:44.000Z</time>
      </trkpt>
      <trkpt lat="50.48679" lon="3.4597">
        <ele>16</ele>
        <time>2022-03-22T15:07:46.065Z</time>
      </trkpt>
      <trkpt lat="50.48684" lon="3.45964">
        <ele>16</ele>
        <time>2022-03-22T15:07:47.704Z</time>
      </trkpt>
      <trkpt lat="50.48687" lon="3.45959">
        <ele>16</ele>
        <time>2022-03-22T15:07:48.966Z</time>
      </trkpt>
      <trkpt lat="50.48693" lon="3.45953">
        <ele>16</ele>
        <time>2022-03-22T15:07:50.989Z</time>
      </trkpt>
      <trkpt lat="50.48697" lon="3.45949">
        <ele>16</ele>
        <time>2022-03-22T15:07:52.164Z</time>
      </trkpt>
      <trkpt lat="50.48702" lon="3.45944">
        <ele>16</ele>
        <time>2022-03-22T15:07:53.843Z</time>
      </trkpt>
      <trkpt lat="50.48709" lon="3.45936">
        <ele>16</ele>
        <time>2022-03-22T15:07:56.066Z</time>
      </trkpt>
      <trkpt lat="50.48715" lon="3.45929">
        <ele>16</ele>
        <time>2022-03-22T15:07:58.000Z</time>
      </trkpt>
      <trkpt lat="50.48721" lon="3.45922">
        <ele>16</ele>
        <time>2022-03-22T15:08:00.000Z</time>
      </trkpt>
      <trkpt lat="50.48728" lon="3.45914">
        <ele>16</ele>
        <time>2022-03-22T15:08:02.000Z</time>
      </trkpt>
      <trkpt lat="50.48735" lon="3.45907">
        <ele>16</ele>
        <time>2022-03-22T15:08:04.046Z</time>
      </trkpt>
      <trkpt lat="50.48741" lon="3.45901">
        <ele>16</ele>
        <time>2022-03-22T15:08:06.000Z</time>
      </trkpt>
      <trkpt lat="50.48747" lon="3.45894">
        <ele>16</ele>
        <time>2022-03-22T15:08:08.000Z</time>
      </trkpt>
      <trkpt lat="50.48754" lon="3.45887">
        <ele>16</ele>
        <time>2022-03-22T15:08:10.000Z</time>
      </trkpt>
      <trkpt lat="50.4876" lon="3.4588">
        <ele>16</ele>
        <time>2022-03-22T15:08:11.946Z</time>
      </trkpt>
      <trkpt lat="50.48766" lon="3.45873">
        <ele>16</ele>
        <time>2022-03-22T15:08:14.000Z</time>
      </trkpt>
      <trkpt lat="50.48773" lon="3.45863">
        <ele>16</ele>
        <time>2022-03-22T15:08:16.484Z</time>
      </trkpt>
      <trkpt lat="50.48777" lon="3.45858">
        <ele>16</ele>
        <time>2022-03-22T15:08:17.885Z</time>
      </trkpt>
      <trkpt lat="50.48781" lon="3.45854">
        <ele>16</ele>
        <time>2022-03-22T15:08:19.067Z</time>
      </trkpt>
      <trkpt lat="50.48788" lon="3.45847">
        <ele>16</ele>
        <time>2022-03-22T15:08:21.000Z</time>
      </trkpt>
      <trkpt lat="50.48792" lon="3.45844">
        <ele>16</ele>
        <time>2022-03-22T15:08:23.000Z</time>
      </trkpt>
      <trkpt lat="50.48798" lon="3.4584">
        <ele>16</ele>
        <time>2022-03-22T15:09:06.000Z</time>
      </trkpt>
      <trkpt lat="50.48801" lon="3.45834">
        <ele>16</ele>
        <time>2022-03-22T15:09:08.000Z</time>
      </trkpt>
      <trkpt lat="50.48807" lon="3.45827">
        <ele>16</ele>
        <time>2022-03-22T15:09:12.000Z</time>
      </trkpt>
      <trkpt lat="50.48812" lon="3.45821">
        <ele>16</ele>
        <time>2022-03-22T15:09:14.000Z</time>
      </trkpt>
      <trkpt lat="50.48816" lon="3.45817">
        <ele>16</ele>
        <time>2022-03-22T15:09:16.066Z</time>
      </trkpt>
      <trkpt lat="50.48821" lon="3.45813">
        <ele>16</ele>
        <time>2022-03-22T15:09:17.984Z</time>
      </trkpt>
      <trkpt lat="50.48826" lon="3.45809">
        <ele>16</ele>
        <time>2022-03-22T15:09:19.948Z</time>
      </trkpt>
      <trkpt lat="50.48831" lon="3.45804">
        <ele>16</ele>
        <time>2022-03-22T15:09:22.000Z</time>
      </trkpt>
      <trkpt lat="50.48836" lon="3.45798">
        <ele>16</ele>
        <time>2022-03-22T15:09:24.000Z</time>
      </trkpt>
      <trkpt lat="50.4884" lon="3.45792">
        <ele>16</ele>
        <time>2022-03-22T15:09:26.000Z</time>
      </trkpt>
      <trkpt lat="50.48846" lon="3.45785">
        <ele>16</ele>
        <time>2022-03-22T15:09:28.000Z</time>
      </trkpt>
      <trkpt lat="50.48852" lon="3.45779">
        <ele>16</ele>
        <time>2022-03-22T15:09:30.000Z</time>
      </trkpt>
      <trkpt lat="50.48858" lon="3.45771">
        <ele>16</ele>
        <time>2022-03-22T15:09:32.000Z</time>
      </trkpt>
      <trkpt lat="50.48865" lon="3.45763">
        <ele>16</ele>
        <time>2022-03-22T15:09:34.144Z</time>
      </trkpt>
      <trkpt lat="50.48872" lon="3.45758">
        <ele>16</ele>
        <time>2022-03-22T15:09:35.944Z</time>
      </trkpt>
      <trkpt lat="50.48878" lon="3.45751">
        <ele>16</ele>
        <time>2022-03-22T15:09:38.000Z</time>
      </trkpt>
      <trkpt lat="50.48883" lon="3.45745">
        <ele>16</ele>
        <time>2022-03-22T15:09:40.024Z</time>
      </trkpt>
      <trkpt lat="50.48889" lon="3.45737">
        <ele>16</ele>
        <time>2022-03-22T15:09:42.085Z</time>
      </trkpt>
      <trkpt lat="50.48895" lon="3.45732">
        <ele>16</ele>
        <time>2022-03-22T15:09:44.023Z</time>
      </trkpt>
      <trkpt lat="50.48901" lon="3.45726">
        <ele>16</ele>
        <time>2022-03-22T15:09:46.000Z</time>
      </trkpt>
      <trkpt lat="50.48911" lon="3.45715">
        <ele>16</ele>
        <time>2022-03-22T15:09:49.166Z</time>
      </trkpt>
      <trkpt lat="50.48917" lon="3.45709">
        <ele>16</ele>
        <time>2022-03-22T15:09:51.000Z</time>
      </trkpt>
      <trkpt lat="50.48923" lon="3.45702">
        <ele>16</ele>
        <time>2022-03-22T15:09:53.000Z</time>
      </trkpt>
      <trkpt lat="50.48927" lon="3.45699">
        <ele>16</ele>
        <time>2022-03-22T15:09:54.066Z</time>
      </trkpt>
      <trkpt lat="50.48934" lon="3.45691">
        <ele>16.1</ele>
        <time>2022-03-22T15:09:56.064Z</time>
      </trkpt>
      <trkpt lat="50.4894" lon="3.45683">
        <ele>16.3</ele>
        <time>2022-03-22T15:09:58.000Z</time>
      </trkpt>
      <trkpt lat="50.48946" lon="3.45675">
        <ele>16.7</ele>
        <time>2022-03-22T15:10:00.000Z</time>
      </trkpt>
      <trkpt lat="50.48953" lon="3.45668">
        <ele>16.7</ele>
        <time>2022-03-22T15:10:02.000Z</time>
      </trkpt>
      <trkpt lat="50.48961" lon="3.45661">
        <ele>16.4</ele>
        <time>2022-03-22T15:10:04.164Z</time>
      </trkpt>
      <trkpt lat="50.48966" lon="3.45655">
        <ele>16.5</ele>
        <time>2022-03-22T15:10:05.806Z</time>
      </trkpt>
      <trkpt lat="50.48973" lon="3.45647">
        <ele>16.7</ele>
        <time>2022-03-22T15:10:08.000Z</time>
      </trkpt>
      <trkpt lat="50.48979" lon="3.45642">
        <ele>16.9</ele>
        <time>2022-03-22T15:10:09.804Z</time>
      </trkpt>
      <trkpt lat="50.48987" lon="3.45634">
        <ele>17</ele>
        <time>2022-03-22T15:10:12.108Z</time>
      </trkpt>
      <trkpt lat="50.48993" lon="3.45628">
        <ele>17</ele>
        <time>2022-03-22T15:10:13.784Z</time>
      </trkpt>
      <trkpt lat="50.49" lon="3.4562">
        <ele>17</ele>
        <time>2022-03-22T15:10:16.026Z</time>
      </trkpt>
      <trkpt lat="50.49005" lon="3.45614">
        <ele>16.8</ele>
        <time>2022-03-22T15:10:17.506Z</time>
      </trkpt>
      <trkpt lat="50.49012" lon="3.45606">
        <ele>16.6</ele>
        <time>2022-03-22T15:10:19.525Z</time>
      </trkpt>
      <trkpt lat="50.49017" lon="3.45601">
        <ele>16.6</ele>
        <time>2022-03-22T15:10:20.746Z</time>
      </trkpt>
      <trkpt lat="50.49022" lon="3.45596">
        <ele>16.6</ele>
        <time>2022-03-22T15:10:22.000Z</time>
      </trkpt>
      <trkpt lat="50.49026" lon="3.45592">
        <ele>16.7</ele>
        <time>2022-03-22T15:10:23.000Z</time>
      </trkpt>
      <trkpt lat="50.49035" lon="3.45582">
        <ele>17</ele>
        <time>2022-03-22T15:10:25.647Z</time>
      </trkpt>
      <trkpt lat="50.4904" lon="3.45577">
        <ele>17</ele>
        <time>2022-03-22T15:10:27.007Z</time>
      </trkpt>
      <trkpt lat="50.49047" lon="3.45571">
        <ele>17</ele>
        <time>2022-03-22T15:10:28.807Z</time>
      </trkpt>
      <trkpt lat="50.49051" lon="3.45567">
        <ele>17</ele>
        <time>2022-03-22T15:10:30.000Z</time>
      </trkpt>
      <trkpt lat="50.49057" lon="3.4556">
        <ele>17</ele>
        <time>2022-03-22T15:10:32.000Z</time>
      </trkpt>
      <trkpt lat="50.49063" lon="3.45554">
        <ele>17</ele>
        <time>2022-03-22T15:10:34.000Z</time>
      </trkpt>
      <trkpt lat="50.49072" lon="3.45546">
        <ele>17</ele>
        <time>2022-03-22T15:10:36.607Z</time>
      </trkpt>
      <trkpt lat="50.49078" lon="3.45538">
        <ele>17</ele>
        <time>2022-03-22T15:10:38.825Z</time>
      </trkpt>
      <trkpt lat="50.49082" lon="3.45535">
        <ele>17</ele>
        <time>2022-03-22T15:10:40.000Z</time>
      </trkpt>
      <trkpt lat="50.49089" lon="3.4553">
        <ele>17</ele>
        <time>2022-03-22T15:10:42.244Z</time>
      </trkpt>
      <trkpt lat="50.49097" lon="3.45523">
        <ele>17</ele>
        <time>2022-03-22T15:10:44.644Z</time>
      </trkpt>
      <trkpt lat="50.49104" lon="3.45519">
        <ele>17</ele>
        <time>2022-03-22T15:10:46.842Z</time>
      </trkpt>
      <trkpt lat="50.49112" lon="3.45515">
        <ele>17</ele>
        <time>2022-03-22T15:10:49.000Z</time>
      </trkpt>
      <trkpt lat="50.4912" lon="3.4551">
        <ele>17</ele>
        <time>2022-03-22T15:10:51.617Z</time>
      </trkpt>
      <trkpt lat="50.49126" lon="3.45506">
        <ele>17</ele>
        <time>2022-03-22T15:10:53.785Z</time>
      </trkpt>
      <trkpt lat="50.49132" lon="3.45499">
        <ele>17</ele>
        <time>2022-03-22T15:10:56.000Z</time>
      </trkpt>
      <trkpt lat="50.49138" lon="3.45492">
        <ele>17</ele>
        <time>2022-03-22T15:10:58.000Z</time>
      </trkpt>
      <trkpt lat="50.49147" lon="3.45481">
        <ele>16.9</ele>
        <time>2022-03-22T15:11:00.766Z</time>
      </trkpt>
      <trkpt lat="50.49155" lon="3.45475">
        <ele>16.9</ele>
        <time>2022-03-22T15:11:02.966Z</time>
      </trkpt>
      <trkpt lat="50.49161" lon="3.45468">
        <ele>17</ele>
        <time>2022-03-22T15:11:04.903Z</time>
      </trkpt>
      <trkpt lat="50.49167" lon="3.45459">
        <ele>17</ele>
        <time>2022-03-22T15:11:07.000Z</time>
      </trkpt>
      <trkpt lat="50.49175" lon="3.45453">
        <ele>17</ele>
        <time>2022-03-22T15:11:09.324Z</time>
      </trkpt>
      <trkpt lat="50.49181" lon="3.45446">
        <ele>17</ele>
        <time>2022-03-22T15:11:11.524Z</time>
      </trkpt>
      <trkpt lat="50.49186" lon="3.45437">
        <ele>17</ele>
        <time>2022-03-22T15:11:13.607Z</time>
      </trkpt>
      <trkpt lat="50.49193" lon="3.45429">
        <ele>17</ele>
        <time>2022-03-22T15:11:16.000Z</time>
      </trkpt>
      <trkpt lat="50.492" lon="3.45421">
        <ele>17</ele>
        <time>2022-03-22T15:11:18.302Z</time>
      </trkpt>
      <trkpt lat="50.49206" lon="3.45412">
        <ele>16.8</ele>
        <time>2022-03-22T15:11:20.784Z</time>
      </trkpt>
      <trkpt lat="50.49216" lon="3.45401">
        <ele>16.4</ele>
        <time>2022-03-22T15:11:24.000Z</time>
      </trkpt>
      <trkpt lat="50.49222" lon="3.45395">
        <ele>16.2</ele>
        <time>2022-03-22T15:11:26.000Z</time>
      </trkpt>
      <trkpt lat="50.4923" lon="3.45388">
        <ele>16.3</ele>
        <time>2022-03-22T15:11:28.828Z</time>
      </trkpt>
      <trkpt lat="50.49236" lon="3.4538">
        <ele>16.5</ele>
        <time>2022-03-22T15:11:31.088Z</time>
      </trkpt>
      <trkpt lat="50.49242" lon="3.45373">
        <ele>16.7</ele>
        <time>2022-03-22T15:11:33.000Z</time>
      </trkpt>
      <trkpt lat="50.49248" lon="3.45366">
        <ele>16.9</ele>
        <time>2022-03-22T15:11:34.925Z</time>
      </trkpt>
      <trkpt lat="50.49255" lon="3.4536">
        <ele>17</ele>
        <time>2022-03-22T15:11:36.944Z</time>
      </trkpt>
      <trkpt lat="50.49262" lon="3.45353">
        <ele>16.8</ele>
        <time>2022-03-22T15:11:39.000Z</time>
      </trkpt>
      <trkpt lat="50.49268" lon="3.45344">
        <ele>16.8</ele>
        <time>2022-03-22T15:11:41.048Z</time>
      </trkpt>
      <trkpt lat="50.49275" lon="3.45337">
        <ele>16.9</ele>
        <time>2022-03-22T15:11:43.000Z</time>
      </trkpt>
      <trkpt lat="50.49281" lon="3.45331">
        <ele>16.9</ele>
        <time>2022-03-22T15:11:45.000Z</time>
      </trkpt>
      <trkpt lat="50.49287" lon="3.45323">
        <ele>16.8</ele>
        <time>2022-03-22T15:11:47.000Z</time>
      </trkpt>
      <trkpt lat="50.49292" lon="3.45318">
        <ele>16.7</ele>
        <time>2022-03-22T15:11:48.707Z</time>
      </trkpt>
      <trkpt lat="50.49296" lon="3.45314">
        <ele>16.8</ele>
        <time>2022-03-22T15:11:49.927Z</time>
      </trkpt>
      <trkpt lat="50.49303" lon="3.45306">
        <ele>16.9</ele>
        <time>2022-03-22T15:11:52.126Z</time>
      </trkpt>
      <trkpt lat="50.4931" lon="3.45299">
        <ele>16.8</ele>
        <time>2022-03-22T15:11:54.000Z</time>
      </trkpt>
      <trkpt lat="50.49318" lon="3.45293">
        <ele>16.8</ele>
        <time>2022-03-22T15:11:56.207Z</time>
      </trkpt>
      <trkpt lat="50.49322" lon="3.45288">
        <ele>16.7</ele>
        <time>2022-03-22T15:11:57.746Z</time>
      </trkpt>
      <trkpt lat="50.49326" lon="3.45284">
        <ele>16.8</ele>
        <time>2022-03-22T15:11:59.000Z</time>
      </trkpt>
      <trkpt lat="50.49332" lon="3.45276">
        <ele>16.9</ele>
        <time>2022-03-22T15:12:01.065Z</time>
      </trkpt>
      <trkpt lat="50.49339" lon="3.4527">
        <ele>16.8</ele>
        <time>2022-03-22T15:12:02.964Z</time>
      </trkpt>
      <trkpt lat="50.49343" lon="3.45266">
        <ele>16.7</ele>
        <time>2022-03-22T15:12:04.000Z</time>
      </trkpt>
      <trkpt lat="50.49351" lon="3.45258">
        <ele>16.7</ele>
        <time>2022-03-22T15:12:06.166Z</time>
      </trkpt>
      <trkpt lat="50.49356" lon="3.45252">
        <ele>16.8</ele>
        <time>2022-03-22T15:12:07.626Z</time>
      </trkpt>
      <trkpt lat="50.49361" lon="3.45247">
        <ele>17</ele>
        <time>2022-03-22T15:12:09.004Z</time>
      </trkpt>
      <trkpt lat="50.49366" lon="3.45241">
        <ele>17</ele>
        <time>2022-03-22T15:12:10.124Z</time>
      </trkpt>
      <trkpt lat="50.49373" lon="3.45233">
        <ele>17</ele>
        <time>2022-03-22T15:12:12.093Z</time>
      </trkpt>
      <trkpt lat="50.49378" lon="3.45228">
        <ele>17</ele>
        <time>2022-03-22T15:12:13.566Z</time>
      </trkpt>
      <trkpt lat="50.49386" lon="3.45219">
        <ele>17</ele>
        <time>2022-03-22T15:12:15.928Z</time>
      </trkpt>
      <trkpt lat="50.4939" lon="3.45215">
        <ele>17</ele>
        <time>2022-03-22T15:12:17.127Z</time>
      </trkpt>
      <trkpt lat="50.49394" lon="3.45212">
        <ele>17</ele>
        <time>2022-03-22T15:12:18.164Z</time>
      </trkpt>
      <trkpt lat="50.494" lon="3.45206">
        <ele>17</ele>
        <time>2022-03-22T15:12:19.606Z</time>
      </trkpt>
      <trkpt lat="50.49406" lon="3.45198">
        <ele>17</ele>
        <time>2022-03-22T15:12:21.726Z</time>
      </trkpt>
      <trkpt lat="50.49411" lon="3.45194">
        <ele>17</ele>
        <time>2022-03-22T15:12:23.124Z</time>
      </trkpt>
      <trkpt lat="50.49415" lon="3.45191">
        <ele>17</ele>
        <time>2022-03-22T15:12:24.187Z</time>
      </trkpt>
      <trkpt lat="50.4942" lon="3.45184">
        <ele>17</ele>
        <time>2022-03-22T15:12:25.644Z</time>
      </trkpt>
      <trkpt lat="50.49426" lon="3.45179">
        <ele>17</ele>
        <time>2022-03-22T15:12:26.926Z</time>
      </trkpt>
      <trkpt lat="50.4943" lon="3.45175">
        <ele>17</ele>
        <time>2022-03-22T15:12:27.988Z</time>
      </trkpt>
      <trkpt lat="50.49434" lon="3.4517">
        <ele>17</ele>
        <time>2022-03-22T15:12:29.000Z</time>
      </trkpt>
      <trkpt lat="50.49438" lon="3.45166">
        <ele>17</ele>
        <time>2022-03-22T15:12:30.000Z</time>
      </trkpt>
      <trkpt lat="50.49441" lon="3.45161">
        <ele>17</ele>
        <time>2022-03-22T15:12:31.000Z</time>
      </trkpt>
      <trkpt lat="50.49445" lon="3.45158">
        <ele>17</ele>
        <time>2022-03-22T15:12:32.000Z</time>
      </trkpt>
      <trkpt lat="50.49451" lon="3.45159">
        <ele>16.8</ele>
        <time>2022-03-22T15:12:34.000Z</time>
      </trkpt>
      <trkpt lat="50.49458" lon="3.45151">
        <ele>16.8</ele>
        <time>2022-03-22T15:12:35.538Z</time>
      </trkpt>
      <trkpt lat="50.49466" lon="3.45141">
        <ele>16.9</ele>
        <time>2022-03-22T15:12:37.000Z</time>
      </trkpt>
      <trkpt lat="50.49471" lon="3.45137">
        <ele>17</ele>
        <time>2022-03-22T15:12:38.000Z</time>
      </trkpt>
      <trkpt lat="50.49475" lon="3.45134">
        <ele>17</ele>
        <time>2022-03-22T15:12:39.000Z</time>
      </trkpt>
      <trkpt lat="50.49484" lon="3.45129">
        <ele>17</ele>
        <time>2022-03-22T15:12:41.000Z</time>
      </trkpt>
      <trkpt lat="50.49488" lon="3.45126">
        <ele>17</ele>
        <time>2022-03-22T15:12:42.000Z</time>
      </trkpt>
      <trkpt lat="50.49492" lon="3.45132">
        <ele>17</ele>
        <time>2022-03-22T15:12:44.136Z</time>
      </trkpt>
      <trkpt lat="50.49498" lon="3.45126">
        <ele>17</ele>
        <time>2022-03-22T15:12:45.255Z</time>
      </trkpt>
      <trkpt lat="50.49504" lon="3.45121">
        <ele>17</ele>
        <time>2022-03-22T15:12:46.455Z</time>
      </trkpt>
      <trkpt lat="50.49509" lon="3.45117">
        <ele>17.2</ele>
        <time>2022-03-22T15:12:47.578Z</time>
      </trkpt>
      <trkpt lat="50.49515" lon="3.45113">
        <ele>17.5</ele>
        <time>2022-03-22T15:12:49.057Z</time>
      </trkpt>
      <trkpt lat="50.49523" lon="3.45109">
        <ele>17.8</ele>
        <time>2022-03-22T15:12:51.000Z</time>
      </trkpt>
      <trkpt lat="50.49532" lon="3.45106">
        <ele>17.9</ele>
        <time>2022-03-22T15:12:53.000Z</time>
      </trkpt>
      <trkpt lat="50.4954" lon="3.45102">
        <ele>17.7</ele>
        <time>2022-03-22T15:12:55.000Z</time>
      </trkpt>
      <trkpt lat="50.49545" lon="3.45101">
        <ele>17.6</ele>
        <time>2022-03-22T15:12:56.013Z</time>
      </trkpt>
      <trkpt lat="50.49554" lon="3.45101">
        <ele>17.4</ele>
        <time>2022-03-22T15:12:58.000Z</time>
      </trkpt>
      <trkpt lat="50.49559" lon="3.45101">
        <ele>17.3</ele>
        <time>2022-03-22T15:12:59.000Z</time>
      </trkpt>
      <trkpt lat="50.49564" lon="3.451">
        <ele>17.2</ele>
        <time>2022-03-22T15:13:00.000Z</time>
      </trkpt>
      <trkpt lat="50.4957" lon="3.45098">
        <ele>17.2</ele>
        <time>2022-03-22T15:13:02.556Z</time>
      </trkpt>
      <trkpt lat="50.49577" lon="3.45097">
        <ele>17.1</ele>
        <time>2022-03-22T15:13:03.976Z</time>
      </trkpt>
      <trkpt lat="50.49582" lon="3.45098">
        <ele>17</ele>
        <time>2022-03-22T15:13:05.053Z</time>
      </trkpt>
      <trkpt lat="50.4959" lon="3.45096">
        <ele>17.2</ele>
        <time>2022-03-22T15:13:06.000Z</time>
      </trkpt>
      <trkpt lat="50.49595" lon="3.45095">
        <ele>17.4</ele>
        <time>2022-03-22T15:13:07.000Z</time>
      </trkpt>
      <trkpt lat="50.49601" lon="3.45093">
        <ele>17.7</ele>
        <time>2022-03-22T15:13:08.000Z</time>
      </trkpt>
      <trkpt lat="50.49606" lon="3.45091">
        <ele>18</ele>
        <time>2022-03-22T15:13:09.000Z</time>
      </trkpt>
      <trkpt lat="50.49611" lon="3.45089">
        <ele>18.4</ele>
        <time>2022-03-22T15:13:10.000Z</time>
      </trkpt>
      <trkpt lat="50.49616" lon="3.45087">
        <ele>18.5</ele>
        <time>2022-03-22T15:13:11.000Z</time>
      </trkpt>
      <trkpt lat="50.49621" lon="3.45086">
        <ele>18.4</ele>
        <time>2022-03-22T15:13:12.000Z</time>
      </trkpt>
      <trkpt lat="50.49627" lon="3.45085">
        <ele>18.3</ele>
        <time>2022-03-22T15:13:13.000Z</time>
      </trkpt>
      <trkpt lat="50.49632" lon="3.45083">
        <ele>18.2</ele>
        <time>2022-03-22T15:13:14.000Z</time>
      </trkpt>
      <trkpt lat="50.49638" lon="3.45082">
        <ele>17.9</ele>
        <time>2022-03-22T15:13:15.000Z</time>
      </trkpt>
      <trkpt lat="50.49643" lon="3.45081">
        <ele>17.9</ele>
        <time>2022-03-22T15:13:16.000Z</time>
      </trkpt>
      <trkpt lat="50.49648" lon="3.45081">
        <ele>17.9</ele>
        <time>2022-03-22T15:13:17.000Z</time>
      </trkpt>
      <trkpt lat="50.49653" lon="3.45081">
        <ele>17.9</ele>
        <time>2022-03-22T15:13:18.000Z</time>
      </trkpt>
      <trkpt lat="50.49657" lon="3.45081">
        <ele>17.9</ele>
        <time>2022-03-22T15:13:19.000Z</time>
      </trkpt>
      <trkpt lat="50.49665" lon="3.45079">
        <ele>18</ele>
        <time>2022-03-22T15:13:21.000Z</time>
      </trkpt>
      <trkpt lat="50.4967" lon="3.45078">
        <ele>17.9</ele>
        <time>2022-03-22T15:13:22.000Z</time>
      </trkpt>
      <trkpt lat="50.49675" lon="3.45077">
        <ele>17.8</ele>
        <time>2022-03-22T15:13:23.000Z</time>
      </trkpt>
      <trkpt lat="50.4968" lon="3.45076">
        <ele>17.6</ele>
        <time>2022-03-22T15:13:24.000Z</time>
      </trkpt>
      <trkpt lat="50.49685" lon="3.45074">
        <ele>17.6</ele>
        <time>2022-03-22T15:13:25.000Z</time>
      </trkpt>
      <trkpt lat="50.49689" lon="3.45064">
        <ele>17.8</ele>
        <time>2022-03-22T15:13:27.644Z</time>
      </trkpt>
      <trkpt lat="50.49695" lon="3.4506">
        <ele>17.8</ele>
        <time>2022-03-22T15:13:28.904Z</time>
      </trkpt>
      <trkpt lat="50.49702" lon="3.45058">
        <ele>17.9</ele>
        <time>2022-03-22T15:13:30.125Z</time>
      </trkpt>
      <trkpt lat="50.4971" lon="3.45056">
        <ele>18</ele>
        <time>2022-03-22T15:13:31.765Z</time>
      </trkpt>
      <trkpt lat="50.49718" lon="3.45052">
        <ele>18</ele>
        <time>2022-03-22T15:13:33.000Z</time>
      </trkpt>
      <trkpt lat="50.49722" lon="3.45049">
        <ele>18</ele>
        <time>2022-03-22T15:13:34.000Z</time>
      </trkpt>
      <trkpt lat="50.49733" lon="3.45039">
        <ele>17.8</ele>
        <time>2022-03-22T15:13:38.083Z</time>
      </trkpt>
      <trkpt lat="50.49739" lon="3.45035">
        <ele>17.8</ele>
        <time>2022-03-22T15:13:39.000Z</time>
      </trkpt>
      <trkpt lat="50.49743" lon="3.45032">
        <ele>17.9</ele>
        <time>2022-03-22T15:13:40.000Z</time>
      </trkpt>
      <trkpt lat="50.49748" lon="3.45029">
        <ele>18</ele>
        <time>2022-03-22T15:13:41.000Z</time>
      </trkpt>
      <trkpt lat="50.49752" lon="3.45026">
        <ele>18</ele>
        <time>2022-03-22T15:13:41.982Z</time>
      </trkpt>
      <trkpt lat="50.49757" lon="3.45023">
        <ele>18</ele>
        <time>2022-03-22T15:13:43.000Z</time>
      </trkpt>
      <trkpt lat="50.49761" lon="3.4502">
        <ele>18</ele>
        <time>2022-03-22T15:13:44.000Z</time>
      </trkpt>
      <trkpt lat="50.49766" lon="3.45016">
        <ele>18</ele>
        <time>2022-03-22T15:13:45.186Z</time>
      </trkpt>
      <trkpt lat="50.49772" lon="3.45009">
        <ele>18</ele>
        <time>2022-03-22T15:13:47.000Z</time>
      </trkpt>
      <trkpt lat="50.49778" lon="3.45">
        <ele>18</ele>
        <time>2022-03-22T15:13:49.000Z</time>
      </trkpt>
      <trkpt lat="50.49786" lon="3.44993">
        <ele>18</ele>
        <time>2022-03-22T15:13:51.000Z</time>
      </trkpt>
      <trkpt lat="50.49791" lon="3.44989">
        <ele>18</ele>
        <time>2022-03-22T15:13:52.000Z</time>
      </trkpt>
      <trkpt lat="50.49794" lon="3.44985">
        <ele>18</ele>
        <time>2022-03-22T15:13:53.000Z</time>
      </trkpt>
      <trkpt lat="50.49801" lon="3.44982">
        <ele>18</ele>
        <time>2022-03-22T15:13:56.000Z</time>
      </trkpt>
      <trkpt lat="50.49804" lon="3.44975">
        <ele>18</ele>
        <time>2022-03-22T15:13:57.315Z</time>
      </trkpt>
      <trkpt lat="50.49808" lon="3.4497">
        <ele>18.1</ele>
        <time>2022-03-22T15:14:00.101Z</time>
      </trkpt>
      <trkpt lat="50.49812" lon="3.44961">
        <ele>18.3</ele>
        <time>2022-03-22T15:14:03.176Z</time>
      </trkpt>
      <trkpt lat="50.49819" lon="3.44951">
        <ele>18.4</ele>
        <time>2022-03-22T15:14:06.134Z</time>
      </trkpt>
      <trkpt lat="50.49823" lon="3.44945">
        <ele>18.4</ele>
        <time>2022-03-22T15:14:07.933Z</time>
      </trkpt>
      <trkpt lat="50.49827" lon="3.44938">
        <ele>18.4</ele>
        <time>2022-03-22T15:14:10.000Z</time>
      </trkpt>
      <trkpt lat="50.49832" lon="3.44931">
        <ele>18.5</ele>
        <time>2022-03-22T15:14:12.072Z</time>
      </trkpt>
      <trkpt lat="50.49836" lon="3.44927">
        <ele>18.7</ele>
        <time>2022-03-22T15:14:13.551Z</time>
      </trkpt>
      <trkpt lat="50.49842" lon="3.44921">
        <ele>18.9</ele>
        <time>2022-03-22T15:14:16.000Z</time>
      </trkpt>
      <trkpt lat="50.49846" lon="3.44917">
        <ele>19</ele>
        <time>2022-03-22T15:14:18.000Z</time>
      </trkpt>
      <trkpt lat="50.49851" lon="3.44912">
        <ele>19</ele>
        <time>2022-03-22T15:14:21.000Z</time>
      </trkpt>
      <trkpt lat="50.49854" lon="3.44918">
        <ele>19</ele>
        <time>2022-03-22T15:14:23.000Z</time>
      </trkpt>
      <trkpt lat="50.49857" lon="3.44926">
        <ele>19</ele>
        <time>2022-03-22T15:14:25.000Z</time>
      </trkpt>
      <trkpt lat="50.49863" lon="3.44936">
        <ele>19</ele>
        <time>2022-03-22T15:14:27.000Z</time>
      </trkpt>
      <trkpt lat="50.49865" lon="3.44946">
        <ele>19</ele>
        <time>2022-03-22T15:14:28.000Z</time>
      </trkpt>
      <trkpt lat="50.49868" lon="3.44952">
        <ele>19</ele>
        <time>2022-03-22T15:14:29.000Z</time>
      </trkpt>
      <trkpt lat="50.49871" lon="3.44958">
        <ele>19</ele>
        <time>2022-03-22T15:14:30.000Z</time>
      </trkpt>
      <trkpt lat="50.49878" lon="3.44963">
        <ele>19</ele>
        <time>2022-03-22T15:14:32.000Z</time>
      </trkpt>
      <trkpt lat="50.49882" lon="3.44961">
        <ele>19</ele>
        <time>2022-03-22T15:14:33.123Z</time>
      </trkpt>
      <trkpt lat="50.49891" lon="3.44946">
        <ele>19</ele>
        <time>2022-03-22T15:14:35.000Z</time>
      </trkpt>
      <trkpt lat="50.49895" lon="3.44941">
        <ele>19</ele>
        <time>2022-03-22T15:14:36.000Z</time>
      </trkpt>
      <trkpt lat="50.49902" lon="3.44931">
        <ele>18.8</ele>
        <time>2022-03-22T15:14:38.000Z</time>
      </trkpt>
      <trkpt lat="50.49907" lon="3.44927">
        <ele>18.6</ele>
        <time>2022-03-22T15:14:39.000Z</time>
      </trkpt>
      <trkpt lat="50.49915" lon="3.44917">
        <ele>18.1</ele>
        <time>2022-03-22T15:14:41.000Z</time>
      </trkpt>
      <trkpt lat="50.4992" lon="3.44912">
        <ele>18</ele>
        <time>2022-03-22T15:14:42.000Z</time>
      </trkpt>
      <trkpt lat="50.49925" lon="3.44907">
        <ele>18</ele>
        <time>2022-03-22T15:14:43.000Z</time>
      </trkpt>
      <trkpt lat="50.4993" lon="3.44903">
        <ele>18</ele>
        <time>2022-03-22T15:14:44.000Z</time>
      </trkpt>
      <trkpt lat="50.49936" lon="3.449">
        <ele>18</ele>
        <time>2022-03-22T15:14:45.000Z</time>
      </trkpt>
      <trkpt lat="50.49942" lon="3.44897">
        <ele>18</ele>
        <time>2022-03-22T15:14:46.000Z</time>
      </trkpt>
      <trkpt lat="50.49946" lon="3.44896">
        <ele>18</ele>
        <time>2022-03-22T15:14:47.000Z</time>
      </trkpt>
      <trkpt lat="50.49955" lon="3.44893">
        <ele>18</ele>
        <time>2022-03-22T15:14:49.110Z</time>
      </trkpt>
      <trkpt lat="50.49961" lon="3.44894">
        <ele>18</ele>
        <time>2022-03-22T15:14:50.312Z</time>
      </trkpt>
      <trkpt lat="50.49968" lon="3.44895">
        <ele>18</ele>
        <time>2022-03-22T15:14:51.871Z</time>
      </trkpt>
      <trkpt lat="50.49972" lon="3.44895">
        <ele>18</ele>
        <time>2022-03-22T15:14:53.000Z</time>
      </trkpt>
      <trkpt lat="50.49981" lon="3.44894">
        <ele>18.3</ele>
        <time>2022-03-22T15:14:55.000Z</time>
      </trkpt>
      <trkpt lat="50.49988" lon="3.44888">
        <ele>18.6</ele>
        <time>2022-03-22T15:14:56.912Z</time>
      </trkpt>
      <trkpt lat="50.49994" lon="3.44876">
        <ele>18.9</ele>
        <time>2022-03-22T15:14:59.395Z</time>
      </trkpt>
      <trkpt lat="50.49997" lon="3.44869">
        <ele>19</ele>
        <time>2022-03-22T15:15:00.893Z</time>
      </trkpt>
      <trkpt lat="50.50002" lon="3.44864">
        <ele>18.9</ele>
        <time>2022-03-22T15:15:03.000Z</time>
      </trkpt>
      <trkpt lat="50.50008" lon="3.44866">
        <ele>18.5</ele>
        <time>2022-03-22T15:15:05.000Z</time>
      </trkpt>
      <trkpt lat="50.50014" lon="3.44858">
        <ele>18.1</ele>
        <time>2022-03-22T15:15:07.271Z</time>
      </trkpt>
      <trkpt lat="50.50017" lon="3.44851">
        <ele>18.1</ele>
        <time>2022-03-22T15:15:08.850Z</time>
      </trkpt>
      <trkpt lat="50.5002" lon="3.44842">
        <ele>18.2</ele>
        <time>2022-03-22T15:15:11.151Z</time>
      </trkpt>
      <trkpt lat="50.50021" lon="3.44833">
        <ele>18.5</ele>
        <time>2022-03-22T15:15:13.810Z</time>
      </trkpt>
      <trkpt lat="50.50022" lon="3.44823">
        <ele>18</ele>
        <time>2022-03-22T15:15:16.736Z</time>
      </trkpt>
      <trkpt lat="50.50023" lon="3.44813">
        <ele>17.6</ele>
        <time>2022-03-22T15:15:19.010Z</time>
      </trkpt>
      <trkpt lat="50.50024" lon="3.44805">
        <ele>17.2</ele>
        <time>2022-03-22T15:15:21.000Z</time>
      </trkpt>
      <trkpt lat="50.50024" lon="3.44796">
        <ele>16.9</ele>
        <time>2022-03-22T15:15:23.000Z</time>
      </trkpt>
      <trkpt lat="50.50024" lon="3.44788">
        <ele>16.6</ele>
        <time>2022-03-22T15:15:25.011Z</time>
      </trkpt>
      <trkpt lat="50.50022" lon="3.44781">
        <ele>16.3</ele>
        <time>2022-03-22T15:15:27.093Z</time>
      </trkpt>
      <trkpt lat="50.50021" lon="3.44774">
        <ele>16.2</ele>
        <time>2022-03-22T15:15:30.000Z</time>
      </trkpt>
      <trkpt lat="50.50021" lon="3.44786">
        <ele>16.6</ele>
        <time>2022-03-22T15:18:05.534Z</time>
      </trkpt>
      <trkpt lat="50.50022" lon="3.44795">
        <ele>17</ele>
        <time>2022-03-22T15:18:08.000Z</time>
      </trkpt>
      <trkpt lat="50.50023" lon="3.44805">
        <ele>17.3</ele>
        <time>2022-03-22T15:18:19.000Z</time>
      </trkpt>
      <trkpt lat="50.5002" lon="3.44812">
        <ele>17.8</ele>
        <time>2022-03-22T15:18:21.172Z</time>
      </trkpt>
      <trkpt lat="50.50017" lon="3.44822">
        <ele>18.4</ele>
        <time>2022-03-22T15:18:23.732Z</time>
      </trkpt>
      <trkpt lat="50.50016" lon="3.44831">
        <ele>18.8</ele>
        <time>2022-03-22T15:18:26.000Z</time>
      </trkpt>
      <trkpt lat="50.50015" lon="3.4484">
        <ele>18.7</ele>
        <time>2022-03-22T15:18:28.000Z</time>
      </trkpt>
      <trkpt lat="50.50013" lon="3.44846">
        <ele>18.6</ele>
        <time>2022-03-22T15:18:29.930Z</time>
      </trkpt>
      <trkpt lat="50.50008" lon="3.44857">
        <ele>18.6</ele>
        <time>2022-03-22T15:18:33.713Z</time>
      </trkpt>
      <trkpt lat="50.50001" lon="3.44866">
        <ele>18.9</ele>
        <time>2022-03-22T15:18:37.000Z</time>
      </trkpt>
      <trkpt lat="50.49997" lon="3.44868">
        <ele>19</ele>
        <time>2022-03-22T15:18:43.000Z</time>
      </trkpt>
      <trkpt lat="50.49992" lon="3.44871">
        <ele>18.9</ele>
        <time>2022-03-22T15:18:55.000Z</time>
      </trkpt>
      <trkpt lat="50.49989" lon="3.44879">
        <ele>18.7</ele>
        <time>2022-03-22T15:19:04.000Z</time>
      </trkpt>
      <trkpt lat="50.49987" lon="3.44889">
        <ele>18.5</ele>
        <time>2022-03-22T15:19:06.000Z</time>
      </trkpt>
      <trkpt lat="50.49984" lon="3.44896">
        <ele>18.4</ele>
        <time>2022-03-22T15:19:08.067Z</time>
      </trkpt>
      <trkpt lat="50.49977" lon="3.449">
        <ele>18.2</ele>
        <time>2022-03-22T15:19:10.000Z</time>
      </trkpt>
      <trkpt lat="50.49971" lon="3.449">
        <ele>18</ele>
        <time>2022-03-22T15:19:12.000Z</time>
      </trkpt>
      <trkpt lat="50.49965" lon="3.449">
        <ele>18</ele>
        <time>2022-03-22T15:19:14.000Z</time>
      </trkpt>
      <trkpt lat="50.49958" lon="3.449">
        <ele>18</ele>
        <time>2022-03-22T15:19:15.989Z</time>
      </trkpt>
      <trkpt lat="50.49951" lon="3.449">
        <ele>18</ele>
        <time>2022-03-22T15:19:18.000Z</time>
      </trkpt>
      <trkpt lat="50.49944" lon="3.44901">
        <ele>18</ele>
        <time>2022-03-22T15:19:20.000Z</time>
      </trkpt>
      <trkpt lat="50.49936" lon="3.44903">
        <ele>18</ele>
        <time>2022-03-22T15:19:22.093Z</time>
      </trkpt>
      <trkpt lat="50.49929" lon="3.44907">
        <ele>18</ele>
        <time>2022-03-22T15:19:24.000Z</time>
      </trkpt>
      <trkpt lat="50.49922" lon="3.44912">
        <ele>18</ele>
        <time>2022-03-22T15:19:26.000Z</time>
      </trkpt>
      <trkpt lat="50.49915" lon="3.44916">
        <ele>18.1</ele>
        <time>2022-03-22T15:19:28.000Z</time>
      </trkpt>
      <trkpt lat="50.4991" lon="3.44922">
        <ele>18.4</ele>
        <time>2022-03-22T15:19:30.000Z</time>
      </trkpt>
      <trkpt lat="50.49905" lon="3.44926">
        <ele>18.6</ele>
        <time>2022-03-22T15:19:31.951Z</time>
      </trkpt>
      <trkpt lat="50.49899" lon="3.44932">
        <ele>18.8</ele>
        <time>2022-03-22T15:19:34.000Z</time>
      </trkpt>
      <trkpt lat="50.49895" lon="3.44938">
        <ele>18.9</ele>
        <time>2022-03-22T15:19:36.000Z</time>
      </trkpt>
      <trkpt lat="50.4989" lon="3.44944">
        <ele>19</ele>
        <time>2022-03-22T15:19:38.000Z</time>
      </trkpt>
      <trkpt lat="50.49884" lon="3.44949">
        <ele>19</ele>
        <time>2022-03-22T15:19:40.000Z</time>
      </trkpt>
      <trkpt lat="50.4988" lon="3.44954">
        <ele>19</ele>
        <time>2022-03-22T15:19:42.000Z</time>
      </trkpt>
      <trkpt lat="50.49875" lon="3.44958">
        <ele>19</ele>
        <time>2022-03-22T15:19:44.000Z</time>
      </trkpt>
      <trkpt lat="50.49869" lon="3.44954">
        <ele>19</ele>
        <time>2022-03-22T15:19:58.000Z</time>
      </trkpt>
      <trkpt lat="50.49866" lon="3.44948">
        <ele>19</ele>
        <time>2022-03-22T15:20:00.000Z</time>
      </trkpt>
      <trkpt lat="50.49859" lon="3.44951">
        <ele>18.9</ele>
        <time>2022-03-22T15:20:03.000Z</time>
      </trkpt>
      <trkpt lat="50.49849" lon="3.4496">
        <ele>18.6</ele>
        <time>2022-03-22T15:20:05.893Z</time>
      </trkpt>
      <trkpt lat="50.49845" lon="3.44964">
        <ele>18.4</ele>
        <time>2022-03-22T15:20:07.000Z</time>
      </trkpt>
      <trkpt lat="50.4984" lon="3.44968">
        <ele>18.2</ele>
        <time>2022-03-22T15:20:08.000Z</time>
      </trkpt>
      <trkpt lat="50.49837" lon="3.44973">
        <ele>18.2</ele>
        <time>2022-03-22T15:20:09.000Z</time>
      </trkpt>
      <trkpt lat="50.49832" lon="3.44984">
        <ele>18.4</ele>
        <time>2022-03-22T15:20:11.000Z</time>
      </trkpt>
      <trkpt lat="50.49826" lon="3.44993">
        <ele>18.6</ele>
        <time>2022-03-22T15:20:13.027Z</time>
      </trkpt>
      <trkpt lat="50.4982" lon="3.45002">
        <ele>18.5</ele>
        <time>2022-03-22T15:20:14.929Z</time>
      </trkpt>
      <trkpt lat="50.49817" lon="3.45007">
        <ele>18.3</ele>
        <time>2022-03-22T15:20:16.072Z</time>
      </trkpt>
      <trkpt lat="50.49813" lon="3.45012">
        <ele>18.2</ele>
        <time>2022-03-22T15:20:17.174Z</time>
      </trkpt>
      <trkpt lat="50.49808" lon="3.45019">
        <ele>18</ele>
        <time>2022-03-22T15:20:18.668Z</time>
      </trkpt>
      <trkpt lat="50.49804" lon="3.45026">
        <ele>18</ele>
        <time>2022-03-22T15:20:20.070Z</time>
      </trkpt>
      <trkpt lat="50.498" lon="3.45031">
        <ele>18.1</ele>
        <time>2022-03-22T15:20:21.170Z</time>
      </trkpt>
      <trkpt lat="50.49793" lon="3.45044">
        <ele>18.3</ele>
        <time>2022-03-22T15:20:23.670Z</time>
      </trkpt>
      <trkpt lat="50.49789" lon="3.45053">
        <ele>18.4</ele>
        <time>2022-03-22T15:20:25.590Z</time>
      </trkpt>
      <trkpt lat="50.49785" lon="3.4506">
        <ele>18.4</ele>
        <time>2022-03-22T15:20:26.950Z</time>
      </trkpt>
      <trkpt lat="50.49779" lon="3.45068">
        <ele>18.5</ele>
        <time>2022-03-22T15:20:29.000Z</time>
      </trkpt>
      <trkpt lat="50.49775" lon="3.45073">
        <ele>18.4</ele>
        <time>2022-03-22T15:20:30.708Z</time>
      </trkpt>
      <trkpt lat="50.49769" lon="3.45081">
        <ele>18</ele>
        <time>2022-03-22T15:20:32.989Z</time>
      </trkpt>
      <trkpt lat="50.49764" lon="3.45088">
        <ele>17.8</ele>
        <time>2022-03-22T15:20:35.000Z</time>
      </trkpt>
      <trkpt lat="50.49759" lon="3.45097">
        <ele>18</ele>
        <time>2022-03-22T15:20:37.000Z</time>
      </trkpt>
      <trkpt lat="50.49753" lon="3.45106">
        <ele>18.5</ele>
        <time>2022-03-22T15:20:39.000Z</time>
      </trkpt>
      <trkpt lat="50.4975" lon="3.45111">
        <ele>19</ele>
        <time>2022-03-22T15:20:40.450Z</time>
      </trkpt>
      <trkpt lat="50.49744" lon="3.45116">
        <ele>18.4</ele>
        <time>2022-03-22T15:20:42.452Z</time>
      </trkpt>
      <trkpt lat="50.4974" lon="3.4512">
        <ele>18.2</ele>
        <time>2022-03-22T15:20:43.771Z</time>
      </trkpt>
      <trkpt lat="50.49733" lon="3.45125">
        <ele>17.8</ele>
        <time>2022-03-22T15:20:46.000Z</time>
      </trkpt>
      <trkpt lat="50.49727" lon="3.4513">
        <ele>17.6</ele>
        <time>2022-03-22T15:20:48.000Z</time>
      </trkpt>
      <trkpt lat="50.49722" lon="3.45131">
        <ele>17.4</ele>
        <time>2022-03-22T15:20:49.168Z</time>
      </trkpt>
      <trkpt lat="50.49717" lon="3.45133">
        <ele>17.5</ele>
        <time>2022-03-22T15:20:50.488Z</time>
      </trkpt>
      <trkpt lat="50.49711" lon="3.45136">
        <ele>17.7</ele>
        <time>2022-03-22T15:20:52.000Z</time>
      </trkpt>
      <trkpt lat="50.49704" lon="3.45139">
        <ele>18</ele>
        <time>2022-03-22T15:20:54.000Z</time>
      </trkpt>
      <trkpt lat="50.4969" lon="3.45144">
        <ele>17.9</ele>
        <time>2022-03-22T15:20:57.170Z</time>
      </trkpt>
      <trkpt lat="50.49685" lon="3.45146">
        <ele>17.7</ele>
        <time>2022-03-22T15:20:58.351Z</time>
      </trkpt>
      <trkpt lat="50.49678" lon="3.45149">
        <ele>17.6</ele>
        <time>2022-03-22T15:21:00.007Z</time>
      </trkpt>
      <trkpt lat="50.49672" lon="3.45151">
        <ele>17.5</ele>
        <time>2022-03-22T15:21:01.611Z</time>
      </trkpt>
      <trkpt lat="50.49667" lon="3.45153">
        <ele>17.5</ele>
        <time>2022-03-22T15:21:02.730Z</time>
      </trkpt>
      <trkpt lat="50.49662" lon="3.45154">
        <ele>17.5</ele>
        <time>2022-03-22T15:21:04.000Z</time>
      </trkpt>
      <trkpt lat="50.49654" lon="3.45156">
        <ele>17.4</ele>
        <time>2022-03-22T15:21:06.000Z</time>
      </trkpt>
      <trkpt lat="50.49645" lon="3.45158">
        <ele>17.4</ele>
        <time>2022-03-22T15:21:08.409Z</time>
      </trkpt>
      <trkpt lat="50.49639" lon="3.4516">
        <ele>17.5</ele>
        <time>2022-03-22T15:21:09.831Z</time>
      </trkpt>
      <trkpt lat="50.49634" lon="3.45161">
        <ele>17.6</ele>
        <time>2022-03-22T15:21:10.911Z</time>
      </trkpt>
      <trkpt lat="50.4963" lon="3.45163">
        <ele>17.7</ele>
        <time>2022-03-22T15:21:12.000Z</time>
      </trkpt>
      <trkpt lat="50.49621" lon="3.45165">
        <ele>17.9</ele>
        <time>2022-03-22T15:21:14.000Z</time>
      </trkpt>
      <trkpt lat="50.49613" lon="3.45166">
        <ele>18</ele>
        <time>2022-03-22T15:21:16.000Z</time>
      </trkpt>
      <trkpt lat="50.49602" lon="3.45168">
        <ele>18</ele>
        <time>2022-03-22T15:21:18.687Z</time>
      </trkpt>
      <trkpt lat="50.49593" lon="3.4517">
        <ele>18.1</ele>
        <time>2022-03-22T15:21:21.011Z</time>
      </trkpt>
      <trkpt lat="50.49585" lon="3.45172">
        <ele>18.2</ele>
        <time>2022-03-22T15:21:23.129Z</time>
      </trkpt>
      <trkpt lat="50.49577" lon="3.45173">
        <ele>18.1</ele>
        <time>2022-03-22T15:21:25.000Z</time>
      </trkpt>
      <trkpt lat="50.49567" lon="3.45173">
        <ele>17.8</ele>
        <time>2022-03-22T15:21:27.770Z</time>
      </trkpt>
      <trkpt lat="50.49557" lon="3.45177">
        <ele>17.8</ele>
        <time>2022-03-22T15:21:30.688Z</time>
      </trkpt>
      <trkpt lat="50.4955" lon="3.45179">
        <ele>17.7</ele>
        <time>2022-03-22T15:21:32.969Z</time>
      </trkpt>
      <trkpt lat="50.49543" lon="3.45181">
        <ele>17.6</ele>
        <time>2022-03-22T15:21:35.000Z</time>
      </trkpt>
      <trkpt lat="50.49536" lon="3.45183">
        <ele>17.5</ele>
        <time>2022-03-22T15:21:37.154Z</time>
      </trkpt>
      <trkpt lat="50.49529" lon="3.45185">
        <ele>17.4</ele>
        <time>2022-03-22T15:21:39.789Z</time>
      </trkpt>
      <trkpt lat="50.49523" lon="3.45188">
        <ele>17.3</ele>
        <time>2022-03-22T15:21:41.946Z</time>
      </trkpt>
      <trkpt lat="50.49517" lon="3.45191">
        <ele>17.1</ele>
        <time>2022-03-22T15:21:44.000Z</time>
      </trkpt>
      <trkpt lat="50.4951" lon="3.45194">
        <ele>16.7</ele>
        <time>2022-03-22T15:21:46.286Z</time>
      </trkpt>
      <trkpt lat="50.49506" lon="3.45197">
        <ele>16.5</ele>
        <time>2022-03-22T15:21:47.709Z</time>
      </trkpt>
      <trkpt lat="50.49501" lon="3.45199">
        <ele>16.2</ele>
        <time>2022-03-22T15:21:49.000Z</time>
      </trkpt>
      <trkpt lat="50.49495" lon="3.45203">
        <ele>16.3</ele>
        <time>2022-03-22T15:21:51.000Z</time>
      </trkpt>
      <trkpt lat="50.49489" lon="3.45207">
        <ele>16.5</ele>
        <time>2022-03-22T15:21:53.007Z</time>
      </trkpt>
      <trkpt lat="50.49482" lon="3.45211">
        <ele>16.6</ele>
        <time>2022-03-22T15:21:55.131Z</time>
      </trkpt>
      <trkpt lat="50.49476" lon="3.45215">
        <ele>16.7</ele>
        <time>2022-03-22T15:21:57.000Z</time>
      </trkpt>
      <trkpt lat="50.49469" lon="3.4522">
        <ele>16.9</ele>
        <time>2022-03-22T15:21:59.000Z</time>
      </trkpt>
      <trkpt lat="50.49463" lon="3.45225">
        <ele>17</ele>
        <time>2022-03-22T15:22:01.000Z</time>
      </trkpt>
      <trkpt lat="50.49457" lon="3.45232">
        <ele>17</ele>
        <time>2022-03-22T15:22:03.000Z</time>
      </trkpt>
      <trkpt lat="50.49451" lon="3.45238">
        <ele>17</ele>
        <time>2022-03-22T15:22:05.011Z</time>
      </trkpt>
      <trkpt lat="50.49444" lon="3.45246">
        <ele>17</ele>
        <time>2022-03-22T15:22:07.490Z</time>
      </trkpt>
      <trkpt lat="50.4944" lon="3.4525">
        <ele>17</ele>
        <time>2022-03-22T15:22:08.731Z</time>
      </trkpt>
      <trkpt lat="50.49436" lon="3.45253">
        <ele>16.9</ele>
        <time>2022-03-22T15:22:10.007Z</time>
      </trkpt>
      <trkpt lat="50.49427" lon="3.45261">
        <ele>16.9</ele>
        <time>2022-03-22T15:22:13.000Z</time>
      </trkpt>
      <trkpt lat="50.49422" lon="3.45265">
        <ele>16.9</ele>
        <time>2022-03-22T15:22:14.560Z</time>
      </trkpt>
      <trkpt lat="50.49416" lon="3.45274">
        <ele>17</ele>
        <time>2022-03-22T15:22:17.151Z</time>
      </trkpt>
      <trkpt lat="50.49412" lon="3.45279">
        <ele>17</ele>
        <time>2022-03-22T15:22:18.611Z</time>
      </trkpt>
      <trkpt lat="50.49405" lon="3.45286">
        <ele>17</ele>
        <time>2022-03-22T15:22:21.000Z</time>
      </trkpt>
      <trkpt lat="50.49396" lon="3.45295">
        <ele>17</ele>
        <time>2022-03-22T15:22:24.069Z</time>
      </trkpt>
      <trkpt lat="50.49391" lon="3.45299">
        <ele>17</ele>
        <time>2022-03-22T15:22:25.908Z</time>
      </trkpt>
      <trkpt lat="50.49386" lon="3.45306">
        <ele>17</ele>
        <time>2022-03-22T15:22:28.000Z</time>
      </trkpt>
      <trkpt lat="50.49379" lon="3.45312">
        <ele>17</ele>
        <time>2022-03-22T15:22:30.000Z</time>
      </trkpt>
      <trkpt lat="50.49372" lon="3.45318">
        <ele>17</ele>
        <time>2022-03-22T15:22:32.000Z</time>
      </trkpt>
      <trkpt lat="50.49366" lon="3.45323">
        <ele>17</ele>
        <time>2022-03-22T15:22:34.068Z</time>
      </trkpt>
      <trkpt lat="50.49358" lon="3.4533">
        <ele>17</ele>
        <time>2022-03-22T15:22:36.109Z</time>
      </trkpt>
      <trkpt lat="50.49354" lon="3.45336">
        <ele>17</ele>
        <time>2022-03-22T15:22:37.889Z</time>
      </trkpt>
      <trkpt lat="50.49347" lon="3.45341">
        <ele>17</ele>
        <time>2022-03-22T15:22:40.031Z</time>
      </trkpt>
      <trkpt lat="50.49341" lon="3.45347">
        <ele>17</ele>
        <time>2022-03-22T15:22:42.000Z</time>
      </trkpt>
      <trkpt lat="50.49336" lon="3.45353">
        <ele>17</ele>
        <time>2022-03-22T15:22:44.000Z</time>
      </trkpt>
      <trkpt lat="50.49331" lon="3.45361">
        <ele>17</ele>
        <time>2022-03-22T15:22:45.990Z</time>
      </trkpt>
      <trkpt lat="50.49325" lon="3.45367">
        <ele>17</ele>
        <time>2022-03-22T15:22:48.110Z</time>
      </trkpt>
      <trkpt lat="50.49322" lon="3.45371">
        <ele>17</ele>
        <time>2022-03-22T15:22:49.630Z</time>
      </trkpt>
      <trkpt lat="50.49316" lon="3.45378">
        <ele>17</ele>
        <time>2022-03-22T15:22:52.028Z</time>
      </trkpt>
      <trkpt lat="50.49311" lon="3.45383">
        <ele>17</ele>
        <time>2022-03-22T15:22:53.951Z</time>
      </trkpt>
      <trkpt lat="50.49305" lon="3.4539">
        <ele>17</ele>
        <time>2022-03-22T15:22:55.988Z</time>
      </trkpt>
      <trkpt lat="50.49299" lon="3.45396">
        <ele>17</ele>
        <time>2022-03-22T15:22:58.000Z</time>
      </trkpt>
      <trkpt lat="50.49293" lon="3.45402">
        <ele>17</ele>
        <time>2022-03-22T15:23:00.000Z</time>
      </trkpt>
      <trkpt lat="50.49285" lon="3.4541">
        <ele>17</ele>
        <time>2022-03-22T15:23:02.565Z</time>
      </trkpt>
      <trkpt lat="50.49278" lon="3.45416">
        <ele>17</ele>
        <time>2022-03-22T15:23:05.000Z</time>
      </trkpt>
      <trkpt lat="50.49272" lon="3.45422">
        <ele>17</ele>
        <time>2022-03-22T15:23:07.000Z</time>
      </trkpt>
      <trkpt lat="50.49263" lon="3.45431">
        <ele>17</ele>
        <time>2022-03-22T15:23:09.931Z</time>
      </trkpt>
      <trkpt lat="50.49257" lon="3.45437">
        <ele>17</ele>
        <time>2022-03-22T15:23:11.992Z</time>
      </trkpt>
      <trkpt lat="50.49252" lon="3.45444">
        <ele>17</ele>
        <time>2022-03-22T15:23:13.970Z</time>
      </trkpt>
      <trkpt lat="50.49246" lon="3.45451">
        <ele>16.8</ele>
        <time>2022-03-22T15:23:16.000Z</time>
      </trkpt>
      <trkpt lat="50.49239" lon="3.45457">
        <ele>16.5</ele>
        <time>2022-03-22T15:23:18.000Z</time>
      </trkpt>
      <trkpt lat="50.49232" lon="3.45463">
        <ele>16.3</ele>
        <time>2022-03-22T15:23:20.467Z</time>
      </trkpt>
      <trkpt lat="50.49225" lon="3.45471">
        <ele>16</ele>
        <time>2022-03-22T15:23:23.032Z</time>
      </trkpt>
      <trkpt lat="50.49217" lon="3.45477">
        <ele>16.2</ele>
        <time>2022-03-22T15:23:25.509Z</time>
      </trkpt>
      <trkpt lat="50.49212" lon="3.45481">
        <ele>16.3</ele>
        <time>2022-03-22T15:23:27.033Z</time>
      </trkpt>
      <trkpt lat="50.49207" lon="3.45486">
        <ele>16.3</ele>
        <time>2022-03-22T15:23:29.000Z</time>
      </trkpt>
      <trkpt lat="50.49201" lon="3.45494">
        <ele>16.2</ele>
        <time>2022-03-22T15:23:31.000Z</time>
      </trkpt>
      <trkpt lat="50.49197" lon="3.455">
        <ele>16</ele>
        <time>2022-03-22T15:23:32.554Z</time>
      </trkpt>
      <trkpt lat="50.4919" lon="3.45507">
        <ele>16</ele>
        <time>2022-03-22T15:23:34.870Z</time>
      </trkpt>
      <trkpt lat="50.49184" lon="3.45515">
        <ele>16</ele>
        <time>2022-03-22T15:23:37.000Z</time>
      </trkpt>
      <trkpt lat="50.49177" lon="3.45523">
        <ele>16</ele>
        <time>2022-03-22T15:23:39.171Z</time>
      </trkpt>
      <trkpt lat="50.49171" lon="3.45529">
        <ele>16</ele>
        <time>2022-03-22T15:23:40.992Z</time>
      </trkpt>
      <trkpt lat="50.49166" lon="3.45533">
        <ele>16</ele>
        <time>2022-03-22T15:23:43.000Z</time>
      </trkpt>
      <trkpt lat="50.49161" lon="3.45535">
        <ele>16.2</ele>
        <time>2022-03-22T15:23:46.000Z</time>
      </trkpt>
      <trkpt lat="50.49157" lon="3.45539">
        <ele>16.2</ele>
        <time>2022-03-22T15:23:48.000Z</time>
      </trkpt>
      <trkpt lat="50.49154" lon="3.45545">
        <ele>16.2</ele>
        <time>2022-03-22T15:23:50.808Z</time>
      </trkpt>
      <trkpt lat="50.49153" lon="3.45554">
        <ele>16</ele>
        <time>2022-03-22T15:23:57.000Z</time>
      </trkpt>
      <trkpt lat="50.49146" lon="3.45556">
        <ele>16</ele>
        <time>2022-03-22T15:24:00.000Z</time>
      </trkpt>
      <trkpt lat="50.49142" lon="3.45559">
        <ele>16</ele>
        <time>2022-03-22T15:24:02.000Z</time>
      </trkpt>
      <trkpt lat="50.49137" lon="3.45562">
        <ele>16</ele>
        <time>2022-03-22T15:24:04.000Z</time>
      </trkpt>
      <trkpt lat="50.4913" lon="3.45568">
        <ele>16</ele>
        <time>2022-03-22T15:24:06.589Z</time>
      </trkpt>
      <trkpt lat="50.49126" lon="3.45572">
        <ele>16</ele>
        <time>2022-03-22T15:24:07.769Z</time>
      </trkpt>
      <trkpt lat="50.49121" lon="3.45576">
        <ele>16</ele>
        <time>2022-03-22T15:24:08.969Z</time>
      </trkpt>
      <trkpt lat="50.49115" lon="3.45583">
        <ele>16</ele>
        <time>2022-03-22T15:24:10.000Z</time>
      </trkpt>
      <trkpt lat="50.4911" lon="3.45587">
        <ele>16</ele>
        <time>2022-03-22T15:24:11.000Z</time>
      </trkpt>
      <trkpt lat="50.49105" lon="3.45591">
        <ele>16</ele>
        <time>2022-03-22T15:24:12.000Z</time>
      </trkpt>
      <trkpt lat="50.49099" lon="3.45596">
        <ele>16</ele>
        <time>2022-03-22T15:24:13.000Z</time>
      </trkpt>
      <trkpt lat="50.49094" lon="3.45601">
        <ele>16</ele>
        <time>2022-03-22T15:24:14.000Z</time>
      </trkpt>
      <trkpt lat="50.49089" lon="3.45607">
        <ele>16</ele>
        <time>2022-03-22T15:24:15.000Z</time>
      </trkpt>
      <trkpt lat="50.49084" lon="3.45613">
        <ele>16</ele>
        <time>2022-03-22T15:24:16.000Z</time>
      </trkpt>
      <trkpt lat="50.49079" lon="3.45618">
        <ele>16</ele>
        <time>2022-03-22T15:24:17.000Z</time>
      </trkpt>
      <trkpt lat="50.49074" lon="3.45623">
        <ele>16</ele>
        <time>2022-03-22T15:24:18.000Z</time>
      </trkpt>
      <trkpt lat="50.49069" lon="3.45628">
        <ele>16</ele>
        <time>2022-03-22T15:24:19.000Z</time>
      </trkpt>
      <trkpt lat="50.49065" lon="3.45632">
        <ele>16</ele>
        <time>2022-03-22T15:24:20.000Z</time>
      </trkpt>
      <trkpt lat="50.49061" lon="3.45637">
        <ele>16</ele>
        <time>2022-03-22T15:24:21.000Z</time>
      </trkpt>
      <trkpt lat="50.49056" lon="3.45641">
        <ele>16</ele>
        <time>2022-03-22T15:24:22.000Z</time>
      </trkpt>
      <trkpt lat="50.49052" lon="3.45645">
        <ele>16</ele>
        <time>2022-03-22T15:24:23.000Z</time>
      </trkpt>
      <trkpt lat="50.49048" lon="3.4565">
        <ele>16</ele>
        <time>2022-03-22T15:24:24.000Z</time>
      </trkpt>
      <trkpt lat="50.49044" lon="3.45655">
        <ele>16</ele>
        <time>2022-03-22T15:24:25.000Z</time>
      </trkpt>
      <trkpt lat="50.49039" lon="3.45659">
        <ele>16</ele>
        <time>2022-03-22T15:24:26.000Z</time>
      </trkpt>
      <trkpt lat="50.49035" lon="3.45663">
        <ele>16</ele>
        <time>2022-03-22T15:24:27.000Z</time>
      </trkpt>
      <trkpt lat="50.4903" lon="3.45668">
        <ele>16</ele>
        <time>2022-03-22T15:24:28.000Z</time>
      </trkpt>
      <trkpt lat="50.49026" lon="3.45672">
        <ele>16</ele>
        <time>2022-03-22T15:24:29.000Z</time>
      </trkpt>
      <trkpt lat="50.49019" lon="3.45679">
        <ele>16</ele>
        <time>2022-03-22T15:24:31.000Z</time>
      </trkpt>
      <trkpt lat="50.49015" lon="3.45683">
        <ele>16</ele>
        <time>2022-03-22T15:24:32.000Z</time>
      </trkpt>
      <trkpt lat="50.49008" lon="3.4569">
        <ele>16</ele>
        <time>2022-03-22T15:24:34.000Z</time>
      </trkpt>
      <trkpt lat="50.49003" lon="3.45691">
        <ele>16</ele>
        <time>2022-03-22T15:24:36.061Z</time>
      </trkpt>
      <trkpt lat="50.48999" lon="3.45695">
        <ele>16</ele>
        <time>2022-03-22T15:24:37.000Z</time>
      </trkpt>
      <trkpt lat="50.48993" lon="3.45704">
        <ele>16</ele>
        <time>2022-03-22T15:24:38.607Z</time>
      </trkpt>
      <trkpt lat="50.48989" lon="3.4571">
        <ele>16</ele>
        <time>2022-03-22T15:24:39.839Z</time>
      </trkpt>
      <trkpt lat="50.48984" lon="3.45715">
        <ele>16</ele>
        <time>2022-03-22T15:24:41.059Z</time>
      </trkpt>
      <trkpt lat="50.48981" lon="3.45719">
        <ele>16</ele>
        <time>2022-03-22T15:24:42.000Z</time>
      </trkpt>
      <trkpt lat="50.48974" lon="3.45728">
        <ele>16</ele>
        <time>2022-03-22T15:24:44.000Z</time>
      </trkpt>
      <trkpt lat="50.48968" lon="3.45734">
        <ele>16</ele>
        <time>2022-03-22T15:24:45.916Z</time>
      </trkpt>
      <trkpt lat="50.48965" lon="3.4574">
        <ele>16</ele>
        <time>2022-03-22T15:24:47.117Z</time>
      </trkpt>
      <trkpt lat="50.48958" lon="3.45746">
        <ele>16</ele>
        <time>2022-03-22T15:24:49.037Z</time>
      </trkpt>
      <trkpt lat="50.48952" lon="3.45753">
        <ele>16</ele>
        <time>2022-03-22T15:24:51.000Z</time>
      </trkpt>
      <trkpt lat="50.48945" lon="3.4576">
        <ele>16</ele>
        <time>2022-03-22T15:24:53.000Z</time>
      </trkpt>
      <trkpt lat="50.48938" lon="3.45766">
        <ele>16</ele>
        <time>2022-03-22T15:24:55.058Z</time>
      </trkpt>
      <trkpt lat="50.48931" lon="3.45774">
        <ele>16</ele>
        <time>2022-03-22T15:24:57.419Z</time>
      </trkpt>
      <trkpt lat="50.48927" lon="3.4578">
        <ele>16</ele>
        <time>2022-03-22T15:24:58.918Z</time>
      </trkpt>
      <trkpt lat="50.48921" lon="3.45786">
        <ele>16</ele>
        <time>2022-03-22T15:25:01.000Z</time>
      </trkpt>
      <trkpt lat="50.48916" lon="3.45793">
        <ele>16</ele>
        <time>2022-03-22T15:25:03.018Z</time>
      </trkpt>
      <trkpt lat="50.48912" lon="3.45799">
        <ele>16</ele>
        <time>2022-03-22T15:25:05.000Z</time>
      </trkpt>
      <trkpt lat="50.48908" lon="3.45804">
        <ele>16</ele>
        <time>2022-03-22T15:25:06.738Z</time>
      </trkpt>
      <trkpt lat="50.48903" lon="3.4581">
        <ele>16</ele>
        <time>2022-03-22T15:25:09.000Z</time>
      </trkpt>
      <trkpt lat="50.48898" lon="3.45816">
        <ele>16</ele>
        <time>2022-03-22T15:25:11.000Z</time>
      </trkpt>
      <trkpt lat="50.48894" lon="3.45821">
        <ele>16</ele>
        <time>2022-03-22T15:25:13.000Z</time>
      </trkpt>
      <trkpt lat="50.48887" lon="3.45829">
        <ele>16</ele>
        <time>2022-03-22T15:25:15.721Z</time>
      </trkpt>
      <trkpt lat="50.48882" lon="3.45834">
        <ele>16</ele>
        <time>2022-03-22T15:25:17.800Z</time>
      </trkpt>
      <trkpt lat="50.48876" lon="3.45841">
        <ele>16</ele>
        <time>2022-03-22T15:25:20.000Z</time>
      </trkpt>
      <trkpt lat="50.4887" lon="3.45848">
        <ele>16</ele>
        <time>2022-03-22T15:25:22.000Z</time>
      </trkpt>
      <trkpt lat="50.48864" lon="3.45853">
        <ele>16</ele>
        <time>2022-03-22T15:25:23.959Z</time>
      </trkpt>
      <trkpt lat="50.4886" lon="3.45857">
        <ele>16</ele>
        <time>2022-03-22T15:25:25.520Z</time>
      </trkpt>
      <trkpt lat="50.48854" lon="3.45865">
        <ele>16</ele>
        <time>2022-03-22T15:25:28.000Z</time>
      </trkpt>
      <trkpt lat="50.48849" lon="3.4587">
        <ele>16</ele>
        <time>2022-03-22T15:25:29.917Z</time>
      </trkpt>
      <trkpt lat="50.48842" lon="3.45877">
        <ele>16</ele>
        <time>2022-03-22T15:25:32.061Z</time>
      </trkpt>
      <trkpt lat="50.48834" lon="3.45883">
        <ele>16</ele>
        <time>2022-03-22T15:25:34.858Z</time>
      </trkpt>
      <trkpt lat="50.48828" lon="3.45891">
        <ele>16</ele>
        <time>2022-03-22T15:25:37.820Z</time>
      </trkpt>
      <trkpt lat="50.48821" lon="3.45898">
        <ele>16</ele>
        <time>2022-03-22T15:25:40.897Z</time>
      </trkpt>
      <trkpt lat="50.48813" lon="3.45903">
        <ele>16</ele>
        <time>2022-03-22T15:25:43.699Z</time>
      </trkpt>
      <trkpt lat="50.48806" lon="3.45911">
        <ele>16</ele>
        <time>2022-03-22T15:25:46.437Z</time>
      </trkpt>
      <trkpt lat="50.48798" lon="3.45916">
        <ele>16</ele>
        <time>2022-03-22T15:25:49.298Z</time>
      </trkpt>
      <trkpt lat="50.48792" lon="3.45922">
        <ele>16</ele>
        <time>2022-03-22T15:25:52.000Z</time>
      </trkpt>
      <trkpt lat="50.48787" lon="3.4593">
        <ele>16</ele>
        <time>2022-03-22T15:25:54.920Z</time>
      </trkpt>
      <trkpt lat="50.48778" lon="3.4594">
        <ele>16</ele>
        <time>2022-03-22T15:25:58.919Z</time>
      </trkpt>
      <trkpt lat="50.48773" lon="3.45947">
        <ele>16</ele>
        <time>2022-03-22T15:26:02.000Z</time>
      </trkpt>
      <trkpt lat="50.48776" lon="3.45942">
        <ele>16</ele>
        <time>2022-03-22T15:26:08.000Z</time>
      </trkpt>
      <trkpt lat="50.48769" lon="3.45951">
        <ele>16</ele>
        <time>2022-03-22T15:26:34.837Z</time>
      </trkpt>
      <trkpt lat="50.4876" lon="3.45962">
        <ele>16</ele>
        <time>2022-03-22T15:26:38.001Z</time>
      </trkpt>
      <trkpt lat="50.48752" lon="3.45972">
        <ele>16</ele>
        <time>2022-03-22T15:26:40.938Z</time>
      </trkpt>
      <trkpt lat="50.48743" lon="3.4598">
        <ele>16</ele>
        <time>2022-03-22T15:26:43.757Z</time>
      </trkpt>
      <trkpt lat="50.48734" lon="3.4599">
        <ele>16</ele>
        <time>2022-03-22T15:26:47.000Z</time>
      </trkpt>
      <trkpt lat="50.48724" lon="3.46">
        <ele>16</ele>
        <time>2022-03-22T15:26:49.878Z</time>
      </trkpt>
      <trkpt lat="50.48718" lon="3.46006">
        <ele>16</ele>
        <time>2022-03-22T15:26:52.640Z</time>
      </trkpt>
      <trkpt lat="50.48709" lon="3.46015">
        <ele>16</ele>
        <time>2022-03-22T15:26:55.717Z</time>
      </trkpt>
      <trkpt lat="50.48701" lon="3.46025">
        <ele>16</ele>
        <time>2022-03-22T15:26:58.757Z</time>
      </trkpt>
      <trkpt lat="50.48692" lon="3.46034">
        <ele>15.8</ele>
        <time>2022-03-22T15:27:01.959Z</time>
      </trkpt>
      <trkpt lat="50.48683" lon="3.46042">
        <ele>15.7</ele>
        <time>2022-03-22T15:27:04.677Z</time>
      </trkpt>
      <trkpt lat="50.48675" lon="3.46053">
        <ele>15.7</ele>
        <time>2022-03-22T15:27:07.698Z</time>
      </trkpt>
      <trkpt lat="50.48667" lon="3.46061">
        <ele>16</ele>
        <time>2022-03-22T15:27:10.958Z</time>
      </trkpt>
      <trkpt lat="50.4866" lon="3.46071">
        <ele>16</ele>
        <time>2022-03-22T15:27:14.059Z</time>
      </trkpt>
      <trkpt lat="50.48653" lon="3.46079">
        <ele>16</ele>
        <time>2022-03-22T15:27:16.859Z</time>
      </trkpt>
      <trkpt lat="50.48645" lon="3.46086">
        <ele>15.9</ele>
        <time>2022-03-22T15:27:19.561Z</time>
      </trkpt>
      <trkpt lat="50.48637" lon="3.46096">
        <ele>15.6</ele>
        <time>2022-03-22T15:27:22.797Z</time>
      </trkpt>
      <trkpt lat="50.48628" lon="3.46106">
        <ele>15.5</ele>
        <time>2022-03-22T15:27:26.038Z</time>
      </trkpt>
      <trkpt lat="50.48619" lon="3.46117">
        <ele>15.7</ele>
        <time>2022-03-22T15:27:28.817Z</time>
      </trkpt>
      <trkpt lat="50.48608" lon="3.46126">
        <ele>16</ele>
        <time>2022-03-22T15:27:32.000Z</time>
      </trkpt>
      <trkpt lat="50.48599" lon="3.46135">
        <ele>16</ele>
        <time>2022-03-22T15:27:35.000Z</time>
      </trkpt>
      <trkpt lat="50.48591" lon="3.46143">
        <ele>16</ele>
        <time>2022-03-22T15:27:37.721Z</time>
      </trkpt>
      <trkpt lat="50.48583" lon="3.46153">
        <ele>16</ele>
        <time>2022-03-22T15:27:40.841Z</time>
      </trkpt>
      <trkpt lat="50.48574" lon="3.46162">
        <ele>16</ele>
        <time>2022-03-22T15:27:44.000Z</time>
      </trkpt>
      <trkpt lat="50.48566" lon="3.46169">
        <ele>16</ele>
        <time>2022-03-22T15:27:47.000Z</time>
      </trkpt>
      <trkpt lat="50.48561" lon="3.46174">
        <ele>16</ele>
        <time>2022-03-22T15:27:50.000Z</time>
      </trkpt>
      <trkpt lat="50.48553" lon="3.46182">
        <ele>16.1</ele>
        <time>2022-03-22T15:27:53.281Z</time>
      </trkpt>
      <trkpt lat="50.48547" lon="3.4619">
        <ele>16.3</ele>
        <time>2022-03-22T15:27:56.000Z</time>
      </trkpt>
      <trkpt lat="50.48539" lon="3.462">
        <ele>16.6</ele>
        <time>2022-03-22T15:27:59.057Z</time>
      </trkpt>
      <trkpt lat="50.48531" lon="3.46208">
        <ele>16.9</ele>
        <time>2022-03-22T15:28:02.000Z</time>
      </trkpt>
      <trkpt lat="50.48522" lon="3.46216">
        <ele>17</ele>
        <time>2022-03-22T15:28:05.000Z</time>
      </trkpt>
      <trkpt lat="50.48513" lon="3.46227">
        <ele>16.9</ele>
        <time>2022-03-22T15:28:08.000Z</time>
      </trkpt>
      <trkpt lat="50.48504" lon="3.46236">
        <ele>16.9</ele>
        <time>2022-03-22T15:28:10.922Z</time>
      </trkpt>
      <trkpt lat="50.48497" lon="3.46245">
        <ele>17</ele>
        <time>2022-03-22T15:28:13.778Z</time>
      </trkpt>
      <trkpt lat="50.48489" lon="3.46253">
        <ele>16.9</ele>
        <time>2022-03-22T15:28:16.659Z</time>
      </trkpt>
      <trkpt lat="50.48481" lon="3.46263">
        <ele>16.9</ele>
        <time>2022-03-22T15:28:19.761Z</time>
      </trkpt>
      <trkpt lat="50.48472" lon="3.46272">
        <ele>17</ele>
        <time>2022-03-22T15:28:23.000Z</time>
      </trkpt>
      <trkpt lat="50.48464" lon="3.4628">
        <ele>16.9</ele>
        <time>2022-03-22T15:28:26.000Z</time>
      </trkpt>
      <trkpt lat="50.48456" lon="3.46289">
        <ele>16.8</ele>
        <time>2022-03-22T15:28:29.000Z</time>
      </trkpt>
      <trkpt lat="50.48449" lon="3.46298">
        <ele>16.9</ele>
        <time>2022-03-22T15:28:31.880Z</time>
      </trkpt>
      <trkpt lat="50.48443" lon="3.46305">
        <ele>17</ele>
        <time>2022-03-22T15:28:34.760Z</time>
      </trkpt>
      <trkpt lat="50.48436" lon="3.46315">
        <ele>16.8</ele>
        <time>2022-03-22T15:28:37.780Z</time>
      </trkpt>
      <trkpt lat="50.48427" lon="3.46323">
        <ele>16.8</ele>
        <time>2022-03-22T15:28:40.877Z</time>
      </trkpt>
      <trkpt lat="50.48419" lon="3.46331">
        <ele>16.9</ele>
        <time>2022-03-22T15:28:43.840Z</time>
      </trkpt>
      <trkpt lat="50.48412" lon="3.46338">
        <ele>16.9</ele>
        <time>2022-03-22T15:28:46.739Z</time>
      </trkpt>
      <trkpt lat="50.48403" lon="3.46348">
        <ele>16.7</ele>
        <time>2022-03-22T15:28:49.843Z</time>
      </trkpt>
      <trkpt lat="50.48395" lon="3.46356">
        <ele>16.8</ele>
        <time>2022-03-22T15:28:52.780Z</time>
      </trkpt>
      <trkpt lat="50.48386" lon="3.46366">
        <ele>16.8</ele>
        <time>2022-03-22T15:28:56.000Z</time>
      </trkpt>
      <trkpt lat="50.48379" lon="3.46375">
        <ele>16.7</ele>
        <time>2022-03-22T15:28:59.000Z</time>
      </trkpt>
      <trkpt lat="50.48372" lon="3.46384">
        <ele>16.7</ele>
        <time>2022-03-22T15:29:01.740Z</time>
      </trkpt>
      <trkpt lat="50.48364" lon="3.4639">
        <ele>16.9</ele>
        <time>2022-03-22T15:29:04.520Z</time>
      </trkpt>
      <trkpt lat="50.48355" lon="3.46397">
        <ele>17</ele>
        <time>2022-03-22T15:29:07.741Z</time>
      </trkpt>
      <trkpt lat="50.48346" lon="3.46403">
        <ele>17</ele>
        <time>2022-03-22T15:29:11.000Z</time>
      </trkpt>
      <trkpt lat="50.48338" lon="3.46409">
        <ele>17</ele>
        <time>2022-03-22T15:29:14.000Z</time>
      </trkpt>
      <trkpt lat="50.48332" lon="3.46416">
        <ele>17</ele>
        <time>2022-03-22T15:29:16.879Z</time>
      </trkpt>
      <trkpt lat="50.48323" lon="3.46422">
        <ele>16.8</ele>
        <time>2022-03-22T15:29:19.962Z</time>
      </trkpt>
      <trkpt lat="50.48315" lon="3.4643">
        <ele>16.5</ele>
        <time>2022-03-22T15:29:23.000Z</time>
      </trkpt>
      <trkpt lat="50.48304" lon="3.46438">
        <ele>16.2</ele>
        <time>2022-03-22T15:29:25.818Z</time>
      </trkpt>
      <trkpt lat="50.48293" lon="3.46452">
        <ele>16</ele>
        <time>2022-03-22T15:29:28.958Z</time>
      </trkpt>
      <trkpt lat="50.48282" lon="3.46469">
        <ele>16</ele>
        <time>2022-03-22T15:29:32.000Z</time>
      </trkpt>
      <trkpt lat="50.48276" lon="3.46485">
        <ele>16</ele>
        <time>2022-03-22T15:29:34.999Z</time>
      </trkpt>
      <trkpt lat="50.48269" lon="3.46503">
        <ele>16</ele>
        <time>2022-03-22T15:29:37.860Z</time>
      </trkpt>
      <trkpt lat="50.48263" lon="3.46515">
        <ele>16</ele>
        <time>2022-03-22T15:29:40.962Z</time>
      </trkpt>
      <trkpt lat="50.48259" lon="3.46538">
        <ele>16</ele>
        <time>2022-03-22T15:29:43.723Z</time>
      </trkpt>
      <trkpt lat="50.48252" lon="3.46559">
        <ele>16</ele>
        <time>2022-03-22T15:29:46.921Z</time>
      </trkpt>
      <trkpt lat="50.48246" lon="3.46578">
        <ele>16</ele>
        <time>2022-03-22T15:29:50.000Z</time>
      </trkpt>
      <trkpt lat="50.48242" lon="3.46594">
        <ele>16.1</ele>
        <time>2022-03-22T15:29:53.004Z</time>
      </trkpt>
      <trkpt lat="50.48236" lon="3.46606">
        <ele>16.4</ele>
        <time>2022-03-22T15:29:56.000Z</time>
      </trkpt>
      <trkpt lat="50.48232" lon="3.46615">
        <ele>16.6</ele>
        <time>2022-03-22T15:29:58.920Z</time>
      </trkpt>
      <trkpt lat="50.48229" lon="3.46623">
        <ele>16.8</ele>
        <time>2022-03-22T15:30:01.624Z</time>
      </trkpt>
      <trkpt lat="50.48225" lon="3.46631">
        <ele>16.9</ele>
        <time>2022-03-22T15:30:04.941Z</time>
      </trkpt>
      <trkpt lat="50.48221" lon="3.46639">
        <ele>17</ele>
        <time>2022-03-22T15:30:08.042Z</time>
      </trkpt>
      <trkpt lat="50.48215" lon="3.46638">
        <ele>17</ele>
        <time>2022-03-22T15:30:10.923Z</time>
      </trkpt>
      <trkpt lat="50.48207" lon="3.4663">
        <ele>17</ele>
        <time>2022-03-22T15:30:13.703Z</time>
      </trkpt>
      <trkpt lat="50.48195" lon="3.46622">
        <ele>17</ele>
        <time>2022-03-22T15:30:17.106Z</time>
      </trkpt>
      <trkpt lat="50.48185" lon="3.46616">
        <ele>17</ele>
        <time>2022-03-22T15:30:20.000Z</time>
      </trkpt>
      <trkpt lat="50.48175" lon="3.46614">
        <ele>17</ele>
        <time>2022-03-22T15:30:23.000Z</time>
      </trkpt>
      <trkpt lat="50.48165" lon="3.4661">
        <ele>17</ele>
        <time>2022-03-22T15:30:26.000Z</time>
      </trkpt>
      <trkpt lat="50.48156" lon="3.46606">
        <ele>16.9</ele>
        <time>2022-03-22T15:30:29.000Z</time>
      </trkpt>
      <trkpt lat="50.48146" lon="3.46606">
        <ele>17</ele>
        <time>2022-03-22T15:30:32.000Z</time>
      </trkpt>
      <trkpt lat="50.48139" lon="3.46606">
        <ele>17</ele>
        <time>2022-03-22T15:30:35.000Z</time>
      </trkpt>
      <trkpt lat="50.4813" lon="3.4661">
        <ele>17.3</ele>
        <time>2022-03-22T15:30:47.000Z</time>
      </trkpt>
      <trkpt lat="50.48124" lon="3.46615">
        <ele>17.6</ele>
        <time>2022-03-22T15:30:50.000Z</time>
      </trkpt>
      <trkpt lat="50.48118" lon="3.46619">
        <ele>17.8</ele>
        <time>2022-03-22T15:30:53.000Z</time>
      </trkpt>
      <trkpt lat="50.48113" lon="3.46625">
        <ele>18</ele>
        <time>2022-03-22T15:30:56.000Z</time>
      </trkpt>
      <trkpt lat="50.48108" lon="3.46631">
        <ele>18.1</ele>
        <time>2022-03-22T15:30:59.000Z</time>
      </trkpt>
      <trkpt lat="50.48102" lon="3.46638">
        <ele>18.3</ele>
        <time>2022-03-22T15:31:02.000Z</time>
      </trkpt>
      <trkpt lat="50.48096" lon="3.46646">
        <ele>18.7</ele>
        <time>2022-03-22T15:31:05.000Z</time>
      </trkpt>
      <trkpt lat="50.4809" lon="3.46652">
        <ele>18.9</ele>
        <time>2022-03-22T15:31:08.000Z</time>
      </trkpt>
      <trkpt lat="50.48084" lon="3.46659">
        <ele>19</ele>
        <time>2022-03-22T15:31:11.000Z</time>
      </trkpt>
      <trkpt lat="50.48078" lon="3.46667">
        <ele>19.2</ele>
        <time>2022-03-22T15:31:13.860Z</time>
      </trkpt>
      <trkpt lat="50.48072" lon="3.46676">
        <ele>19.6</ele>
        <time>2022-03-22T15:31:17.000Z</time>
      </trkpt>
      <trkpt lat="50.48067" lon="3.46683">
        <ele>19.8</ele>
        <time>2022-03-22T15:31:20.000Z</time>
      </trkpt>
      <trkpt lat="50.48063" lon="3.46689">
        <ele>19.9</ele>
        <time>2022-03-22T15:31:23.000Z</time>
      </trkpt>
      <trkpt lat="50.48057" lon="3.46695">
        <ele>20</ele>
        <time>2022-03-22T15:31:25.823Z</time>
      </trkpt>
      <trkpt lat="50.48051" lon="3.46704">
        <ele>20</ele>
        <time>2022-03-22T15:31:29.000Z</time>
      </trkpt>
      <trkpt lat="50.48045" lon="3.46713">
        <ele>20</ele>
        <time>2022-03-22T15:31:32.000Z</time>
      </trkpt>
      <trkpt lat="50.48039" lon="3.46721">
        <ele>20</ele>
        <time>2022-03-22T15:31:35.000Z</time>
      </trkpt>
      <trkpt lat="50.48035" lon="3.46727">
        <ele>20.2</ele>
        <time>2022-03-22T15:31:37.000Z</time>
      </trkpt>
      <trkpt lat="50.48032" lon="3.46732">
        <ele>20.4</ele>
        <time>2022-03-22T15:31:39.000Z</time>
      </trkpt>
      <trkpt lat="50.48027" lon="3.46737">
        <ele>20.5</ele>
        <time>2022-03-22T15:31:41.000Z</time>
      </trkpt>
      <trkpt lat="50.48023" lon="3.46743">
        <ele>20.6</ele>
        <time>2022-03-22T15:31:43.000Z</time>
      </trkpt>
      <trkpt lat="50.48018" lon="3.46748">
        <ele>20.6</ele>
        <time>2022-03-22T15:31:45.000Z</time>
      </trkpt>
      <trkpt lat="50.48014" lon="3.46753">
        <ele>20.6</ele>
        <time>2022-03-22T15:31:47.000Z</time>
      </trkpt>
      <trkpt lat="50.48009" lon="3.46759">
        <ele>20.5</ele>
        <time>2022-03-22T15:31:49.000Z</time>
      </trkpt>
      <trkpt lat="50.48004" lon="3.46766">
        <ele>20.6</ele>
        <time>2022-03-22T15:31:51.000Z</time>
      </trkpt>
      <trkpt lat="50.47999" lon="3.46773">
        <ele>20.8</ele>
        <time>2022-03-22T15:31:53.000Z</time>
      </trkpt>
      <trkpt lat="50.47993" lon="3.46781">
        <ele>21.1</ele>
        <time>2022-03-22T15:31:55.584Z</time>
      </trkpt>
      <trkpt lat="50.47986" lon="3.46789">
        <ele>21.4</ele>
        <time>2022-03-22T15:31:58.000Z</time>
      </trkpt>
      <trkpt lat="50.4798" lon="3.46797">
        <ele>21.7</ele>
        <time>2022-03-22T15:32:00.340Z</time>
      </trkpt>
      <trkpt lat="50.47974" lon="3.46806">
        <ele>22</ele>
        <time>2022-03-22T15:32:03.000Z</time>
      </trkpt>
      <trkpt lat="50.47971" lon="3.46812">
        <ele>22.3</ele>
        <time>2022-03-22T15:32:05.000Z</time>
      </trkpt>
      <trkpt lat="50.47967" lon="3.46819">
        <ele>22.6</ele>
        <time>2022-03-22T15:32:07.000Z</time>
      </trkpt>
      <trkpt lat="50.47963" lon="3.46825">
        <ele>22.8</ele>
        <time>2022-03-22T15:32:09.000Z</time>
      </trkpt>
      <trkpt lat="50.47956" lon="3.46833">
        <ele>23</ele>
        <time>2022-03-22T15:32:12.000Z</time>
      </trkpt>
      <trkpt lat="50.47952" lon="3.46839">
        <ele>23</ele>
        <time>2022-03-22T15:32:14.000Z</time>
      </trkpt>
      <trkpt lat="50.47948" lon="3.46844">
        <ele>23</ele>
        <time>2022-03-22T15:32:16.000Z</time>
      </trkpt>
      <trkpt lat="50.47943" lon="3.46851">
        <ele>23</ele>
        <time>2022-03-22T15:32:18.102Z</time>
      </trkpt>
      <trkpt lat="50.47938" lon="3.46858">
        <ele>23</ele>
        <time>2022-03-22T15:32:20.401Z</time>
      </trkpt>
      <trkpt lat="50.47933" lon="3.46864">
        <ele>23</ele>
        <time>2022-03-22T15:32:23.000Z</time>
      </trkpt>
      <trkpt lat="50.47928" lon="3.46869">
        <ele>23</ele>
        <time>2022-03-22T15:32:25.000Z</time>
      </trkpt>
      <trkpt lat="50.47924" lon="3.46876">
        <ele>23</ele>
        <time>2022-03-22T15:32:27.000Z</time>
      </trkpt>
      <trkpt lat="50.47919" lon="3.46882">
        <ele>23</ele>
        <time>2022-03-22T15:32:29.062Z</time>
      </trkpt>
      <trkpt lat="50.47915" lon="3.46888">
        <ele>23</ele>
        <time>2022-03-22T15:32:31.000Z</time>
      </trkpt>
      <trkpt lat="50.4791" lon="3.46894">
        <ele>23.1</ele>
        <time>2022-03-22T15:32:33.103Z</time>
      </trkpt>
      <trkpt lat="50.47907" lon="3.46899">
        <ele>23.2</ele>
        <time>2022-03-22T15:32:34.624Z</time>
      </trkpt>
      <trkpt lat="50.47901" lon="3.46905">
        <ele>23.3</ele>
        <time>2022-03-22T15:32:37.000Z</time>
      </trkpt>
      <trkpt lat="50.47894" lon="3.46913">
        <ele>23.2</ele>
        <time>2022-03-22T15:32:40.000Z</time>
      </trkpt>
      <trkpt lat="50.4789" lon="3.46919">
        <ele>23.1</ele>
        <time>2022-03-22T15:32:42.000Z</time>
      </trkpt>
      <trkpt lat="50.47886" lon="3.46925">
        <ele>23.3</ele>
        <time>2022-03-22T15:32:44.000Z</time>
      </trkpt>
      <trkpt lat="50.47881" lon="3.4693">
        <ele>23.5</ele>
        <time>2022-03-22T15:32:46.000Z</time>
      </trkpt>
      <trkpt lat="50.47876" lon="3.46935">
        <ele>23.7</ele>
        <time>2022-03-22T15:32:47.924Z</time>
      </trkpt>
      <trkpt lat="50.47871" lon="3.46939">
        <ele>23.8</ele>
        <time>2022-03-22T15:32:50.000Z</time>
      </trkpt>
      <trkpt lat="50.47867" lon="3.46945">
        <ele>24</ele>
        <time>2022-03-22T15:32:52.000Z</time>
      </trkpt>
      <trkpt lat="50.47863" lon="3.4695">
        <ele>24</ele>
        <time>2022-03-22T15:32:54.000Z</time>
      </trkpt>
      <trkpt lat="50.47859" lon="3.46955">
        <ele>24</ele>
        <time>2022-03-22T15:32:56.000Z</time>
      </trkpt>
      <trkpt lat="50.47855" lon="3.4696">
        <ele>23.9</ele>
        <time>2022-03-22T15:32:58.000Z</time>
      </trkpt>
      <trkpt lat="50.47851" lon="3.46965">
        <ele>23.9</ele>
        <time>2022-03-22T15:33:00.000Z</time>
      </trkpt>
      <trkpt lat="50.47847" lon="3.4697">
        <ele>24</ele>
        <time>2022-03-22T15:33:02.000Z</time>
      </trkpt>
      <trkpt lat="50.47843" lon="3.46974">
        <ele>24</ele>
        <time>2022-03-22T15:33:04.000Z</time>
      </trkpt>
      <trkpt lat="50.47839" lon="3.46981">
        <ele>24</ele>
        <time>2022-03-22T15:33:06.000Z</time>
      </trkpt>
      <trkpt lat="50.47836" lon="3.46987">
        <ele>24</ele>
        <time>2022-03-22T15:33:08.003Z</time>
      </trkpt>
      <trkpt lat="50.47832" lon="3.46992">
        <ele>24</ele>
        <time>2022-03-22T15:33:10.000Z</time>
      </trkpt>
      <trkpt lat="50.47827" lon="3.46997">
        <ele>24</ele>
        <time>2022-03-22T15:33:12.000Z</time>
      </trkpt>
      <trkpt lat="50.47823" lon="3.47003">
        <ele>24</ele>
        <time>2022-03-22T15:33:14.062Z</time>
      </trkpt>
      <trkpt lat="50.47819" lon="3.47009">
        <ele>24</ele>
        <time>2022-03-22T15:33:15.963Z</time>
      </trkpt>
      <trkpt lat="50.47815" lon="3.47014">
        <ele>24</ele>
        <time>2022-03-22T15:33:17.960Z</time>
      </trkpt>
      <trkpt lat="50.4781" lon="3.47019">
        <ele>24</ele>
        <time>2022-03-22T15:33:20.000Z</time>
      </trkpt>
      <trkpt lat="50.47806" lon="3.47025">
        <ele>24</ele>
        <time>2022-03-22T15:33:21.903Z</time>
      </trkpt>
      <trkpt lat="50.47801" lon="3.47031">
        <ele>23.9</ele>
        <time>2022-03-22T15:33:24.165Z</time>
      </trkpt>
      <trkpt lat="50.47796" lon="3.47038">
        <ele>23.8</ele>
        <time>2022-03-22T15:33:26.405Z</time>
      </trkpt>
      <trkpt lat="50.4779" lon="3.47045">
        <ele>23.8</ele>
        <time>2022-03-22T15:33:28.841Z</time>
      </trkpt>
      <trkpt lat="50.47786" lon="3.47052">
        <ele>23.9</ele>
        <time>2022-03-22T15:33:31.000Z</time>
      </trkpt>
      <trkpt lat="50.47781" lon="3.47058">
        <ele>24</ele>
        <time>2022-03-22T15:33:33.000Z</time>
      </trkpt>
      <trkpt lat="50.47776" lon="3.47064">
        <ele>23.9</ele>
        <time>2022-03-22T15:33:35.000Z</time>
      </trkpt>
      <trkpt lat="50.47769" lon="3.47074">
        <ele>23.7</ele>
        <time>2022-03-22T15:33:38.102Z</time>
      </trkpt>
      <trkpt lat="50.47765" lon="3.47081">
        <ele>23.5</ele>
        <time>2022-03-22T15:33:39.885Z</time>
      </trkpt>
      <trkpt lat="50.47759" lon="3.47087">
        <ele>23.4</ele>
        <time>2022-03-22T15:33:41.985Z</time>
      </trkpt>
      <trkpt lat="50.47755" lon="3.47094">
        <ele>23.4</ele>
        <time>2022-03-22T15:33:44.000Z</time>
      </trkpt>
      <trkpt lat="50.47751" lon="3.471">
        <ele>23.6</ele>
        <time>2022-03-22T15:33:46.000Z</time>
      </trkpt>
      <trkpt lat="50.47745" lon="3.47107">
        <ele>23.7</ele>
        <time>2022-03-22T15:33:48.440Z</time>
      </trkpt>
      <trkpt lat="50.47739" lon="3.47116">
        <ele>23.5</ele>
        <time>2022-03-22T15:33:51.082Z</time>
      </trkpt>
      <trkpt lat="50.47734" lon="3.47124">
        <ele>23.2</ele>
        <time>2022-03-22T15:33:53.521Z</time>
      </trkpt>
      <trkpt lat="50.47728" lon="3.47129">
        <ele>23.1</ele>
        <time>2022-03-22T15:33:55.864Z</time>
      </trkpt>
      <trkpt lat="50.47724" lon="3.47135">
        <ele>23</ele>
        <time>2022-03-22T15:33:58.000Z</time>
      </trkpt>
      <trkpt lat="50.4772" lon="3.4714">
        <ele>23</ele>
        <time>2022-03-22T15:34:00.000Z</time>
      </trkpt>
      <trkpt lat="50.47714" lon="3.47146">
        <ele>23</ele>
        <time>2022-03-22T15:34:02.172Z</time>
      </trkpt>
      <trkpt lat="50.4771" lon="3.47153">
        <ele>23</ele>
        <time>2022-03-22T15:34:04.041Z</time>
      </trkpt>
      <trkpt lat="50.47702" lon="3.47164">
        <ele>23</ele>
        <time>2022-03-22T15:34:06.542Z</time>
      </trkpt>
      <trkpt lat="50.47699" lon="3.47169">
        <ele>23</ele>
        <time>2022-03-22T15:34:07.683Z</time>
      </trkpt>
      <trkpt lat="50.47695" lon="3.47174">
        <ele>23</ele>
        <time>2022-03-22T15:34:08.999Z</time>
      </trkpt>
      <trkpt lat="50.47689" lon="3.47183">
        <ele>22.8</ele>
        <time>2022-03-22T15:34:11.000Z</time>
      </trkpt>
      <trkpt lat="50.47682" lon="3.4719">
        <ele>22.6</ele>
        <time>2022-03-22T15:34:13.126Z</time>
      </trkpt>
      <trkpt lat="50.47674" lon="3.47201">
        <ele>22.2</ele>
        <time>2022-03-22T15:34:15.000Z</time>
      </trkpt>
      <trkpt lat="50.4767" lon="3.47206">
        <ele>22.1</ele>
        <time>2022-03-22T15:34:16.000Z</time>
      </trkpt>
      <trkpt lat="50.47666" lon="3.4721">
        <ele>22</ele>
        <time>2022-03-22T15:34:17.000Z</time>
      </trkpt>
      <trkpt lat="50.47662" lon="3.47215">
        <ele>22</ele>
        <time>2022-03-22T15:34:18.000Z</time>
      </trkpt>
      <trkpt lat="50.47659" lon="3.4722">
        <ele>22</ele>
        <time>2022-03-22T15:34:19.000Z</time>
      </trkpt>
      <trkpt lat="50.47655" lon="3.47225">
        <ele>22</ele>
        <time>2022-03-22T15:34:20.000Z</time>
      </trkpt>
      <trkpt lat="50.47649" lon="3.47235">
        <ele>22</ele>
        <time>2022-03-22T15:34:22.000Z</time>
      </trkpt>
      <trkpt lat="50.47642" lon="3.47236">
        <ele>22</ele>
        <time>2022-03-22T15:34:24.528Z</time>
      </trkpt>
      <trkpt lat="50.47636" lon="3.47245">
        <ele>22</ele>
        <time>2022-03-22T15:34:26.044Z</time>
      </trkpt>
      <trkpt lat="50.47631" lon="3.47255">
        <ele>22</ele>
        <time>2022-03-22T15:34:27.808Z</time>
      </trkpt>
      <trkpt lat="50.47626" lon="3.47262">
        <ele>22</ele>
        <time>2022-03-22T15:34:29.065Z</time>
      </trkpt>
      <trkpt lat="50.47623" lon="3.47266">
        <ele>22</ele>
        <time>2022-03-22T15:34:30.000Z</time>
      </trkpt>
      <trkpt lat="50.47616" lon="3.47274">
        <ele>22</ele>
        <time>2022-03-22T15:34:32.000Z</time>
      </trkpt>
      <trkpt lat="50.47609" lon="3.47281">
        <ele>22</ele>
        <time>2022-03-22T15:34:34.427Z</time>
      </trkpt>
      <trkpt lat="50.47604" lon="3.47285">
        <ele>22</ele>
        <time>2022-03-22T15:34:37.000Z</time>
      </trkpt>
      <trkpt lat="50.47598" lon="3.47291">
        <ele>22</ele>
        <time>2022-03-22T15:34:52.000Z</time>
      </trkpt>
      <trkpt lat="50.47593" lon="3.473">
        <ele>22</ele>
        <time>2022-03-22T15:34:54.000Z</time>
      </trkpt>
      <trkpt lat="50.47587" lon="3.47309">
        <ele>22</ele>
        <time>2022-03-22T15:34:56.000Z</time>
      </trkpt>
      <trkpt lat="50.47581" lon="3.47317">
        <ele>22</ele>
        <time>2022-03-22T15:34:58.000Z</time>
      </trkpt>
      <trkpt lat="50.47575" lon="3.47325">
        <ele>22</ele>
        <time>2022-03-22T15:35:00.000Z</time>
      </trkpt>
      <trkpt lat="50.47567" lon="3.47335">
        <ele>22</ele>
        <time>2022-03-22T15:35:03.000Z</time>
      </trkpt>
      <trkpt lat="50.47562" lon="3.47343">
        <ele>22</ele>
        <time>2022-03-22T15:35:05.000Z</time>
      </trkpt>
      <trkpt lat="50.47556" lon="3.47351">
        <ele>22</ele>
        <time>2022-03-22T15:35:07.000Z</time>
      </trkpt>
      <trkpt lat="50.4755" lon="3.4736">
        <ele>22</ele>
        <time>2022-03-22T15:35:09.000Z</time>
      </trkpt>
      <trkpt lat="50.47546" lon="3.47366">
        <ele>22</ele>
        <time>2022-03-22T15:35:10.525Z</time>
      </trkpt>
      <trkpt lat="50.47543" lon="3.47372">
        <ele>22</ele>
        <time>2022-03-22T15:35:12.000Z</time>
      </trkpt>
      <trkpt lat="50.47537" lon="3.4738">
        <ele>22</ele>
        <time>2022-03-22T15:35:14.000Z</time>
      </trkpt>
      <trkpt lat="50.47531" lon="3.47388">
        <ele>22</ele>
        <time>2022-03-22T15:35:16.000Z</time>
      </trkpt>
      <trkpt lat="50.47526" lon="3.47396">
        <ele>22</ele>
        <time>2022-03-22T15:35:17.986Z</time>
      </trkpt>
      <trkpt lat="50.47519" lon="3.47406">
        <ele>22</ele>
        <time>2022-03-22T15:35:20.608Z</time>
      </trkpt>
      <trkpt lat="50.47516" lon="3.47412">
        <ele>22</ele>
        <time>2022-03-22T15:35:22.000Z</time>
      </trkpt>
      <trkpt lat="50.4751" lon="3.47421">
        <ele>22</ele>
        <time>2022-03-22T15:35:24.000Z</time>
      </trkpt>
      <trkpt lat="50.47504" lon="3.47429">
        <ele>22</ele>
        <time>2022-03-22T15:35:26.124Z</time>
      </trkpt>
      <trkpt lat="50.47499" lon="3.47437">
        <ele>22</ele>
        <time>2022-03-22T15:35:28.000Z</time>
      </trkpt>
      <trkpt lat="50.47494" lon="3.47444">
        <ele>22</ele>
        <time>2022-03-22T15:35:30.000Z</time>
      </trkpt>
      <trkpt lat="50.47489" lon="3.47451">
        <ele>22</ele>
        <time>2022-03-22T15:35:32.000Z</time>
      </trkpt>
      <trkpt lat="50.47484" lon="3.47459">
        <ele>22</ele>
        <time>2022-03-22T15:35:34.000Z</time>
      </trkpt>
      <trkpt lat="50.47478" lon="3.47466">
        <ele>22</ele>
        <time>2022-03-22T15:35:36.000Z</time>
      </trkpt>
      <trkpt lat="50.47474" lon="3.47473">
        <ele>22</ele>
        <time>2022-03-22T15:35:38.000Z</time>
      </trkpt>
      <trkpt lat="50.47466" lon="3.47484">
        <ele>22.4</ele>
        <time>2022-03-22T15:35:41.000Z</time>
      </trkpt>
      <trkpt lat="50.47458" lon="3.47495">
        <ele>22.8</ele>
        <time>2022-03-22T15:35:43.987Z</time>
      </trkpt>
      <trkpt lat="50.4745" lon="3.47506">
        <ele>23</ele>
        <time>2022-03-22T15:35:47.000Z</time>
      </trkpt>
      <trkpt lat="50.47444" lon="3.47517">
        <ele>23</ele>
        <time>2022-03-22T15:35:50.000Z</time>
      </trkpt>
      <trkpt lat="50.47438" lon="3.47528">
        <ele>23</ele>
        <time>2022-03-22T15:35:53.000Z</time>
      </trkpt>
      <trkpt lat="50.47432" lon="3.4754">
        <ele>23</ele>
        <time>2022-03-22T15:35:56.000Z</time>
      </trkpt>
      <trkpt lat="50.47426" lon="3.47548">
        <ele>23</ele>
        <time>2022-03-22T15:35:58.707Z</time>
      </trkpt>
      <trkpt lat="50.47419" lon="3.47559">
        <ele>23.1</ele>
        <time>2022-03-22T15:36:02.000Z</time>
      </trkpt>
      <trkpt lat="50.47412" lon="3.47569">
        <ele>23.5</ele>
        <time>2022-03-22T15:36:05.000Z</time>
      </trkpt>
      <trkpt lat="50.47404" lon="3.47577">
        <ele>23.8</ele>
        <time>2022-03-22T15:36:08.000Z</time>
      </trkpt>
      <trkpt lat="50.47397" lon="3.47587">
        <ele>24</ele>
        <time>2022-03-22T15:36:11.000Z</time>
      </trkpt>
      <trkpt lat="50.4739" lon="3.47598">
        <ele>24</ele>
        <time>2022-03-22T15:36:14.000Z</time>
      </trkpt>
      <trkpt lat="50.47383" lon="3.47609">
        <ele>24</ele>
        <time>2022-03-22T15:36:16.808Z</time>
      </trkpt>
      <trkpt lat="50.47376" lon="3.47619">
        <ele>24</ele>
        <time>2022-03-22T15:36:19.558Z</time>
      </trkpt>
      <trkpt lat="50.47368" lon="3.47633">
        <ele>24</ele>
        <time>2022-03-22T15:36:23.000Z</time>
      </trkpt>
      <trkpt lat="50.47359" lon="3.47644">
        <ele>24.2</ele>
        <time>2022-03-22T15:36:26.000Z</time>
      </trkpt>
      <trkpt lat="50.4735" lon="3.47657">
        <ele>24.4</ele>
        <time>2022-03-22T15:36:29.000Z</time>
      </trkpt>
      <trkpt lat="50.47339" lon="3.47667">
        <ele>24.2</ele>
        <time>2022-03-22T15:36:32.000Z</time>
      </trkpt>
      <trkpt lat="50.47331" lon="3.47677">
        <ele>24.4</ele>
        <time>2022-03-22T15:36:34.729Z</time>
      </trkpt>
      <trkpt lat="50.47322" lon="3.47689">
        <ele>24.8</ele>
        <time>2022-03-22T15:36:38.000Z</time>
      </trkpt>
      <trkpt lat="50.47313" lon="3.47699">
        <ele>25</ele>
        <time>2022-03-22T15:36:40.864Z</time>
      </trkpt>
      <trkpt lat="50.47305" lon="3.47711">
        <ele>25</ele>
        <time>2022-03-22T15:36:44.000Z</time>
      </trkpt>
      <trkpt lat="50.47296" lon="3.47722">
        <ele>25</ele>
        <time>2022-03-22T15:36:47.000Z</time>
      </trkpt>
      <trkpt lat="50.47287" lon="3.47734">
        <ele>25.1</ele>
        <time>2022-03-22T15:36:50.000Z</time>
      </trkpt>
      <trkpt lat="50.47279" lon="3.47744">
        <ele>25</ele>
        <time>2022-03-22T15:36:53.000Z</time>
      </trkpt>
      <trkpt lat="50.4727" lon="3.47756">
        <ele>25</ele>
        <time>2022-03-22T15:36:56.000Z</time>
      </trkpt>
      <trkpt lat="50.47261" lon="3.47767">
        <ele>25</ele>
        <time>2022-03-22T15:36:58.908Z</time>
      </trkpt>
      <trkpt lat="50.47251" lon="3.47777">
        <ele>25</ele>
        <time>2022-03-22T15:37:01.808Z</time>
      </trkpt>
      <trkpt lat="50.47243" lon="3.4779">
        <ele>24.9</ele>
        <time>2022-03-22T15:37:05.000Z</time>
      </trkpt>
      <trkpt lat="50.47236" lon="3.47801">
        <ele>24.9</ele>
        <time>2022-03-22T15:37:07.725Z</time>
      </trkpt>
      <trkpt lat="50.47228" lon="3.47813">
        <ele>25</ele>
        <time>2022-03-22T15:37:11.000Z</time>
      </trkpt>
      <trkpt lat="50.47217" lon="3.47824">
        <ele>24.8</ele>
        <time>2022-03-22T15:37:14.003Z</time>
      </trkpt>
      <trkpt lat="50.47204" lon="3.47839">
        <ele>24.4</ele>
        <time>2022-03-22T15:37:17.000Z</time>
      </trkpt>
      <trkpt lat="50.47192" lon="3.47853">
        <ele>24.6</ele>
        <time>2022-03-22T15:37:20.000Z</time>
      </trkpt>
      <trkpt lat="50.47182" lon="3.47867">
        <ele>24.6</ele>
        <time>2022-03-22T15:37:23.000Z</time>
      </trkpt>
      <trkpt lat="50.47173" lon="3.47883">
        <ele>24.8</ele>
        <time>2022-03-22T15:37:26.000Z</time>
      </trkpt>
      <trkpt lat="50.47168" lon="3.4789">
        <ele>25</ele>
        <time>2022-03-22T15:37:29.000Z</time>
      </trkpt>
      <trkpt lat="50.47157" lon="3.47904">
        <ele>24.8</ele>
        <time>2022-03-22T15:37:32.000Z</time>
      </trkpt>
      <trkpt lat="50.47146" lon="3.47918">
        <ele>25</ele>
        <time>2022-03-22T15:37:35.000Z</time>
      </trkpt>
      <trkpt lat="50.47133" lon="3.47941">
        <ele>25</ele>
        <time>2022-03-22T15:37:40.892Z</time>
      </trkpt>
      <trkpt lat="50.47119" lon="3.47957">
        <ele>25.1</ele>
        <time>2022-03-22T15:37:44.000Z</time>
      </trkpt>
      <trkpt lat="50.47107" lon="3.47969">
        <ele>25</ele>
        <time>2022-03-22T15:37:46.794Z</time>
      </trkpt>
      <trkpt lat="50.47096" lon="3.47983">
        <ele>25.2</ele>
        <time>2022-03-22T15:37:50.000Z</time>
      </trkpt>
      <trkpt lat="50.47088" lon="3.47998">
        <ele>25.2</ele>
        <time>2022-03-22T15:37:53.032Z</time>
      </trkpt>
      <trkpt lat="50.4708" lon="3.4801">
        <ele>25.3</ele>
        <time>2022-03-22T15:37:56.012Z</time>
      </trkpt>
      <trkpt lat="50.47071" lon="3.4802">
        <ele>25.4</ele>
        <time>2022-03-22T15:37:59.000Z</time>
      </trkpt>
      <trkpt lat="50.47061" lon="3.4803">
        <ele>25.2</ele>
        <time>2022-03-22T15:38:02.000Z</time>
      </trkpt>
      <trkpt lat="50.47052" lon="3.48042">
        <ele>25</ele>
        <time>2022-03-22T15:38:05.000Z</time>
      </trkpt>
      <trkpt lat="50.47044" lon="3.48054">
        <ele>25</ele>
        <time>2022-03-22T15:38:08.000Z</time>
      </trkpt>
      <trkpt lat="50.47035" lon="3.48062">
        <ele>25.1</ele>
        <time>2022-03-22T15:38:10.811Z</time>
      </trkpt>
      <trkpt lat="50.47026" lon="3.48073">
        <ele>25</ele>
        <time>2022-03-22T15:38:14.000Z</time>
      </trkpt>
      <trkpt lat="50.47017" lon="3.48085">
        <ele>25</ele>
        <time>2022-03-22T15:38:17.000Z</time>
      </trkpt>
      <trkpt lat="50.47009" lon="3.48095">
        <ele>25</ele>
        <time>2022-03-22T15:38:20.000Z</time>
      </trkpt>
      <trkpt lat="50.47002" lon="3.48106">
        <ele>25</ele>
        <time>2022-03-22T15:38:23.000Z</time>
      </trkpt>
      <trkpt lat="50.46994" lon="3.48119">
        <ele>25</ele>
        <time>2022-03-22T15:38:26.000Z</time>
      </trkpt>
      <trkpt lat="50.46986" lon="3.48129">
        <ele>25</ele>
        <time>2022-03-22T15:38:29.054Z</time>
      </trkpt>
      <trkpt lat="50.46977" lon="3.48139">
        <ele>25</ele>
        <time>2022-03-22T15:38:32.000Z</time>
      </trkpt>
      <trkpt lat="50.46969" lon="3.48151">
        <ele>25.1</ele>
        <time>2022-03-22T15:38:34.854Z</time>
      </trkpt>
      <trkpt lat="50.46959" lon="3.48163">
        <ele>25.4</ele>
        <time>2022-03-22T15:38:38.000Z</time>
      </trkpt>
      <trkpt lat="50.46951" lon="3.48175">
        <ele>25.8</ele>
        <time>2022-03-22T15:38:41.000Z</time>
      </trkpt>
      <trkpt lat="50.46943" lon="3.48187">
        <ele>25.9</ele>
        <time>2022-03-22T15:38:44.000Z</time>
      </trkpt>
      <trkpt lat="50.46934" lon="3.482">
        <ele>25.7</ele>
        <time>2022-03-22T15:38:47.054Z</time>
      </trkpt>
      <trkpt lat="50.46925" lon="3.48211">
        <ele>25.7</ele>
        <time>2022-03-22T15:38:50.000Z</time>
      </trkpt>
      <trkpt lat="50.46916" lon="3.48221">
        <ele>25.9</ele>
        <time>2022-03-22T15:38:53.000Z</time>
      </trkpt>
      <trkpt lat="50.46907" lon="3.48232">
        <ele>25.8</ele>
        <time>2022-03-22T15:38:56.000Z</time>
      </trkpt>
      <trkpt lat="50.46898" lon="3.48239">
        <ele>25.7</ele>
        <time>2022-03-22T15:38:58.973Z</time>
      </trkpt>
      <trkpt lat="50.46888" lon="3.48246">
        <ele>25.8</ele>
        <time>2022-03-22T15:39:01.891Z</time>
      </trkpt>
      <trkpt lat="50.46885" lon="3.48261">
        <ele>25.9</ele>
        <time>2022-03-22T15:39:05.000Z</time>
      </trkpt>
      <trkpt lat="50.46893" lon="3.48274">
        <ele>26.1</ele>
        <time>2022-03-22T15:39:08.000Z</time>
      </trkpt>
      <trkpt lat="50.469" lon="3.48287">
        <ele>26.6</ele>
        <time>2022-03-22T15:39:11.000Z</time>
      </trkpt>
      <trkpt lat="50.46903" lon="3.48298">
        <ele>26.9</ele>
        <time>2022-03-22T15:39:14.000Z</time>
      </trkpt>
      <trkpt lat="50.46906" lon="3.4831">
        <ele>27</ele>
        <time>2022-03-22T15:39:17.000Z</time>
      </trkpt>
      <trkpt lat="50.4691" lon="3.48319">
        <ele>27</ele>
        <time>2022-03-22T15:39:20.000Z</time>
      </trkpt>
      <trkpt lat="50.46913" lon="3.48332">
        <ele>27</ele>
        <time>2022-03-22T15:39:23.000Z</time>
      </trkpt>
      <trkpt lat="50.46918" lon="3.48345">
        <ele>27.4</ele>
        <time>2022-03-22T15:39:26.000Z</time>
      </trkpt>
      <trkpt lat="50.46922" lon="3.48356">
        <ele>27.9</ele>
        <time>2022-03-22T15:39:29.114Z</time>
      </trkpt>
      <trkpt lat="50.46926" lon="3.48368">
        <ele>28</ele>
        <time>2022-03-22T15:39:32.000Z</time>
      </trkpt>
      <trkpt lat="50.4693" lon="3.4838">
        <ele>28</ele>
        <time>2022-03-22T15:39:35.000Z</time>
      </trkpt>
      <trkpt lat="50.46935" lon="3.48391">
        <ele>28</ele>
        <time>2022-03-22T15:39:38.000Z</time>
      </trkpt>
      <trkpt lat="50.46937" lon="3.48404">
        <ele>28.1</ele>
        <time>2022-03-22T15:39:40.955Z</time>
      </trkpt>
      <trkpt lat="50.46928" lon="3.48411">
        <ele>28.5</ele>
        <time>2022-03-22T15:39:44.000Z</time>
      </trkpt>
      <trkpt lat="50.4692" lon="3.48416">
        <ele>28.9</ele>
        <time>2022-03-22T15:39:47.000Z</time>
      </trkpt>
      <trkpt lat="50.46913" lon="3.48421">
        <ele>29</ele>
        <time>2022-03-22T15:39:50.000Z</time>
      </trkpt>
      <trkpt lat="50.46907" lon="3.48426">
        <ele>29</ele>
        <time>2022-03-22T15:39:53.000Z</time>
      </trkpt>
      <trkpt lat="50.46901" lon="3.48433">
        <ele>29</ele>
        <time>2022-03-22T15:39:55.854Z</time>
      </trkpt>
      <trkpt lat="50.46895" lon="3.48441">
        <ele>29</ele>
        <time>2022-03-22T15:39:59.137Z</time>
      </trkpt>
      <trkpt lat="50.46888" lon="3.48447">
        <ele>29</ele>
        <time>2022-03-22T15:40:02.000Z</time>
      </trkpt>
      <trkpt lat="50.46881" lon="3.48455">
        <ele>29.1</ele>
        <time>2022-03-22T15:40:05.000Z</time>
      </trkpt>
      <trkpt lat="50.46874" lon="3.48463">
        <ele>29.4</ele>
        <time>2022-03-22T15:40:07.732Z</time>
      </trkpt>
      <trkpt lat="50.46869" lon="3.4847">
        <ele>29.7</ele>
        <time>2022-03-22T15:40:10.457Z</time>
      </trkpt>
      <trkpt lat="50.46862" lon="3.48478">
        <ele>30</ele>
        <time>2022-03-22T15:40:13.292Z</time>
      </trkpt>
      <trkpt lat="50.46854" lon="3.48488">
        <ele>29.9</ele>
        <time>2022-03-22T15:40:16.276Z</time>
      </trkpt>
      <trkpt lat="50.46846" lon="3.48498">
        <ele>30</ele>
        <time>2022-03-22T15:40:19.611Z</time>
      </trkpt>
      <trkpt lat="50.46839" lon="3.48511">
        <ele>29.7</ele>
        <time>2022-03-22T15:40:22.933Z</time>
      </trkpt>
      <trkpt lat="50.46831" lon="3.4852">
        <ele>29.3</ele>
        <time>2022-03-22T15:40:26.000Z</time>
      </trkpt>
      <trkpt lat="50.46823" lon="3.48536">
        <ele>29</ele>
        <time>2022-03-22T15:40:29.000Z</time>
      </trkpt>
      <trkpt lat="50.46816" lon="3.4855">
        <ele>29</ele>
        <time>2022-03-22T15:40:31.794Z</time>
      </trkpt>
      <trkpt lat="50.46808" lon="3.48567">
        <ele>29</ele>
        <time>2022-03-22T15:40:35.000Z</time>
      </trkpt>
      <trkpt lat="50.468" lon="3.48584">
        <ele>28.8</ele>
        <time>2022-03-22T15:40:38.000Z</time>
      </trkpt>
      <trkpt lat="50.46792" lon="3.48604">
        <ele>28.5</ele>
        <time>2022-03-22T15:40:41.049Z</time>
      </trkpt>
      <trkpt lat="50.46785" lon="3.48625">
        <ele>28.1</ele>
        <time>2022-03-22T15:40:44.000Z</time>
      </trkpt>
      <trkpt lat="50.4678" lon="3.48647">
        <ele>27.7</ele>
        <time>2022-03-22T15:40:47.000Z</time>
      </trkpt>
      <trkpt lat="50.46776" lon="3.48668">
        <ele>27</ele>
        <time>2022-03-22T15:40:50.000Z</time>
      </trkpt>
      <trkpt lat="50.4677" lon="3.48688">
        <ele>27.6</ele>
        <time>2022-03-22T15:40:53.000Z</time>
      </trkpt>
      <trkpt lat="50.46766" lon="3.48695">
        <ele>27.6</ele>
        <time>2022-03-22T15:40:56.000Z</time>
      </trkpt>
      <trkpt lat="50.46756" lon="3.48705">
        <ele>27.5</ele>
        <time>2022-03-22T15:40:59.000Z</time>
      </trkpt>
      <trkpt lat="50.46746" lon="3.48716">
        <ele>27.7</ele>
        <time>2022-03-22T15:41:02.000Z</time>
      </trkpt>
      <trkpt lat="50.46739" lon="3.48732">
        <ele>27.7</ele>
        <time>2022-03-22T15:41:05.000Z</time>
      </trkpt>
      <trkpt lat="50.46731" lon="3.48741">
        <ele>27.8</ele>
        <time>2022-03-22T15:41:08.045Z</time>
      </trkpt>
      <trkpt lat="50.46724" lon="3.4875">
        <ele>28</ele>
        <time>2022-03-22T15:41:11.000Z</time>
      </trkpt>
      <trkpt lat="50.4672" lon="3.48757">
        <ele>27.9</ele>
        <time>2022-03-22T15:41:14.000Z</time>
      </trkpt>
      <trkpt lat="50.46714" lon="3.48763">
        <ele>27.8</ele>
        <time>2022-03-22T15:41:17.000Z</time>
      </trkpt>
      <trkpt lat="50.46708" lon="3.48771">
        <ele>27.9</ele>
        <time>2022-03-22T15:41:20.102Z</time>
      </trkpt>
      <trkpt lat="50.46701" lon="3.4878">
        <ele>28</ele>
        <time>2022-03-22T15:41:22.883Z</time>
      </trkpt>
      <trkpt lat="50.46696" lon="3.48791">
        <ele>28</ele>
        <time>2022-03-22T15:41:25.802Z</time>
      </trkpt>
      <trkpt lat="50.4669" lon="3.48805">
        <ele>28</ele>
        <time>2022-03-22T15:41:28.704Z</time>
      </trkpt>
      <trkpt lat="50.46686" lon="3.48818">
        <ele>28</ele>
        <time>2022-03-22T15:41:31.546Z</time>
      </trkpt>
      <trkpt lat="50.46682" lon="3.48829">
        <ele>28</ele>
        <time>2022-03-22T15:41:34.465Z</time>
      </trkpt>
      <trkpt lat="50.4668" lon="3.48844">
        <ele>28.4</ele>
        <time>2022-03-22T15:41:37.743Z</time>
      </trkpt>
      <trkpt lat="50.46677" lon="3.48858">
        <ele>28.9</ele>
        <time>2022-03-22T15:41:40.765Z</time>
      </trkpt>
      <trkpt lat="50.46674" lon="3.48869">
        <ele>29</ele>
        <time>2022-03-22T15:41:43.583Z</time>
      </trkpt>
      <trkpt lat="50.46672" lon="3.48879">
        <ele>29</ele>
        <time>2022-03-22T15:41:46.666Z</time>
      </trkpt>
      <trkpt lat="50.46668" lon="3.4889">
        <ele>29</ele>
        <time>2022-03-22T15:41:55.545Z</time>
      </trkpt>
      <trkpt lat="50.46665" lon="3.48901">
        <ele>28.9</ele>
        <time>2022-03-22T15:41:58.426Z</time>
      </trkpt>
      <trkpt lat="50.46662" lon="3.48913">
        <ele>28.8</ele>
        <time>2022-03-22T15:42:01.523Z</time>
      </trkpt>
      <trkpt lat="50.4666" lon="3.48925">
        <ele>28.8</ele>
        <time>2022-03-22T15:42:04.624Z</time>
      </trkpt>
      <trkpt lat="50.46658" lon="3.48935">
        <ele>28.7</ele>
        <time>2022-03-22T15:42:07.361Z</time>
      </trkpt>
      <trkpt lat="50.46656" lon="3.48945">
        <ele>28.6</ele>
        <time>2022-03-22T15:42:10.169Z</time>
      </trkpt>
      <trkpt lat="50.46653" lon="3.48954">
        <ele>28.7</ele>
        <time>2022-03-22T15:42:13.270Z</time>
      </trkpt>
      <trkpt lat="50.46651" lon="3.48961">
        <ele>28.8</ele>
        <time>2022-03-22T15:42:17.000Z</time>
      </trkpt>
      <trkpt lat="50.46649" lon="3.48965">
        <ele>28.8</ele>
        <time>2022-03-22T15:44:38.127Z</time>
      </trkpt>
      <trkpt lat="50.46647" lon="3.48971">
        <ele>29</ele>
        <time>2022-03-22T15:44:39.745Z</time>
      </trkpt>
      <trkpt lat="50.46643" lon="3.4898">
        <ele>28.8</ele>
        <time>2022-03-22T15:44:42.000Z</time>
      </trkpt>
      <trkpt lat="50.46639" lon="3.48986">
        <ele>28.5</ele>
        <time>2022-03-22T15:44:44.003Z</time>
      </trkpt>
      <trkpt lat="50.46634" lon="3.48997">
        <ele>28.1</ele>
        <time>2022-03-22T15:44:46.785Z</time>
      </trkpt>
      <trkpt lat="50.46631" lon="3.49005">
        <ele>28</ele>
        <time>2022-03-22T15:44:49.000Z</time>
      </trkpt>
      <trkpt lat="50.46627" lon="3.49014">
        <ele>28</ele>
        <time>2022-03-22T15:44:51.000Z</time>
      </trkpt>
      <trkpt lat="50.46624" lon="3.49023">
        <ele>28</ele>
        <time>2022-03-22T15:44:53.048Z</time>
      </trkpt>
      <trkpt lat="50.4662" lon="3.49032">
        <ele>28</ele>
        <time>2022-03-22T15:44:55.000Z</time>
      </trkpt>
      <trkpt lat="50.46616" lon="3.49042">
        <ele>28.1</ele>
        <time>2022-03-22T15:44:57.123Z</time>
      </trkpt>
      <trkpt lat="50.46614" lon="3.49049">
        <ele>28.1</ele>
        <time>2022-03-22T15:44:58.626Z</time>
      </trkpt>
      <trkpt lat="50.46611" lon="3.49055">
        <ele>28</ele>
        <time>2022-03-22T15:45:00.066Z</time>
      </trkpt>
      <trkpt lat="50.46608" lon="3.49063">
        <ele>28</ele>
        <time>2022-03-22T15:45:02.000Z</time>
      </trkpt>
      <trkpt lat="50.46604" lon="3.49072">
        <ele>28</ele>
        <time>2022-03-22T15:45:04.106Z</time>
      </trkpt>
      <trkpt lat="50.46599" lon="3.49081">
        <ele>28</ele>
        <time>2022-03-22T15:45:06.395Z</time>
      </trkpt>
      <trkpt lat="50.46594" lon="3.49089">
        <ele>28</ele>
        <time>2022-03-22T15:45:09.003Z</time>
      </trkpt>
      <trkpt lat="50.4659" lon="3.49098">
        <ele>28</ele>
        <time>2022-03-22T15:45:10.922Z</time>
      </trkpt>
      <trkpt lat="50.46585" lon="3.49108">
        <ele>28</ele>
        <time>2022-03-22T15:45:12.983Z</time>
      </trkpt>
      <trkpt lat="50.4658" lon="3.49119">
        <ele>27.9</ele>
        <time>2022-03-22T15:45:15.466Z</time>
      </trkpt>
      <trkpt lat="50.46577" lon="3.49125">
        <ele>27.8</ele>
        <time>2022-03-22T15:45:16.827Z</time>
      </trkpt>
      <trkpt lat="50.46573" lon="3.49134">
        <ele>27.6</ele>
        <time>2022-03-22T15:45:19.000Z</time>
      </trkpt>
      <trkpt lat="50.46569" lon="3.49143">
        <ele>27.5</ele>
        <time>2022-03-22T15:45:21.000Z</time>
      </trkpt>
      <trkpt lat="50.46566" lon="3.49152">
        <ele>27.4</ele>
        <time>2022-03-22T15:45:22.884Z</time>
      </trkpt>
      <trkpt lat="50.46564" lon="3.49163">
        <ele>27.3</ele>
        <time>2022-03-22T15:45:24.667Z</time>
      </trkpt>
      <trkpt lat="50.46563" lon="3.4917">
        <ele>27.4</ele>
        <time>2022-03-22T15:45:25.885Z</time>
      </trkpt>
      <trkpt lat="50.46561" lon="3.49181">
        <ele>27.6</ele>
        <time>2022-03-22T15:45:28.047Z</time>
      </trkpt>
      <trkpt lat="50.46557" lon="3.49189">
        <ele>27.8</ele>
        <time>2022-03-22T15:45:30.000Z</time>
      </trkpt>
      <trkpt lat="50.46555" lon="3.49198">
        <ele>28</ele>
        <time>2022-03-22T15:45:32.000Z</time>
      </trkpt>
      <trkpt lat="50.46553" lon="3.49208">
        <ele>27.9</ele>
        <time>2022-03-22T15:45:34.382Z</time>
      </trkpt>
      <trkpt lat="50.46549" lon="3.49217">
        <ele>27.8</ele>
        <time>2022-03-22T15:45:36.983Z</time>
      </trkpt>
      <trkpt lat="50.46545" lon="3.49224">
        <ele>27.6</ele>
        <time>2022-03-22T15:45:39.000Z</time>
      </trkpt>
      <trkpt lat="50.46542" lon="3.49231">
        <ele>27.5</ele>
        <time>2022-03-22T15:45:40.905Z</time>
      </trkpt>
      <trkpt lat="50.46538" lon="3.49239">
        <ele>27.4</ele>
        <time>2022-03-22T15:45:43.114Z</time>
      </trkpt>
      <trkpt lat="50.46534" lon="3.49248">
        <ele>27.2</ele>
        <time>2022-03-22T15:45:45.398Z</time>
      </trkpt>
      <trkpt lat="50.46531" lon="3.49254">
        <ele>27.1</ele>
        <time>2022-03-22T15:45:46.867Z</time>
      </trkpt>
      <trkpt lat="50.46527" lon="3.49262">
        <ele>27</ele>
        <time>2022-03-22T15:45:48.944Z</time>
      </trkpt>
      <trkpt lat="50.46523" lon="3.49269">
        <ele>26.9</ele>
        <time>2022-03-22T15:45:51.085Z</time>
      </trkpt>
      <trkpt lat="50.4652" lon="3.49277">
        <ele>27</ele>
        <time>2022-03-22T15:45:52.905Z</time>
      </trkpt>
      <trkpt lat="50.46517" lon="3.49287">
        <ele>27.2</ele>
        <time>2022-03-22T15:45:55.000Z</time>
      </trkpt>
      <trkpt lat="50.46514" lon="3.49296">
        <ele>27.3</ele>
        <time>2022-03-22T15:45:57.000Z</time>
      </trkpt>
      <trkpt lat="50.46511" lon="3.49308">
        <ele>27.4</ele>
        <time>2022-03-22T15:45:59.523Z</time>
      </trkpt>
      <trkpt lat="50.46507" lon="3.49319">
        <ele>27.3</ele>
        <time>2022-03-22T15:46:02.005Z</time>
      </trkpt>
      <trkpt lat="50.46504" lon="3.49329">
        <ele>27.1</ele>
        <time>2022-03-22T15:46:04.003Z</time>
      </trkpt>
      <trkpt lat="50.46501" lon="3.49338">
        <ele>27</ele>
        <time>2022-03-22T15:46:06.000Z</time>
      </trkpt>
      <trkpt lat="50.46498" lon="3.49349">
        <ele>26.9</ele>
        <time>2022-03-22T15:46:08.603Z</time>
      </trkpt>
      <trkpt lat="50.46495" lon="3.49359">
        <ele>26.8</ele>
        <time>2022-03-22T15:46:11.000Z</time>
      </trkpt>
      <trkpt lat="50.46493" lon="3.49367">
        <ele>26.7</ele>
        <time>2022-03-22T15:46:13.000Z</time>
      </trkpt>
      <trkpt lat="50.4649" lon="3.49375">
        <ele>26.6</ele>
        <time>2022-03-22T15:46:15.000Z</time>
      </trkpt>
      <trkpt lat="50.46486" lon="3.49383">
        <ele>26.5</ele>
        <time>2022-03-22T15:46:17.000Z</time>
      </trkpt>
      <trkpt lat="50.46483" lon="3.49392">
        <ele>26.4</ele>
        <time>2022-03-22T15:46:18.884Z</time>
      </trkpt>
      <trkpt lat="50.4648" lon="3.49407">
        <ele>26.3</ele>
        <time>2022-03-22T15:46:21.543Z</time>
      </trkpt>
      <trkpt lat="50.46477" lon="3.49416">
        <ele>26.2</ele>
        <time>2022-03-22T15:46:23.022Z</time>
      </trkpt>
      <trkpt lat="50.46474" lon="3.49426">
        <ele>26</ele>
        <time>2022-03-22T15:46:24.943Z</time>
      </trkpt>
      <trkpt lat="50.46473" lon="3.49433">
        <ele>26</ele>
        <time>2022-03-22T15:46:26.094Z</time>
      </trkpt>
      <trkpt lat="50.4647" lon="3.49443">
        <ele>25.9</ele>
        <time>2022-03-22T15:46:27.642Z</time>
      </trkpt>
      <trkpt lat="50.46468" lon="3.4945">
        <ele>25.8</ele>
        <time>2022-03-22T15:46:29.000Z</time>
      </trkpt>
      <trkpt lat="50.46465" lon="3.49462">
        <ele>25.7</ele>
        <time>2022-03-22T15:46:31.003Z</time>
      </trkpt>
      <trkpt lat="50.4646" lon="3.49479">
        <ele>25.7</ele>
        <time>2022-03-22T15:46:34.000Z</time>
      </trkpt>
      <trkpt lat="50.46456" lon="3.4949">
        <ele>25.8</ele>
        <time>2022-03-22T15:46:36.070Z</time>
      </trkpt>
      <trkpt lat="50.46454" lon="3.49496">
        <ele>25.9</ele>
        <time>2022-03-22T15:46:37.266Z</time>
      </trkpt>
      <trkpt lat="50.46452" lon="3.49505">
        <ele>26</ele>
        <time>2022-03-22T15:46:38.865Z</time>
      </trkpt>
      <trkpt lat="50.46448" lon="3.49514">
        <ele>26</ele>
        <time>2022-03-22T15:46:41.000Z</time>
      </trkpt>
      <trkpt lat="50.46442" lon="3.49527">
        <ele>26</ele>
        <time>2022-03-22T15:46:44.126Z</time>
      </trkpt>
      <trkpt lat="50.46439" lon="3.49537">
        <ele>26.1</ele>
        <time>2022-03-22T15:46:46.000Z</time>
      </trkpt>
      <trkpt lat="50.46436" lon="3.49545">
        <ele>26.2</ele>
        <time>2022-03-22T15:46:48.126Z</time>
      </trkpt>
      <trkpt lat="50.46433" lon="3.49552">
        <ele>26.4</ele>
        <time>2022-03-22T15:46:49.827Z</time>
      </trkpt>
      <trkpt lat="50.4643" lon="3.49561">
        <ele>26.6</ele>
        <time>2022-03-22T15:46:52.102Z</time>
      </trkpt>
      <trkpt lat="50.46428" lon="3.49568">
        <ele>26.8</ele>
        <time>2022-03-22T15:46:54.000Z</time>
      </trkpt>
      <trkpt lat="50.46424" lon="3.49576">
        <ele>26.9</ele>
        <time>2022-03-22T15:46:56.581Z</time>
      </trkpt>
      <trkpt lat="50.4642" lon="3.49584">
        <ele>27</ele>
        <time>2022-03-22T15:46:59.045Z</time>
      </trkpt>
      <trkpt lat="50.46417" lon="3.49591">
        <ele>27</ele>
        <time>2022-03-22T15:47:01.104Z</time>
      </trkpt>
      <trkpt lat="50.46414" lon="3.49597">
        <ele>27</ele>
        <time>2022-03-22T15:47:03.064Z</time>
      </trkpt>
      <trkpt lat="50.46411" lon="3.49603">
        <ele>27.1</ele>
        <time>2022-03-22T15:47:04.965Z</time>
      </trkpt>
      <trkpt lat="50.46409" lon="3.49609">
        <ele>27.3</ele>
        <time>2022-03-22T15:47:07.000Z</time>
      </trkpt>
      <trkpt lat="50.46406" lon="3.49619">
        <ele>27.6</ele>
        <time>2022-03-22T15:47:10.000Z</time>
      </trkpt>
      <trkpt lat="50.46404" lon="3.49626">
        <ele>27.7</ele>
        <time>2022-03-22T15:47:12.000Z</time>
      </trkpt>
      <trkpt lat="50.46401" lon="3.49632">
        <ele>27.9</ele>
        <time>2022-03-22T15:47:14.000Z</time>
      </trkpt>
      <trkpt lat="50.46398" lon="3.49641">
        <ele>28</ele>
        <time>2022-03-22T15:47:17.000Z</time>
      </trkpt>
      <trkpt lat="50.46396" lon="3.49649">
        <ele>28</ele>
        <time>2022-03-22T15:47:20.000Z</time>
      </trkpt>
      <trkpt lat="50.46392" lon="3.49657">
        <ele>28</ele>
        <time>2022-03-22T15:47:23.000Z</time>
      </trkpt>
      <trkpt lat="50.46391" lon="3.49667">
        <ele>28</ele>
        <time>2022-03-22T15:47:26.000Z</time>
      </trkpt>
      <trkpt lat="50.46389" lon="3.49676">
        <ele>28.3</ele>
        <time>2022-03-22T15:47:29.023Z</time>
      </trkpt>
      <trkpt lat="50.46386" lon="3.49682">
        <ele>28.6</ele>
        <time>2022-03-22T15:47:31.286Z</time>
      </trkpt>
      <trkpt lat="50.46383" lon="3.4969">
        <ele>28.9</ele>
        <time>2022-03-22T15:47:33.906Z</time>
      </trkpt>
      <trkpt lat="50.46381" lon="3.49699">
        <ele>29</ele>
        <time>2022-03-22T15:47:37.084Z</time>
      </trkpt>
      <trkpt lat="50.46379" lon="3.49709">
        <ele>29</ele>
        <time>2022-03-22T15:47:39.984Z</time>
      </trkpt>
      <trkpt lat="50.46378" lon="3.49717">
        <ele>29</ele>
        <time>2022-03-22T15:47:43.124Z</time>
      </trkpt>
      <trkpt lat="50.46376" lon="3.49725">
        <ele>29</ele>
        <time>2022-03-22T15:47:45.664Z</time>
      </trkpt>
      <trkpt lat="50.46373" lon="3.49732">
        <ele>29</ele>
        <time>2022-03-22T15:47:48.000Z</time>
      </trkpt>
      <trkpt lat="50.46372" lon="3.49739">
        <ele>29</ele>
        <time>2022-03-22T15:47:50.000Z</time>
      </trkpt>
      <trkpt lat="50.46371" lon="3.49747">
        <ele>29</ele>
        <time>2022-03-22T15:47:52.355Z</time>
      </trkpt>
      <trkpt lat="50.4637" lon="3.49756">
        <ele>29.1</ele>
        <time>2022-03-22T15:47:55.000Z</time>
      </trkpt>
      <trkpt lat="50.46366" lon="3.49763">
        <ele>29.4</ele>
        <time>2022-03-22T15:47:57.044Z</time>
      </trkpt>
      <trkpt lat="50.46364" lon="3.49772">
        <ele>29.7</ele>
        <time>2022-03-22T15:47:59.211Z</time>
      </trkpt>
      <trkpt lat="50.46361" lon="3.49778">
        <ele>30</ele>
        <time>2022-03-22T15:48:01.487Z</time>
      </trkpt>
      <trkpt lat="50.46359" lon="3.49785">
        <ele>30</ele>
        <time>2022-03-22T15:48:03.666Z</time>
      </trkpt>
      <trkpt lat="50.46356" lon="3.49792">
        <ele>30</ele>
        <time>2022-03-22T15:48:06.043Z</time>
      </trkpt>
      <trkpt lat="50.46353" lon="3.49799">
        <ele>30</ele>
        <time>2022-03-22T15:48:08.383Z</time>
      </trkpt>
      <trkpt lat="50.46349" lon="3.49807">
        <ele>30</ele>
        <time>2022-03-22T15:48:10.688Z</time>
      </trkpt>
      <trkpt lat="50.46346" lon="3.49813">
        <ele>30</ele>
        <time>2022-03-22T15:48:12.723Z</time>
      </trkpt>
      <trkpt lat="50.46343" lon="3.4982">
        <ele>30</ele>
        <time>2022-03-22T15:48:14.625Z</time>
      </trkpt>
      <trkpt lat="50.46338" lon="3.49829">
        <ele>30</ele>
        <time>2022-03-22T15:48:17.082Z</time>
      </trkpt>
      <trkpt lat="50.46334" lon="3.49838">
        <ele>30</ele>
        <time>2022-03-22T15:48:19.406Z</time>
      </trkpt>
      <trkpt lat="50.4633" lon="3.49844">
        <ele>30</ele>
        <time>2022-03-22T15:48:21.396Z</time>
      </trkpt>
      <trkpt lat="50.46327" lon="3.49851">
        <ele>30.1</ele>
        <time>2022-03-22T15:48:23.483Z</time>
      </trkpt>
      <trkpt lat="50.46323" lon="3.49861">
        <ele>30.4</ele>
        <time>2022-03-22T15:48:26.000Z</time>
      </trkpt>
      <trkpt lat="50.46319" lon="3.49869">
        <ele>30.5</ele>
        <time>2022-03-22T15:48:28.526Z</time>
      </trkpt>
      <trkpt lat="50.46316" lon="3.49875">
        <ele>30.6</ele>
        <time>2022-03-22T15:48:30.393Z</time>
      </trkpt>
      <trkpt lat="50.46312" lon="3.49883">
        <ele>30.8</ele>
        <time>2022-03-22T15:48:33.000Z</time>
      </trkpt>
      <trkpt lat="50.46309" lon="3.49891">
        <ele>30.9</ele>
        <time>2022-03-22T15:48:35.102Z</time>
      </trkpt>
      <trkpt lat="50.46305" lon="3.49897">
        <ele>31</ele>
        <time>2022-03-22T15:48:36.884Z</time>
      </trkpt>
      <trkpt lat="50.46302" lon="3.49903">
        <ele>31</ele>
        <time>2022-03-22T15:48:39.000Z</time>
      </trkpt>
      <trkpt lat="50.46299" lon="3.49911">
        <ele>31</ele>
        <time>2022-03-22T15:48:40.947Z</time>
      </trkpt>
      <trkpt lat="50.46296" lon="3.49919">
        <ele>31</ele>
        <time>2022-03-22T15:48:43.000Z</time>
      </trkpt>
      <trkpt lat="50.46293" lon="3.49928">
        <ele>31</ele>
        <time>2022-03-22T15:48:45.000Z</time>
      </trkpt>
      <trkpt lat="50.4629" lon="3.49938">
        <ele>31</ele>
        <time>2022-03-22T15:48:47.609Z</time>
      </trkpt>
      <trkpt lat="50.46286" lon="3.49946">
        <ele>31</ele>
        <time>2022-03-22T15:48:50.000Z</time>
      </trkpt>
      <trkpt lat="50.46284" lon="3.49953">
        <ele>31</ele>
        <time>2022-03-22T15:48:52.000Z</time>
      </trkpt>
      <trkpt lat="50.4628" lon="3.49964">
        <ele>31</ele>
        <time>2022-03-22T15:48:54.627Z</time>
      </trkpt>
      <trkpt lat="50.46278" lon="3.49975">
        <ele>31</ele>
        <time>2022-03-22T15:48:56.945Z</time>
      </trkpt>
      <trkpt lat="50.46274" lon="3.49984">
        <ele>31</ele>
        <time>2022-03-22T15:48:59.000Z</time>
      </trkpt>
      <trkpt lat="50.46271" lon="3.49993">
        <ele>31</ele>
        <time>2022-03-22T15:49:01.143Z</time>
      </trkpt>
      <trkpt lat="50.46269" lon="3.5">
        <ele>31</ele>
        <time>2022-03-22T15:49:02.487Z</time>
      </trkpt>
      <trkpt lat="50.46266" lon="3.5001">
        <ele>31.2</ele>
        <time>2022-03-22T15:49:04.826Z</time>
      </trkpt>
      <trkpt lat="50.46263" lon="3.50018">
        <ele>31.3</ele>
        <time>2022-03-22T15:49:07.000Z</time>
      </trkpt>
      <trkpt lat="50.46261" lon="3.50026">
        <ele>31.6</ele>
        <time>2022-03-22T15:49:09.167Z</time>
      </trkpt>
      <trkpt lat="50.46257" lon="3.50037">
        <ele>31.7</ele>
        <time>2022-03-22T15:49:11.902Z</time>
      </trkpt>
      <trkpt lat="50.46255" lon="3.50045">
        <ele>31.8</ele>
        <time>2022-03-22T15:49:13.904Z</time>
      </trkpt>
      <trkpt lat="50.46252" lon="3.50056">
        <ele>31.9</ele>
        <time>2022-03-22T15:49:16.906Z</time>
      </trkpt>
      <trkpt lat="50.46249" lon="3.50065">
        <ele>32</ele>
        <time>2022-03-22T15:49:19.000Z</time>
      </trkpt>
      <trkpt lat="50.46246" lon="3.50074">
        <ele>32</ele>
        <time>2022-03-22T15:49:20.963Z</time>
      </trkpt>
      <trkpt lat="50.46242" lon="3.50082">
        <ele>32</ele>
        <time>2022-03-22T15:49:22.922Z</time>
      </trkpt>
      <trkpt lat="50.46239" lon="3.50091">
        <ele>32</ele>
        <time>2022-03-22T15:49:24.943Z</time>
      </trkpt>
      <trkpt lat="50.46235" lon="3.50099">
        <ele>32</ele>
        <time>2022-03-22T15:49:26.946Z</time>
      </trkpt>
      <trkpt lat="50.46231" lon="3.50108">
        <ele>32</ele>
        <time>2022-03-22T15:49:29.000Z</time>
      </trkpt>
      <trkpt lat="50.46228" lon="3.50117">
        <ele>32</ele>
        <time>2022-03-22T15:49:31.142Z</time>
      </trkpt>
      <trkpt lat="50.46224" lon="3.50128">
        <ele>32</ele>
        <time>2022-03-22T15:49:33.725Z</time>
      </trkpt>
      <trkpt lat="50.46219" lon="3.5014">
        <ele>32</ele>
        <time>2022-03-22T15:49:36.962Z</time>
      </trkpt>
      <trkpt lat="50.46215" lon="3.50146">
        <ele>32</ele>
        <time>2022-03-22T15:49:39.049Z</time>
      </trkpt>
      <trkpt lat="50.46211" lon="3.50153">
        <ele>32</ele>
        <time>2022-03-22T15:49:41.005Z</time>
      </trkpt>
      <trkpt lat="50.46207" lon="3.5016">
        <ele>32</ele>
        <time>2022-03-22T15:49:43.526Z</time>
      </trkpt>
      <trkpt lat="50.46204" lon="3.50169">
        <ele>32.1</ele>
        <time>2022-03-22T15:49:46.067Z</time>
      </trkpt>
      <trkpt lat="50.46198" lon="3.50176">
        <ele>32.3</ele>
        <time>2022-03-22T15:49:49.605Z</time>
      </trkpt>
      <trkpt lat="50.46195" lon="3.50184">
        <ele>32.6</ele>
        <time>2022-03-22T15:49:52.000Z</time>
      </trkpt>
      <trkpt lat="50.46194" lon="3.50192">
        <ele>32.9</ele>
        <time>2022-03-22T15:49:53.829Z</time>
      </trkpt>
      <trkpt lat="50.46195" lon="3.50202">
        <ele>33</ele>
        <time>2022-03-22T15:49:56.000Z</time>
      </trkpt>
      <trkpt lat="50.46196" lon="3.50211">
        <ele>32.9</ele>
        <time>2022-03-22T15:49:58.046Z</time>
      </trkpt>
      <trkpt lat="50.46196" lon="3.50219">
        <ele>32.9</ele>
        <time>2022-03-22T15:50:00.000Z</time>
      </trkpt>
      <trkpt lat="50.46195" lon="3.50229">
        <ele>33</ele>
        <time>2022-03-22T15:50:02.000Z</time>
      </trkpt>
      <trkpt lat="50.46194" lon="3.50237">
        <ele>33</ele>
        <time>2022-03-22T15:50:04.000Z</time>
      </trkpt>
      <trkpt lat="50.46193" lon="3.50246">
        <ele>32.9</ele>
        <time>2022-03-22T15:50:06.000Z</time>
      </trkpt>
      <trkpt lat="50.46191" lon="3.50254">
        <ele>32.7</ele>
        <time>2022-03-22T15:50:08.066Z</time>
      </trkpt>
      <trkpt lat="50.46189" lon="3.50262">
        <ele>32.5</ele>
        <time>2022-03-22T15:50:10.000Z</time>
      </trkpt>
      <trkpt lat="50.46187" lon="3.50271">
        <ele>32.2</ele>
        <time>2022-03-22T15:50:11.965Z</time>
      </trkpt>
      <trkpt lat="50.46185" lon="3.50278">
        <ele>32</ele>
        <time>2022-03-22T15:50:13.946Z</time>
      </trkpt>
      <trkpt lat="50.46182" lon="3.50287">
        <ele>32.1</ele>
        <time>2022-03-22T15:50:16.042Z</time>
      </trkpt>
      <trkpt lat="50.46179" lon="3.50297">
        <ele>32.4</ele>
        <time>2022-03-22T15:50:18.487Z</time>
      </trkpt>
      <trkpt lat="50.46176" lon="3.50302">
        <ele>32.6</ele>
        <time>2022-03-22T15:50:22.000Z</time>
      </trkpt>
      <trkpt lat="50.46173" lon="3.50308">
        <ele>32.8</ele>
        <time>2022-03-22T15:50:24.000Z</time>
      </trkpt>
      <trkpt lat="50.46172" lon="3.50318">
        <ele>32.9</ele>
        <time>2022-03-22T15:50:26.000Z</time>
      </trkpt>
      <trkpt lat="50.46174" lon="3.50329">
        <ele>33</ele>
        <time>2022-03-22T15:50:28.000Z</time>
      </trkpt>
      <trkpt lat="50.46172" lon="3.50339">
        <ele>33</ele>
        <time>2022-03-22T15:50:30.000Z</time>
      </trkpt>
      <trkpt lat="50.46171" lon="3.5035">
        <ele>33</ele>
        <time>2022-03-22T15:50:32.000Z</time>
      </trkpt>
      <trkpt lat="50.4617" lon="3.5036">
        <ele>33</ele>
        <time>2022-03-22T15:50:34.000Z</time>
      </trkpt>
      <trkpt lat="50.46169" lon="3.5037">
        <ele>33</ele>
        <time>2022-03-22T15:50:36.000Z</time>
      </trkpt>
      <trkpt lat="50.46169" lon="3.50379">
        <ele>33</ele>
        <time>2022-03-22T15:50:38.000Z</time>
      </trkpt>
      <trkpt lat="50.46167" lon="3.50387">
        <ele>33</ele>
        <time>2022-03-22T15:50:39.906Z</time>
      </trkpt>
      <trkpt lat="50.46163" lon="3.50397">
        <ele>33</ele>
        <time>2022-03-22T15:50:41.966Z</time>
      </trkpt>
      <trkpt lat="50.46161" lon="3.50405">
        <ele>33</ele>
        <time>2022-03-22T15:50:43.904Z</time>
      </trkpt>
      <trkpt lat="50.46159" lon="3.50417">
        <ele>33</ele>
        <time>2022-03-22T15:50:46.807Z</time>
      </trkpt>
      <trkpt lat="50.46156" lon="3.50425">
        <ele>33</ele>
        <time>2022-03-22T15:50:49.004Z</time>
      </trkpt>
      <trkpt lat="50.46155" lon="3.50433">
        <ele>33</ele>
        <time>2022-03-22T15:50:51.000Z</time>
      </trkpt>
      <trkpt lat="50.46153" lon="3.50439">
        <ele>33</ele>
        <time>2022-03-22T15:50:53.000Z</time>
      </trkpt>
      <trkpt lat="50.46152" lon="3.50446">
        <ele>33</ele>
        <time>2022-03-22T15:50:55.005Z</time>
      </trkpt>
      <trkpt lat="50.46149" lon="3.50453">
        <ele>33</ele>
        <time>2022-03-22T15:50:57.085Z</time>
      </trkpt>
      <trkpt lat="50.46146" lon="3.50463">
        <ele>33</ele>
        <time>2022-03-22T15:50:59.826Z</time>
      </trkpt>
      <trkpt lat="50.46144" lon="3.50471">
        <ele>33</ele>
        <time>2022-03-22T15:51:02.168Z</time>
      </trkpt>
      <trkpt lat="50.46142" lon="3.50478">
        <ele>33</ele>
        <time>2022-03-22T15:51:03.864Z</time>
      </trkpt>
      <trkpt lat="50.46139" lon="3.50488">
        <ele>33</ele>
        <time>2022-03-22T15:51:06.684Z</time>
      </trkpt>
      <trkpt lat="50.46136" lon="3.50496">
        <ele>33</ele>
        <time>2022-03-22T15:51:09.000Z</time>
      </trkpt>
      <trkpt lat="50.46133" lon="3.50506">
        <ele>33</ele>
        <time>2022-03-22T15:51:11.106Z</time>
      </trkpt>
      <trkpt lat="50.4613" lon="3.50514">
        <ele>33</ele>
        <time>2022-03-22T15:51:12.944Z</time>
      </trkpt>
      <trkpt lat="50.46128" lon="3.50523">
        <ele>33</ele>
        <time>2022-03-22T15:51:15.000Z</time>
      </trkpt>
      <trkpt lat="50.46127" lon="3.50532">
        <ele>33</ele>
        <time>2022-03-22T15:51:17.000Z</time>
      </trkpt>
      <trkpt lat="50.46125" lon="3.50544">
        <ele>33</ele>
        <time>2022-03-22T15:51:19.125Z</time>
      </trkpt>
      <trkpt lat="50.46123" lon="3.50555">
        <ele>33</ele>
        <time>2022-03-22T15:51:21.000Z</time>
      </trkpt>
      <trkpt lat="50.46122" lon="3.50567">
        <ele>33</ele>
        <time>2022-03-22T15:51:23.392Z</time>
      </trkpt>
      <trkpt lat="50.46121" lon="3.5058">
        <ele>33</ele>
        <time>2022-03-22T15:51:26.000Z</time>
      </trkpt>
      <trkpt lat="50.46121" lon="3.5059">
        <ele>33</ele>
        <time>2022-03-22T15:51:28.000Z</time>
      </trkpt>
      <trkpt lat="50.46121" lon="3.50601">
        <ele>33</ele>
        <time>2022-03-22T15:51:30.066Z</time>
      </trkpt>
      <trkpt lat="50.46121" lon="3.5061">
        <ele>33</ele>
        <time>2022-03-22T15:51:32.024Z</time>
      </trkpt>
      <trkpt lat="50.4612" lon="3.5062">
        <ele>33</ele>
        <time>2022-03-22T15:51:34.123Z</time>
      </trkpt>
      <trkpt lat="50.4612" lon="3.50629">
        <ele>33</ele>
        <time>2022-03-22T15:51:36.000Z</time>
      </trkpt>
      <trkpt lat="50.4612" lon="3.50638">
        <ele>33</ele>
        <time>2022-03-22T15:51:37.947Z</time>
      </trkpt>
      <trkpt lat="50.4612" lon="3.50649">
        <ele>33</ele>
        <time>2022-03-22T15:51:40.124Z</time>
      </trkpt>
      <trkpt lat="50.4612" lon="3.50659">
        <ele>33</ele>
        <time>2022-03-22T15:51:42.122Z</time>
      </trkpt>
      <trkpt lat="50.4612" lon="3.50671">
        <ele>33</ele>
        <time>2022-03-22T15:51:45.004Z</time>
      </trkpt>
      <trkpt lat="50.4612" lon="3.50679">
        <ele>33</ele>
        <time>2022-03-22T15:51:46.905Z</time>
      </trkpt>
      <trkpt lat="50.46119" lon="3.50691">
        <ele>33</ele>
        <time>2022-03-22T15:51:49.000Z</time>
      </trkpt>
      <trkpt lat="50.46119" lon="3.50701">
        <ele>33</ele>
        <time>2022-03-22T15:51:51.000Z</time>
      </trkpt>
      <trkpt lat="50.46119" lon="3.50712">
        <ele>33</ele>
        <time>2022-03-22T15:51:53.084Z</time>
      </trkpt>
      <trkpt lat="50.46118" lon="3.50723">
        <ele>33</ele>
        <time>2022-03-22T15:51:55.163Z</time>
      </trkpt>
      <trkpt lat="50.46119" lon="3.50731">
        <ele>33</ele>
        <time>2022-03-22T15:51:56.924Z</time>
      </trkpt>
      <trkpt lat="50.46118" lon="3.50743">
        <ele>33</ele>
        <time>2022-03-22T15:51:59.144Z</time>
      </trkpt>
      <trkpt lat="50.46118" lon="3.50751">
        <ele>33</ele>
        <time>2022-03-22T15:52:00.905Z</time>
      </trkpt>
      <trkpt lat="50.46117" lon="3.50761">
        <ele>33</ele>
        <time>2022-03-22T15:52:03.042Z</time>
      </trkpt>
      <trkpt lat="50.46117" lon="3.50772">
        <ele>33</ele>
        <time>2022-03-22T15:52:05.165Z</time>
      </trkpt>
      <trkpt lat="50.46115" lon="3.50786">
        <ele>33</ele>
        <time>2022-03-22T15:52:07.624Z</time>
      </trkpt>
      <trkpt lat="50.46111" lon="3.50798">
        <ele>33</ele>
        <time>2022-03-22T15:52:10.144Z</time>
      </trkpt>
      <trkpt lat="50.46108" lon="3.50806">
        <ele>33</ele>
        <time>2022-03-22T15:52:12.000Z</time>
      </trkpt>
      <trkpt lat="50.46105" lon="3.50814">
        <ele>33</ele>
        <time>2022-03-22T15:52:13.946Z</time>
      </trkpt>
      <trkpt lat="50.46102" lon="3.50822">
        <ele>33</ele>
        <time>2022-03-22T15:52:16.000Z</time>
      </trkpt>
      <trkpt lat="50.46099" lon="3.50828">
        <ele>33</ele>
        <time>2022-03-22T15:52:18.000Z</time>
      </trkpt>
      <trkpt lat="50.46094" lon="3.50833">
        <ele>33</ele>
        <time>2022-03-22T15:52:20.000Z</time>
      </trkpt>
      <trkpt lat="50.46091" lon="3.50839">
        <ele>33</ele>
        <time>2022-03-22T15:52:21.806Z</time>
      </trkpt>
      <trkpt lat="50.46088" lon="3.50846">
        <ele>33</ele>
        <time>2022-03-22T15:52:23.923Z</time>
      </trkpt>
      <trkpt lat="50.46085" lon="3.50854">
        <ele>33</ele>
        <time>2022-03-22T15:52:26.000Z</time>
      </trkpt>
      <trkpt lat="50.46081" lon="3.50861">
        <ele>33</ele>
        <time>2022-03-22T15:52:28.000Z</time>
      </trkpt>
      <trkpt lat="50.46077" lon="3.50871">
        <ele>33</ele>
        <time>2022-03-22T15:52:30.284Z</time>
      </trkpt>
      <trkpt lat="50.46073" lon="3.50879">
        <ele>33</ele>
        <time>2022-03-22T15:52:32.504Z</time>
      </trkpt>
      <trkpt lat="50.46071" lon="3.50886">
        <ele>33</ele>
        <time>2022-03-22T15:52:34.127Z</time>
      </trkpt>
      <trkpt lat="50.46068" lon="3.50894">
        <ele>33</ele>
        <time>2022-03-22T15:52:36.022Z</time>
      </trkpt>
      <trkpt lat="50.46065" lon="3.50903">
        <ele>33</ele>
        <time>2022-03-22T15:52:38.000Z</time>
      </trkpt>
      <trkpt lat="50.46062" lon="3.50913">
        <ele>33</ele>
        <time>2022-03-22T15:52:40.586Z</time>
      </trkpt>
      <trkpt lat="50.46058" lon="3.50922">
        <ele>33</ele>
        <time>2022-03-22T15:52:42.923Z</time>
      </trkpt>
      <trkpt lat="50.46054" lon="3.50932">
        <ele>33</ele>
        <time>2022-03-22T15:52:45.164Z</time>
      </trkpt>
      <trkpt lat="50.46052" lon="3.50939">
        <ele>33</ele>
        <time>2022-03-22T15:52:46.607Z</time>
      </trkpt>
      <trkpt lat="50.46051" lon="3.50946">
        <ele>33</ele>
        <time>2022-03-22T15:52:48.009Z</time>
      </trkpt>
      <trkpt lat="50.46047" lon="3.50955">
        <ele>33</ele>
        <time>2022-03-22T15:52:49.923Z</time>
      </trkpt>
      <trkpt lat="50.46043" lon="3.50967">
        <ele>33</ele>
        <time>2022-03-22T15:52:52.167Z</time>
      </trkpt>
      <trkpt lat="50.4604" lon="3.50974">
        <ele>33</ele>
        <time>2022-03-22T15:52:53.607Z</time>
      </trkpt>
      <trkpt lat="50.46037" lon="3.50981">
        <ele>32.8</ele>
        <time>2022-03-22T15:52:55.000Z</time>
      </trkpt>
      <trkpt lat="50.46033" lon="3.50993">
        <ele>32.4</ele>
        <time>2022-03-22T15:52:57.067Z</time>
      </trkpt>
      <trkpt lat="50.46029" lon="3.51004">
        <ele>32</ele>
        <time>2022-03-22T15:52:59.103Z</time>
      </trkpt>
      <trkpt lat="50.46025" lon="3.51019">
        <ele>32.1</ele>
        <time>2022-03-22T15:53:01.504Z</time>
      </trkpt>
      <trkpt lat="50.46022" lon="3.51026">
        <ele>32.2</ele>
        <time>2022-03-22T15:53:03.000Z</time>
      </trkpt>
      <trkpt lat="50.46019" lon="3.51038">
        <ele>32.2</ele>
        <time>2022-03-22T15:53:05.000Z</time>
      </trkpt>
      <trkpt lat="50.46016" lon="3.51049">
        <ele>32.1</ele>
        <time>2022-03-22T15:53:06.924Z</time>
      </trkpt>
      <trkpt lat="50.46012" lon="3.5106">
        <ele>32</ele>
        <time>2022-03-22T15:53:09.000Z</time>
      </trkpt>
      <trkpt lat="50.46009" lon="3.51073">
        <ele>32</ele>
        <time>2022-03-22T15:53:11.106Z</time>
      </trkpt>
      <trkpt lat="50.46006" lon="3.51082">
        <ele>32</ele>
        <time>2022-03-22T15:53:12.724Z</time>
      </trkpt>
      <trkpt lat="50.46002" lon="3.51094">
        <ele>32</ele>
        <time>2022-03-22T15:53:14.941Z</time>
      </trkpt>
      <trkpt lat="50.46" lon="3.51104">
        <ele>32</ele>
        <time>2022-03-22T15:53:16.983Z</time>
      </trkpt>
      <trkpt lat="50.45997" lon="3.51114">
        <ele>32.1</ele>
        <time>2022-03-22T15:53:19.000Z</time>
      </trkpt>
      <trkpt lat="50.45995" lon="3.51124">
        <ele>32.2</ele>
        <time>2022-03-22T15:53:21.000Z</time>
      </trkpt>
      <trkpt lat="50.45991" lon="3.51133">
        <ele>32.3</ele>
        <time>2022-03-22T15:53:23.000Z</time>
      </trkpt>
      <trkpt lat="50.45989" lon="3.51143">
        <ele>32.4</ele>
        <time>2022-03-22T15:53:24.962Z</time>
      </trkpt>
      <trkpt lat="50.45987" lon="3.51154">
        <ele>32.5</ele>
        <time>2022-03-22T15:53:27.388Z</time>
      </trkpt>
      <trkpt lat="50.45984" lon="3.51165">
        <ele>32.6</ele>
        <time>2022-03-22T15:53:29.726Z</time>
      </trkpt>
      <trkpt lat="50.4598" lon="3.51176">
        <ele>32.7</ele>
        <time>2022-03-22T15:53:32.049Z</time>
      </trkpt>
      <trkpt lat="50.45976" lon="3.5119">
        <ele>32.9</ele>
        <time>2022-03-22T15:53:34.845Z</time>
      </trkpt>
      <trkpt lat="50.45973" lon="3.51198">
        <ele>33</ele>
        <time>2022-03-22T15:53:36.967Z</time>
      </trkpt>
      <trkpt lat="50.4597" lon="3.51206">
        <ele>33</ele>
        <time>2022-03-22T15:53:39.000Z</time>
      </trkpt>
      <trkpt lat="50.45968" lon="3.51214">
        <ele>33</ele>
        <time>2022-03-22T15:53:41.000Z</time>
      </trkpt>
      <trkpt lat="50.45965" lon="3.51222">
        <ele>33</ele>
        <time>2022-03-22T15:53:43.000Z</time>
      </trkpt>
      <trkpt lat="50.45963" lon="3.51229">
        <ele>33</ele>
        <time>2022-03-22T15:53:45.000Z</time>
      </trkpt>
      <trkpt lat="50.45961" lon="3.51237">
        <ele>33</ele>
        <time>2022-03-22T15:53:47.044Z</time>
      </trkpt>
      <trkpt lat="50.45958" lon="3.51243">
        <ele>33</ele>
        <time>2022-03-22T15:53:49.000Z</time>
      </trkpt>
      <trkpt lat="50.45956" lon="3.5125">
        <ele>33</ele>
        <time>2022-03-22T15:53:51.000Z</time>
      </trkpt>
      <trkpt lat="50.45952" lon="3.5126">
        <ele>33.3</ele>
        <time>2022-03-22T15:53:54.125Z</time>
      </trkpt>
      <trkpt lat="50.45949" lon="3.51266">
        <ele>33.5</ele>
        <time>2022-03-22T15:53:56.646Z</time>
      </trkpt>
      <trkpt lat="50.45946" lon="3.51274">
        <ele>33.8</ele>
        <time>2022-03-22T15:54:00.000Z</time>
      </trkpt>
      <trkpt lat="50.45941" lon="3.51281">
        <ele>34</ele>
        <time>2022-03-22T15:54:03.224Z</time>
      </trkpt>
      <trkpt lat="50.45938" lon="3.51288">
        <ele>34</ele>
        <time>2022-03-22T15:54:05.726Z</time>
      </trkpt>
      <trkpt lat="50.45935" lon="3.51296">
        <ele>34</ele>
        <time>2022-03-22T15:54:07.886Z</time>
      </trkpt>
      <trkpt lat="50.45931" lon="3.51304">
        <ele>34</ele>
        <time>2022-03-22T15:54:10.124Z</time>
      </trkpt>
      <trkpt lat="50.45929" lon="3.51311">
        <ele>34</ele>
        <time>2022-03-22T15:54:11.723Z</time>
      </trkpt>
      <trkpt lat="50.45927" lon="3.51319">
        <ele>34</ele>
        <time>2022-03-22T15:54:14.000Z</time>
      </trkpt>
      <trkpt lat="50.45924" lon="3.51326">
        <ele>34</ele>
        <time>2022-03-22T15:54:16.000Z</time>
      </trkpt>
      <trkpt lat="50.45921" lon="3.51334">
        <ele>34</ele>
        <time>2022-03-22T15:54:18.000Z</time>
      </trkpt>
      <trkpt lat="50.45919" lon="3.51342">
        <ele>34</ele>
        <time>2022-03-22T15:54:19.965Z</time>
      </trkpt>
      <trkpt lat="50.45916" lon="3.51351">
        <ele>34</ele>
        <time>2022-03-22T15:54:22.102Z</time>
      </trkpt>
      <trkpt lat="50.45915" lon="3.51358">
        <ele>34</ele>
        <time>2022-03-22T15:54:23.706Z</time>
      </trkpt>
      <trkpt lat="50.45912" lon="3.51369">
        <ele>34</ele>
        <time>2022-03-22T15:54:26.000Z</time>
      </trkpt>
      <trkpt lat="50.45909" lon="3.51379">
        <ele>34</ele>
        <time>2022-03-22T15:54:28.128Z</time>
      </trkpt>
      <trkpt lat="50.45907" lon="3.51388">
        <ele>34</ele>
        <time>2022-03-22T15:54:30.000Z</time>
      </trkpt>
      <trkpt lat="50.45906" lon="3.51395">
        <ele>34.1</ele>
        <time>2022-03-22T15:54:31.625Z</time>
      </trkpt>
      <trkpt lat="50.45903" lon="3.51405">
        <ele>34.3</ele>
        <time>2022-03-22T15:54:33.822Z</time>
      </trkpt>
      <trkpt lat="50.459" lon="3.51416">
        <ele>34.6</ele>
        <time>2022-03-22T15:54:36.943Z</time>
      </trkpt>
      <trkpt lat="50.45898" lon="3.51425">
        <ele>34.7</ele>
        <time>2022-03-22T15:54:39.084Z</time>
      </trkpt>
      <trkpt lat="50.45896" lon="3.51433">
        <ele>34.7</ele>
        <time>2022-03-22T15:54:41.083Z</time>
      </trkpt>
      <trkpt lat="50.45894" lon="3.5144">
        <ele>34.8</ele>
        <time>2022-03-22T15:54:42.548Z</time>
      </trkpt>
      <trkpt lat="50.45892" lon="3.5145">
        <ele>34.9</ele>
        <time>2022-03-22T15:54:45.004Z</time>
      </trkpt>
      <trkpt lat="50.45889" lon="3.51457">
        <ele>35</ele>
        <time>2022-03-22T15:54:46.945Z</time>
      </trkpt>
      <trkpt lat="50.45887" lon="3.51467">
        <ele>34.9</ele>
        <time>2022-03-22T15:54:49.000Z</time>
      </trkpt>
      <trkpt lat="50.45885" lon="3.51475">
        <ele>34.8</ele>
        <time>2022-03-22T15:54:51.000Z</time>
      </trkpt>
      <trkpt lat="50.45882" lon="3.5149">
        <ele>34.3</ele>
        <time>2022-03-22T15:54:54.002Z</time>
      </trkpt>
      <trkpt lat="50.45881" lon="3.51499">
        <ele>34</ele>
        <time>2022-03-22T15:54:55.987Z</time>
      </trkpt>
      <trkpt lat="50.45879" lon="3.51509">
        <ele>34</ele>
        <time>2022-03-22T15:54:58.000Z</time>
      </trkpt>
      <trkpt lat="50.45877" lon="3.51519">
        <ele>34</ele>
        <time>2022-03-22T15:55:00.067Z</time>
      </trkpt>
      <trkpt lat="50.45876" lon="3.5153">
        <ele>34</ele>
        <time>2022-03-22T15:55:02.462Z</time>
      </trkpt>
      <trkpt lat="50.45876" lon="3.51541">
        <ele>33.7</ele>
        <time>2022-03-22T15:55:04.983Z</time>
      </trkpt>
      <trkpt lat="50.45873" lon="3.51556">
        <ele>33.6</ele>
        <time>2022-03-22T15:55:08.000Z</time>
      </trkpt>
      <trkpt lat="50.45869" lon="3.5157">
        <ele>33.7</ele>
        <time>2022-03-22T15:55:10.626Z</time>
      </trkpt>
      <trkpt lat="50.45866" lon="3.51578">
        <ele>33.8</ele>
        <time>2022-03-22T15:55:12.000Z</time>
      </trkpt>
      <trkpt lat="50.45862" lon="3.5159">
        <ele>33.7</ele>
        <time>2022-03-22T15:55:14.146Z</time>
      </trkpt>
      <trkpt lat="50.45859" lon="3.51601">
        <ele>33.4</ele>
        <time>2022-03-22T15:55:16.000Z</time>
      </trkpt>
      <trkpt lat="50.45857" lon="3.51608">
        <ele>33.1</ele>
        <time>2022-03-22T15:55:17.000Z</time>
      </trkpt>
      <trkpt lat="50.45854" lon="3.51614">
        <ele>33</ele>
        <time>2022-03-22T15:55:18.000Z</time>
      </trkpt>
      <trkpt lat="50.45852" lon="3.5162">
        <ele>33</ele>
        <time>2022-03-22T15:55:19.000Z</time>
      </trkpt>
      <trkpt lat="50.45849" lon="3.51626">
        <ele>33</ele>
        <time>2022-03-22T15:55:20.000Z</time>
      </trkpt>
      <trkpt lat="50.45847" lon="3.51633">
        <ele>33</ele>
        <time>2022-03-22T15:55:21.000Z</time>
      </trkpt>
      <trkpt lat="50.45845" lon="3.51639">
        <ele>33</ele>
        <time>2022-03-22T15:55:22.000Z</time>
      </trkpt>
      <trkpt lat="50.45842" lon="3.51645">
        <ele>32.9</ele>
        <time>2022-03-22T15:55:23.000Z</time>
      </trkpt>
      <trkpt lat="50.4584" lon="3.51652">
        <ele>32.9</ele>
        <time>2022-03-22T15:55:24.000Z</time>
      </trkpt>
      <trkpt lat="50.45838" lon="3.51659">
        <ele>32.9</ele>
        <time>2022-03-22T15:55:25.000Z</time>
      </trkpt>
      <trkpt lat="50.45836" lon="3.51666">
        <ele>32.9</ele>
        <time>2022-03-22T15:55:26.000Z</time>
      </trkpt>
      <trkpt lat="50.45831" lon="3.51678">
        <ele>32.6</ele>
        <time>2022-03-22T15:55:28.000Z</time>
      </trkpt>
      <trkpt lat="50.45829" lon="3.51684">
        <ele>32.5</ele>
        <time>2022-03-22T15:55:29.000Z</time>
      </trkpt>
      <trkpt lat="50.45827" lon="3.51691">
        <ele>32.3</ele>
        <time>2022-03-22T15:55:30.000Z</time>
      </trkpt>
      <trkpt lat="50.45824" lon="3.51697">
        <ele>32.3</ele>
        <time>2022-03-22T15:55:31.000Z</time>
      </trkpt>
      <trkpt lat="50.45821" lon="3.51707">
        <ele>32.4</ele>
        <time>2022-03-22T15:55:33.000Z</time>
      </trkpt>
      <trkpt lat="50.45818" lon="3.51716">
        <ele>32.6</ele>
        <time>2022-03-22T15:55:35.000Z</time>
      </trkpt>
      <trkpt lat="50.45813" lon="3.51723">
        <ele>32.7</ele>
        <time>2022-03-22T15:55:36.000Z</time>
      </trkpt>
      <trkpt lat="50.4581" lon="3.5173">
        <ele>32.6</ele>
        <time>2022-03-22T15:55:37.000Z</time>
      </trkpt>
      <trkpt lat="50.45807" lon="3.51737">
        <ele>32.4</ele>
        <time>2022-03-22T15:55:38.000Z</time>
      </trkpt>
      <trkpt lat="50.45805" lon="3.51743">
        <ele>32.3</ele>
        <time>2022-03-22T15:55:39.000Z</time>
      </trkpt>
      <trkpt lat="50.45802" lon="3.5175">
        <ele>32</ele>
        <time>2022-03-22T15:55:40.000Z</time>
      </trkpt>
      <trkpt lat="50.45798" lon="3.51755">
        <ele>32</ele>
        <time>2022-03-22T15:55:41.000Z</time>
      </trkpt>
      <trkpt lat="50.45795" lon="3.51761">
        <ele>32</ele>
        <time>2022-03-22T15:55:42.000Z</time>
      </trkpt>
      <trkpt lat="50.45792" lon="3.51766">
        <ele>32</ele>
        <time>2022-03-22T15:55:43.000Z</time>
      </trkpt>
      <trkpt lat="50.45788" lon="3.51771">
        <ele>32</ele>
        <time>2022-03-22T15:55:44.000Z</time>
      </trkpt>
      <trkpt lat="50.45784" lon="3.51776">
        <ele>32</ele>
        <time>2022-03-22T15:55:45.000Z</time>
      </trkpt>
      <trkpt lat="50.45782" lon="3.51782">
        <ele>31.8</ele>
        <time>2022-03-22T15:55:46.000Z</time>
      </trkpt>
      <trkpt lat="50.45776" lon="3.51792">
        <ele>31.5</ele>
        <time>2022-03-22T15:55:48.000Z</time>
      </trkpt>
      <trkpt lat="50.4577" lon="3.51798">
        <ele>31.5</ele>
        <time>2022-03-22T15:55:50.000Z</time>
      </trkpt>
      <trkpt lat="50.45765" lon="3.51806">
        <ele>31.5</ele>
        <time>2022-03-22T15:55:52.000Z</time>
      </trkpt>
      <trkpt lat="50.45759" lon="3.51816">
        <ele>31.7</ele>
        <time>2022-03-22T15:55:54.000Z</time>
      </trkpt>
      <trkpt lat="50.45755" lon="3.51824">
        <ele>31.8</ele>
        <time>2022-03-22T15:55:56.000Z</time>
      </trkpt>
      <trkpt lat="50.45752" lon="3.51832">
        <ele>31.9</ele>
        <time>2022-03-22T15:55:58.000Z</time>
      </trkpt>
      <trkpt lat="50.45747" lon="3.51841">
        <ele>32</ele>
        <time>2022-03-22T15:56:00.000Z</time>
      </trkpt>
      <trkpt lat="50.45744" lon="3.51847">
        <ele>32</ele>
        <time>2022-03-22T15:56:02.000Z</time>
      </trkpt>
      <trkpt lat="50.45741" lon="3.51854">
        <ele>32</ele>
        <time>2022-03-22T15:56:04.000Z</time>
      </trkpt>
      <trkpt lat="50.45738" lon="3.5186">
        <ele>32</ele>
        <time>2022-03-22T15:56:06.080Z</time>
      </trkpt>
      <trkpt lat="50.45732" lon="3.5187">
        <ele>31.9</ele>
        <time>2022-03-22T15:56:09.000Z</time>
      </trkpt>
      <trkpt lat="50.45728" lon="3.51877">
        <ele>31.9</ele>
        <time>2022-03-22T15:56:11.000Z</time>
      </trkpt>
      <trkpt lat="50.45725" lon="3.51885">
        <ele>31.9</ele>
        <time>2022-03-22T15:56:13.059Z</time>
      </trkpt>
      <trkpt lat="50.45722" lon="3.51893">
        <ele>31.9</ele>
        <time>2022-03-22T15:56:15.254Z</time>
      </trkpt>
      <trkpt lat="50.45717" lon="3.51904">
        <ele>31.6</ele>
        <time>2022-03-22T15:56:18.000Z</time>
      </trkpt>
      <trkpt lat="50.45714" lon="3.51912">
        <ele>31.4</ele>
        <time>2022-03-22T15:56:19.898Z</time>
      </trkpt>
      <trkpt lat="50.45712" lon="3.5192">
        <ele>31.4</ele>
        <time>2022-03-22T15:56:21.939Z</time>
      </trkpt>
      <trkpt lat="50.45709" lon="3.51929">
        <ele>31.5</ele>
        <time>2022-03-22T15:56:24.000Z</time>
      </trkpt>
      <trkpt lat="50.45705" lon="3.5194">
        <ele>31.6</ele>
        <time>2022-03-22T15:56:26.593Z</time>
      </trkpt>
      <trkpt lat="50.45703" lon="3.51952">
        <ele>31.7</ele>
        <time>2022-03-22T15:56:28.895Z</time>
      </trkpt>
      <trkpt lat="50.457" lon="3.51962">
        <ele>31.8</ele>
        <time>2022-03-22T15:56:31.000Z</time>
      </trkpt>
      <trkpt lat="50.45698" lon="3.51975">
        <ele>31.9</ele>
        <time>2022-03-22T15:56:33.438Z</time>
      </trkpt>
      <trkpt lat="50.45697" lon="3.51982">
        <ele>31.9</ele>
        <time>2022-03-22T15:56:34.798Z</time>
      </trkpt>
      <trkpt lat="50.45695" lon="3.51994">
        <ele>32</ele>
        <time>2022-03-22T15:56:37.057Z</time>
      </trkpt>
      <trkpt lat="50.45693" lon="3.52005">
        <ele>31.8</ele>
        <time>2022-03-22T15:56:38.997Z</time>
      </trkpt>
      <trkpt lat="50.45692" lon="3.52016">
        <ele>31.4</ele>
        <time>2022-03-22T15:56:41.058Z</time>
      </trkpt>
      <trkpt lat="50.45691" lon="3.52025">
        <ele>31.1</ele>
        <time>2022-03-22T15:56:42.655Z</time>
      </trkpt>
      <trkpt lat="50.45689" lon="3.52032">
        <ele>31</ele>
        <time>2022-03-22T15:56:44.000Z</time>
      </trkpt>
      <trkpt lat="50.45688" lon="3.52044">
        <ele>31</ele>
        <time>2022-03-22T15:56:46.000Z</time>
      </trkpt>
      <trkpt lat="50.45687" lon="3.52055">
        <ele>31</ele>
        <time>2022-03-22T15:56:48.058Z</time>
      </trkpt>
      <trkpt lat="50.45685" lon="3.52066">
        <ele>31</ele>
        <time>2022-03-22T15:56:50.000Z</time>
      </trkpt>
      <trkpt lat="50.45683" lon="3.52077">
        <ele>31</ele>
        <time>2022-03-22T15:56:52.000Z</time>
      </trkpt>
      <trkpt lat="50.45682" lon="3.52088">
        <ele>31</ele>
        <time>2022-03-22T15:56:54.000Z</time>
      </trkpt>
      <trkpt lat="50.4568" lon="3.52099">
        <ele>31</ele>
        <time>2022-03-22T15:56:56.000Z</time>
      </trkpt>
      <trkpt lat="50.45679" lon="3.52111">
        <ele>31</ele>
        <time>2022-03-22T15:56:58.000Z</time>
      </trkpt>
      <trkpt lat="50.45678" lon="3.52121">
        <ele>31</ele>
        <time>2022-03-22T15:57:00.036Z</time>
      </trkpt>
      <trkpt lat="50.45676" lon="3.52135">
        <ele>31</ele>
        <time>2022-03-22T15:57:02.698Z</time>
      </trkpt>
      <trkpt lat="50.45676" lon="3.52142">
        <ele>31</ele>
        <time>2022-03-22T15:57:04.000Z</time>
      </trkpt>
      <trkpt lat="50.45675" lon="3.52153">
        <ele>30.8</ele>
        <time>2022-03-22T15:57:05.679Z</time>
      </trkpt>
      <trkpt lat="50.45675" lon="3.5216">
        <ele>30.8</ele>
        <time>2022-03-22T15:57:06.797Z</time>
      </trkpt>
      <trkpt lat="50.45674" lon="3.52167">
        <ele>30.7</ele>
        <time>2022-03-22T15:57:07.997Z</time>
      </trkpt>
      <trkpt lat="50.45673" lon="3.52182">
        <ele>30.3</ele>
        <time>2022-03-22T15:57:10.436Z</time>
      </trkpt>
      <trkpt lat="50.45672" lon="3.52196">
        <ele>30</ele>
        <time>2022-03-22T15:57:12.899Z</time>
      </trkpt>
      <trkpt lat="50.45671" lon="3.5221">
        <ele>30</ele>
        <time>2022-03-22T15:57:15.000Z</time>
      </trkpt>
      <trkpt lat="50.45669" lon="3.52223">
        <ele>30</ele>
        <time>2022-03-22T15:57:17.095Z</time>
      </trkpt>
      <trkpt lat="50.45669" lon="3.52231">
        <ele>29.7</ele>
        <time>2022-03-22T15:57:18.137Z</time>
      </trkpt>
      <trkpt lat="50.45669" lon="3.52247">
        <ele>29.1</ele>
        <time>2022-03-22T15:57:20.000Z</time>
      </trkpt>
      <trkpt lat="50.45668" lon="3.52254">
        <ele>28.9</ele>
        <time>2022-03-22T15:57:21.000Z</time>
      </trkpt>
      <trkpt lat="50.45667" lon="3.52261">
        <ele>28.6</ele>
        <time>2022-03-22T15:57:22.000Z</time>
      </trkpt>
      <trkpt lat="50.45666" lon="3.52268">
        <ele>28.3</ele>
        <time>2022-03-22T15:57:23.000Z</time>
      </trkpt>
      <trkpt lat="50.45664" lon="3.52281">
        <ele>28</ele>
        <time>2022-03-22T15:57:25.000Z</time>
      </trkpt>
      <trkpt lat="50.45661" lon="3.52298">
        <ele>27.9</ele>
        <time>2022-03-22T15:57:28.000Z</time>
      </trkpt>
      <trkpt lat="50.45659" lon="3.52308">
        <ele>27.6</ele>
        <time>2022-03-22T15:57:29.000Z</time>
      </trkpt>
      <trkpt lat="50.45659" lon="3.52318">
        <ele>27.3</ele>
        <time>2022-03-22T15:57:30.000Z</time>
      </trkpt>
      <trkpt lat="50.45659" lon="3.52327">
        <ele>27</ele>
        <time>2022-03-22T15:57:31.000Z</time>
      </trkpt>
      <trkpt lat="50.45658" lon="3.52337">
        <ele>26.6</ele>
        <time>2022-03-22T15:57:32.000Z</time>
      </trkpt>
      <trkpt lat="50.45658" lon="3.52347">
        <ele>26.2</ele>
        <time>2022-03-22T15:57:33.000Z</time>
      </trkpt>
      <trkpt lat="50.45658" lon="3.52356">
        <ele>25.9</ele>
        <time>2022-03-22T15:57:34.000Z</time>
      </trkpt>
      <trkpt lat="50.45658" lon="3.52366">
        <ele>25.7</ele>
        <time>2022-03-22T15:57:35.000Z</time>
      </trkpt>
      <trkpt lat="50.45659" lon="3.52375">
        <ele>25.7</ele>
        <time>2022-03-22T15:57:36.000Z</time>
      </trkpt>
      <trkpt lat="50.45659" lon="3.52384">
        <ele>25.7</ele>
        <time>2022-03-22T15:57:37.000Z</time>
      </trkpt>
      <trkpt lat="50.45659" lon="3.52392">
        <ele>25.6</ele>
        <time>2022-03-22T15:57:38.000Z</time>
      </trkpt>
      <trkpt lat="50.45658" lon="3.52404">
        <ele>25.1</ele>
        <time>2022-03-22T15:57:40.000Z</time>
      </trkpt>
      <trkpt lat="50.45655" lon="3.52408">
        <ele>24.9</ele>
        <time>2022-03-22T15:57:43.000Z</time>
      </trkpt>
      <trkpt lat="50.45656" lon="3.524">
        <ele>25.2</ele>
        <time>2022-03-22T15:57:47.000Z</time>
      </trkpt>
      <trkpt lat="50.45651" lon="3.52406">
        <ele>24.8</ele>
        <time>2022-03-22T15:57:57.000Z</time>
      </trkpt>
      <trkpt lat="50.45651" lon="3.52419">
        <ele>24.4</ele>
        <time>2022-03-22T15:57:59.000Z</time>
      </trkpt>
      <trkpt lat="50.45654" lon="3.52434">
        <ele>24.2</ele>
        <time>2022-03-22T15:58:01.576Z</time>
      </trkpt>
      <trkpt lat="50.45655" lon="3.52442">
        <ele>24.1</ele>
        <time>2022-03-22T15:58:03.000Z</time>
      </trkpt>
      <trkpt lat="50.45656" lon="3.52455">
        <ele>23.9</ele>
        <time>2022-03-22T15:58:05.000Z</time>
      </trkpt>
      <trkpt lat="50.45656" lon="3.52469">
        <ele>23.7</ele>
        <time>2022-03-22T15:58:07.000Z</time>
      </trkpt>
      <trkpt lat="50.45656" lon="3.52482">
        <ele>23.4</ele>
        <time>2022-03-22T15:58:09.000Z</time>
      </trkpt>
      <trkpt lat="50.45653" lon="3.52491">
        <ele>23.2</ele>
        <time>2022-03-22T15:58:11.000Z</time>
      </trkpt>
      <trkpt lat="50.45652" lon="3.52499">
        <ele>23</ele>
        <time>2022-03-22T15:58:15.000Z</time>
      </trkpt>
      <trkpt lat="50.45652" lon="3.52509">
        <ele>23</ele>
        <time>2022-03-22T15:58:17.000Z</time>
      </trkpt>
      <trkpt lat="50.45651" lon="3.52522">
        <ele>23</ele>
        <time>2022-03-22T15:58:19.000Z</time>
      </trkpt>
      <trkpt lat="50.4565" lon="3.52533">
        <ele>22.8</ele>
        <time>2022-03-22T15:58:21.086Z</time>
      </trkpt>
      <trkpt lat="50.45643" lon="3.52531">
        <ele>22.9</ele>
        <time>2022-03-22T15:58:24.000Z</time>
      </trkpt>
      <trkpt lat="50.45637" lon="3.52528">
        <ele>22.9</ele>
        <time>2022-03-22T15:58:26.000Z</time>
      </trkpt>
      <trkpt lat="50.45633" lon="3.52524">
        <ele>22.8</ele>
        <time>2022-03-22T15:58:27.106Z</time>
      </trkpt>
      <trkpt lat="50.45627" lon="3.52516">
        <ele>22.6</ele>
        <time>2022-03-22T15:58:28.283Z</time>
      </trkpt>
      <trkpt lat="50.4562" lon="3.52507">
        <ele>22.3</ele>
        <time>2022-03-22T15:58:30.000Z</time>
      </trkpt>
      <trkpt lat="50.45617" lon="3.52502">
        <ele>22.2</ele>
        <time>2022-03-22T15:58:31.044Z</time>
      </trkpt>
      <trkpt lat="50.45613" lon="3.52498">
        <ele>22.1</ele>
        <time>2022-03-22T15:58:32.000Z</time>
      </trkpt>
      <trkpt lat="50.45608" lon="3.52494">
        <ele>22.2</ele>
        <time>2022-03-22T15:58:33.000Z</time>
      </trkpt>
      <trkpt lat="50.45604" lon="3.5249">
        <ele>22.3</ele>
        <time>2022-03-22T15:58:34.000Z</time>
      </trkpt>
      <trkpt lat="50.456" lon="3.52486">
        <ele>22.3</ele>
        <time>2022-03-22T15:58:35.000Z</time>
      </trkpt>
      <trkpt lat="50.45588" lon="3.52474">
        <ele>22.2</ele>
        <time>2022-03-22T15:58:38.000Z</time>
      </trkpt>
      <trkpt lat="50.45584" lon="3.52472">
        <ele>22</ele>
        <time>2022-03-22T15:58:39.000Z</time>
      </trkpt>
      <trkpt lat="50.45579" lon="3.52469">
        <ele>21.8</ele>
        <time>2022-03-22T15:58:40.000Z</time>
      </trkpt>
      <trkpt lat="50.45575" lon="3.52466">
        <ele>21.7</ele>
        <time>2022-03-22T15:58:41.000Z</time>
      </trkpt>
      <trkpt lat="50.4557" lon="3.52462">
        <ele>21.5</ele>
        <time>2022-03-22T15:58:42.000Z</time>
      </trkpt>
      <trkpt lat="50.45566" lon="3.52458">
        <ele>21.4</ele>
        <time>2022-03-22T15:58:43.000Z</time>
      </trkpt>
      <trkpt lat="50.45561" lon="3.52454">
        <ele>21.2</ele>
        <time>2022-03-22T15:58:44.000Z</time>
      </trkpt>
      <trkpt lat="50.45557" lon="3.5245">
        <ele>21.1</ele>
        <time>2022-03-22T15:58:45.000Z</time>
      </trkpt>
      <trkpt lat="50.45553" lon="3.52445">
        <ele>21</ele>
        <time>2022-03-22T15:58:46.000Z</time>
      </trkpt>
      <trkpt lat="50.45548" lon="3.5244">
        <ele>21.1</ele>
        <time>2022-03-22T15:58:47.000Z</time>
      </trkpt>
      <trkpt lat="50.45543" lon="3.52436">
        <ele>21.2</ele>
        <time>2022-03-22T15:58:48.000Z</time>
      </trkpt>
      <trkpt lat="50.45539" lon="3.52431">
        <ele>21.2</ele>
        <time>2022-03-22T15:58:49.000Z</time>
      </trkpt>
      <trkpt lat="50.45534" lon="3.52426">
        <ele>21.1</ele>
        <time>2022-03-22T15:58:50.000Z</time>
      </trkpt>
      <trkpt lat="50.45529" lon="3.52421">
        <ele>21</ele>
        <time>2022-03-22T15:58:51.000Z</time>
      </trkpt>
      <trkpt lat="50.45524" lon="3.52417">
        <ele>21</ele>
        <time>2022-03-22T15:58:52.000Z</time>
      </trkpt>
      <trkpt lat="50.4552" lon="3.52413">
        <ele>21.1</ele>
        <time>2022-03-22T15:58:53.000Z</time>
      </trkpt>
      <trkpt lat="50.45515" lon="3.52408">
        <ele>21.2</ele>
        <time>2022-03-22T15:58:54.000Z</time>
      </trkpt>
      <trkpt lat="50.45511" lon="3.52403">
        <ele>21.2</ele>
        <time>2022-03-22T15:58:55.000Z</time>
      </trkpt>
      <trkpt lat="50.45507" lon="3.52399">
        <ele>21.2</ele>
        <time>2022-03-22T15:58:56.000Z</time>
      </trkpt>
      <trkpt lat="50.45503" lon="3.52395">
        <ele>21.1</ele>
        <time>2022-03-22T15:58:57.000Z</time>
      </trkpt>
      <trkpt lat="50.45498" lon="3.52391">
        <ele>21</ele>
        <time>2022-03-22T15:58:58.000Z</time>
      </trkpt>
      <trkpt lat="50.45494" lon="3.52387">
        <ele>21.1</ele>
        <time>2022-03-22T15:58:59.000Z</time>
      </trkpt>
      <trkpt lat="50.4549" lon="3.52383">
        <ele>21.1</ele>
        <time>2022-03-22T15:59:00.000Z</time>
      </trkpt>
      <trkpt lat="50.45486" lon="3.52379">
        <ele>21.2</ele>
        <time>2022-03-22T15:59:01.000Z</time>
      </trkpt>
      <trkpt lat="50.45481" lon="3.52376">
        <ele>21.1</ele>
        <time>2022-03-22T15:59:02.000Z</time>
      </trkpt>
      <trkpt lat="50.45477" lon="3.52372">
        <ele>21.1</ele>
        <time>2022-03-22T15:59:03.000Z</time>
      </trkpt>
      <trkpt lat="50.45474" lon="3.52368">
        <ele>21</ele>
        <time>2022-03-22T15:59:04.000Z</time>
      </trkpt>
      <trkpt lat="50.4547" lon="3.52363">
        <ele>20.9</ele>
        <time>2022-03-22T15:59:05.000Z</time>
      </trkpt>
      <trkpt lat="50.45466" lon="3.52359">
        <ele>20.8</ele>
        <time>2022-03-22T15:59:06.000Z</time>
      </trkpt>
      <trkpt lat="50.45462" lon="3.52355">
        <ele>20.7</ele>
        <time>2022-03-22T15:59:07.000Z</time>
      </trkpt>
      <trkpt lat="50.45455" lon="3.52348">
        <ele>20.7</ele>
        <time>2022-03-22T15:59:09.000Z</time>
      </trkpt>
      <trkpt lat="50.45451" lon="3.52345">
        <ele>20.7</ele>
        <time>2022-03-22T15:59:10.000Z</time>
      </trkpt>
      <trkpt lat="50.45446" lon="3.52341">
        <ele>20.7</ele>
        <time>2022-03-22T15:59:11.000Z</time>
      </trkpt>
      <trkpt lat="50.45442" lon="3.52338">
        <ele>20.8</ele>
        <time>2022-03-22T15:59:12.000Z</time>
      </trkpt>
      <trkpt lat="50.45438" lon="3.52334">
        <ele>20.7</ele>
        <time>2022-03-22T15:59:13.000Z</time>
      </trkpt>
      <trkpt lat="50.4543" lon="3.52325">
        <ele>20.5</ele>
        <time>2022-03-22T15:59:15.000Z</time>
      </trkpt>
      <trkpt lat="50.45426" lon="3.52322">
        <ele>20.3</ele>
        <time>2022-03-22T15:59:16.000Z</time>
      </trkpt>
      <trkpt lat="50.45421" lon="3.52319">
        <ele>20.2</ele>
        <time>2022-03-22T15:59:17.000Z</time>
      </trkpt>
      <trkpt lat="50.45417" lon="3.52315">
        <ele>20</ele>
        <time>2022-03-22T15:59:18.000Z</time>
      </trkpt>
      <trkpt lat="50.45412" lon="3.52311">
        <ele>20</ele>
        <time>2022-03-22T15:59:19.000Z</time>
      </trkpt>
      <trkpt lat="50.45408" lon="3.52307">
        <ele>20</ele>
        <time>2022-03-22T15:59:20.000Z</time>
      </trkpt>
      <trkpt lat="50.45404" lon="3.52303">
        <ele>20.1</ele>
        <time>2022-03-22T15:59:21.000Z</time>
      </trkpt>
      <trkpt lat="50.454" lon="3.52299">
        <ele>20.1</ele>
        <time>2022-03-22T15:59:22.000Z</time>
      </trkpt>
      <trkpt lat="50.45396" lon="3.52294">
        <ele>20.1</ele>
        <time>2022-03-22T15:59:23.000Z</time>
      </trkpt>
      <trkpt lat="50.45393" lon="3.52289">
        <ele>20.1</ele>
        <time>2022-03-22T15:59:24.000Z</time>
      </trkpt>
      <trkpt lat="50.45388" lon="3.52284">
        <ele>20</ele>
        <time>2022-03-22T15:59:25.000Z</time>
      </trkpt>
      <trkpt lat="50.45384" lon="3.5228">
        <ele>20</ele>
        <time>2022-03-22T15:59:26.000Z</time>
      </trkpt>
      <trkpt lat="50.45378" lon="3.52276">
        <ele>20</ele>
        <time>2022-03-22T15:59:27.000Z</time>
      </trkpt>
      <trkpt lat="50.45373" lon="3.52271">
        <ele>20.1</ele>
        <time>2022-03-22T15:59:28.000Z</time>
      </trkpt>
      <trkpt lat="50.45367" lon="3.52267">
        <ele>20.1</ele>
        <time>2022-03-22T15:59:29.000Z</time>
      </trkpt>
      <trkpt lat="50.45361" lon="3.52262">
        <ele>20</ele>
        <time>2022-03-22T15:59:30.000Z</time>
      </trkpt>
      <trkpt lat="50.45356" lon="3.52258">
        <ele>19.9</ele>
        <time>2022-03-22T15:59:31.000Z</time>
      </trkpt>
      <trkpt lat="50.4535" lon="3.52253">
        <ele>20</ele>
        <time>2022-03-22T15:59:32.000Z</time>
      </trkpt>
      <trkpt lat="50.45345" lon="3.52248">
        <ele>20</ele>
        <time>2022-03-22T15:59:33.000Z</time>
      </trkpt>
      <trkpt lat="50.4534" lon="3.52243">
        <ele>20.1</ele>
        <time>2022-03-22T15:59:34.000Z</time>
      </trkpt>
      <trkpt lat="50.45335" lon="3.52238">
        <ele>20</ele>
        <time>2022-03-22T15:59:35.000Z</time>
      </trkpt>
      <trkpt lat="50.4533" lon="3.52233">
        <ele>20</ele>
        <time>2022-03-22T15:59:36.000Z</time>
      </trkpt>
      <trkpt lat="50.45325" lon="3.52228">
        <ele>20</ele>
        <time>2022-03-22T15:59:37.000Z</time>
      </trkpt>
      <trkpt lat="50.45321" lon="3.52223">
        <ele>20</ele>
        <time>2022-03-22T15:59:38.000Z</time>
      </trkpt>
      <trkpt lat="50.45317" lon="3.52219">
        <ele>20</ele>
        <time>2022-03-22T15:59:39.000Z</time>
      </trkpt>
      <trkpt lat="50.45313" lon="3.52215">
        <ele>20.1</ele>
        <time>2022-03-22T15:59:40.000Z</time>
      </trkpt>
      <trkpt lat="50.45307" lon="3.52209">
        <ele>20</ele>
        <time>2022-03-22T15:59:42.000Z</time>
      </trkpt>
      <trkpt lat="50.453" lon="3.52208">
        <ele>20</ele>
        <time>2022-03-22T15:59:44.000Z</time>
      </trkpt>
      <trkpt lat="50.45295" lon="3.52211">
        <ele>20</ele>
        <time>2022-03-22T15:59:45.000Z</time>
      </trkpt>
      <trkpt lat="50.4529" lon="3.52218">
        <ele>20</ele>
        <time>2022-03-22T15:59:46.000Z</time>
      </trkpt>
      <trkpt lat="50.45286" lon="3.52226">
        <ele>20</ele>
        <time>2022-03-22T15:59:47.000Z</time>
      </trkpt>
      <trkpt lat="50.45282" lon="3.52233">
        <ele>20</ele>
        <time>2022-03-22T15:59:48.000Z</time>
      </trkpt>
      <trkpt lat="50.45277" lon="3.5224">
        <ele>20</ele>
        <time>2022-03-22T15:59:49.000Z</time>
      </trkpt>
      <trkpt lat="50.45273" lon="3.52247">
        <ele>19.8</ele>
        <time>2022-03-22T15:59:50.000Z</time>
      </trkpt>
      <trkpt lat="50.45269" lon="3.52254">
        <ele>19.6</ele>
        <time>2022-03-22T15:59:51.000Z</time>
      </trkpt>
      <trkpt lat="50.45265" lon="3.52261">
        <ele>19.3</ele>
        <time>2022-03-22T15:59:52.000Z</time>
      </trkpt>
      <trkpt lat="50.45262" lon="3.52267">
        <ele>19.2</ele>
        <time>2022-03-22T15:59:53.000Z</time>
      </trkpt>
      <trkpt lat="50.45257" lon="3.52273">
        <ele>19</ele>
        <time>2022-03-22T15:59:54.000Z</time>
      </trkpt>
      <trkpt lat="50.45253" lon="3.52279">
        <ele>19</ele>
        <time>2022-03-22T15:59:55.000Z</time>
      </trkpt>
      <trkpt lat="50.45249" lon="3.52285">
        <ele>19</ele>
        <time>2022-03-22T15:59:56.000Z</time>
      </trkpt>
      <trkpt lat="50.45245" lon="3.52291">
        <ele>19</ele>
        <time>2022-03-22T15:59:57.000Z</time>
      </trkpt>
      <trkpt lat="50.4524" lon="3.52297">
        <ele>19</ele>
        <time>2022-03-22T15:59:58.000Z</time>
      </trkpt>
      <trkpt lat="50.45236" lon="3.52303">
        <ele>19</ele>
        <time>2022-03-22T15:59:59.000Z</time>
      </trkpt>
      <trkpt lat="50.45232" lon="3.52309">
        <ele>19</ele>
        <time>2022-03-22T16:00:00.000Z</time>
      </trkpt>
      <trkpt lat="50.45227" lon="3.52314">
        <ele>19</ele>
        <time>2022-03-22T16:00:01.000Z</time>
      </trkpt>
      <trkpt lat="50.45223" lon="3.5232">
        <ele>19</ele>
        <time>2022-03-22T16:00:02.000Z</time>
      </trkpt>
      <trkpt lat="50.45218" lon="3.52325">
        <ele>19</ele>
        <time>2022-03-22T16:00:03.000Z</time>
      </trkpt>
      <trkpt lat="50.45214" lon="3.52331">
        <ele>19</ele>
        <time>2022-03-22T16:00:04.000Z</time>
      </trkpt>
      <trkpt lat="50.4521" lon="3.52336">
        <ele>19</ele>
        <time>2022-03-22T16:00:05.000Z</time>
      </trkpt>
      <trkpt lat="50.45205" lon="3.52342">
        <ele>19</ele>
        <time>2022-03-22T16:00:06.000Z</time>
      </trkpt>
      <trkpt lat="50.45201" lon="3.52348">
        <ele>19</ele>
        <time>2022-03-22T16:00:07.000Z</time>
      </trkpt>
      <trkpt lat="50.45197" lon="3.52352">
        <ele>19</ele>
        <time>2022-03-22T16:00:08.000Z</time>
      </trkpt>
      <trkpt lat="50.45193" lon="3.52357">
        <ele>19</ele>
        <time>2022-03-22T16:00:09.000Z</time>
      </trkpt>
      <trkpt lat="50.45189" lon="3.52362">
        <ele>19</ele>
        <time>2022-03-22T16:00:10.000Z</time>
      </trkpt>
      <trkpt lat="50.45185" lon="3.52366">
        <ele>19.1</ele>
        <time>2022-03-22T16:00:11.000Z</time>
      </trkpt>
      <trkpt lat="50.45181" lon="3.52371">
        <ele>19.2</ele>
        <time>2022-03-22T16:00:12.000Z</time>
      </trkpt>
      <trkpt lat="50.45178" lon="3.52376">
        <ele>19.3</ele>
        <time>2022-03-22T16:00:13.000Z</time>
      </trkpt>
      <trkpt lat="50.45174" lon="3.52381">
        <ele>19.5</ele>
        <time>2022-03-22T16:00:14.000Z</time>
      </trkpt>
      <trkpt lat="50.45171" lon="3.52386">
        <ele>19.8</ele>
        <time>2022-03-22T16:00:15.000Z</time>
      </trkpt>
      <trkpt lat="50.45164" lon="3.52395">
        <ele>20</ele>
        <time>2022-03-22T16:00:17.000Z</time>
      </trkpt>
      <trkpt lat="50.45157" lon="3.52402">
        <ele>20.2</ele>
        <time>2022-03-22T16:00:19.000Z</time>
      </trkpt>
      <trkpt lat="50.45152" lon="3.5241">
        <ele>20.4</ele>
        <time>2022-03-22T16:00:21.000Z</time>
      </trkpt>
      <trkpt lat="50.45146" lon="3.52418">
        <ele>20.7</ele>
        <time>2022-03-22T16:00:23.000Z</time>
      </trkpt>
      <trkpt lat="50.45141" lon="3.52426">
        <ele>20.9</ele>
        <time>2022-03-22T16:00:25.000Z</time>
      </trkpt>
      <trkpt lat="50.45136" lon="3.52429">
        <ele>21</ele>
        <time>2022-03-22T16:00:27.000Z</time>
      </trkpt>
      <trkpt lat="50.45131" lon="3.52438">
        <ele>21.2</ele>
        <time>2022-03-22T16:00:29.000Z</time>
      </trkpt>
      <trkpt lat="50.45127" lon="3.52448">
        <ele>21.6</ele>
        <time>2022-03-22T16:00:31.000Z</time>
      </trkpt>
      <trkpt lat="50.45124" lon="3.52457">
        <ele>22</ele>
        <time>2022-03-22T16:00:33.000Z</time>
      </trkpt>
      <trkpt lat="50.45121" lon="3.52464">
        <ele>22.3</ele>
        <time>2022-03-22T16:00:35.000Z</time>
      </trkpt>
      <trkpt lat="50.45118" lon="3.52473">
        <ele>22.8</ele>
        <time>2022-03-22T16:00:37.000Z</time>
      </trkpt>
      <trkpt lat="50.45115" lon="3.52478">
        <ele>23</ele>
        <time>2022-03-22T16:00:39.000Z</time>
      </trkpt>
      <trkpt lat="50.45111" lon="3.52485">
        <ele>23.5</ele>
        <time>2022-03-22T16:00:41.000Z</time>
      </trkpt>
      <trkpt lat="50.45107" lon="3.52492">
        <ele>23.8</ele>
        <time>2022-03-22T16:00:43.000Z</time>
      </trkpt>
      <trkpt lat="50.45103" lon="3.525">
        <ele>24</ele>
        <time>2022-03-22T16:00:45.000Z</time>
      </trkpt>
      <trkpt lat="50.45098" lon="3.52506">
        <ele>24.2</ele>
        <time>2022-03-22T16:00:47.000Z</time>
      </trkpt>
      <trkpt lat="50.45094" lon="3.52513">
        <ele>24.5</ele>
        <time>2022-03-22T16:00:49.000Z</time>
      </trkpt>
      <trkpt lat="50.45089" lon="3.5252">
        <ele>24.7</ele>
        <time>2022-03-22T16:00:51.000Z</time>
      </trkpt>
      <trkpt lat="50.45086" lon="3.52527">
        <ele>25</ele>
        <time>2022-03-22T16:00:53.000Z</time>
      </trkpt>
      <trkpt lat="50.45083" lon="3.52534">
        <ele>25.2</ele>
        <time>2022-03-22T16:00:55.000Z</time>
      </trkpt>
      <trkpt lat="50.4508" lon="3.52541">
        <ele>25.6</ele>
        <time>2022-03-22T16:00:57.000Z</time>
      </trkpt>
      <trkpt lat="50.45077" lon="3.52546">
        <ele>25.9</ele>
        <time>2022-03-22T16:00:59.000Z</time>
      </trkpt>
      <trkpt lat="50.45074" lon="3.52552">
        <ele>26.2</ele>
        <time>2022-03-22T16:01:01.000Z</time>
      </trkpt>
      <trkpt lat="50.45071" lon="3.52557">
        <ele>26.5</ele>
        <time>2022-03-22T16:01:03.000Z</time>
      </trkpt>
      <trkpt lat="50.45067" lon="3.52563">
        <ele>26.7</ele>
        <time>2022-03-22T16:01:05.000Z</time>
      </trkpt>
      <trkpt lat="50.45063" lon="3.52568">
        <ele>26.9</ele>
        <time>2022-03-22T16:01:07.000Z</time>
      </trkpt>
      <trkpt lat="50.45059" lon="3.52572">
        <ele>26.9</ele>
        <time>2022-03-22T16:01:09.000Z</time>
      </trkpt>
      <trkpt lat="50.45054" lon="3.52576">
        <ele>27</ele>
        <time>2022-03-22T16:01:11.000Z</time>
      </trkpt>
      <trkpt lat="50.4505" lon="3.52579">
        <ele>27.2</ele>
        <time>2022-03-22T16:01:13.000Z</time>
      </trkpt>
      <trkpt lat="50.45045" lon="3.52582">
        <ele>27.4</ele>
        <time>2022-03-22T16:01:15.000Z</time>
      </trkpt>
      <trkpt lat="50.45041" lon="3.52586">
        <ele>27.6</ele>
        <time>2022-03-22T16:01:17.000Z</time>
      </trkpt>
      <trkpt lat="50.45036" lon="3.5259">
        <ele>27.8</ele>
        <time>2022-03-22T16:01:19.000Z</time>
      </trkpt>
      <trkpt lat="50.45031" lon="3.52594">
        <ele>27.9</ele>
        <time>2022-03-22T16:01:21.000Z</time>
      </trkpt>
      <trkpt lat="50.45025" lon="3.52598">
        <ele>28.1</ele>
        <time>2022-03-22T16:01:23.000Z</time>
      </trkpt>
      <trkpt lat="50.4502" lon="3.52602">
        <ele>28.2</ele>
        <time>2022-03-22T16:01:25.000Z</time>
      </trkpt>
      <trkpt lat="50.45015" lon="3.52606">
        <ele>28.4</ele>
        <time>2022-03-22T16:01:27.000Z</time>
      </trkpt>
    </trkseg>
  </trk>
</gpx>